<?xml version="1.0" encoding="UTF-8" standalone="no" ?>
<gpx xmlns="http://www.topografix.com/GPX/1/1" xmlns:xsi="http://www.w3.org/2001/XMLSchema-instance" xsi:schemaLocation="http://www.topografix.com/GPX/1/1 http://www.topografix.com/GPX/1/1/gpx.xsd" version="1.1" creator="VisuGPX - https://www.visugpx.com">
  <metadata>
    <name>SAINT Benoit (86)</name>
    <desc><![CDATA[Randonnée en Boucle de 12,5 Kms au départ du parking Saint Nicolas à Saint Benoit (86)]]></desc>
  </metadata>
  <trk>
    <name><![CDATA[SAINT Benoit (86)_1]]></name>
    <extensions>
      <line xmlns="http://www.topografix.com/GPX/gpx_style/0/2">
        <color>FF0000</color>
        <width>4</width>
      </line>
    </extensions>
    <trkseg>
      <trkpt lat="46.54988" lon="0.33739">
        <ele>73.907209006756</ele>
        <time>2021-09-21T11:49:43Z</time>
      </trkpt>
      <trkpt lat="46.54988" lon="0.33737">
        <ele>73.900781643627</ele>
        <time>2021-09-21T11:49:44Z</time>
      </trkpt>
      <trkpt lat="46.54987" lon="0.33737">
        <ele>73.898903274696</ele>
        <time>2021-09-21T11:49:45Z</time>
      </trkpt>
      <trkpt lat="46.54986" lon="0.33737">
        <ele>73.903330254865</ele>
        <time>2021-09-21T11:49:46Z</time>
      </trkpt>
      <trkpt lat="46.54986" lon="0.33738">
        <ele>73.92088033801</ele>
        <time>2021-09-21T11:49:48Z</time>
      </trkpt>
      <trkpt lat="46.54984" lon="0.3374">
        <ele>73.920173436403</ele>
        <time>2021-09-21T11:49:52Z</time>
      </trkpt>
      <trkpt lat="46.54984" lon="0.3374">
        <ele>73.976040218957</ele>
        <time>2021-09-21T11:50:02Z</time>
      </trkpt>
      <trkpt lat="46.54986" lon="0.33741">
        <ele>74.10318852216</ele>
        <time>2021-09-21T11:50:12Z</time>
      </trkpt>
      <trkpt lat="46.54986" lon="0.33737">
        <ele>74.029857540503</ele>
        <time>2021-09-21T11:50:45Z</time>
      </trkpt>
      <trkpt lat="46.54985" lon="0.33734">
        <ele>73.245428866707</ele>
        <time>2021-09-21T11:50:48Z</time>
      </trkpt>
      <trkpt lat="46.54985" lon="0.33732">
        <ele>73.70549036283</ele>
        <time>2021-09-21T11:50:50Z</time>
      </trkpt>
      <trkpt lat="46.54986" lon="0.33734">
        <ele>74.675768494606</ele>
        <time>2021-09-21T11:50:59Z</time>
      </trkpt>
      <trkpt lat="46.54989" lon="0.33734">
        <ele>75.153460867703</ele>
        <time>2021-09-21T11:51:13Z</time>
      </trkpt>
      <trkpt lat="46.54987" lon="0.33733">
        <ele>74.240768915974</ele>
        <time>2021-09-21T11:51:20Z</time>
      </trkpt>
      <trkpt lat="46.54985" lon="0.33734">
        <ele>73.871048629284</ele>
        <time>2021-09-21T11:51:33Z</time>
      </trkpt>
      <trkpt lat="46.54983" lon="0.33735">
        <ele>74.11337070819</ele>
        <time>2021-09-21T11:51:40Z</time>
      </trkpt>
      <trkpt lat="46.54985" lon="0.33735">
        <ele>74.189575797878</ele>
        <time>2021-09-21T11:52:05Z</time>
      </trkpt>
      <trkpt lat="46.54987" lon="0.33735">
        <ele>74.100258291699</ele>
        <time>2021-09-21T11:52:14Z</time>
      </trkpt>
      <trkpt lat="46.54987" lon="0.33731">
        <ele>74.089562209323</ele>
        <time>2021-09-21T11:52:25Z</time>
      </trkpt>
      <trkpt lat="46.54986" lon="0.33734">
        <ele>73.865207864903</ele>
        <time>2021-09-21T11:52:37Z</time>
      </trkpt>
      <trkpt lat="46.54986" lon="0.33736">
        <ele>74.229135183617</ele>
        <time>2021-09-21T11:52:39Z</time>
      </trkpt>
      <trkpt lat="46.54985" lon="0.3374">
        <ele>74.021326086484</ele>
        <time>2021-09-21T11:52:41Z</time>
      </trkpt>
      <trkpt lat="46.54983" lon="0.33743">
        <ele>73.839327679947</ele>
        <time>2021-09-21T11:52:45Z</time>
      </trkpt>
      <trkpt lat="46.54981" lon="0.33744">
        <ele>73.835705364123</ele>
        <time>2021-09-21T11:52:49Z</time>
      </trkpt>
      <trkpt lat="46.54979" lon="0.33745">
        <ele>74.161328542046</ele>
        <time>2021-09-21T11:53:10Z</time>
      </trkpt>
      <trkpt lat="46.54979" lon="0.33749">
        <ele>73.891838254407</ele>
        <time>2021-09-21T11:53:14Z</time>
      </trkpt>
      <trkpt lat="46.54981" lon="0.33749">
        <ele>73.767536410131</ele>
        <time>2021-09-21T11:53:35Z</time>
      </trkpt>
      <trkpt lat="46.54983" lon="0.33746">
        <ele>73.755649492145</ele>
        <time>2021-09-21T11:53:38Z</time>
      </trkpt>
      <trkpt lat="46.54985" lon="0.33744">
        <ele>73.691872883588</ele>
        <time>2021-09-21T11:53:40Z</time>
      </trkpt>
      <trkpt lat="46.54985" lon="0.33742">
        <ele>73.988019858487</ele>
        <time>2021-09-21T11:53:44Z</time>
      </trkpt>
      <trkpt lat="46.54984" lon="0.33739">
        <ele>74.108473176137</ele>
        <time>2021-09-21T11:53:50Z</time>
      </trkpt>
      <trkpt lat="46.54986" lon="0.33743">
        <ele>73.975382106379</ele>
        <time>2021-09-21T11:53:54Z</time>
      </trkpt>
      <trkpt lat="46.54986" lon="0.33739">
        <ele>73.882952021435</ele>
        <time>2021-09-21T11:53:57Z</time>
      </trkpt>
      <trkpt lat="46.54985" lon="0.33742">
        <ele>73.75526613649</ele>
        <time>2021-09-21T11:54:01Z</time>
      </trkpt>
      <trkpt lat="46.54988" lon="0.33746">
        <ele>73.847141511738</ele>
        <time>2021-09-21T11:54:06Z</time>
      </trkpt>
      <trkpt lat="46.54989" lon="0.33747">
        <ele>73.670466524549</ele>
        <time>2021-09-21T11:54:12Z</time>
      </trkpt>
      <trkpt lat="46.54988" lon="0.33743">
        <ele>73.689099838026</ele>
        <time>2021-09-21T11:54:15Z</time>
      </trkpt>
      <trkpt lat="46.54986" lon="0.33739">
        <ele>73.6054162113</ele>
        <time>2021-09-21T11:54:21Z</time>
      </trkpt>
      <trkpt lat="46.54984" lon="0.33739">
        <ele>73.752113250084</ele>
        <time>2021-09-21T11:54:25Z</time>
      </trkpt>
      <trkpt lat="46.54984" lon="0.33739">
        <ele>73.752113250084</ele>
        <time>2021-09-21T11:54:32Z</time>
      </trkpt>
      <trkpt lat="46.54984" lon="0.33742">
        <ele>73.908820395358</ele>
        <time>2021-09-21T11:54:41Z</time>
      </trkpt>
      <trkpt lat="46.54986" lon="0.33743">
        <ele>74.014524253085</ele>
        <time>2021-09-21T11:54:51Z</time>
      </trkpt>
      <trkpt lat="46.54984" lon="0.33742">
        <ele>73.973627137952</ele>
        <time>2021-09-21T11:54:53Z</time>
      </trkpt>
      <trkpt lat="46.54984" lon="0.33738">
        <ele>73.858283864334</ele>
        <time>2021-09-21T11:54:54Z</time>
      </trkpt>
      <trkpt lat="46.54985" lon="0.33742">
        <ele>73.938823755831</ele>
        <time>2021-09-21T11:54:58Z</time>
      </trkpt>
      <trkpt lat="46.54986" lon="0.33739">
        <ele>74.048413321376</ele>
        <time>2021-09-21T11:55:00Z</time>
      </trkpt>
      <trkpt lat="46.54988" lon="0.33736">
        <ele>73.658437231556</ele>
        <time>2021-09-21T11:55:01Z</time>
      </trkpt>
      <trkpt lat="46.54985" lon="0.3374">
        <ele>73.334845060483</ele>
        <time>2021-09-21T11:55:04Z</time>
      </trkpt>
      <trkpt lat="46.54984" lon="0.33743">
        <ele>73.993732009083</ele>
        <time>2021-09-21T11:55:11Z</time>
      </trkpt>
      <trkpt lat="46.54984" lon="0.3374">
        <ele>73.931255891919</ele>
        <time>2021-09-21T11:55:19Z</time>
      </trkpt>
      <trkpt lat="46.54985" lon="0.33736">
        <ele>74.005879878998</ele>
        <time>2021-09-21T11:55:29Z</time>
      </trkpt>
      <trkpt lat="46.54984" lon="0.33738">
        <ele>73.882517937571</ele>
        <time>2021-09-21T11:55:32Z</time>
      </trkpt>
      <trkpt lat="46.54982" lon="0.3374">
        <ele>74.119232688099</ele>
        <time>2021-09-21T11:55:37Z</time>
      </trkpt>
      <trkpt lat="46.5498" lon="0.3374">
        <ele>74.356503473595</ele>
        <time>2021-09-21T11:55:44Z</time>
      </trkpt>
      <trkpt lat="46.54982" lon="0.33739">
        <ele>74.85452172067</ele>
        <time>2021-09-21T11:56:13Z</time>
      </trkpt>
      <trkpt lat="46.54983" lon="0.33741">
        <ele>73.959696812555</ele>
        <time>2021-09-21T11:56:16Z</time>
      </trkpt>
      <trkpt lat="46.54983" lon="0.33739">
        <ele>74.009916086681</ele>
        <time>2021-09-21T11:56:21Z</time>
      </trkpt>
      <trkpt lat="46.54985" lon="0.33741">
        <ele>73.7524078805</ele>
        <time>2021-09-21T11:57:07Z</time>
      </trkpt>
      <trkpt lat="46.54987" lon="0.33741">
        <ele>73.728301417083</ele>
        <time>2021-09-21T11:57:16Z</time>
      </trkpt>
      <trkpt lat="46.54986" lon="0.33738">
        <ele>73.633586122654</ele>
        <time>2021-09-21T11:57:28Z</time>
      </trkpt>
      <trkpt lat="46.54988" lon="0.33737">
        <ele>74.000906202011</ele>
        <time>2021-09-21T11:57:30Z</time>
      </trkpt>
      <trkpt lat="46.54987" lon="0.33739">
        <ele>73.916342858225</ele>
        <time>2021-09-21T11:57:46Z</time>
      </trkpt>
      <trkpt lat="46.54988" lon="0.33738">
        <ele>73.956825339235</ele>
        <time>2021-09-21T11:57:56Z</time>
      </trkpt>
      <trkpt lat="46.5499" lon="0.33741">
        <ele>73.944959044456</ele>
        <time>2021-09-21T11:58:10Z</time>
      </trkpt>
      <trkpt lat="46.54987" lon="0.33741">
        <ele>74.01423747465</ele>
        <time>2021-09-21T11:58:22Z</time>
      </trkpt>
      <trkpt lat="46.54986" lon="0.33739">
        <ele>73.717577056959</ele>
        <time>2021-09-21T11:59:06Z</time>
      </trkpt>
      <trkpt lat="46.54987" lon="0.33737">
        <ele>73.936858105473</ele>
        <time>2021-09-21T11:59:17Z</time>
      </trkpt>
      <trkpt lat="46.54988" lon="0.33738">
        <ele>73.663030774333</ele>
        <time>2021-09-21T11:59:36Z</time>
      </trkpt>
      <trkpt lat="46.54987" lon="0.3374">
        <ele>73.919193898328</ele>
        <time>2021-09-21T11:59:45Z</time>
      </trkpt>
      <trkpt lat="46.54988" lon="0.33738">
        <ele>73.972577325068</ele>
        <time>2021-09-21T12:00:02Z</time>
      </trkpt>
      <trkpt lat="46.54988" lon="0.3374">
        <ele>73.784143287688</ele>
        <time>2021-09-21T12:00:11Z</time>
      </trkpt>
      <trkpt lat="46.54986" lon="0.33741">
        <ele>73.745394041762</ele>
        <time>2021-09-21T12:00:15Z</time>
      </trkpt>
      <trkpt lat="46.54985" lon="0.33744">
        <ele>73.661629460752</ele>
        <time>2021-09-21T12:00:18Z</time>
      </trkpt>
      <trkpt lat="46.54984" lon="0.33748">
        <ele>73.869977820665</ele>
        <time>2021-09-21T12:00:21Z</time>
      </trkpt>
      <trkpt lat="46.54982" lon="0.33751">
        <ele>73.528105986305</ele>
        <time>2021-09-21T12:00:24Z</time>
      </trkpt>
      <trkpt lat="46.54982" lon="0.33755">
        <ele>73.841936640441</ele>
        <time>2021-09-21T12:00:26Z</time>
      </trkpt>
      <trkpt lat="46.54983" lon="0.33759">
        <ele>73.883411002345</ele>
        <time>2021-09-21T12:00:28Z</time>
      </trkpt>
      <trkpt lat="46.54983" lon="0.33763">
        <ele>74.026733686216</ele>
        <time>2021-09-21T12:00:30Z</time>
      </trkpt>
      <trkpt lat="46.54984" lon="0.33766">
        <ele>73.698297769763</ele>
        <time>2021-09-21T12:00:32Z</time>
      </trkpt>
      <trkpt lat="46.54986" lon="0.33768">
        <ele>73.89098200947</ele>
        <time>2021-09-21T12:00:34Z</time>
      </trkpt>
      <trkpt lat="46.54988" lon="0.33771">
        <ele>73.576487871818</ele>
        <time>2021-09-21T12:00:36Z</time>
      </trkpt>
      <trkpt lat="46.54989" lon="0.33773">
        <ele>73.776087448001</ele>
        <time>2021-09-21T12:00:38Z</time>
      </trkpt>
      <trkpt lat="46.54991" lon="0.33775">
        <ele>73.875308851711</ele>
        <time>2021-09-21T12:00:39Z</time>
      </trkpt>
      <trkpt lat="46.54992" lon="0.33778">
        <ele>73.909177862108</ele>
        <time>2021-09-21T12:00:41Z</time>
      </trkpt>
      <trkpt lat="46.54994" lon="0.33781">
        <ele>74.284867716953</ele>
        <time>2021-09-21T12:00:44Z</time>
      </trkpt>
      <trkpt lat="46.54995" lon="0.33783">
        <ele>73.871588559821</ele>
        <time>2021-09-21T12:00:51Z</time>
      </trkpt>
      <trkpt lat="46.54997" lon="0.33785">
        <ele>73.436286748387</ele>
        <time>2021-09-21T12:00:57Z</time>
      </trkpt>
      <trkpt lat="46.55" lon="0.33786">
        <ele>73.674235316925</ele>
        <time>2021-09-21T12:01:02Z</time>
      </trkpt>
      <trkpt lat="46.55002" lon="0.33786">
        <ele>73.761958945543</ele>
        <time>2021-09-21T12:01:04Z</time>
      </trkpt>
      <trkpt lat="46.55004" lon="0.33785">
        <ele>73.407688948326</ele>
        <time>2021-09-21T12:01:06Z</time>
      </trkpt>
      <trkpt lat="46.55006" lon="0.33782">
        <ele>73.175595962442</ele>
        <time>2021-09-21T12:01:09Z</time>
      </trkpt>
      <trkpt lat="46.55005" lon="0.33778">
        <ele>72.913390581496</ele>
        <time>2021-09-21T12:01:12Z</time>
      </trkpt>
      <trkpt lat="46.55006" lon="0.33776">
        <ele>73.885432172567</ele>
        <time>2021-09-21T12:01:15Z</time>
      </trkpt>
      <trkpt lat="46.55006" lon="0.33773">
        <ele>74.139599206857</ele>
        <time>2021-09-21T12:01:17Z</time>
      </trkpt>
      <trkpt lat="46.55007" lon="0.3377">
        <ele>73.345252427272</ele>
        <time>2021-09-21T12:01:19Z</time>
      </trkpt>
      <trkpt lat="46.55008" lon="0.33767">
        <ele>73.659380547702</ele>
        <time>2021-09-21T12:01:23Z</time>
      </trkpt>
      <trkpt lat="46.55008" lon="0.33764">
        <ele>73.754037216306</ele>
        <time>2021-09-21T12:01:27Z</time>
      </trkpt>
      <trkpt lat="46.55009" lon="0.33761">
        <ele>73.935670982115</ele>
        <time>2021-09-21T12:01:32Z</time>
      </trkpt>
      <trkpt lat="46.5501" lon="0.33757">
        <ele>73.564546830952</ele>
        <time>2021-09-21T12:01:34Z</time>
      </trkpt>
      <trkpt lat="46.5501" lon="0.33754">
        <ele>73.889392147772</ele>
        <time>2021-09-21T12:01:37Z</time>
      </trkpt>
      <trkpt lat="46.5501" lon="0.3375">
        <ele>73.319583478384</ele>
        <time>2021-09-21T12:01:39Z</time>
      </trkpt>
      <trkpt lat="46.55011" lon="0.33746">
        <ele>74.051211555488</ele>
        <time>2021-09-21T12:01:41Z</time>
      </trkpt>
      <trkpt lat="46.55012" lon="0.33743">
        <ele>73.278094510548</ele>
        <time>2021-09-21T12:01:43Z</time>
      </trkpt>
      <trkpt lat="46.55012" lon="0.3374">
        <ele>73.828783964738</ele>
        <time>2021-09-21T12:01:45Z</time>
      </trkpt>
      <trkpt lat="46.55013" lon="0.33737">
        <ele>73.854786735959</ele>
        <time>2021-09-21T12:01:47Z</time>
      </trkpt>
      <trkpt lat="46.55014" lon="0.33734">
        <ele>74.165984065272</ele>
        <time>2021-09-21T12:01:48Z</time>
      </trkpt>
      <trkpt lat="46.55014" lon="0.33731">
        <ele>73.074365964159</ele>
        <time>2021-09-21T12:01:50Z</time>
      </trkpt>
      <trkpt lat="46.55014" lon="0.33727">
        <ele>73.677881931886</ele>
        <time>2021-09-21T12:01:52Z</time>
      </trkpt>
      <trkpt lat="46.55014" lon="0.33723">
        <ele>73.65257588774</ele>
        <time>2021-09-21T12:01:55Z</time>
      </trkpt>
      <trkpt lat="46.55016" lon="0.33722">
        <ele>73.896326183341</ele>
        <time>2021-09-21T12:01:59Z</time>
      </trkpt>
      <trkpt lat="46.55018" lon="0.33724">
        <ele>73.488048232161</ele>
        <time>2021-09-21T12:02:01Z</time>
      </trkpt>
      <trkpt lat="46.5502" lon="0.33724">
        <ele>73.469458622858</ele>
        <time>2021-09-21T12:02:03Z</time>
      </trkpt>
      <trkpt lat="46.55022" lon="0.33726">
        <ele>73.187460438348</ele>
        <time>2021-09-21T12:02:06Z</time>
      </trkpt>
      <trkpt lat="46.55025" lon="0.33726">
        <ele>73.122430594638</ele>
        <time>2021-09-21T12:02:09Z</time>
      </trkpt>
      <trkpt lat="46.55026" lon="0.33726">
        <ele>73.43167702388</ele>
        <time>2021-09-21T12:02:10Z</time>
      </trkpt>
      <trkpt lat="46.55029" lon="0.33725">
        <ele>73.906218674034</ele>
        <time>2021-09-21T12:02:12Z</time>
      </trkpt>
      <trkpt lat="46.55032" lon="0.33725">
        <ele>73.870146608911</ele>
        <time>2021-09-21T12:02:15Z</time>
      </trkpt>
      <trkpt lat="46.55035" lon="0.33725">
        <ele>73.838387290947</ele>
        <time>2021-09-21T12:02:17Z</time>
      </trkpt>
      <trkpt lat="46.55038" lon="0.33724">
        <ele>73.30678167101</ele>
        <time>2021-09-21T12:02:19Z</time>
      </trkpt>
      <trkpt lat="46.5504" lon="0.33724">
        <ele>73.862504955381</ele>
        <time>2021-09-21T12:02:21Z</time>
      </trkpt>
      <trkpt lat="46.55043" lon="0.33724">
        <ele>74.522689240985</ele>
        <time>2021-09-21T12:02:24Z</time>
      </trkpt>
      <trkpt lat="46.55045" lon="0.33726">
        <ele>74.532824570313</ele>
        <time>2021-09-21T12:02:26Z</time>
      </trkpt>
      <trkpt lat="46.55047" lon="0.33727">
        <ele>74.430562494323</ele>
        <time>2021-09-21T12:02:28Z</time>
      </trkpt>
      <trkpt lat="46.55051" lon="0.33728">
        <ele>74.282036064193</ele>
        <time>2021-09-21T12:02:30Z</time>
      </trkpt>
      <trkpt lat="46.55054" lon="0.33728">
        <ele>74.978624751791</ele>
        <time>2021-09-21T12:02:33Z</time>
      </trkpt>
      <trkpt lat="46.55057" lon="0.33729">
        <ele>74.897940428928</ele>
        <time>2021-09-21T12:02:35Z</time>
      </trkpt>
      <trkpt lat="46.5506" lon="0.33729">
        <ele>75.135193428956</ele>
        <time>2021-09-21T12:02:37Z</time>
      </trkpt>
      <trkpt lat="46.55062" lon="0.3373">
        <ele>75.318858740851</ele>
        <time>2021-09-21T12:02:39Z</time>
      </trkpt>
      <trkpt lat="46.55065" lon="0.33729">
        <ele>75.267160236835</ele>
        <time>2021-09-21T12:02:41Z</time>
      </trkpt>
      <trkpt lat="46.55067" lon="0.33728">
        <ele>75.795913138427</ele>
        <time>2021-09-21T12:02:43Z</time>
      </trkpt>
      <trkpt lat="46.55069" lon="0.3373">
        <ele>75.563038282096</ele>
        <time>2021-09-21T12:02:45Z</time>
      </trkpt>
      <trkpt lat="46.55071" lon="0.33732">
        <ele>75.671077948995</ele>
        <time>2021-09-21T12:02:48Z</time>
      </trkpt>
      <trkpt lat="46.55074" lon="0.33732">
        <ele>75.231318673119</ele>
        <time>2021-09-21T12:02:50Z</time>
      </trkpt>
      <trkpt lat="46.55076" lon="0.33733">
        <ele>75.868553544395</ele>
        <time>2021-09-21T12:02:52Z</time>
      </trkpt>
      <trkpt lat="46.55078" lon="0.33733">
        <ele>75.857499584556</ele>
        <time>2021-09-21T12:02:54Z</time>
      </trkpt>
      <trkpt lat="46.55081" lon="0.33733">
        <ele>75.908246232197</ele>
        <time>2021-09-21T12:02:56Z</time>
      </trkpt>
      <trkpt lat="46.55083" lon="0.33733">
        <ele>76.083120716736</ele>
        <time>2021-09-21T12:02:58Z</time>
      </trkpt>
      <trkpt lat="46.55085" lon="0.33733">
        <ele>75.702836045064</ele>
        <time>2021-09-21T12:03:00Z</time>
      </trkpt>
      <trkpt lat="46.55087" lon="0.33734">
        <ele>76.417833058164</ele>
        <time>2021-09-21T12:03:02Z</time>
      </trkpt>
      <trkpt lat="46.55089" lon="0.33734">
        <ele>76.56546950154</ele>
        <time>2021-09-21T12:03:04Z</time>
      </trkpt>
      <trkpt lat="46.55092" lon="0.33735">
        <ele>76.693155162968</ele>
        <time>2021-09-21T12:03:06Z</time>
      </trkpt>
      <trkpt lat="46.55094" lon="0.33735">
        <ele>75.901608093642</ele>
        <time>2021-09-21T12:03:08Z</time>
      </trkpt>
      <trkpt lat="46.55096" lon="0.33735">
        <ele>76.260576087981</ele>
        <time>2021-09-21T12:03:10Z</time>
      </trkpt>
      <trkpt lat="46.55099" lon="0.33736">
        <ele>76.342930894345</ele>
        <time>2021-09-21T12:03:12Z</time>
      </trkpt>
      <trkpt lat="46.551" lon="0.33736">
        <ele>76.4638703214</ele>
        <time>2021-09-21T12:03:14Z</time>
      </trkpt>
      <trkpt lat="46.55103" lon="0.33737">
        <ele>76.355371509679</ele>
        <time>2021-09-21T12:03:17Z</time>
      </trkpt>
      <trkpt lat="46.55106" lon="0.33737">
        <ele>76.114108560607</ele>
        <time>2021-09-21T12:03:19Z</time>
      </trkpt>
      <trkpt lat="46.55109" lon="0.33737">
        <ele>76.225258877501</ele>
        <time>2021-09-21T12:03:21Z</time>
      </trkpt>
      <trkpt lat="46.55111" lon="0.33738">
        <ele>76.591140025295</ele>
        <time>2021-09-21T12:03:23Z</time>
      </trkpt>
      <trkpt lat="46.55113" lon="0.3374">
        <ele>76.541452553123</ele>
        <time>2021-09-21T12:03:25Z</time>
      </trkpt>
      <trkpt lat="46.55116" lon="0.3374">
        <ele>76.214313064702</ele>
        <time>2021-09-21T12:03:27Z</time>
      </trkpt>
      <trkpt lat="46.55118" lon="0.3374">
        <ele>76.670494676568</ele>
        <time>2021-09-21T12:03:29Z</time>
      </trkpt>
      <trkpt lat="46.55121" lon="0.3374">
        <ele>76.411095762625</ele>
        <time>2021-09-21T12:03:32Z</time>
      </trkpt>
      <trkpt lat="46.55124" lon="0.33741">
        <ele>76.78902380541</ele>
        <time>2021-09-21T12:03:34Z</time>
      </trkpt>
      <trkpt lat="46.55127" lon="0.33741">
        <ele>76.751441502012</ele>
        <time>2021-09-21T12:03:36Z</time>
      </trkpt>
      <trkpt lat="46.5513" lon="0.33741">
        <ele>76.602086221799</ele>
        <time>2021-09-21T12:03:38Z</time>
      </trkpt>
      <trkpt lat="46.55132" lon="0.33741">
        <ele>76.494574960321</ele>
        <time>2021-09-21T12:03:41Z</time>
      </trkpt>
      <trkpt lat="46.55136" lon="0.33742">
        <ele>76.611466845497</ele>
        <time>2021-09-21T12:03:43Z</time>
      </trkpt>
      <trkpt lat="46.55138" lon="0.33742">
        <ele>76.639252409339</ele>
        <time>2021-09-21T12:03:45Z</time>
      </trkpt>
      <trkpt lat="46.5514" lon="0.33743">
        <ele>76.805057928897</ele>
        <time>2021-09-21T12:03:47Z</time>
      </trkpt>
      <trkpt lat="46.55143" lon="0.33744">
        <ele>76.665715062059</ele>
        <time>2021-09-21T12:03:50Z</time>
      </trkpt>
      <trkpt lat="46.55146" lon="0.33744">
        <ele>76.711164908484</ele>
        <time>2021-09-21T12:03:52Z</time>
      </trkpt>
      <trkpt lat="46.55149" lon="0.33743">
        <ele>76.654669444077</ele>
        <time>2021-09-21T12:03:54Z</time>
      </trkpt>
      <trkpt lat="46.55152" lon="0.33744">
        <ele>76.756961851381</ele>
        <time>2021-09-21T12:03:57Z</time>
      </trkpt>
      <trkpt lat="46.55154" lon="0.33744">
        <ele>76.810860896483</ele>
        <time>2021-09-21T12:03:58Z</time>
      </trkpt>
      <trkpt lat="46.55156" lon="0.33745">
        <ele>76.45692186337</ele>
        <time>2021-09-21T12:04:00Z</time>
      </trkpt>
      <trkpt lat="46.55158" lon="0.33744">
        <ele>76.594939241186</ele>
        <time>2021-09-21T12:04:02Z</time>
      </trkpt>
      <trkpt lat="46.5516" lon="0.33744">
        <ele>76.221156508662</ele>
        <time>2021-09-21T12:04:04Z</time>
      </trkpt>
      <trkpt lat="46.55162" lon="0.33745">
        <ele>76.31260551326</ele>
        <time>2021-09-21T12:04:06Z</time>
      </trkpt>
      <trkpt lat="46.55166" lon="0.33745">
        <ele>76.70284696389</ele>
        <time>2021-09-21T12:04:08Z</time>
      </trkpt>
      <trkpt lat="46.55167" lon="0.33745">
        <ele>76.359489523806</ele>
        <time>2021-09-21T12:04:10Z</time>
      </trkpt>
      <trkpt lat="46.5517" lon="0.33746">
        <ele>76.672143912874</ele>
        <time>2021-09-21T12:04:13Z</time>
      </trkpt>
      <trkpt lat="46.55173" lon="0.33746">
        <ele>76.247152062133</ele>
        <time>2021-09-21T12:04:15Z</time>
      </trkpt>
      <trkpt lat="46.55176" lon="0.33747">
        <ele>75.791126023978</ele>
        <time>2021-09-21T12:04:17Z</time>
      </trkpt>
      <trkpt lat="46.55178" lon="0.33747">
        <ele>75.94616777543</ele>
        <time>2021-09-21T12:04:19Z</time>
      </trkpt>
      <trkpt lat="46.5518" lon="0.33747">
        <ele>76.066155273467</ele>
        <time>2021-09-21T12:04:21Z</time>
      </trkpt>
      <trkpt lat="46.55184" lon="0.33746">
        <ele>76.19410893973</ele>
        <time>2021-09-21T12:04:23Z</time>
      </trkpt>
      <trkpt lat="46.55186" lon="0.33745">
        <ele>76.655290189199</ele>
        <time>2021-09-21T12:04:25Z</time>
      </trkpt>
      <trkpt lat="46.55188" lon="0.33745">
        <ele>76.544413854368</ele>
        <time>2021-09-21T12:04:28Z</time>
      </trkpt>
      <trkpt lat="46.55191" lon="0.33746">
        <ele>76.345811796375</ele>
        <time>2021-09-21T12:04:30Z</time>
      </trkpt>
      <trkpt lat="46.55194" lon="0.33746">
        <ele>76.306041583419</ele>
        <time>2021-09-21T12:04:32Z</time>
      </trkpt>
      <trkpt lat="46.55196" lon="0.33746">
        <ele>76.724127927795</ele>
        <time>2021-09-21T12:04:34Z</time>
      </trkpt>
      <trkpt lat="46.55198" lon="0.33746">
        <ele>77.046002940275</ele>
        <time>2021-09-21T12:04:36Z</time>
      </trkpt>
      <trkpt lat="46.55201" lon="0.33745">
        <ele>76.78005293943</ele>
        <time>2021-09-21T12:04:39Z</time>
      </trkpt>
      <trkpt lat="46.55204" lon="0.33744">
        <ele>76.951846258715</ele>
        <time>2021-09-21T12:04:41Z</time>
      </trkpt>
      <trkpt lat="46.55206" lon="0.33745">
        <ele>76.528225153685</ele>
        <time>2021-09-21T12:04:43Z</time>
      </trkpt>
      <trkpt lat="46.55209" lon="0.33745">
        <ele>76.184571746737</ele>
        <time>2021-09-21T12:04:45Z</time>
      </trkpt>
      <trkpt lat="46.55212" lon="0.33745">
        <ele>76.932684371248</ele>
        <time>2021-09-21T12:04:47Z</time>
      </trkpt>
      <trkpt lat="46.55215" lon="0.33745">
        <ele>76.601680642925</ele>
        <time>2021-09-21T12:04:49Z</time>
      </trkpt>
      <trkpt lat="46.55218" lon="0.33745">
        <ele>76.585655241273</ele>
        <time>2021-09-21T12:04:51Z</time>
      </trkpt>
      <trkpt lat="46.5522" lon="0.33745">
        <ele>76.806009617634</ele>
        <time>2021-09-21T12:04:53Z</time>
      </trkpt>
      <trkpt lat="46.55223" lon="0.33745">
        <ele>76.345766778104</ele>
        <time>2021-09-21T12:04:55Z</time>
      </trkpt>
      <trkpt lat="46.55226" lon="0.33744">
        <ele>76.919844741933</ele>
        <time>2021-09-21T12:04:57Z</time>
      </trkpt>
      <trkpt lat="46.55228" lon="0.33745">
        <ele>77.046274134889</ele>
        <time>2021-09-21T12:04:59Z</time>
      </trkpt>
      <trkpt lat="46.5523" lon="0.33745">
        <ele>76.723167850636</ele>
        <time>2021-09-21T12:05:01Z</time>
      </trkpt>
      <trkpt lat="46.55233" lon="0.33746">
        <ele>76.602957631461</ele>
        <time>2021-09-21T12:05:03Z</time>
      </trkpt>
      <trkpt lat="46.55235" lon="0.33745">
        <ele>76.889103597961</ele>
        <time>2021-09-21T12:05:05Z</time>
      </trkpt>
      <trkpt lat="46.55237" lon="0.33744">
        <ele>76.419181031175</ele>
        <time>2021-09-21T12:05:07Z</time>
      </trkpt>
      <trkpt lat="46.55239" lon="0.33744">
        <ele>76.758328572847</ele>
        <time>2021-09-21T12:05:09Z</time>
      </trkpt>
      <trkpt lat="46.55242" lon="0.33745">
        <ele>76.649514422752</ele>
        <time>2021-09-21T12:05:11Z</time>
      </trkpt>
      <trkpt lat="46.55244" lon="0.33745">
        <ele>76.425314677879</ele>
        <time>2021-09-21T12:05:13Z</time>
      </trkpt>
      <trkpt lat="46.55247" lon="0.33744">
        <ele>76.189905188046</ele>
        <time>2021-09-21T12:05:15Z</time>
      </trkpt>
      <trkpt lat="46.55249" lon="0.33744">
        <ele>75.955613144673</ele>
        <time>2021-09-21T12:05:17Z</time>
      </trkpt>
      <trkpt lat="46.55252" lon="0.33745">
        <ele>75.913401637226</ele>
        <time>2021-09-21T12:05:19Z</time>
      </trkpt>
      <trkpt lat="46.55254" lon="0.33745">
        <ele>76.20360001456</ele>
        <time>2021-09-21T12:05:21Z</time>
      </trkpt>
      <trkpt lat="46.55257" lon="0.33745">
        <ele>76.634393190965</ele>
        <time>2021-09-21T12:05:23Z</time>
      </trkpt>
      <trkpt lat="46.55259" lon="0.33746">
        <ele>76.219360958785</ele>
        <time>2021-09-21T12:05:26Z</time>
      </trkpt>
      <trkpt lat="46.55261" lon="0.33746">
        <ele>76.26199158188</ele>
        <time>2021-09-21T12:05:28Z</time>
      </trkpt>
      <trkpt lat="46.55264" lon="0.33745">
        <ele>75.702511462383</ele>
        <time>2021-09-21T12:05:30Z</time>
      </trkpt>
      <trkpt lat="46.55267" lon="0.33744">
        <ele>76.306574583985</ele>
        <time>2021-09-21T12:05:32Z</time>
      </trkpt>
      <trkpt lat="46.55269" lon="0.33744">
        <ele>75.666575508192</ele>
        <time>2021-09-21T12:05:34Z</time>
      </trkpt>
      <trkpt lat="46.55271" lon="0.33744">
        <ele>75.95456982404</ele>
        <time>2021-09-21T12:05:36Z</time>
      </trkpt>
      <trkpt lat="46.55274" lon="0.33743">
        <ele>75.772300633602</ele>
        <time>2021-09-21T12:05:38Z</time>
      </trkpt>
      <trkpt lat="46.55276" lon="0.33743">
        <ele>75.986476956867</ele>
        <time>2021-09-21T12:05:40Z</time>
      </trkpt>
      <trkpt lat="46.55278" lon="0.33743">
        <ele>75.902664253488</ele>
        <time>2021-09-21T12:05:42Z</time>
      </trkpt>
      <trkpt lat="46.55281" lon="0.33744">
        <ele>76.003171226941</ele>
        <time>2021-09-21T12:05:44Z</time>
      </trkpt>
      <trkpt lat="46.55283" lon="0.33743">
        <ele>75.867019021884</ele>
        <time>2021-09-21T12:05:45Z</time>
      </trkpt>
      <trkpt lat="46.55285" lon="0.33744">
        <ele>75.844385095872</ele>
        <time>2021-09-21T12:05:48Z</time>
      </trkpt>
      <trkpt lat="46.55288" lon="0.33744">
        <ele>75.701989053749</ele>
        <time>2021-09-21T12:05:50Z</time>
      </trkpt>
      <trkpt lat="46.5529" lon="0.33744">
        <ele>75.387604354881</ele>
        <time>2021-09-21T12:05:52Z</time>
      </trkpt>
      <trkpt lat="46.55294" lon="0.33744">
        <ele>75.49702343531</ele>
        <time>2021-09-21T12:05:54Z</time>
      </trkpt>
      <trkpt lat="46.55296" lon="0.33745">
        <ele>75.515991688706</ele>
        <time>2021-09-21T12:05:56Z</time>
      </trkpt>
      <trkpt lat="46.55298" lon="0.33745">
        <ele>75.04770737607</ele>
        <time>2021-09-21T12:05:58Z</time>
      </trkpt>
      <trkpt lat="46.55301" lon="0.33745">
        <ele>75.202302939259</ele>
        <time>2021-09-21T12:06:00Z</time>
      </trkpt>
      <trkpt lat="46.55304" lon="0.33745">
        <ele>74.976164411753</ele>
        <time>2021-09-21T12:06:02Z</time>
      </trkpt>
      <trkpt lat="46.55307" lon="0.33745">
        <ele>75.123770006932</ele>
        <time>2021-09-21T12:06:04Z</time>
      </trkpt>
      <trkpt lat="46.5531" lon="0.33745">
        <ele>74.888991707936</ele>
        <time>2021-09-21T12:06:06Z</time>
      </trkpt>
      <trkpt lat="46.55313" lon="0.33745">
        <ele>74.781557509676</ele>
        <time>2021-09-21T12:06:08Z</time>
      </trkpt>
      <trkpt lat="46.55315" lon="0.33744">
        <ele>74.693163827062</ele>
        <time>2021-09-21T12:06:10Z</time>
      </trkpt>
      <trkpt lat="46.55318" lon="0.33743">
        <ele>74.893144868314</ele>
        <time>2021-09-21T12:06:12Z</time>
      </trkpt>
      <trkpt lat="46.55321" lon="0.33742">
        <ele>74.913144554012</ele>
        <time>2021-09-21T12:06:15Z</time>
      </trkpt>
      <trkpt lat="46.55323" lon="0.33742">
        <ele>75.039865115657</ele>
        <time>2021-09-21T12:06:17Z</time>
      </trkpt>
      <trkpt lat="46.55326" lon="0.33742">
        <ele>75.4492623806</ele>
        <time>2021-09-21T12:06:20Z</time>
      </trkpt>
      <trkpt lat="46.55328" lon="0.33742">
        <ele>74.92761187721</ele>
        <time>2021-09-21T12:06:22Z</time>
      </trkpt>
      <trkpt lat="46.5533" lon="0.33742">
        <ele>74.931669315323</ele>
        <time>2021-09-21T12:06:24Z</time>
      </trkpt>
      <trkpt lat="46.55332" lon="0.33745">
        <ele>75.085927307606</ele>
        <time>2021-09-21T12:06:27Z</time>
      </trkpt>
      <trkpt lat="46.55334" lon="0.33746">
        <ele>75.20714269951</ele>
        <time>2021-09-21T12:06:29Z</time>
      </trkpt>
      <trkpt lat="46.55336" lon="0.33747">
        <ele>74.429326947778</ele>
        <time>2021-09-21T12:06:31Z</time>
      </trkpt>
      <trkpt lat="46.55338" lon="0.33748">
        <ele>74.473055507988</ele>
        <time>2021-09-21T12:06:33Z</time>
      </trkpt>
      <trkpt lat="46.55341" lon="0.3375">
        <ele>74.605466762558</ele>
        <time>2021-09-21T12:06:35Z</time>
      </trkpt>
      <trkpt lat="46.55344" lon="0.33751">
        <ele>74.746787894517</ele>
        <time>2021-09-21T12:06:37Z</time>
      </trkpt>
      <trkpt lat="46.55346" lon="0.3375">
        <ele>74.51441715844</ele>
        <time>2021-09-21T12:06:38Z</time>
      </trkpt>
      <trkpt lat="46.55348" lon="0.33751">
        <ele>74.362950639799</ele>
        <time>2021-09-21T12:06:41Z</time>
      </trkpt>
      <trkpt lat="46.55351" lon="0.33751">
        <ele>74.511531230062</ele>
        <time>2021-09-21T12:06:43Z</time>
      </trkpt>
      <trkpt lat="46.55353" lon="0.33753">
        <ele>74.442823762074</ele>
        <time>2021-09-21T12:06:46Z</time>
      </trkpt>
      <trkpt lat="46.55356" lon="0.33755">
        <ele>74.143739890307</ele>
        <time>2021-09-21T12:06:48Z</time>
      </trkpt>
      <trkpt lat="46.55358" lon="0.33758">
        <ele>74.59324044548</ele>
        <time>2021-09-21T12:06:50Z</time>
      </trkpt>
      <trkpt lat="46.55359" lon="0.33761">
        <ele>74.328308223747</ele>
        <time>2021-09-21T12:06:52Z</time>
      </trkpt>
      <trkpt lat="46.5536" lon="0.33762">
        <ele>74.682171652094</ele>
        <time>2021-09-21T12:06:54Z</time>
      </trkpt>
      <trkpt lat="46.55363" lon="0.33763">
        <ele>75.004386811517</ele>
        <time>2021-09-21T12:06:56Z</time>
      </trkpt>
      <trkpt lat="46.55364" lon="0.33764">
        <ele>75.154075233266</ele>
        <time>2021-09-21T12:06:58Z</time>
      </trkpt>
      <trkpt lat="46.55367" lon="0.33765">
        <ele>74.986795976758</ele>
        <time>2021-09-21T12:07:00Z</time>
      </trkpt>
      <trkpt lat="46.5537" lon="0.33766">
        <ele>75.003940518945</ele>
        <time>2021-09-21T12:07:02Z</time>
      </trkpt>
      <trkpt lat="46.55371" lon="0.33768">
        <ele>74.885537737049</ele>
        <time>2021-09-21T12:07:04Z</time>
      </trkpt>
      <trkpt lat="46.55374" lon="0.3377">
        <ele>75.360906804912</ele>
        <time>2021-09-21T12:07:06Z</time>
      </trkpt>
      <trkpt lat="46.55377" lon="0.33771">
        <ele>75.050263100304</ele>
        <time>2021-09-21T12:07:08Z</time>
      </trkpt>
      <trkpt lat="46.55379" lon="0.33772">
        <ele>74.877754336223</ele>
        <time>2021-09-21T12:07:10Z</time>
      </trkpt>
      <trkpt lat="46.55382" lon="0.33773">
        <ele>74.723639463075</ele>
        <time>2021-09-21T12:07:12Z</time>
      </trkpt>
      <trkpt lat="46.55384" lon="0.33774">
        <ele>74.973324354738</ele>
        <time>2021-09-21T12:07:14Z</time>
      </trkpt>
      <trkpt lat="46.55387" lon="0.33774">
        <ele>74.732235356234</ele>
        <time>2021-09-21T12:07:16Z</time>
      </trkpt>
      <trkpt lat="46.55389" lon="0.33775">
        <ele>74.817374091595</ele>
        <time>2021-09-21T12:07:18Z</time>
      </trkpt>
      <trkpt lat="46.55392" lon="0.33775">
        <ele>74.654667783529</ele>
        <time>2021-09-21T12:07:20Z</time>
      </trkpt>
      <trkpt lat="46.55394" lon="0.33776">
        <ele>74.641526925378</ele>
        <time>2021-09-21T12:07:22Z</time>
      </trkpt>
      <trkpt lat="46.55397" lon="0.33776">
        <ele>74.759712616913</ele>
        <time>2021-09-21T12:07:24Z</time>
      </trkpt>
      <trkpt lat="46.55399" lon="0.33775">
        <ele>74.501854241826</ele>
        <time>2021-09-21T12:07:26Z</time>
      </trkpt>
      <trkpt lat="46.55401" lon="0.33775">
        <ele>74.589013080113</ele>
        <time>2021-09-21T12:07:28Z</time>
      </trkpt>
      <trkpt lat="46.55403" lon="0.33774">
        <ele>74.499034352601</ele>
        <time>2021-09-21T12:07:29Z</time>
      </trkpt>
      <trkpt lat="46.55406" lon="0.33775">
        <ele>74.723507733084</ele>
        <time>2021-09-21T12:07:31Z</time>
      </trkpt>
      <trkpt lat="46.55408" lon="0.33775">
        <ele>75.057412334718</ele>
        <time>2021-09-21T12:07:33Z</time>
      </trkpt>
      <trkpt lat="46.5541" lon="0.33775">
        <ele>74.932478765026</ele>
        <time>2021-09-21T12:07:35Z</time>
      </trkpt>
      <trkpt lat="46.55413" lon="0.33775">
        <ele>74.94787016511</ele>
        <time>2021-09-21T12:07:37Z</time>
      </trkpt>
      <trkpt lat="46.55415" lon="0.33775">
        <ele>74.207554413006</ele>
        <time>2021-09-21T12:07:39Z</time>
      </trkpt>
      <trkpt lat="46.55418" lon="0.33775">
        <ele>74.238497039303</ele>
        <time>2021-09-21T12:07:41Z</time>
      </trkpt>
      <trkpt lat="46.55421" lon="0.33776">
        <ele>74.101924272254</ele>
        <time>2021-09-21T12:07:43Z</time>
      </trkpt>
      <trkpt lat="46.55423" lon="0.33776">
        <ele>74.466667230241</ele>
        <time>2021-09-21T12:07:45Z</time>
      </trkpt>
      <trkpt lat="46.55426" lon="0.33777">
        <ele>74.719944327138</ele>
        <time>2021-09-21T12:07:47Z</time>
      </trkpt>
      <trkpt lat="46.55429" lon="0.33777">
        <ele>74.736830706708</ele>
        <time>2021-09-21T12:07:49Z</time>
      </trkpt>
      <trkpt lat="46.55431" lon="0.33778">
        <ele>74.667966508307</ele>
        <time>2021-09-21T12:07:51Z</time>
      </trkpt>
      <trkpt lat="46.55434" lon="0.33778">
        <ele>74.809929715469</ele>
        <time>2021-09-21T12:07:53Z</time>
      </trkpt>
      <trkpt lat="46.55437" lon="0.33779">
        <ele>74.380045957863</ele>
        <time>2021-09-21T12:07:55Z</time>
      </trkpt>
      <trkpt lat="46.55439" lon="0.33779">
        <ele>74.583036181517</ele>
        <time>2021-09-21T12:07:57Z</time>
      </trkpt>
      <trkpt lat="46.55441" lon="0.3378">
        <ele>75.017489697784</ele>
        <time>2021-09-21T12:07:59Z</time>
      </trkpt>
      <trkpt lat="46.55444" lon="0.3378">
        <ele>75.279385441914</ele>
        <time>2021-09-21T12:08:01Z</time>
      </trkpt>
      <trkpt lat="46.55446" lon="0.3378">
        <ele>74.092732107267</ele>
        <time>2021-09-21T12:08:03Z</time>
      </trkpt>
      <trkpt lat="46.55449" lon="0.3378">
        <ele>74.066069959663</ele>
        <time>2021-09-21T12:08:05Z</time>
      </trkpt>
      <trkpt lat="46.55451" lon="0.33781">
        <ele>74.608527509496</ele>
        <time>2021-09-21T12:08:07Z</time>
      </trkpt>
      <trkpt lat="46.55453" lon="0.33781">
        <ele>74.315343956463</ele>
        <time>2021-09-21T12:08:09Z</time>
      </trkpt>
      <trkpt lat="46.55456" lon="0.33782">
        <ele>74.324243999086</ele>
        <time>2021-09-21T12:08:11Z</time>
      </trkpt>
      <trkpt lat="46.55459" lon="0.33783">
        <ele>74.975147756748</ele>
        <time>2021-09-21T12:08:14Z</time>
      </trkpt>
      <trkpt lat="46.55461" lon="0.33784">
        <ele>74.834401903674</ele>
        <time>2021-09-21T12:08:16Z</time>
      </trkpt>
      <trkpt lat="46.55463" lon="0.33785">
        <ele>74.608148271218</ele>
        <time>2021-09-21T12:08:18Z</time>
      </trkpt>
      <trkpt lat="46.55465" lon="0.33786">
        <ele>74.718147637323</ele>
        <time>2021-09-21T12:08:20Z</time>
      </trkpt>
      <trkpt lat="46.55468" lon="0.33787">
        <ele>74.711493805051</ele>
        <time>2021-09-21T12:08:22Z</time>
      </trkpt>
      <trkpt lat="46.5547" lon="0.33787">
        <ele>74.401147532277</ele>
        <time>2021-09-21T12:08:24Z</time>
      </trkpt>
      <trkpt lat="46.55472" lon="0.33787">
        <ele>75.220647446811</ele>
        <time>2021-09-21T12:08:26Z</time>
      </trkpt>
      <trkpt lat="46.55474" lon="0.33789">
        <ele>75.03052082099</ele>
        <time>2021-09-21T12:08:28Z</time>
      </trkpt>
      <trkpt lat="46.55477" lon="0.33791">
        <ele>74.770967949182</ele>
        <time>2021-09-21T12:08:30Z</time>
      </trkpt>
      <trkpt lat="46.5548" lon="0.33792">
        <ele>74.419416981749</ele>
        <time>2021-09-21T12:08:32Z</time>
      </trkpt>
      <trkpt lat="46.55482" lon="0.33793">
        <ele>74.473666470498</ele>
        <time>2021-09-21T12:08:34Z</time>
      </trkpt>
      <trkpt lat="46.55485" lon="0.33795">
        <ele>74.921982272528</ele>
        <time>2021-09-21T12:08:37Z</time>
      </trkpt>
      <trkpt lat="46.55488" lon="0.33795">
        <ele>74.360546551645</ele>
        <time>2021-09-21T12:08:39Z</time>
      </trkpt>
      <trkpt lat="46.55489" lon="0.33796">
        <ele>74.666410677135</ele>
        <time>2021-09-21T12:08:41Z</time>
      </trkpt>
      <trkpt lat="46.55492" lon="0.33798">
        <ele>74.388982713223</ele>
        <time>2021-09-21T12:08:43Z</time>
      </trkpt>
      <trkpt lat="46.55494" lon="0.338">
        <ele>74.064932927489</ele>
        <time>2021-09-21T12:08:45Z</time>
      </trkpt>
      <trkpt lat="46.55496" lon="0.33802">
        <ele>74.352444578893</ele>
        <time>2021-09-21T12:08:47Z</time>
      </trkpt>
      <trkpt lat="46.55499" lon="0.33802">
        <ele>74.806281354278</ele>
        <time>2021-09-21T12:08:49Z</time>
      </trkpt>
      <trkpt lat="46.55502" lon="0.33803">
        <ele>74.3955324376</ele>
        <time>2021-09-21T12:08:51Z</time>
      </trkpt>
      <trkpt lat="46.55504" lon="0.33804">
        <ele>74.385982523672</ele>
        <time>2021-09-21T12:08:53Z</time>
      </trkpt>
      <trkpt lat="46.55506" lon="0.33805">
        <ele>74.391419216059</ele>
        <time>2021-09-21T12:08:56Z</time>
      </trkpt>
      <trkpt lat="46.55508" lon="0.33807">
        <ele>74.26880238764</ele>
        <time>2021-09-21T12:08:58Z</time>
      </trkpt>
      <trkpt lat="46.5551" lon="0.33809">
        <ele>74.39705936797</ele>
        <time>2021-09-21T12:09:01Z</time>
      </trkpt>
      <trkpt lat="46.55511" lon="0.33811">
        <ele>74.60429699719</ele>
        <time>2021-09-21T12:09:03Z</time>
      </trkpt>
      <trkpt lat="46.55514" lon="0.33814">
        <ele>74.753407964483</ele>
        <time>2021-09-21T12:09:06Z</time>
      </trkpt>
      <trkpt lat="46.55515" lon="0.33817">
        <ele>74.289648459293</ele>
        <time>2021-09-21T12:09:08Z</time>
      </trkpt>
      <trkpt lat="46.55517" lon="0.3382">
        <ele>74.668337621726</ele>
        <time>2021-09-21T12:09:11Z</time>
      </trkpt>
      <trkpt lat="46.55518" lon="0.33823">
        <ele>74.507105280645</ele>
        <time>2021-09-21T12:09:13Z</time>
      </trkpt>
      <trkpt lat="46.5552" lon="0.33827">
        <ele>74.49336161837</ele>
        <time>2021-09-21T12:09:16Z</time>
      </trkpt>
      <trkpt lat="46.55522" lon="0.33829">
        <ele>74.232506313361</ele>
        <time>2021-09-21T12:09:18Z</time>
      </trkpt>
      <trkpt lat="46.55524" lon="0.33831">
        <ele>74.365621048026</ele>
        <time>2021-09-21T12:09:20Z</time>
      </trkpt>
      <trkpt lat="46.55526" lon="0.33833">
        <ele>74.447498914786</ele>
        <time>2021-09-21T12:09:22Z</time>
      </trkpt>
      <trkpt lat="46.55528" lon="0.33835">
        <ele>75.145893674344</ele>
        <time>2021-09-21T12:09:24Z</time>
      </trkpt>
      <trkpt lat="46.55529" lon="0.33838">
        <ele>74.255148808472</ele>
        <time>2021-09-21T12:09:26Z</time>
      </trkpt>
      <trkpt lat="46.55531" lon="0.3384">
        <ele>74.455530792475</ele>
        <time>2021-09-21T12:09:28Z</time>
      </trkpt>
      <trkpt lat="46.55533" lon="0.33842">
        <ele>74.849711175077</ele>
        <time>2021-09-21T12:09:30Z</time>
      </trkpt>
      <trkpt lat="46.55535" lon="0.33845">
        <ele>74.555829248391</ele>
        <time>2021-09-21T12:09:33Z</time>
      </trkpt>
      <trkpt lat="46.55537" lon="0.33847">
        <ele>74.557746075094</ele>
        <time>2021-09-21T12:09:35Z</time>
      </trkpt>
      <trkpt lat="46.55538" lon="0.33849">
        <ele>74.290327155031</ele>
        <time>2021-09-21T12:09:37Z</time>
      </trkpt>
      <trkpt lat="46.55539" lon="0.33852">
        <ele>74.549888744019</ele>
        <time>2021-09-21T12:09:39Z</time>
      </trkpt>
      <trkpt lat="46.5554" lon="0.33855">
        <ele>74.727285300381</ele>
        <time>2021-09-21T12:09:41Z</time>
      </trkpt>
      <trkpt lat="46.55542" lon="0.33858">
        <ele>74.989297141321</ele>
        <time>2021-09-21T12:09:43Z</time>
      </trkpt>
      <trkpt lat="46.55543" lon="0.33861">
        <ele>75.315638960339</ele>
        <time>2021-09-21T12:09:45Z</time>
      </trkpt>
      <trkpt lat="46.55544" lon="0.33864">
        <ele>75.193796088919</ele>
        <time>2021-09-21T12:09:47Z</time>
      </trkpt>
      <trkpt lat="46.55546" lon="0.33868">
        <ele>75.505365469493</ele>
        <time>2021-09-21T12:09:49Z</time>
      </trkpt>
      <trkpt lat="46.55547" lon="0.33871">
        <ele>75.388908484951</ele>
        <time>2021-09-21T12:09:52Z</time>
      </trkpt>
      <trkpt lat="46.55549" lon="0.33874">
        <ele>75.434497538954</ele>
        <time>2021-09-21T12:09:54Z</time>
      </trkpt>
      <trkpt lat="46.55551" lon="0.33877">
        <ele>75.282653534785</ele>
        <time>2021-09-21T12:09:56Z</time>
      </trkpt>
      <trkpt lat="46.55553" lon="0.33879">
        <ele>75.021877062507</ele>
        <time>2021-09-21T12:09:58Z</time>
      </trkpt>
      <trkpt lat="46.55555" lon="0.33881">
        <ele>75.847580772825</ele>
        <time>2021-09-21T12:10:00Z</time>
      </trkpt>
      <trkpt lat="46.55557" lon="0.33884">
        <ele>75.951142542064</ele>
        <time>2021-09-21T12:10:02Z</time>
      </trkpt>
      <trkpt lat="46.55559" lon="0.33885">
        <ele>75.742423953488</ele>
        <time>2021-09-21T12:10:04Z</time>
      </trkpt>
      <trkpt lat="46.55561" lon="0.33886">
        <ele>76.215153674595</ele>
        <time>2021-09-21T12:10:06Z</time>
      </trkpt>
      <trkpt lat="46.55563" lon="0.33888">
        <ele>76.177480820566</ele>
        <time>2021-09-21T12:10:08Z</time>
      </trkpt>
      <trkpt lat="46.55566" lon="0.3389">
        <ele>76.001860843971</ele>
        <time>2021-09-21T12:10:10Z</time>
      </trkpt>
      <trkpt lat="46.55569" lon="0.33892">
        <ele>76.496402961202</ele>
        <time>2021-09-21T12:10:13Z</time>
      </trkpt>
      <trkpt lat="46.55571" lon="0.33894">
        <ele>76.455555011518</ele>
        <time>2021-09-21T12:10:15Z</time>
      </trkpt>
      <trkpt lat="46.55573" lon="0.33896">
        <ele>76.054855532944</ele>
        <time>2021-09-21T12:10:17Z</time>
      </trkpt>
      <trkpt lat="46.55574" lon="0.33898">
        <ele>76.116681274958</ele>
        <time>2021-09-21T12:10:18Z</time>
      </trkpt>
      <trkpt lat="46.55576" lon="0.33899">
        <ele>76.552686065435</ele>
        <time>2021-09-21T12:10:21Z</time>
      </trkpt>
      <trkpt lat="46.55578" lon="0.33901">
        <ele>76.806938285008</ele>
        <time>2021-09-21T12:10:23Z</time>
      </trkpt>
      <trkpt lat="46.5558" lon="0.33903">
        <ele>77.337348443456</ele>
        <time>2021-09-21T12:10:25Z</time>
      </trkpt>
      <trkpt lat="46.55582" lon="0.33904">
        <ele>77.250091758557</ele>
        <time>2021-09-21T12:10:29Z</time>
      </trkpt>
      <trkpt lat="46.55583" lon="0.33906">
        <ele>77.204867496155</ele>
        <time>2021-09-21T12:10:31Z</time>
      </trkpt>
      <trkpt lat="46.55586" lon="0.33908">
        <ele>77.072986265644</ele>
        <time>2021-09-21T12:10:34Z</time>
      </trkpt>
      <trkpt lat="46.55588" lon="0.3391">
        <ele>77.662601117976</ele>
        <time>2021-09-21T12:10:36Z</time>
      </trkpt>
      <trkpt lat="46.55589" lon="0.33913">
        <ele>77.977100472897</ele>
        <time>2021-09-21T12:10:38Z</time>
      </trkpt>
      <trkpt lat="46.55591" lon="0.33915">
        <ele>77.681160817854</ele>
        <time>2021-09-21T12:10:40Z</time>
      </trkpt>
      <trkpt lat="46.55594" lon="0.33918">
        <ele>78.344296073541</ele>
        <time>2021-09-21T12:10:42Z</time>
      </trkpt>
      <trkpt lat="46.55595" lon="0.33919">
        <ele>78.42531802319</ele>
        <time>2021-09-21T12:10:44Z</time>
      </trkpt>
      <trkpt lat="46.55597" lon="0.33921">
        <ele>79.189169379883</ele>
        <time>2021-09-21T12:10:47Z</time>
      </trkpt>
      <trkpt lat="46.55599" lon="0.33922">
        <ele>79.363881826401</ele>
        <time>2021-09-21T12:10:49Z</time>
      </trkpt>
      <trkpt lat="46.55602" lon="0.33923">
        <ele>79.496880799532</ele>
        <time>2021-09-21T12:10:52Z</time>
      </trkpt>
      <trkpt lat="46.55604" lon="0.33925">
        <ele>79.905669095926</ele>
        <time>2021-09-21T12:10:54Z</time>
      </trkpt>
      <trkpt lat="46.55607" lon="0.33926">
        <ele>80.505202012137</ele>
        <time>2021-09-21T12:10:56Z</time>
      </trkpt>
      <trkpt lat="46.55609" lon="0.33928">
        <ele>80.826175672933</ele>
        <time>2021-09-21T12:10:58Z</time>
      </trkpt>
      <trkpt lat="46.55612" lon="0.33929">
        <ele>81.221795122139</ele>
        <time>2021-09-21T12:11:00Z</time>
      </trkpt>
      <trkpt lat="46.55614" lon="0.3393">
        <ele>81.702134284191</ele>
        <time>2021-09-21T12:11:02Z</time>
      </trkpt>
      <trkpt lat="46.55616" lon="0.33929">
        <ele>81.452563135885</ele>
        <time>2021-09-21T12:11:04Z</time>
      </trkpt>
      <trkpt lat="46.55618" lon="0.3393">
        <ele>81.456833891571</ele>
        <time>2021-09-21T12:11:06Z</time>
      </trkpt>
      <trkpt lat="46.55621" lon="0.3393">
        <ele>81.697023522109</ele>
        <time>2021-09-21T12:11:08Z</time>
      </trkpt>
      <trkpt lat="46.55623" lon="0.33929">
        <ele>81.862195030786</ele>
        <time>2021-09-21T12:11:10Z</time>
      </trkpt>
      <trkpt lat="46.55625" lon="0.33929">
        <ele>81.613367218524</ele>
        <time>2021-09-21T12:11:12Z</time>
      </trkpt>
      <trkpt lat="46.55627" lon="0.3393">
        <ele>81.612343267538</ele>
        <time>2021-09-21T12:11:14Z</time>
      </trkpt>
      <trkpt lat="46.55629" lon="0.33929">
        <ele>81.651589733548</ele>
        <time>2021-09-21T12:11:16Z</time>
      </trkpt>
      <trkpt lat="46.55632" lon="0.33929">
        <ele>81.647701547481</ele>
        <time>2021-09-21T12:11:18Z</time>
      </trkpt>
      <trkpt lat="46.55634" lon="0.33928">
        <ele>81.792849859223</ele>
        <time>2021-09-21T12:11:20Z</time>
      </trkpt>
      <trkpt lat="46.55636" lon="0.33929">
        <ele>81.953185246326</ele>
        <time>2021-09-21T12:11:22Z</time>
      </trkpt>
      <trkpt lat="46.55638" lon="0.33929">
        <ele>81.871805073693</ele>
        <time>2021-09-21T12:11:24Z</time>
      </trkpt>
      <trkpt lat="46.5564" lon="0.3393">
        <ele>81.873869959265</ele>
        <time>2021-09-21T12:11:26Z</time>
      </trkpt>
      <trkpt lat="46.55643" lon="0.3393">
        <ele>81.442204977386</ele>
        <time>2021-09-21T12:11:28Z</time>
      </trkpt>
      <trkpt lat="46.55646" lon="0.33931">
        <ele>81.887065451592</ele>
        <time>2021-09-21T12:11:30Z</time>
      </trkpt>
      <trkpt lat="46.55648" lon="0.3393">
        <ele>81.820930466987</ele>
        <time>2021-09-21T12:11:32Z</time>
      </trkpt>
      <trkpt lat="46.5565" lon="0.3393">
        <ele>82.432500135154</ele>
        <time>2021-09-21T12:11:34Z</time>
      </trkpt>
      <trkpt lat="46.55653" lon="0.33929">
        <ele>82.759390191175</ele>
        <time>2021-09-21T12:11:36Z</time>
      </trkpt>
      <trkpt lat="46.55655" lon="0.3393">
        <ele>82.557225329801</ele>
        <time>2021-09-21T12:11:38Z</time>
      </trkpt>
      <trkpt lat="46.55657" lon="0.33931">
        <ele>83.002691586502</ele>
        <time>2021-09-21T12:11:41Z</time>
      </trkpt>
      <trkpt lat="46.5566" lon="0.3393">
        <ele>82.776192148216</ele>
        <time>2021-09-21T12:11:44Z</time>
      </trkpt>
      <trkpt lat="46.55662" lon="0.33928">
        <ele>82.720638669096</ele>
        <time>2021-09-21T12:11:47Z</time>
      </trkpt>
      <trkpt lat="46.55665" lon="0.33928">
        <ele>82.511057638563</ele>
        <time>2021-09-21T12:11:49Z</time>
      </trkpt>
      <trkpt lat="46.55668" lon="0.33927">
        <ele>82.539470116608</ele>
        <time>2021-09-21T12:11:51Z</time>
      </trkpt>
      <trkpt lat="46.55671" lon="0.33926">
        <ele>82.83684256766</ele>
        <time>2021-09-21T12:11:53Z</time>
      </trkpt>
      <trkpt lat="46.55674" lon="0.33925">
        <ele>82.470128617249</ele>
        <time>2021-09-21T12:11:55Z</time>
      </trkpt>
      <trkpt lat="46.55676" lon="0.33924">
        <ele>83.025505801663</ele>
        <time>2021-09-21T12:11:57Z</time>
      </trkpt>
      <trkpt lat="46.55678" lon="0.33922">
        <ele>83.45351300668</ele>
        <time>2021-09-21T12:11:58Z</time>
      </trkpt>
      <trkpt lat="46.5568" lon="0.3392">
        <ele>82.454461330548</ele>
        <time>2021-09-21T12:12:00Z</time>
      </trkpt>
      <trkpt lat="46.55683" lon="0.33919">
        <ele>81.500608932227</ele>
        <time>2021-09-21T12:12:02Z</time>
      </trkpt>
      <trkpt lat="46.55685" lon="0.33918">
        <ele>81.831803852692</ele>
        <time>2021-09-21T12:12:04Z</time>
      </trkpt>
      <trkpt lat="46.55688" lon="0.33916">
        <ele>81.598427874967</ele>
        <time>2021-09-21T12:12:06Z</time>
      </trkpt>
      <trkpt lat="46.55689" lon="0.33915">
        <ele>81.609746604227</ele>
        <time>2021-09-21T12:12:07Z</time>
      </trkpt>
      <trkpt lat="46.55692" lon="0.33914">
        <ele>81.360609286465</ele>
        <time>2021-09-21T12:12:09Z</time>
      </trkpt>
      <trkpt lat="46.55695" lon="0.33913">
        <ele>81.118827831</ele>
        <time>2021-09-21T12:12:11Z</time>
      </trkpt>
      <trkpt lat="46.55697" lon="0.33913">
        <ele>81.179757722653</ele>
        <time>2021-09-21T12:12:13Z</time>
      </trkpt>
      <trkpt lat="46.55699" lon="0.33913">
        <ele>81.354378571734</ele>
        <time>2021-09-21T12:12:14Z</time>
      </trkpt>
      <trkpt lat="46.55701" lon="0.33913">
        <ele>81.430733688176</ele>
        <time>2021-09-21T12:12:16Z</time>
      </trkpt>
      <trkpt lat="46.55704" lon="0.33912">
        <ele>81.801336782984</ele>
        <time>2021-09-21T12:12:18Z</time>
      </trkpt>
      <trkpt lat="46.55706" lon="0.33911">
        <ele>81.650778918527</ele>
        <time>2021-09-21T12:12:20Z</time>
      </trkpt>
      <trkpt lat="46.55709" lon="0.3391">
        <ele>81.240973631851</ele>
        <time>2021-09-21T12:12:22Z</time>
      </trkpt>
      <trkpt lat="46.55711" lon="0.33908">
        <ele>81.090228450485</ele>
        <time>2021-09-21T12:12:24Z</time>
      </trkpt>
      <trkpt lat="46.55714" lon="0.33906">
        <ele>81.335219288245</ele>
        <time>2021-09-21T12:12:26Z</time>
      </trkpt>
      <trkpt lat="46.55717" lon="0.33905">
        <ele>81.63356732484</ele>
        <time>2021-09-21T12:12:28Z</time>
      </trkpt>
      <trkpt lat="46.55718" lon="0.33904">
        <ele>81.575071442872</ele>
        <time>2021-09-21T12:12:30Z</time>
      </trkpt>
      <trkpt lat="46.55721" lon="0.33903">
        <ele>81.37550532259</ele>
        <time>2021-09-21T12:12:32Z</time>
      </trkpt>
      <trkpt lat="46.55722" lon="0.33903">
        <ele>81.483995494433</ele>
        <time>2021-09-21T12:12:34Z</time>
      </trkpt>
      <trkpt lat="46.55724" lon="0.33902">
        <ele>81.69696386531</ele>
        <time>2021-09-21T12:12:35Z</time>
      </trkpt>
      <trkpt lat="46.55726" lon="0.33901">
        <ele>81.542298248038</ele>
        <time>2021-09-21T12:12:37Z</time>
      </trkpt>
      <trkpt lat="46.55728" lon="0.339">
        <ele>81.775008676574</ele>
        <time>2021-09-21T12:12:39Z</time>
      </trkpt>
      <trkpt lat="46.55731" lon="0.339">
        <ele>81.5040386701</ele>
        <time>2021-09-21T12:12:41Z</time>
      </trkpt>
      <trkpt lat="46.55731" lon="0.33903">
        <ele>81.268981074914</ele>
        <time>2021-09-21T12:12:43Z</time>
      </trkpt>
      <trkpt lat="46.5573" lon="0.33906">
        <ele>81.774206950329</ele>
        <time>2021-09-21T12:12:45Z</time>
      </trkpt>
      <trkpt lat="46.55732" lon="0.33909">
        <ele>81.707842103206</ele>
        <time>2021-09-21T12:12:48Z</time>
      </trkpt>
      <trkpt lat="46.55734" lon="0.33906">
        <ele>82.237429581583</ele>
        <time>2021-09-21T12:12:51Z</time>
      </trkpt>
      <trkpt lat="46.55735" lon="0.33904">
        <ele>82.214854379185</ele>
        <time>2021-09-21T12:12:53Z</time>
      </trkpt>
      <trkpt lat="46.55736" lon="0.33902">
        <ele>81.929858302698</ele>
        <time>2021-09-21T12:12:54Z</time>
      </trkpt>
      <trkpt lat="46.5574" lon="0.33899">
        <ele>81.761238482781</ele>
        <time>2021-09-21T12:12:55Z</time>
      </trkpt>
      <trkpt lat="46.55742" lon="0.33895">
        <ele>81.568005674519</ele>
        <time>2021-09-21T12:12:56Z</time>
      </trkpt>
      <trkpt lat="46.55743" lon="0.33893">
        <ele>81.699727841653</ele>
        <time>2021-09-21T12:12:57Z</time>
      </trkpt>
      <trkpt lat="46.55745" lon="0.3389">
        <ele>81.995082037523</ele>
        <time>2021-09-21T12:12:58Z</time>
      </trkpt>
      <trkpt lat="46.55748" lon="0.33888">
        <ele>81.865270944312</ele>
        <time>2021-09-21T12:12:59Z</time>
      </trkpt>
      <trkpt lat="46.55749" lon="0.33885">
        <ele>81.155477233231</ele>
        <time>2021-09-21T12:13:00Z</time>
      </trkpt>
      <trkpt lat="46.55752" lon="0.33881">
        <ele>81.055835691281</ele>
        <time>2021-09-21T12:13:02Z</time>
      </trkpt>
      <trkpt lat="46.55753" lon="0.33878">
        <ele>80.717063440941</ele>
        <time>2021-09-21T12:13:03Z</time>
      </trkpt>
      <trkpt lat="46.55756" lon="0.33877">
        <ele>81.055265597999</ele>
        <time>2021-09-21T12:13:06Z</time>
      </trkpt>
      <trkpt lat="46.55758" lon="0.33876">
        <ele>79.960819288157</ele>
        <time>2021-09-21T12:13:08Z</time>
      </trkpt>
      <trkpt lat="46.5576" lon="0.33874">
        <ele>79.462462518364</ele>
        <time>2021-09-21T12:13:10Z</time>
      </trkpt>
      <trkpt lat="46.55762" lon="0.33873">
        <ele>79.505116468295</ele>
        <time>2021-09-21T12:13:13Z</time>
      </trkpt>
      <trkpt lat="46.55765" lon="0.33873">
        <ele>79.774863140658</ele>
        <time>2021-09-21T12:13:16Z</time>
      </trkpt>
      <trkpt lat="46.55767" lon="0.33873">
        <ele>79.835996825248</ele>
        <time>2021-09-21T12:13:18Z</time>
      </trkpt>
      <trkpt lat="46.55768" lon="0.33876">
        <ele>79.691839270294</ele>
        <time>2021-09-21T12:13:21Z</time>
      </trkpt>
      <trkpt lat="46.5577" lon="0.33877">
        <ele>79.922539011575</ele>
        <time>2021-09-21T12:13:23Z</time>
      </trkpt>
      <trkpt lat="46.55771" lon="0.33879">
        <ele>79.920581282116</ele>
        <time>2021-09-21T12:13:24Z</time>
      </trkpt>
      <trkpt lat="46.55773" lon="0.33881">
        <ele>79.91042879317</ele>
        <time>2021-09-21T12:13:27Z</time>
      </trkpt>
      <trkpt lat="46.55776" lon="0.33883">
        <ele>80.085130351596</ele>
        <time>2021-09-21T12:13:30Z</time>
      </trkpt>
      <trkpt lat="46.55777" lon="0.33885">
        <ele>80.278951251879</ele>
        <time>2021-09-21T12:13:32Z</time>
      </trkpt>
      <trkpt lat="46.55779" lon="0.33886">
        <ele>80.152150149457</ele>
        <time>2021-09-21T12:13:34Z</time>
      </trkpt>
      <trkpt lat="46.5578" lon="0.33888">
        <ele>80.573814193718</ele>
        <time>2021-09-21T12:13:36Z</time>
      </trkpt>
      <trkpt lat="46.55782" lon="0.3389">
        <ele>80.450643240474</ele>
        <time>2021-09-21T12:13:38Z</time>
      </trkpt>
      <trkpt lat="46.55784" lon="0.3389">
        <ele>80.271313512698</ele>
        <time>2021-09-21T12:13:40Z</time>
      </trkpt>
      <trkpt lat="46.55786" lon="0.33891">
        <ele>80.675182932988</ele>
        <time>2021-09-21T12:13:42Z</time>
      </trkpt>
      <trkpt lat="46.55788" lon="0.33892">
        <ele>80.745320674032</ele>
        <time>2021-09-21T12:13:44Z</time>
      </trkpt>
      <trkpt lat="46.55791" lon="0.33894">
        <ele>80.704395887442</ele>
        <time>2021-09-21T12:13:46Z</time>
      </trkpt>
      <trkpt lat="46.55793" lon="0.33895">
        <ele>80.845256320201</ele>
        <time>2021-09-21T12:13:48Z</time>
      </trkpt>
      <trkpt lat="46.55795" lon="0.33897">
        <ele>80.991082805209</ele>
        <time>2021-09-21T12:13:50Z</time>
      </trkpt>
      <trkpt lat="46.55798" lon="0.33899">
        <ele>80.893520334736</ele>
        <time>2021-09-21T12:13:52Z</time>
      </trkpt>
      <trkpt lat="46.558" lon="0.33902">
        <ele>80.961284703575</ele>
        <time>2021-09-21T12:13:54Z</time>
      </trkpt>
      <trkpt lat="46.55802" lon="0.33904">
        <ele>81.230545734987</ele>
        <time>2021-09-21T12:13:56Z</time>
      </trkpt>
      <trkpt lat="46.55805" lon="0.33906">
        <ele>81.808729023673</ele>
        <time>2021-09-21T12:13:58Z</time>
      </trkpt>
      <trkpt lat="46.55807" lon="0.33908">
        <ele>81.778717483394</ele>
        <time>2021-09-21T12:14:00Z</time>
      </trkpt>
      <trkpt lat="46.55809" lon="0.33909">
        <ele>81.639620082453</ele>
        <time>2021-09-21T12:14:03Z</time>
      </trkpt>
      <trkpt lat="46.55812" lon="0.3391">
        <ele>81.940306800418</ele>
        <time>2021-09-21T12:14:06Z</time>
      </trkpt>
      <trkpt lat="46.55814" lon="0.33911">
        <ele>82.146352456883</ele>
        <time>2021-09-21T12:14:08Z</time>
      </trkpt>
      <trkpt lat="46.55816" lon="0.33913">
        <ele>82.412319554947</ele>
        <time>2021-09-21T12:14:10Z</time>
      </trkpt>
      <trkpt lat="46.55818" lon="0.33915">
        <ele>82.761553401127</ele>
        <time>2021-09-21T12:14:12Z</time>
      </trkpt>
      <trkpt lat="46.5582" lon="0.33916">
        <ele>82.77954337839</ele>
        <time>2021-09-21T12:14:14Z</time>
      </trkpt>
      <trkpt lat="46.55822" lon="0.33916">
        <ele>82.745422007516</ele>
        <time>2021-09-21T12:14:17Z</time>
      </trkpt>
      <trkpt lat="46.55824" lon="0.33917">
        <ele>82.623769161291</ele>
        <time>2021-09-21T12:14:19Z</time>
      </trkpt>
      <trkpt lat="46.55826" lon="0.33917">
        <ele>82.660460480489</ele>
        <time>2021-09-21T12:14:21Z</time>
      </trkpt>
      <trkpt lat="46.55828" lon="0.33916">
        <ele>82.698183109984</ele>
        <time>2021-09-21T12:14:24Z</time>
      </trkpt>
      <trkpt lat="46.55831" lon="0.33916">
        <ele>82.557049761526</ele>
        <time>2021-09-21T12:14:26Z</time>
      </trkpt>
      <trkpt lat="46.55834" lon="0.33916">
        <ele>82.597663420253</ele>
        <time>2021-09-21T12:14:28Z</time>
      </trkpt>
      <trkpt lat="46.55836" lon="0.33916">
        <ele>82.320648096502</ele>
        <time>2021-09-21T12:14:31Z</time>
      </trkpt>
      <trkpt lat="46.55838" lon="0.33915">
        <ele>82.432537035085</ele>
        <time>2021-09-21T12:14:33Z</time>
      </trkpt>
      <trkpt lat="46.5584" lon="0.33915">
        <ele>82.427637984045</ele>
        <time>2021-09-21T12:14:35Z</time>
      </trkpt>
      <trkpt lat="46.55843" lon="0.33915">
        <ele>82.89691454079</ele>
        <time>2021-09-21T12:14:37Z</time>
      </trkpt>
      <trkpt lat="46.55846" lon="0.33913">
        <ele>83.049388480373</ele>
        <time>2021-09-21T12:14:39Z</time>
      </trkpt>
      <trkpt lat="46.55848" lon="0.33913">
        <ele>83.389982900582</ele>
        <time>2021-09-21T12:14:41Z</time>
      </trkpt>
      <trkpt lat="46.5585" lon="0.33913">
        <ele>83.14497343637</ele>
        <time>2021-09-21T12:14:43Z</time>
      </trkpt>
      <trkpt lat="46.55852" lon="0.33911">
        <ele>83.051755589433</ele>
        <time>2021-09-21T12:14:45Z</time>
      </trkpt>
      <trkpt lat="46.55854" lon="0.3391">
        <ele>83.113101177849</ele>
        <time>2021-09-21T12:14:47Z</time>
      </trkpt>
      <trkpt lat="46.55857" lon="0.33909">
        <ele>83.181914998218</ele>
        <time>2021-09-21T12:14:49Z</time>
      </trkpt>
      <trkpt lat="46.55859" lon="0.33909">
        <ele>82.920988192782</ele>
        <time>2021-09-21T12:14:51Z</time>
      </trkpt>
      <trkpt lat="46.55861" lon="0.33908">
        <ele>82.504615921527</ele>
        <time>2021-09-21T12:14:54Z</time>
      </trkpt>
      <trkpt lat="46.55864" lon="0.33907">
        <ele>82.675273342989</ele>
        <time>2021-09-21T12:14:56Z</time>
      </trkpt>
      <trkpt lat="46.55866" lon="0.33906">
        <ele>82.659297877923</ele>
        <time>2021-09-21T12:14:58Z</time>
      </trkpt>
      <trkpt lat="46.55868" lon="0.33904">
        <ele>82.757801554166</ele>
        <time>2021-09-21T12:15:00Z</time>
      </trkpt>
      <trkpt lat="46.55871" lon="0.33902">
        <ele>82.565104920417</ele>
        <time>2021-09-21T12:15:02Z</time>
      </trkpt>
      <trkpt lat="46.55874" lon="0.33901">
        <ele>82.605506156571</ele>
        <time>2021-09-21T12:15:05Z</time>
      </trkpt>
      <trkpt lat="46.55878" lon="0.33899">
        <ele>82.352100085467</ele>
        <time>2021-09-21T12:15:07Z</time>
      </trkpt>
      <trkpt lat="46.5588" lon="0.33897">
        <ele>82.653929793276</ele>
        <time>2021-09-21T12:15:10Z</time>
      </trkpt>
      <trkpt lat="46.55882" lon="0.33895">
        <ele>82.56805843953</ele>
        <time>2021-09-21T12:15:11Z</time>
      </trkpt>
      <trkpt lat="46.55884" lon="0.33894">
        <ele>82.28745644819</ele>
        <time>2021-09-21T12:15:13Z</time>
      </trkpt>
      <trkpt lat="46.55886" lon="0.33891">
        <ele>82.194944204763</ele>
        <time>2021-09-21T12:15:15Z</time>
      </trkpt>
      <trkpt lat="46.55888" lon="0.3389">
        <ele>82.552503671497</ele>
        <time>2021-09-21T12:15:16Z</time>
      </trkpt>
      <trkpt lat="46.5589" lon="0.33888">
        <ele>81.956412366591</ele>
        <time>2021-09-21T12:15:18Z</time>
      </trkpt>
      <trkpt lat="46.55893" lon="0.33886">
        <ele>82.223798383959</ele>
        <time>2021-09-21T12:15:20Z</time>
      </trkpt>
      <trkpt lat="46.55895" lon="0.33883">
        <ele>82.033538145944</ele>
        <time>2021-09-21T12:15:22Z</time>
      </trkpt>
      <trkpt lat="46.55897" lon="0.33881">
        <ele>81.989182638004</ele>
        <time>2021-09-21T12:15:23Z</time>
      </trkpt>
      <trkpt lat="46.55899" lon="0.3388">
        <ele>81.628338493407</ele>
        <time>2021-09-21T12:15:24Z</time>
      </trkpt>
      <trkpt lat="46.55901" lon="0.33877">
        <ele>82.29241407942</ele>
        <time>2021-09-21T12:15:25Z</time>
      </trkpt>
      <trkpt lat="46.55903" lon="0.33875">
        <ele>82.202788634226</ele>
        <time>2021-09-21T12:15:27Z</time>
      </trkpt>
      <trkpt lat="46.55905" lon="0.33874">
        <ele>81.978071809746</ele>
        <time>2021-09-21T12:15:29Z</time>
      </trkpt>
      <trkpt lat="46.55908" lon="0.33872">
        <ele>82.022870694287</ele>
        <time>2021-09-21T12:15:31Z</time>
      </trkpt>
      <trkpt lat="46.55909" lon="0.33871">
        <ele>82.042315430008</ele>
        <time>2021-09-21T12:15:33Z</time>
      </trkpt>
      <trkpt lat="46.55912" lon="0.3387">
        <ele>82.29815263208</ele>
        <time>2021-09-21T12:15:36Z</time>
      </trkpt>
      <trkpt lat="46.55914" lon="0.33869">
        <ele>82.257531041279</ele>
        <time>2021-09-21T12:15:38Z</time>
      </trkpt>
      <trkpt lat="46.55916" lon="0.33867">
        <ele>82.398496525362</ele>
        <time>2021-09-21T12:15:40Z</time>
      </trkpt>
      <trkpt lat="46.55917" lon="0.33865">
        <ele>82.377152731642</ele>
        <time>2021-09-21T12:15:43Z</time>
      </trkpt>
      <trkpt lat="46.55919" lon="0.33863">
        <ele>82.350711589679</ele>
        <time>2021-09-21T12:15:45Z</time>
      </trkpt>
      <trkpt lat="46.55921" lon="0.33861">
        <ele>82.255730590783</ele>
        <time>2021-09-21T12:15:47Z</time>
      </trkpt>
      <trkpt lat="46.55923" lon="0.33859">
        <ele>82.618611333892</ele>
        <time>2021-09-21T12:15:49Z</time>
      </trkpt>
      <trkpt lat="46.55926" lon="0.33856">
        <ele>82.566184044816</ele>
        <time>2021-09-21T12:15:51Z</time>
      </trkpt>
      <trkpt lat="46.55929" lon="0.33855">
        <ele>82.60001469031</ele>
        <time>2021-09-21T12:15:53Z</time>
      </trkpt>
      <trkpt lat="46.5593" lon="0.33853">
        <ele>82.620493341237</ele>
        <time>2021-09-21T12:15:55Z</time>
      </trkpt>
      <trkpt lat="46.55932" lon="0.33851">
        <ele>83.04552441556</ele>
        <time>2021-09-21T12:15:58Z</time>
      </trkpt>
      <trkpt lat="46.55933" lon="0.33849">
        <ele>82.966365342028</ele>
        <time>2021-09-21T12:15:59Z</time>
      </trkpt>
      <trkpt lat="46.55935" lon="0.33847">
        <ele>83.103531960398</ele>
        <time>2021-09-21T12:16:00Z</time>
      </trkpt>
      <trkpt lat="46.55937" lon="0.33845">
        <ele>82.823697002605</ele>
        <time>2021-09-21T12:16:02Z</time>
      </trkpt>
      <trkpt lat="46.55939" lon="0.33843">
        <ele>82.997844064608</ele>
        <time>2021-09-21T12:16:04Z</time>
      </trkpt>
      <trkpt lat="46.55941" lon="0.3384">
        <ele>82.783888442442</ele>
        <time>2021-09-21T12:16:06Z</time>
      </trkpt>
      <trkpt lat="46.55944" lon="0.33838">
        <ele>82.743007775396</ele>
        <time>2021-09-21T12:16:09Z</time>
      </trkpt>
      <trkpt lat="46.55945" lon="0.33836">
        <ele>82.862317886204</ele>
        <time>2021-09-21T12:16:11Z</time>
      </trkpt>
      <trkpt lat="46.55947" lon="0.33834">
        <ele>82.562897838652</ele>
        <time>2021-09-21T12:16:13Z</time>
      </trkpt>
      <trkpt lat="46.55949" lon="0.33833">
        <ele>82.432545401156</ele>
        <time>2021-09-21T12:16:15Z</time>
      </trkpt>
      <trkpt lat="46.55951" lon="0.33829">
        <ele>82.77930256445</ele>
        <time>2021-09-21T12:16:18Z</time>
      </trkpt>
      <trkpt lat="46.55952" lon="0.33827">
        <ele>82.853176141158</ele>
        <time>2021-09-21T12:16:19Z</time>
      </trkpt>
      <trkpt lat="46.55954" lon="0.33823">
        <ele>82.737968879752</ele>
        <time>2021-09-21T12:16:22Z</time>
      </trkpt>
      <trkpt lat="46.55956" lon="0.3382">
        <ele>82.769960078411</ele>
        <time>2021-09-21T12:16:25Z</time>
      </trkpt>
      <trkpt lat="46.55959" lon="0.33817">
        <ele>82.838683296926</ele>
        <time>2021-09-21T12:16:27Z</time>
      </trkpt>
      <trkpt lat="46.55961" lon="0.33815">
        <ele>82.878850929439</ele>
        <time>2021-09-21T12:16:30Z</time>
      </trkpt>
      <trkpt lat="46.55963" lon="0.33812">
        <ele>83.018619600683</ele>
        <time>2021-09-21T12:16:33Z</time>
      </trkpt>
      <trkpt lat="46.55965" lon="0.3381">
        <ele>82.915684183128</ele>
        <time>2021-09-21T12:16:35Z</time>
      </trkpt>
      <trkpt lat="46.55967" lon="0.33808">
        <ele>82.946740171872</ele>
        <time>2021-09-21T12:16:37Z</time>
      </trkpt>
      <trkpt lat="46.55969" lon="0.33805">
        <ele>82.877076454461</ele>
        <time>2021-09-21T12:16:40Z</time>
      </trkpt>
      <trkpt lat="46.55971" lon="0.33803">
        <ele>83.095544210635</ele>
        <time>2021-09-21T12:16:42Z</time>
      </trkpt>
      <trkpt lat="46.55972" lon="0.33801">
        <ele>82.931256220676</ele>
        <time>2021-09-21T12:16:44Z</time>
      </trkpt>
      <trkpt lat="46.55974" lon="0.33799">
        <ele>82.871956082061</ele>
        <time>2021-09-21T12:16:47Z</time>
      </trkpt>
      <trkpt lat="46.55976" lon="0.33796">
        <ele>82.903629918583</ele>
        <time>2021-09-21T12:16:49Z</time>
      </trkpt>
      <trkpt lat="46.55979" lon="0.33794">
        <ele>83.10797627084</ele>
        <time>2021-09-21T12:16:51Z</time>
      </trkpt>
      <trkpt lat="46.55981" lon="0.33792">
        <ele>83.224373293109</ele>
        <time>2021-09-21T12:16:53Z</time>
      </trkpt>
      <trkpt lat="46.55982" lon="0.3379">
        <ele>83.02463408839</ele>
        <time>2021-09-21T12:16:54Z</time>
      </trkpt>
      <trkpt lat="46.55985" lon="0.33787">
        <ele>83.101213921793</ele>
        <time>2021-09-21T12:16:56Z</time>
      </trkpt>
      <trkpt lat="46.55986" lon="0.33786">
        <ele>83.667259706184</ele>
        <time>2021-09-21T12:16:58Z</time>
      </trkpt>
      <trkpt lat="46.55989" lon="0.33783">
        <ele>83.319207463413</ele>
        <time>2021-09-21T12:17:00Z</time>
      </trkpt>
      <trkpt lat="46.55991" lon="0.33782">
        <ele>83.500109424815</ele>
        <time>2021-09-21T12:17:02Z</time>
      </trkpt>
      <trkpt lat="46.55993" lon="0.33779">
        <ele>83.340147231705</ele>
        <time>2021-09-21T12:17:04Z</time>
      </trkpt>
      <trkpt lat="46.55995" lon="0.33778">
        <ele>83.354799069464</ele>
        <time>2021-09-21T12:17:06Z</time>
      </trkpt>
      <trkpt lat="46.55998" lon="0.33775">
        <ele>83.577701753005</ele>
        <time>2021-09-21T12:17:09Z</time>
      </trkpt>
      <trkpt lat="46.56" lon="0.33773">
        <ele>83.538059443235</ele>
        <time>2021-09-21T12:17:11Z</time>
      </trkpt>
      <trkpt lat="46.56001" lon="0.33772">
        <ele>83.64637988247</ele>
        <time>2021-09-21T12:17:13Z</time>
      </trkpt>
      <trkpt lat="46.56003" lon="0.33769">
        <ele>83.418461161666</ele>
        <time>2021-09-21T12:17:16Z</time>
      </trkpt>
      <trkpt lat="46.56005" lon="0.33768">
        <ele>83.681840389036</ele>
        <time>2021-09-21T12:17:18Z</time>
      </trkpt>
      <trkpt lat="46.56007" lon="0.33767">
        <ele>84.010941471905</ele>
        <time>2021-09-21T12:17:20Z</time>
      </trkpt>
      <trkpt lat="46.56008" lon="0.33764">
        <ele>83.877291620709</ele>
        <time>2021-09-21T12:17:22Z</time>
      </trkpt>
      <trkpt lat="46.5601" lon="0.33764">
        <ele>83.68687220756</ele>
        <time>2021-09-21T12:17:24Z</time>
      </trkpt>
      <trkpt lat="46.56012" lon="0.33761">
        <ele>83.950374608859</ele>
        <time>2021-09-21T12:17:26Z</time>
      </trkpt>
      <trkpt lat="46.56013" lon="0.33759">
        <ele>83.903686653823</ele>
        <time>2021-09-21T12:17:28Z</time>
      </trkpt>
      <trkpt lat="46.56014" lon="0.33757">
        <ele>83.988019569777</ele>
        <time>2021-09-21T12:17:30Z</time>
      </trkpt>
      <trkpt lat="46.56016" lon="0.33755">
        <ele>83.931455770507</ele>
        <time>2021-09-21T12:17:32Z</time>
      </trkpt>
      <trkpt lat="46.56018" lon="0.33753">
        <ele>83.82783852797</ele>
        <time>2021-09-21T12:17:34Z</time>
      </trkpt>
      <trkpt lat="46.56019" lon="0.33751">
        <ele>83.80414989125</ele>
        <time>2021-09-21T12:17:35Z</time>
      </trkpt>
      <trkpt lat="46.56022" lon="0.33749">
        <ele>83.897983198985</ele>
        <time>2021-09-21T12:17:37Z</time>
      </trkpt>
      <trkpt lat="46.56024" lon="0.33748">
        <ele>83.434024115093</ele>
        <time>2021-09-21T12:17:39Z</time>
      </trkpt>
      <trkpt lat="46.56026" lon="0.33746">
        <ele>83.140849409625</ele>
        <time>2021-09-21T12:17:41Z</time>
      </trkpt>
      <trkpt lat="46.56029" lon="0.33743">
        <ele>83.341850992292</ele>
        <time>2021-09-21T12:17:43Z</time>
      </trkpt>
      <trkpt lat="46.56031" lon="0.33741">
        <ele>83.438690158539</ele>
        <time>2021-09-21T12:17:44Z</time>
      </trkpt>
      <trkpt lat="46.56033" lon="0.33738">
        <ele>83.300564762205</ele>
        <time>2021-09-21T12:17:46Z</time>
      </trkpt>
      <trkpt lat="46.56035" lon="0.33736">
        <ele>83.023384415545</ele>
        <time>2021-09-21T12:17:48Z</time>
      </trkpt>
      <trkpt lat="46.56037" lon="0.33734">
        <ele>82.962697193027</ele>
        <time>2021-09-21T12:17:49Z</time>
      </trkpt>
      <trkpt lat="46.56038" lon="0.33732">
        <ele>83.126241366379</ele>
        <time>2021-09-21T12:17:50Z</time>
      </trkpt>
      <trkpt lat="46.56041" lon="0.3373">
        <ele>82.623290151358</ele>
        <time>2021-09-21T12:17:52Z</time>
      </trkpt>
      <trkpt lat="46.56043" lon="0.33728">
        <ele>82.996033065021</ele>
        <time>2021-09-21T12:17:55Z</time>
      </trkpt>
      <trkpt lat="46.56045" lon="0.33725">
        <ele>82.654296767898</ele>
        <time>2021-09-21T12:17:57Z</time>
      </trkpt>
      <trkpt lat="46.56047" lon="0.33723">
        <ele>82.71011428535</ele>
        <time>2021-09-21T12:17:59Z</time>
      </trkpt>
      <trkpt lat="46.56048" lon="0.33721">
        <ele>82.33372576721</ele>
        <time>2021-09-21T12:18:01Z</time>
      </trkpt>
      <trkpt lat="46.56051" lon="0.33717">
        <ele>82.326936436817</ele>
        <time>2021-09-21T12:18:03Z</time>
      </trkpt>
      <trkpt lat="46.56053" lon="0.33716">
        <ele>82.026024215855</ele>
        <time>2021-09-21T12:18:04Z</time>
      </trkpt>
      <trkpt lat="46.56054" lon="0.33714">
        <ele>81.918962116353</ele>
        <time>2021-09-21T12:18:06Z</time>
      </trkpt>
      <trkpt lat="46.56055" lon="0.33712">
        <ele>81.696217684075</ele>
        <time>2021-09-21T12:18:08Z</time>
      </trkpt>
      <trkpt lat="46.56057" lon="0.3371">
        <ele>81.434121407568</ele>
        <time>2021-09-21T12:18:09Z</time>
      </trkpt>
      <trkpt lat="46.56059" lon="0.33708">
        <ele>81.634106272832</ele>
        <time>2021-09-21T12:18:11Z</time>
      </trkpt>
      <trkpt lat="46.56061" lon="0.33705">
        <ele>81.713145084679</ele>
        <time>2021-09-21T12:18:13Z</time>
      </trkpt>
      <trkpt lat="46.56063" lon="0.33703">
        <ele>81.452620955184</ele>
        <time>2021-09-21T12:18:15Z</time>
      </trkpt>
      <trkpt lat="46.56065" lon="0.337">
        <ele>81.411031465046</ele>
        <time>2021-09-21T12:18:19Z</time>
      </trkpt>
      <trkpt lat="46.56067" lon="0.33698">
        <ele>81.660344935022</ele>
        <time>2021-09-21T12:18:21Z</time>
      </trkpt>
      <trkpt lat="46.56069" lon="0.33696">
        <ele>81.675082507543</ele>
        <time>2021-09-21T12:18:23Z</time>
      </trkpt>
      <trkpt lat="46.56071" lon="0.33695">
        <ele>81.625832322054</ele>
        <time>2021-09-21T12:18:25Z</time>
      </trkpt>
      <trkpt lat="46.56073" lon="0.33693">
        <ele>81.787584125996</ele>
        <time>2021-09-21T12:18:27Z</time>
      </trkpt>
      <trkpt lat="46.56075" lon="0.33692">
        <ele>81.701535471715</ele>
        <time>2021-09-21T12:18:28Z</time>
      </trkpt>
      <trkpt lat="46.56077" lon="0.3369">
        <ele>82.02148876898</ele>
        <time>2021-09-21T12:18:30Z</time>
      </trkpt>
      <trkpt lat="46.56078" lon="0.33688">
        <ele>81.806510154158</ele>
        <time>2021-09-21T12:18:32Z</time>
      </trkpt>
      <trkpt lat="46.5608" lon="0.33686">
        <ele>82.111155834049</ele>
        <time>2021-09-21T12:18:35Z</time>
      </trkpt>
      <trkpt lat="46.56082" lon="0.33684">
        <ele>82.452318673022</ele>
        <time>2021-09-21T12:18:37Z</time>
      </trkpt>
      <trkpt lat="46.56084" lon="0.33681">
        <ele>82.212620925158</ele>
        <time>2021-09-21T12:18:39Z</time>
      </trkpt>
      <trkpt lat="46.56086" lon="0.3368">
        <ele>81.952972128987</ele>
        <time>2021-09-21T12:18:41Z</time>
      </trkpt>
      <trkpt lat="46.56088" lon="0.33679">
        <ele>82.547779956833</ele>
        <time>2021-09-21T12:18:43Z</time>
      </trkpt>
      <trkpt lat="46.5609" lon="0.33677">
        <ele>82.20223761443</ele>
        <time>2021-09-21T12:18:45Z</time>
      </trkpt>
      <trkpt lat="46.56092" lon="0.33675">
        <ele>82.278619414195</ele>
        <time>2021-09-21T12:18:47Z</time>
      </trkpt>
      <trkpt lat="46.56094" lon="0.33673">
        <ele>82.337263044901</ele>
        <time>2021-09-21T12:18:49Z</time>
      </trkpt>
      <trkpt lat="46.56096" lon="0.33671">
        <ele>82.50657581538</ele>
        <time>2021-09-21T12:18:52Z</time>
      </trkpt>
      <trkpt lat="46.56097" lon="0.33669">
        <ele>82.244355388917</ele>
        <time>2021-09-21T12:18:53Z</time>
      </trkpt>
      <trkpt lat="46.561" lon="0.33667">
        <ele>81.956824548542</ele>
        <time>2021-09-21T12:18:55Z</time>
      </trkpt>
      <trkpt lat="46.56102" lon="0.33665">
        <ele>82.345720071346</ele>
        <time>2021-09-21T12:18:57Z</time>
      </trkpt>
      <trkpt lat="46.56105" lon="0.33663">
        <ele>82.480253039859</ele>
        <time>2021-09-21T12:19:00Z</time>
      </trkpt>
      <trkpt lat="46.56108" lon="0.33661">
        <ele>82.462052854709</ele>
        <time>2021-09-21T12:19:02Z</time>
      </trkpt>
      <trkpt lat="46.56111" lon="0.33659">
        <ele>82.936906759627</ele>
        <time>2021-09-21T12:19:04Z</time>
      </trkpt>
      <trkpt lat="46.56113" lon="0.33659">
        <ele>83.020156381652</ele>
        <time>2021-09-21T12:19:07Z</time>
      </trkpt>
      <trkpt lat="46.56115" lon="0.33658">
        <ele>83.268940612674</ele>
        <time>2021-09-21T12:19:10Z</time>
      </trkpt>
      <trkpt lat="46.56118" lon="0.33656">
        <ele>83.650879400782</ele>
        <time>2021-09-21T12:19:13Z</time>
      </trkpt>
      <trkpt lat="46.5612" lon="0.33654">
        <ele>83.516769694164</ele>
        <time>2021-09-21T12:19:17Z</time>
      </trkpt>
      <trkpt lat="46.56122" lon="0.33652">
        <ele>83.446074484847</ele>
        <time>2021-09-21T12:19:19Z</time>
      </trkpt>
      <trkpt lat="46.56124" lon="0.3365">
        <ele>83.292364167981</ele>
        <time>2021-09-21T12:19:21Z</time>
      </trkpt>
      <trkpt lat="46.56126" lon="0.33648">
        <ele>82.845856490545</ele>
        <time>2021-09-21T12:19:23Z</time>
      </trkpt>
      <trkpt lat="46.56129" lon="0.33647">
        <ele>83.230758032762</ele>
        <time>2021-09-21T12:19:25Z</time>
      </trkpt>
      <trkpt lat="46.56132" lon="0.33645">
        <ele>83.571272090077</ele>
        <time>2021-09-21T12:19:27Z</time>
      </trkpt>
      <trkpt lat="46.56134" lon="0.33642">
        <ele>83.443937078118</ele>
        <time>2021-09-21T12:19:30Z</time>
      </trkpt>
      <trkpt lat="46.56137" lon="0.33641">
        <ele>83.42530164402</ele>
        <time>2021-09-21T12:19:32Z</time>
      </trkpt>
      <trkpt lat="46.5614" lon="0.33638">
        <ele>83.73662090674</ele>
        <time>2021-09-21T12:19:34Z</time>
      </trkpt>
      <trkpt lat="46.56141" lon="0.33637">
        <ele>83.781691210344</ele>
        <time>2021-09-21T12:19:36Z</time>
      </trkpt>
      <trkpt lat="46.56144" lon="0.33634">
        <ele>83.464930606075</ele>
        <time>2021-09-21T12:19:38Z</time>
      </trkpt>
      <trkpt lat="46.56146" lon="0.33632">
        <ele>83.888684407808</ele>
        <time>2021-09-21T12:19:40Z</time>
      </trkpt>
      <trkpt lat="46.56149" lon="0.33629">
        <ele>84.02114668116</ele>
        <time>2021-09-21T12:19:42Z</time>
      </trkpt>
      <trkpt lat="46.56152" lon="0.33627">
        <ele>84.053818088956</ele>
        <time>2021-09-21T12:19:44Z</time>
      </trkpt>
      <trkpt lat="46.56154" lon="0.33625">
        <ele>84.279383310117</ele>
        <time>2021-09-21T12:19:46Z</time>
      </trkpt>
      <trkpt lat="46.56156" lon="0.33622">
        <ele>84.650745199993</ele>
        <time>2021-09-21T12:19:48Z</time>
      </trkpt>
      <trkpt lat="46.56157" lon="0.3362">
        <ele>84.526788800023</ele>
        <time>2021-09-21T12:19:50Z</time>
      </trkpt>
      <trkpt lat="46.56159" lon="0.33618">
        <ele>84.667349624448</ele>
        <time>2021-09-21T12:19:52Z</time>
      </trkpt>
      <trkpt lat="46.56161" lon="0.33616">
        <ele>84.687593448907</ele>
        <time>2021-09-21T12:19:54Z</time>
      </trkpt>
      <trkpt lat="46.56163" lon="0.33614">
        <ele>84.548544034362</ele>
        <time>2021-09-21T12:19:56Z</time>
      </trkpt>
      <trkpt lat="46.56165" lon="0.33611">
        <ele>84.975601842627</ele>
        <time>2021-09-21T12:19:58Z</time>
      </trkpt>
      <trkpt lat="46.56167" lon="0.33609">
        <ele>85.316558283754</ele>
        <time>2021-09-21T12:20:00Z</time>
      </trkpt>
      <trkpt lat="46.56169" lon="0.33607">
        <ele>85.084869478829</ele>
        <time>2021-09-21T12:20:02Z</time>
      </trkpt>
      <trkpt lat="46.5617" lon="0.33605">
        <ele>85.509402084164</ele>
        <time>2021-09-21T12:20:04Z</time>
      </trkpt>
      <trkpt lat="46.56169" lon="0.33604">
        <ele>85.474079348147</ele>
        <time>2021-09-21T12:20:09Z</time>
      </trkpt>
      <trkpt lat="46.56167" lon="0.33603">
        <ele>85.031032641418</ele>
        <time>2021-09-21T12:20:12Z</time>
      </trkpt>
      <trkpt lat="46.56167" lon="0.336">
        <ele>84.432031252421</ele>
        <time>2021-09-21T12:20:17Z</time>
      </trkpt>
      <trkpt lat="46.56169" lon="0.33598">
        <ele>83.712138717063</ele>
        <time>2021-09-21T12:20:50Z</time>
      </trkpt>
      <trkpt lat="46.56171" lon="0.33598">
        <ele>84.253011711873</ele>
        <time>2021-09-21T12:20:54Z</time>
      </trkpt>
      <trkpt lat="46.56173" lon="0.33599">
        <ele>84.322267346084</ele>
        <time>2021-09-21T12:20:56Z</time>
      </trkpt>
      <trkpt lat="46.56175" lon="0.336">
        <ele>84.810504864901</ele>
        <time>2021-09-21T12:20:58Z</time>
      </trkpt>
      <trkpt lat="46.56176" lon="0.33603">
        <ele>86.30633668974</ele>
        <time>2021-09-21T12:21:02Z</time>
      </trkpt>
      <trkpt lat="46.56178" lon="0.33603">
        <ele>86.895060785115</ele>
        <time>2021-09-21T12:21:05Z</time>
      </trkpt>
      <trkpt lat="46.5618" lon="0.33601">
        <ele>87.345480332151</ele>
        <time>2021-09-21T12:21:07Z</time>
      </trkpt>
      <trkpt lat="46.56182" lon="0.33601">
        <ele>87.68765722122</ele>
        <time>2021-09-21T12:21:09Z</time>
      </trkpt>
      <trkpt lat="46.56184" lon="0.33599">
        <ele>88.488545260392</ele>
        <time>2021-09-21T12:21:14Z</time>
      </trkpt>
      <trkpt lat="46.56185" lon="0.33596">
        <ele>88.410977917723</ele>
        <time>2021-09-21T12:21:17Z</time>
      </trkpt>
      <trkpt lat="46.56187" lon="0.33595">
        <ele>89.214184795506</ele>
        <time>2021-09-21T12:21:19Z</time>
      </trkpt>
      <trkpt lat="46.56189" lon="0.33593">
        <ele>89.197992025875</ele>
        <time>2021-09-21T12:21:22Z</time>
      </trkpt>
      <trkpt lat="46.56191" lon="0.3359">
        <ele>88.960386847146</ele>
        <time>2021-09-21T12:21:25Z</time>
      </trkpt>
      <trkpt lat="46.56193" lon="0.3359">
        <ele>89.059569439851</ele>
        <time>2021-09-21T12:21:27Z</time>
      </trkpt>
      <trkpt lat="46.56195" lon="0.33588">
        <ele>89.433680304326</ele>
        <time>2021-09-21T12:21:29Z</time>
      </trkpt>
      <trkpt lat="46.56196" lon="0.33586">
        <ele>89.203240961768</ele>
        <time>2021-09-21T12:21:31Z</time>
      </trkpt>
      <trkpt lat="46.56198" lon="0.33583">
        <ele>89.432192625478</ele>
        <time>2021-09-21T12:21:33Z</time>
      </trkpt>
      <trkpt lat="46.56199" lon="0.3358">
        <ele>89.72002197057</ele>
        <time>2021-09-21T12:21:36Z</time>
      </trkpt>
      <trkpt lat="46.56201" lon="0.33578">
        <ele>89.837393254973</ele>
        <time>2021-09-21T12:21:38Z</time>
      </trkpt>
      <trkpt lat="46.56202" lon="0.33576">
        <ele>89.959279768169</ele>
        <time>2021-09-21T12:21:40Z</time>
      </trkpt>
      <trkpt lat="46.56204" lon="0.33574">
        <ele>90.209173048846</ele>
        <time>2021-09-21T12:21:42Z</time>
      </trkpt>
      <trkpt lat="46.56205" lon="0.33571">
        <ele>90.688835763372</ele>
        <time>2021-09-21T12:21:45Z</time>
      </trkpt>
      <trkpt lat="46.56205" lon="0.33568">
        <ele>90.168287850916</ele>
        <time>2021-09-21T12:21:49Z</time>
      </trkpt>
      <trkpt lat="46.56206" lon="0.33565">
        <ele>90.483484957367</ele>
        <time>2021-09-21T12:21:52Z</time>
      </trkpt>
      <trkpt lat="46.56208" lon="0.33562">
        <ele>90.16105005797</ele>
        <time>2021-09-21T12:21:56Z</time>
      </trkpt>
      <trkpt lat="46.56213" lon="0.33561">
        <ele>90.503910828382</ele>
        <time>2021-09-21T12:21:59Z</time>
      </trkpt>
      <trkpt lat="46.56214" lon="0.33563">
        <ele>90.97000790108</ele>
        <time>2021-09-21T12:22:01Z</time>
      </trkpt>
      <trkpt lat="46.56215" lon="0.33566">
        <ele>91.323602846824</ele>
        <time>2021-09-21T12:22:03Z</time>
      </trkpt>
      <trkpt lat="46.56215" lon="0.33569">
        <ele>92.673427884467</ele>
        <time>2021-09-21T12:22:08Z</time>
      </trkpt>
      <trkpt lat="46.56214" lon="0.33573">
        <ele>93.283676248044</ele>
        <time>2021-09-21T12:22:12Z</time>
      </trkpt>
      <trkpt lat="46.56212" lon="0.33575">
        <ele>93.968536335044</ele>
        <time>2021-09-21T12:22:14Z</time>
      </trkpt>
      <trkpt lat="46.56211" lon="0.33578">
        <ele>93.582364411093</ele>
        <time>2021-09-21T12:22:17Z</time>
      </trkpt>
      <trkpt lat="46.56211" lon="0.33581">
        <ele>93.835883320309</ele>
        <time>2021-09-21T12:22:21Z</time>
      </trkpt>
      <trkpt lat="46.56211" lon="0.33585">
        <ele>94.35823150631</ele>
        <time>2021-09-21T12:22:25Z</time>
      </trkpt>
      <trkpt lat="46.56212" lon="0.33588">
        <ele>94.986309739761</ele>
        <time>2021-09-21T12:22:29Z</time>
      </trkpt>
      <trkpt lat="46.56211" lon="0.33591">
        <ele>95.357937235385</ele>
        <time>2021-09-21T12:22:31Z</time>
      </trkpt>
      <trkpt lat="46.56211" lon="0.33594">
        <ele>95.671387587674</ele>
        <time>2021-09-21T12:22:34Z</time>
      </trkpt>
      <trkpt lat="46.56211" lon="0.33599">
        <ele>95.927293027751</ele>
        <time>2021-09-21T12:22:38Z</time>
      </trkpt>
      <trkpt lat="46.5621" lon="0.33602">
        <ele>96.488450834528</ele>
        <time>2021-09-21T12:22:40Z</time>
      </trkpt>
      <trkpt lat="46.56209" lon="0.33604">
        <ele>97.023180522956</ele>
        <time>2021-09-21T12:22:43Z</time>
      </trkpt>
      <trkpt lat="46.56208" lon="0.33607">
        <ele>97.143317114562</ele>
        <time>2021-09-21T12:22:45Z</time>
      </trkpt>
      <trkpt lat="46.56208" lon="0.3361">
        <ele>97.255592687987</ele>
        <time>2021-09-21T12:22:47Z</time>
      </trkpt>
      <trkpt lat="46.56208" lon="0.33613">
        <ele>97.773244616576</ele>
        <time>2021-09-21T12:22:50Z</time>
      </trkpt>
      <trkpt lat="46.56208" lon="0.33617">
        <ele>98.360863232985</ele>
        <time>2021-09-21T12:22:52Z</time>
      </trkpt>
      <trkpt lat="46.56208" lon="0.33621">
        <ele>98.783253240399</ele>
        <time>2021-09-21T12:22:55Z</time>
      </trkpt>
      <trkpt lat="46.56208" lon="0.33624">
        <ele>99.676373367198</ele>
        <time>2021-09-21T12:22:58Z</time>
      </trkpt>
      <trkpt lat="46.5621" lon="0.33627">
        <ele>99.513272955082</ele>
        <time>2021-09-21T12:23:00Z</time>
      </trkpt>
      <trkpt lat="46.56212" lon="0.33629">
        <ele>100.45605878904</ele>
        <time>2021-09-21T12:23:02Z</time>
      </trkpt>
      <trkpt lat="46.56212" lon="0.33631">
        <ele>100.64117176365</ele>
        <time>2021-09-21T12:23:04Z</time>
      </trkpt>
      <trkpt lat="46.56213" lon="0.33634">
        <ele>101.70550247654</ele>
        <time>2021-09-21T12:23:07Z</time>
      </trkpt>
      <trkpt lat="46.56215" lon="0.33636">
        <ele>102.21092235204</ele>
        <time>2021-09-21T12:23:09Z</time>
      </trkpt>
      <trkpt lat="46.56215" lon="0.3364">
        <ele>102.74611969013</ele>
        <time>2021-09-21T12:23:14Z</time>
      </trkpt>
      <trkpt lat="46.56214" lon="0.33642">
        <ele>103.25186293665</ele>
        <time>2021-09-21T12:23:16Z</time>
      </trkpt>
      <trkpt lat="46.56215" lon="0.33646">
        <ele>103.34767203499</ele>
        <time>2021-09-21T12:23:19Z</time>
      </trkpt>
      <trkpt lat="46.56214" lon="0.33649">
        <ele>103.84528126195</ele>
        <time>2021-09-21T12:23:22Z</time>
      </trkpt>
      <trkpt lat="46.56214" lon="0.33652">
        <ele>103.76348388474</ele>
        <time>2021-09-21T12:23:24Z</time>
      </trkpt>
      <trkpt lat="46.56214" lon="0.33655">
        <ele>103.75951075274</ele>
        <time>2021-09-21T12:23:27Z</time>
      </trkpt>
      <trkpt lat="46.56214" lon="0.33658">
        <ele>104.12618223205</ele>
        <time>2021-09-21T12:23:34Z</time>
      </trkpt>
      <trkpt lat="46.56214" lon="0.33661">
        <ele>104.38587924</ele>
        <time>2021-09-21T12:23:39Z</time>
      </trkpt>
      <trkpt lat="46.56214" lon="0.33665">
        <ele>104.69979420118</ele>
        <time>2021-09-21T12:23:44Z</time>
      </trkpt>
      <trkpt lat="46.56215" lon="0.33667">
        <ele>104.87050047796</ele>
        <time>2021-09-21T12:23:48Z</time>
      </trkpt>
      <trkpt lat="46.56216" lon="0.3367">
        <ele>105.42944692541</ele>
        <time>2021-09-21T12:23:51Z</time>
      </trkpt>
      <trkpt lat="46.56217" lon="0.33672">
        <ele>105.68079193588</ele>
        <time>2021-09-21T12:23:54Z</time>
      </trkpt>
      <trkpt lat="46.56218" lon="0.33676">
        <ele>105.60346389655</ele>
        <time>2021-09-21T12:23:58Z</time>
      </trkpt>
      <trkpt lat="46.56219" lon="0.33679">
        <ele>106.35789910052</ele>
        <time>2021-09-21T12:24:01Z</time>
      </trkpt>
      <trkpt lat="46.56219" lon="0.33684">
        <ele>106.37218284328</ele>
        <time>2021-09-21T12:24:04Z</time>
      </trkpt>
      <trkpt lat="46.5622" lon="0.33687">
        <ele>106.60826528911</ele>
        <time>2021-09-21T12:24:08Z</time>
      </trkpt>
      <trkpt lat="46.56223" lon="0.33689">
        <ele>106.68383616582</ele>
        <time>2021-09-21T12:24:11Z</time>
      </trkpt>
      <trkpt lat="46.56223" lon="0.33692">
        <ele>106.79193681106</ele>
        <time>2021-09-21T12:24:13Z</time>
      </trkpt>
      <trkpt lat="46.56223" lon="0.33696">
        <ele>106.57743182406</ele>
        <time>2021-09-21T12:24:15Z</time>
      </trkpt>
      <trkpt lat="46.56222" lon="0.33698">
        <ele>107.05591036193</ele>
        <time>2021-09-21T12:24:16Z</time>
      </trkpt>
      <trkpt lat="46.56223" lon="0.33701">
        <ele>107.30935524311</ele>
        <time>2021-09-21T12:24:18Z</time>
      </trkpt>
      <trkpt lat="46.56223" lon="0.33704">
        <ele>107.31135950238</ele>
        <time>2021-09-21T12:24:20Z</time>
      </trkpt>
      <trkpt lat="46.56225" lon="0.33706">
        <ele>107.35588745307</ele>
        <time>2021-09-21T12:24:22Z</time>
      </trkpt>
      <trkpt lat="46.56227" lon="0.33708">
        <ele>107.78670306597</ele>
        <time>2021-09-21T12:24:24Z</time>
      </trkpt>
      <trkpt lat="46.56229" lon="0.3371">
        <ele>108.14409083873</ele>
        <time>2021-09-21T12:24:27Z</time>
      </trkpt>
      <trkpt lat="46.56231" lon="0.33711">
        <ele>107.80626560468</ele>
        <time>2021-09-21T12:24:29Z</time>
      </trkpt>
      <trkpt lat="46.56232" lon="0.33714">
        <ele>107.56999726314</ele>
        <time>2021-09-21T12:24:38Z</time>
      </trkpt>
      <trkpt lat="46.56234" lon="0.33714">
        <ele>107.49350623228</ele>
        <time>2021-09-21T12:24:43Z</time>
      </trkpt>
      <trkpt lat="46.56236" lon="0.33713">
        <ele>107.67242537718</ele>
        <time>2021-09-21T12:24:47Z</time>
      </trkpt>
      <trkpt lat="46.56236" lon="0.33716">
        <ele>107.26237704698</ele>
        <time>2021-09-21T12:24:57Z</time>
      </trkpt>
      <trkpt lat="46.56234" lon="0.33716">
        <ele>107.31114135869</ele>
        <time>2021-09-21T12:25:05Z</time>
      </trkpt>
      <trkpt lat="46.56233" lon="0.33713">
        <ele>106.99414950144</ele>
        <time>2021-09-21T12:25:51Z</time>
      </trkpt>
      <trkpt lat="46.56233" lon="0.33716">
        <ele>106.65279461816</ele>
        <time>2021-09-21T12:26:44Z</time>
      </trkpt>
      <trkpt lat="46.56231" lon="0.33718">
        <ele>106.81554174796</ele>
        <time>2021-09-21T12:26:49Z</time>
      </trkpt>
      <trkpt lat="46.56229" lon="0.33719">
        <ele>107.10289273597</ele>
        <time>2021-09-21T12:26:55Z</time>
      </trkpt>
      <trkpt lat="46.56227" lon="0.33719">
        <ele>107.04463837296</ele>
        <time>2021-09-21T12:26:58Z</time>
      </trkpt>
      <trkpt lat="46.56225" lon="0.33719">
        <ele>107.57312105037</ele>
        <time>2021-09-21T12:27:01Z</time>
      </trkpt>
      <trkpt lat="46.56223" lon="0.3372">
        <ele>107.61205797829</ele>
        <time>2021-09-21T12:27:03Z</time>
      </trkpt>
      <trkpt lat="46.5622" lon="0.3372">
        <ele>107.67305440363</ele>
        <time>2021-09-21T12:27:06Z</time>
      </trkpt>
      <trkpt lat="46.56218" lon="0.3372">
        <ele>107.59675639123</ele>
        <time>2021-09-21T12:27:09Z</time>
      </trkpt>
      <trkpt lat="46.56216" lon="0.33722">
        <ele>107.84526475426</ele>
        <time>2021-09-21T12:27:12Z</time>
      </trkpt>
      <trkpt lat="46.56214" lon="0.33722">
        <ele>107.69667270873</ele>
        <time>2021-09-21T12:27:14Z</time>
      </trkpt>
      <trkpt lat="46.56211" lon="0.33722">
        <ele>108.20586783532</ele>
        <time>2021-09-21T12:27:17Z</time>
      </trkpt>
      <trkpt lat="46.56209" lon="0.33722">
        <ele>107.86785367038</ele>
        <time>2021-09-21T12:27:19Z</time>
      </trkpt>
      <trkpt lat="46.56206" lon="0.33722">
        <ele>108.05977172032</ele>
        <time>2021-09-21T12:27:23Z</time>
      </trkpt>
      <trkpt lat="46.56203" lon="0.33723">
        <ele>107.91890367586</ele>
        <time>2021-09-21T12:27:25Z</time>
      </trkpt>
      <trkpt lat="46.56201" lon="0.33723">
        <ele>107.94100132585</ele>
        <time>2021-09-21T12:27:27Z</time>
      </trkpt>
      <trkpt lat="46.56198" lon="0.33723">
        <ele>107.81398519315</ele>
        <time>2021-09-21T12:27:30Z</time>
      </trkpt>
      <trkpt lat="46.56196" lon="0.33724">
        <ele>107.80775602441</ele>
        <time>2021-09-21T12:27:32Z</time>
      </trkpt>
      <trkpt lat="46.56194" lon="0.33725">
        <ele>107.68046415038</ele>
        <time>2021-09-21T12:27:34Z</time>
      </trkpt>
      <trkpt lat="46.56192" lon="0.33725">
        <ele>107.73216346838</ele>
        <time>2021-09-21T12:27:36Z</time>
      </trkpt>
      <trkpt lat="46.5619" lon="0.33726">
        <ele>107.83926043753</ele>
        <time>2021-09-21T12:27:38Z</time>
      </trkpt>
      <trkpt lat="46.56187" lon="0.33728">
        <ele>107.76612470951</ele>
        <time>2021-09-21T12:27:41Z</time>
      </trkpt>
      <trkpt lat="46.56185" lon="0.3373">
        <ele>107.46997412574</ele>
        <time>2021-09-21T12:27:44Z</time>
      </trkpt>
      <trkpt lat="46.56183" lon="0.33731">
        <ele>107.21807059273</ele>
        <time>2021-09-21T12:27:46Z</time>
      </trkpt>
      <trkpt lat="46.56181" lon="0.33732">
        <ele>107.32555640023</ele>
        <time>2021-09-21T12:27:49Z</time>
      </trkpt>
      <trkpt lat="46.56179" lon="0.33734">
        <ele>107.9479698576</ele>
        <time>2021-09-21T12:27:51Z</time>
      </trkpt>
      <trkpt lat="46.56178" lon="0.33738">
        <ele>107.73095802311</ele>
        <time>2021-09-21T12:27:54Z</time>
      </trkpt>
      <trkpt lat="46.56176" lon="0.3374">
        <ele>107.73816407844</ele>
        <time>2021-09-21T12:27:57Z</time>
      </trkpt>
      <trkpt lat="46.56174" lon="0.33741">
        <ele>107.80928420089</ele>
        <time>2021-09-21T12:27:59Z</time>
      </trkpt>
      <trkpt lat="46.56172" lon="0.33744">
        <ele>107.88025846612</ele>
        <time>2021-09-21T12:28:03Z</time>
      </trkpt>
      <trkpt lat="46.56171" lon="0.33747">
        <ele>108.1227471903</ele>
        <time>2021-09-21T12:28:05Z</time>
      </trkpt>
      <trkpt lat="46.56169" lon="0.33749">
        <ele>108.66231669392</ele>
        <time>2021-09-21T12:28:07Z</time>
      </trkpt>
      <trkpt lat="46.56168" lon="0.33751">
        <ele>108.71588554885</ele>
        <time>2021-09-21T12:28:09Z</time>
      </trkpt>
      <trkpt lat="46.56165" lon="0.33753">
        <ele>108.67012140527</ele>
        <time>2021-09-21T12:28:11Z</time>
      </trkpt>
      <trkpt lat="46.56163" lon="0.33756">
        <ele>109.54960406199</ele>
        <time>2021-09-21T12:28:15Z</time>
      </trkpt>
      <trkpt lat="46.56161" lon="0.33758">
        <ele>109.75196049362</ele>
        <time>2021-09-21T12:28:17Z</time>
      </trkpt>
      <trkpt lat="46.5616" lon="0.3376">
        <ele>110.34497440793</ele>
        <time>2021-09-21T12:28:19Z</time>
      </trkpt>
      <trkpt lat="46.56158" lon="0.33763">
        <ele>111.05235798098</ele>
        <time>2021-09-21T12:28:21Z</time>
      </trkpt>
      <trkpt lat="46.56156" lon="0.33764">
        <ele>110.12987385876</ele>
        <time>2021-09-21T12:28:23Z</time>
      </trkpt>
      <trkpt lat="46.56155" lon="0.33765">
        <ele>110.40100165922</ele>
        <time>2021-09-21T12:28:24Z</time>
      </trkpt>
      <trkpt lat="46.56154" lon="0.33768">
        <ele>110.58008983638</ele>
        <time>2021-09-21T12:28:27Z</time>
      </trkpt>
      <trkpt lat="46.56152" lon="0.33771">
        <ele>110.65744166169</ele>
        <time>2021-09-21T12:28:29Z</time>
      </trkpt>
      <trkpt lat="46.56151" lon="0.33773">
        <ele>111.34418101329</ele>
        <time>2021-09-21T12:28:31Z</time>
      </trkpt>
      <trkpt lat="46.56149" lon="0.33775">
        <ele>112.08961465117</ele>
        <time>2021-09-21T12:28:33Z</time>
      </trkpt>
      <trkpt lat="46.56147" lon="0.33777">
        <ele>111.81207199581</ele>
        <time>2021-09-21T12:28:35Z</time>
      </trkpt>
      <trkpt lat="46.56145" lon="0.33778">
        <ele>112.31489559449</ele>
        <time>2021-09-21T12:28:38Z</time>
      </trkpt>
      <trkpt lat="46.56142" lon="0.3378">
        <ele>112.42385109793</ele>
        <time>2021-09-21T12:28:40Z</time>
      </trkpt>
      <trkpt lat="46.5614" lon="0.33783">
        <ele>112.40249017626</ele>
        <time>2021-09-21T12:28:43Z</time>
      </trkpt>
      <trkpt lat="46.56138" lon="0.33785">
        <ele>113.16671466175</ele>
        <time>2021-09-21T12:28:45Z</time>
      </trkpt>
      <trkpt lat="46.56136" lon="0.33788">
        <ele>113.22849958204</ele>
        <time>2021-09-21T12:28:48Z</time>
      </trkpt>
      <trkpt lat="46.56134" lon="0.33789">
        <ele>113.01330173854</ele>
        <time>2021-09-21T12:28:50Z</time>
      </trkpt>
      <trkpt lat="46.56132" lon="0.33792">
        <ele>113.48740514461</ele>
        <time>2021-09-21T12:28:52Z</time>
      </trkpt>
      <trkpt lat="46.56131" lon="0.33793">
        <ele>113.91247378383</ele>
        <time>2021-09-21T12:28:54Z</time>
      </trkpt>
      <trkpt lat="46.56127" lon="0.33795">
        <ele>113.95744800754</ele>
        <time>2021-09-21T12:28:57Z</time>
      </trkpt>
      <trkpt lat="46.56125" lon="0.33795">
        <ele>113.91547986493</ele>
        <time>2021-09-21T12:28:59Z</time>
      </trkpt>
      <trkpt lat="46.56123" lon="0.33797">
        <ele>114.66938060336</ele>
        <time>2021-09-21T12:29:01Z</time>
      </trkpt>
      <trkpt lat="46.56121" lon="0.33799">
        <ele>114.76688711811</ele>
        <time>2021-09-21T12:29:03Z</time>
      </trkpt>
      <trkpt lat="46.56119" lon="0.33799">
        <ele>115.19155550562</ele>
        <time>2021-09-21T12:29:05Z</time>
      </trkpt>
      <trkpt lat="46.56117" lon="0.338">
        <ele>114.76927314512</ele>
        <time>2021-09-21T12:29:07Z</time>
      </trkpt>
      <trkpt lat="46.56116" lon="0.33802">
        <ele>115.25729972869</ele>
        <time>2021-09-21T12:29:08Z</time>
      </trkpt>
      <trkpt lat="46.56114" lon="0.33803">
        <ele>115.2274410259</ele>
        <time>2021-09-21T12:29:10Z</time>
      </trkpt>
      <trkpt lat="46.56112" lon="0.33805">
        <ele>115.43137015775</ele>
        <time>2021-09-21T12:29:12Z</time>
      </trkpt>
      <trkpt lat="46.56111" lon="0.33807">
        <ele>115.76178251859</ele>
        <time>2021-09-21T12:29:14Z</time>
      </trkpt>
      <trkpt lat="46.56109" lon="0.33808">
        <ele>116.0602648817</ele>
        <time>2021-09-21T12:29:17Z</time>
      </trkpt>
      <trkpt lat="46.56107" lon="0.33811">
        <ele>116.09570817463</ele>
        <time>2021-09-21T12:29:19Z</time>
      </trkpt>
      <trkpt lat="46.56105" lon="0.33812">
        <ele>116.27675362583</ele>
        <time>2021-09-21T12:29:21Z</time>
      </trkpt>
      <trkpt lat="46.56103" lon="0.33815">
        <ele>116.36480407324</ele>
        <time>2021-09-21T12:29:23Z</time>
      </trkpt>
      <trkpt lat="46.561" lon="0.33817">
        <ele>116.33527717367</ele>
        <time>2021-09-21T12:29:26Z</time>
      </trkpt>
      <trkpt lat="46.56099" lon="0.33819">
        <ele>116.6093971571</ele>
        <time>2021-09-21T12:29:28Z</time>
      </trkpt>
      <trkpt lat="46.56097" lon="0.33822">
        <ele>116.59252964985</ele>
        <time>2021-09-21T12:29:30Z</time>
      </trkpt>
      <trkpt lat="46.56095" lon="0.33824">
        <ele>116.79158082698</ele>
        <time>2021-09-21T12:29:32Z</time>
      </trkpt>
      <trkpt lat="46.56093" lon="0.33826">
        <ele>116.72784808185</ele>
        <time>2021-09-21T12:29:35Z</time>
      </trkpt>
      <trkpt lat="46.56091" lon="0.33828">
        <ele>116.9012988545</ele>
        <time>2021-09-21T12:29:36Z</time>
      </trkpt>
      <trkpt lat="46.56089" lon="0.33829">
        <ele>116.94996244367</ele>
        <time>2021-09-21T12:29:38Z</time>
      </trkpt>
      <trkpt lat="46.56087" lon="0.33831">
        <ele>117.31205863412</ele>
        <time>2021-09-21T12:29:40Z</time>
      </trkpt>
      <trkpt lat="46.56084" lon="0.33833">
        <ele>117.32872403041</ele>
        <time>2021-09-21T12:29:42Z</time>
      </trkpt>
      <trkpt lat="46.56083" lon="0.33836">
        <ele>117.49875431415</ele>
        <time>2021-09-21T12:29:44Z</time>
      </trkpt>
      <trkpt lat="46.56081" lon="0.33837">
        <ele>117.79581806343</ele>
        <time>2021-09-21T12:29:47Z</time>
      </trkpt>
      <trkpt lat="46.56079" lon="0.33839">
        <ele>117.59567329939</ele>
        <time>2021-09-21T12:29:49Z</time>
      </trkpt>
      <trkpt lat="46.56077" lon="0.33841">
        <ele>117.84923590347</ele>
        <time>2021-09-21T12:29:51Z</time>
      </trkpt>
      <trkpt lat="46.56076" lon="0.33843">
        <ele>117.84847053699</ele>
        <time>2021-09-21T12:29:53Z</time>
      </trkpt>
      <trkpt lat="46.56074" lon="0.33845">
        <ele>117.94301686808</ele>
        <time>2021-09-21T12:29:55Z</time>
      </trkpt>
      <trkpt lat="46.56071" lon="0.33847">
        <ele>117.79782928433</ele>
        <time>2021-09-21T12:29:58Z</time>
      </trkpt>
      <trkpt lat="46.5607" lon="0.33848">
        <ele>118.30342064053</ele>
        <time>2021-09-21T12:30:00Z</time>
      </trkpt>
      <trkpt lat="46.56068" lon="0.33851">
        <ele>118.07810965274</ele>
        <time>2021-09-21T12:30:02Z</time>
      </trkpt>
      <trkpt lat="46.56066" lon="0.33853">
        <ele>118.0568371499</ele>
        <time>2021-09-21T12:30:05Z</time>
      </trkpt>
      <trkpt lat="46.56064" lon="0.33855">
        <ele>118.39323858358</ele>
        <time>2021-09-21T12:30:07Z</time>
      </trkpt>
      <trkpt lat="46.56061" lon="0.33859">
        <ele>118.38920317683</ele>
        <time>2021-09-21T12:30:09Z</time>
      </trkpt>
      <trkpt lat="46.56059" lon="0.3386">
        <ele>118.84803867061</ele>
        <time>2021-09-21T12:30:11Z</time>
      </trkpt>
      <trkpt lat="46.56057" lon="0.33864">
        <ele>118.48887789622</ele>
        <time>2021-09-21T12:30:13Z</time>
      </trkpt>
      <trkpt lat="46.56056" lon="0.33865">
        <ele>118.59909467865</ele>
        <time>2021-09-21T12:30:15Z</time>
      </trkpt>
      <trkpt lat="46.56053" lon="0.33867">
        <ele>118.40532736108</ele>
        <time>2021-09-21T12:30:18Z</time>
      </trkpt>
      <trkpt lat="46.56051" lon="0.3387">
        <ele>118.63062466774</ele>
        <time>2021-09-21T12:30:21Z</time>
      </trkpt>
      <trkpt lat="46.56049" lon="0.33872">
        <ele>118.48323947191</ele>
        <time>2021-09-21T12:30:23Z</time>
      </trkpt>
      <trkpt lat="46.56047" lon="0.33874">
        <ele>118.50288159773</ele>
        <time>2021-09-21T12:30:26Z</time>
      </trkpt>
      <trkpt lat="46.56046" lon="0.33878">
        <ele>118.33488065097</ele>
        <time>2021-09-21T12:30:29Z</time>
      </trkpt>
      <trkpt lat="46.56043" lon="0.3388">
        <ele>118.90667585935</ele>
        <time>2021-09-21T12:30:31Z</time>
      </trkpt>
      <trkpt lat="46.56041" lon="0.33883">
        <ele>118.75926835649</ele>
        <time>2021-09-21T12:30:33Z</time>
      </trkpt>
      <trkpt lat="46.56041" lon="0.33886">
        <ele>118.84887424763</ele>
        <time>2021-09-21T12:30:35Z</time>
      </trkpt>
      <trkpt lat="46.56039" lon="0.33888">
        <ele>119.3683537906</ele>
        <time>2021-09-21T12:30:37Z</time>
      </trkpt>
      <trkpt lat="46.56038" lon="0.33891">
        <ele>119.04289120622</ele>
        <time>2021-09-21T12:30:39Z</time>
      </trkpt>
      <trkpt lat="46.56037" lon="0.33894">
        <ele>119.07176035549</ele>
        <time>2021-09-21T12:30:41Z</time>
      </trkpt>
      <trkpt lat="46.56036" lon="0.33898">
        <ele>119.25953384861</ele>
        <time>2021-09-21T12:30:43Z</time>
      </trkpt>
      <trkpt lat="46.56035" lon="0.33902">
        <ele>119.2247489607</ele>
        <time>2021-09-21T12:30:46Z</time>
      </trkpt>
      <trkpt lat="46.56033" lon="0.33903">
        <ele>119.05985482223</ele>
        <time>2021-09-21T12:30:48Z</time>
      </trkpt>
      <trkpt lat="46.56032" lon="0.33906">
        <ele>119.39481934998</ele>
        <time>2021-09-21T12:30:50Z</time>
      </trkpt>
      <trkpt lat="46.5603" lon="0.33908">
        <ele>119.23109271098</ele>
        <time>2021-09-21T12:30:52Z</time>
      </trkpt>
      <trkpt lat="46.5603" lon="0.33911">
        <ele>119.36908128485</ele>
        <time>2021-09-21T12:30:54Z</time>
      </trkpt>
      <trkpt lat="46.56028" lon="0.33914">
        <ele>119.61447941605</ele>
        <time>2021-09-21T12:30:56Z</time>
      </trkpt>
      <trkpt lat="46.56027" lon="0.33916">
        <ele>119.86188610643</ele>
        <time>2021-09-21T12:30:58Z</time>
      </trkpt>
      <trkpt lat="46.56026" lon="0.33919">
        <ele>119.73912461568</ele>
        <time>2021-09-21T12:31:00Z</time>
      </trkpt>
      <trkpt lat="46.56024" lon="0.33921">
        <ele>119.77056613937</ele>
        <time>2021-09-21T12:31:02Z</time>
      </trkpt>
      <trkpt lat="46.56021" lon="0.33922">
        <ele>119.67136898264</ele>
        <time>2021-09-21T12:31:06Z</time>
      </trkpt>
      <trkpt lat="46.5602" lon="0.33924">
        <ele>120.09118576068</ele>
        <time>2021-09-21T12:31:09Z</time>
      </trkpt>
      <trkpt lat="46.56018" lon="0.33927">
        <ele>119.83670350071</ele>
        <time>2021-09-21T12:31:11Z</time>
      </trkpt>
      <trkpt lat="46.56017" lon="0.33929">
        <ele>119.67439281289</ele>
        <time>2021-09-21T12:31:13Z</time>
      </trkpt>
      <trkpt lat="46.56015" lon="0.33931">
        <ele>119.2894509919</ele>
        <time>2021-09-21T12:31:15Z</time>
      </trkpt>
      <trkpt lat="46.56013" lon="0.33933">
        <ele>118.9270134205</ele>
        <time>2021-09-21T12:31:17Z</time>
      </trkpt>
      <trkpt lat="46.56011" lon="0.33935">
        <ele>119.26312174555</ele>
        <time>2021-09-21T12:31:18Z</time>
      </trkpt>
      <trkpt lat="46.56009" lon="0.33936">
        <ele>119.23389802873</ele>
        <time>2021-09-21T12:31:20Z</time>
      </trkpt>
      <trkpt lat="46.56007" lon="0.33938">
        <ele>118.9415571494</ele>
        <time>2021-09-21T12:31:22Z</time>
      </trkpt>
      <trkpt lat="46.56004" lon="0.33939">
        <ele>118.66005494166</ele>
        <time>2021-09-21T12:31:24Z</time>
      </trkpt>
      <trkpt lat="46.56003" lon="0.3394">
        <ele>118.77273114771</ele>
        <time>2021-09-21T12:31:25Z</time>
      </trkpt>
      <trkpt lat="46.56001" lon="0.33941">
        <ele>118.90031351242</ele>
        <time>2021-09-21T12:31:26Z</time>
      </trkpt>
      <trkpt lat="46.55999" lon="0.33942">
        <ele>118.45352505427</ele>
        <time>2021-09-21T12:31:28Z</time>
      </trkpt>
      <trkpt lat="46.55996" lon="0.33945">
        <ele>118.63393366896</ele>
        <time>2021-09-21T12:31:30Z</time>
      </trkpt>
      <trkpt lat="46.55994" lon="0.33945">
        <ele>118.36259428598</ele>
        <time>2021-09-21T12:31:33Z</time>
      </trkpt>
      <trkpt lat="46.55992" lon="0.33947">
        <ele>118.59513893258</ele>
        <time>2021-09-21T12:31:36Z</time>
      </trkpt>
      <trkpt lat="46.55989" lon="0.33948">
        <ele>118.64241143689</ele>
        <time>2021-09-21T12:31:38Z</time>
      </trkpt>
      <trkpt lat="46.55987" lon="0.33948">
        <ele>118.47524670325</ele>
        <time>2021-09-21T12:31:41Z</time>
      </trkpt>
      <trkpt lat="46.55984" lon="0.33951">
        <ele>118.18175822217</ele>
        <time>2021-09-21T12:31:43Z</time>
      </trkpt>
      <trkpt lat="46.55984" lon="0.33954">
        <ele>117.81587901339</ele>
        <time>2021-09-21T12:31:45Z</time>
      </trkpt>
      <trkpt lat="46.55981" lon="0.33956">
        <ele>117.85846820753</ele>
        <time>2021-09-21T12:31:49Z</time>
      </trkpt>
      <trkpt lat="46.5598" lon="0.33958">
        <ele>117.59881700482</ele>
        <time>2021-09-21T12:31:50Z</time>
      </trkpt>
      <trkpt lat="46.55978" lon="0.33962">
        <ele>117.34226882085</ele>
        <time>2021-09-21T12:31:52Z</time>
      </trkpt>
      <trkpt lat="46.55976" lon="0.33963">
        <ele>117.47896271385</ele>
        <time>2021-09-21T12:31:54Z</time>
      </trkpt>
      <trkpt lat="46.55974" lon="0.33965">
        <ele>117.05134241562</ele>
        <time>2021-09-21T12:31:56Z</time>
      </trkpt>
      <trkpt lat="46.55973" lon="0.33967">
        <ele>117.03629938047</ele>
        <time>2021-09-21T12:31:58Z</time>
      </trkpt>
      <trkpt lat="46.5597" lon="0.33969">
        <ele>116.87466455437</ele>
        <time>2021-09-21T12:32:00Z</time>
      </trkpt>
      <trkpt lat="46.55968" lon="0.33971">
        <ele>116.47972981539</ele>
        <time>2021-09-21T12:32:02Z</time>
      </trkpt>
      <trkpt lat="46.55966" lon="0.33972">
        <ele>116.14439037628</ele>
        <time>2021-09-21T12:32:04Z</time>
      </trkpt>
      <trkpt lat="46.55963" lon="0.33973">
        <ele>115.62426772527</ele>
        <time>2021-09-21T12:32:06Z</time>
      </trkpt>
      <trkpt lat="46.55961" lon="0.33974">
        <ele>115.76005591825</ele>
        <time>2021-09-21T12:32:08Z</time>
      </trkpt>
      <trkpt lat="46.55959" lon="0.33976">
        <ele>115.2056007348</ele>
        <time>2021-09-21T12:32:10Z</time>
      </trkpt>
      <trkpt lat="46.55957" lon="0.33977">
        <ele>115.244677132</ele>
        <time>2021-09-21T12:32:12Z</time>
      </trkpt>
      <trkpt lat="46.55955" lon="0.33978">
        <ele>115.27208210435</ele>
        <time>2021-09-21T12:32:13Z</time>
      </trkpt>
      <trkpt lat="46.55953" lon="0.3398">
        <ele>115.20307005849</ele>
        <time>2021-09-21T12:32:15Z</time>
      </trkpt>
      <trkpt lat="46.55951" lon="0.33984">
        <ele>115.21467514802</ele>
        <time>2021-09-21T12:32:17Z</time>
      </trkpt>
      <trkpt lat="46.55948" lon="0.33986">
        <ele>115.06926964223</ele>
        <time>2021-09-21T12:32:20Z</time>
      </trkpt>
      <trkpt lat="46.55946" lon="0.33988">
        <ele>115.21075315773</ele>
        <time>2021-09-21T12:32:22Z</time>
      </trkpt>
      <trkpt lat="46.55945" lon="0.33991">
        <ele>115.5662808707</ele>
        <time>2021-09-21T12:32:24Z</time>
      </trkpt>
      <trkpt lat="46.55943" lon="0.33994">
        <ele>115.61067606974</ele>
        <time>2021-09-21T12:32:26Z</time>
      </trkpt>
      <trkpt lat="46.55941" lon="0.33997">
        <ele>115.38648450095</ele>
        <time>2021-09-21T12:32:29Z</time>
      </trkpt>
      <trkpt lat="46.55939" lon="0.34">
        <ele>116.39588019066</ele>
        <time>2021-09-21T12:32:31Z</time>
      </trkpt>
      <trkpt lat="46.55938" lon="0.34003">
        <ele>116.26249585953</ele>
        <time>2021-09-21T12:32:33Z</time>
      </trkpt>
      <trkpt lat="46.55937" lon="0.34006">
        <ele>115.94019502215</ele>
        <time>2021-09-21T12:32:35Z</time>
      </trkpt>
      <trkpt lat="46.55935" lon="0.3401">
        <ele>116.25804174319</ele>
        <time>2021-09-21T12:32:37Z</time>
      </trkpt>
      <trkpt lat="46.55933" lon="0.34012">
        <ele>115.76891575754</ele>
        <time>2021-09-21T12:32:39Z</time>
      </trkpt>
      <trkpt lat="46.55932" lon="0.34014">
        <ele>115.84130898863</ele>
        <time>2021-09-21T12:32:41Z</time>
      </trkpt>
      <trkpt lat="46.5593" lon="0.34018">
        <ele>116.05624520592</ele>
        <time>2021-09-21T12:32:43Z</time>
      </trkpt>
      <trkpt lat="46.55929" lon="0.34021">
        <ele>116.04090275057</ele>
        <time>2021-09-21T12:32:47Z</time>
      </trkpt>
      <trkpt lat="46.55928" lon="0.34025">
        <ele>115.69479040429</ele>
        <time>2021-09-21T12:32:49Z</time>
      </trkpt>
      <trkpt lat="46.55927" lon="0.34028">
        <ele>115.7043722095</ele>
        <time>2021-09-21T12:32:51Z</time>
      </trkpt>
      <trkpt lat="46.55926" lon="0.3403">
        <ele>115.89204191044</ele>
        <time>2021-09-21T12:32:54Z</time>
      </trkpt>
      <trkpt lat="46.55925" lon="0.34033">
        <ele>115.83308323193</ele>
        <time>2021-09-21T12:32:57Z</time>
      </trkpt>
      <trkpt lat="46.55924" lon="0.34037">
        <ele>116.05720280763</ele>
        <time>2021-09-21T12:32:59Z</time>
      </trkpt>
      <trkpt lat="46.55923" lon="0.3404">
        <ele>116.25484436937</ele>
        <time>2021-09-21T12:33:01Z</time>
      </trkpt>
      <trkpt lat="46.55922" lon="0.34042">
        <ele>116.30613094103</ele>
        <time>2021-09-21T12:33:03Z</time>
      </trkpt>
      <trkpt lat="46.55919" lon="0.34044">
        <ele>116.86120939068</ele>
        <time>2021-09-21T12:33:05Z</time>
      </trkpt>
      <trkpt lat="46.55916" lon="0.34045">
        <ele>116.8217201503</ele>
        <time>2021-09-21T12:33:07Z</time>
      </trkpt>
      <trkpt lat="46.55913" lon="0.34045">
        <ele>116.61501103826</ele>
        <time>2021-09-21T12:33:09Z</time>
      </trkpt>
      <trkpt lat="46.55911" lon="0.34045">
        <ele>116.45268369373</ele>
        <time>2021-09-21T12:33:11Z</time>
      </trkpt>
      <trkpt lat="46.55908" lon="0.34044">
        <ele>116.81407010369</ele>
        <time>2021-09-21T12:33:14Z</time>
      </trkpt>
      <trkpt lat="46.55905" lon="0.34044">
        <ele>116.78544034902</ele>
        <time>2021-09-21T12:33:16Z</time>
      </trkpt>
      <trkpt lat="46.55903" lon="0.34043">
        <ele>116.30110956822</ele>
        <time>2021-09-21T12:33:18Z</time>
      </trkpt>
      <trkpt lat="46.55901" lon="0.34043">
        <ele>116.34349333029</ele>
        <time>2021-09-21T12:33:20Z</time>
      </trkpt>
      <trkpt lat="46.55899" lon="0.34043">
        <ele>116.07034949027</ele>
        <time>2021-09-21T12:33:22Z</time>
      </trkpt>
      <trkpt lat="46.55896" lon="0.34044">
        <ele>116.30488208588</ele>
        <time>2021-09-21T12:33:25Z</time>
      </trkpt>
      <trkpt lat="46.55893" lon="0.34045">
        <ele>116.30051003024</ele>
        <time>2021-09-21T12:33:27Z</time>
      </trkpt>
      <trkpt lat="46.55891" lon="0.34047">
        <ele>116.45748243481</ele>
        <time>2021-09-21T12:33:30Z</time>
      </trkpt>
      <trkpt lat="46.55889" lon="0.34048">
        <ele>116.59498716053</ele>
        <time>2021-09-21T12:33:32Z</time>
      </trkpt>
      <trkpt lat="46.55887" lon="0.34048">
        <ele>116.62381719612</ele>
        <time>2021-09-21T12:33:34Z</time>
      </trkpt>
      <trkpt lat="46.55884" lon="0.34048">
        <ele>116.57589117531</ele>
        <time>2021-09-21T12:33:37Z</time>
      </trkpt>
      <trkpt lat="46.55882" lon="0.34048">
        <ele>116.27362785861</ele>
        <time>2021-09-21T12:33:39Z</time>
      </trkpt>
      <trkpt lat="46.5588" lon="0.34048">
        <ele>116.48154737707</ele>
        <time>2021-09-21T12:33:41Z</time>
      </trkpt>
      <trkpt lat="46.55878" lon="0.34048">
        <ele>116.57683116291</ele>
        <time>2021-09-21T12:33:44Z</time>
      </trkpt>
      <trkpt lat="46.55876" lon="0.34048">
        <ele>116.23780255578</ele>
        <time>2021-09-21T12:33:46Z</time>
      </trkpt>
      <trkpt lat="46.55874" lon="0.34048">
        <ele>116.26916483417</ele>
        <time>2021-09-21T12:33:48Z</time>
      </trkpt>
      <trkpt lat="46.55871" lon="0.34048">
        <ele>116.15644790698</ele>
        <time>2021-09-21T12:33:50Z</time>
      </trkpt>
      <trkpt lat="46.55869" lon="0.34047">
        <ele>115.78714685421</ele>
        <time>2021-09-21T12:33:53Z</time>
      </trkpt>
      <trkpt lat="46.55867" lon="0.34048">
        <ele>115.96554047428</ele>
        <time>2021-09-21T12:33:55Z</time>
      </trkpt>
      <trkpt lat="46.55865" lon="0.34047">
        <ele>116.15396707319</ele>
        <time>2021-09-21T12:33:57Z</time>
      </trkpt>
      <trkpt lat="46.55862" lon="0.34047">
        <ele>115.65450350568</ele>
        <time>2021-09-21T12:33:59Z</time>
      </trkpt>
      <trkpt lat="46.55859" lon="0.34047">
        <ele>115.69471265282</ele>
        <time>2021-09-21T12:34:01Z</time>
      </trkpt>
      <trkpt lat="46.55857" lon="0.34046">
        <ele>115.65919650439</ele>
        <time>2021-09-21T12:34:03Z</time>
      </trkpt>
      <trkpt lat="46.55855" lon="0.34047">
        <ele>115.42425009329</ele>
        <time>2021-09-21T12:34:05Z</time>
      </trkpt>
      <trkpt lat="46.55853" lon="0.34046">
        <ele>115.26581952535</ele>
        <time>2021-09-21T12:34:07Z</time>
      </trkpt>
      <trkpt lat="46.55851" lon="0.34045">
        <ele>115.22597848345</ele>
        <time>2021-09-21T12:34:09Z</time>
      </trkpt>
      <trkpt lat="46.55849" lon="0.34045">
        <ele>115.09282881021</ele>
        <time>2021-09-21T12:34:12Z</time>
      </trkpt>
      <trkpt lat="46.55846" lon="0.34046">
        <ele>114.98382706661</ele>
        <time>2021-09-21T12:34:14Z</time>
      </trkpt>
      <trkpt lat="46.55843" lon="0.34048">
        <ele>115.19710140768</ele>
        <time>2021-09-21T12:34:16Z</time>
      </trkpt>
      <trkpt lat="46.55841" lon="0.34049">
        <ele>115.37332530972</ele>
        <time>2021-09-21T12:34:19Z</time>
      </trkpt>
      <trkpt lat="46.55839" lon="0.3405">
        <ele>115.03934634104</ele>
        <time>2021-09-21T12:34:21Z</time>
      </trkpt>
      <trkpt lat="46.55837" lon="0.34051">
        <ele>115.16853796504</ele>
        <time>2021-09-21T12:34:23Z</time>
      </trkpt>
      <trkpt lat="46.55835" lon="0.34053">
        <ele>115.27221624274</ele>
        <time>2021-09-21T12:34:25Z</time>
      </trkpt>
      <trkpt lat="46.55833" lon="0.34054">
        <ele>115.45564642362</ele>
        <time>2021-09-21T12:34:27Z</time>
      </trkpt>
      <trkpt lat="46.5583" lon="0.34056">
        <ele>115.75402336195</ele>
        <time>2021-09-21T12:34:30Z</time>
      </trkpt>
      <trkpt lat="46.55828" lon="0.34057">
        <ele>115.33118548151</ele>
        <time>2021-09-21T12:34:32Z</time>
      </trkpt>
      <trkpt lat="46.55826" lon="0.34059">
        <ele>115.64355572779</ele>
        <time>2021-09-21T12:34:35Z</time>
      </trkpt>
      <trkpt lat="46.55824" lon="0.3406">
        <ele>115.70417662151</ele>
        <time>2021-09-21T12:34:37Z</time>
      </trkpt>
      <trkpt lat="46.55822" lon="0.34061">
        <ele>115.66832272988</ele>
        <time>2021-09-21T12:34:40Z</time>
      </trkpt>
      <trkpt lat="46.5582" lon="0.34062">
        <ele>115.75987835415</ele>
        <time>2021-09-21T12:34:42Z</time>
      </trkpt>
      <trkpt lat="46.55817" lon="0.34064">
        <ele>115.82025523763</ele>
        <time>2021-09-21T12:34:47Z</time>
      </trkpt>
      <trkpt lat="46.55815" lon="0.34065">
        <ele>116.16640651971</ele>
        <time>2021-09-21T12:34:50Z</time>
      </trkpt>
      <trkpt lat="46.55813" lon="0.34067">
        <ele>116.00568165816</ele>
        <time>2021-09-21T12:34:53Z</time>
      </trkpt>
      <trkpt lat="46.5581" lon="0.34069">
        <ele>115.80302298162</ele>
        <time>2021-09-21T12:34:55Z</time>
      </trkpt>
      <trkpt lat="46.55808" lon="0.34071">
        <ele>115.68175181188</ele>
        <time>2021-09-21T12:34:57Z</time>
      </trkpt>
      <trkpt lat="46.55805" lon="0.34073">
        <ele>116.2853515055</ele>
        <time>2021-09-21T12:34:59Z</time>
      </trkpt>
      <trkpt lat="46.55802" lon="0.34075">
        <ele>116.18857967295</ele>
        <time>2021-09-21T12:35:01Z</time>
      </trkpt>
      <trkpt lat="46.558" lon="0.34076">
        <ele>116.52759544179</ele>
        <time>2021-09-21T12:35:03Z</time>
      </trkpt>
      <trkpt lat="46.55798" lon="0.34077">
        <ele>116.33025039546</ele>
        <time>2021-09-21T12:35:06Z</time>
      </trkpt>
      <trkpt lat="46.55796" lon="0.34077">
        <ele>116.4029983962</ele>
        <time>2021-09-21T12:35:08Z</time>
      </trkpt>
      <trkpt lat="46.55794" lon="0.34079">
        <ele>116.50265299436</ele>
        <time>2021-09-21T12:35:10Z</time>
      </trkpt>
      <trkpt lat="46.55792" lon="0.34081">
        <ele>116.79781486467</ele>
        <time>2021-09-21T12:35:11Z</time>
      </trkpt>
      <trkpt lat="46.5579" lon="0.34083">
        <ele>116.7873870451</ele>
        <time>2021-09-21T12:35:14Z</time>
      </trkpt>
      <trkpt lat="46.55788" lon="0.34086">
        <ele>117.1857339805</ele>
        <time>2021-09-21T12:35:17Z</time>
      </trkpt>
      <trkpt lat="46.55785" lon="0.34088">
        <ele>117.3288296042</ele>
        <time>2021-09-21T12:35:19Z</time>
      </trkpt>
      <trkpt lat="46.55783" lon="0.34089">
        <ele>117.20320230816</ele>
        <time>2021-09-21T12:35:21Z</time>
      </trkpt>
      <trkpt lat="46.55782" lon="0.34091">
        <ele>117.46099183895</ele>
        <time>2021-09-21T12:35:23Z</time>
      </trkpt>
      <trkpt lat="46.55779" lon="0.34091">
        <ele>117.40595863108</ele>
        <time>2021-09-21T12:35:25Z</time>
      </trkpt>
      <trkpt lat="46.55777" lon="0.34092">
        <ele>117.65090423543</ele>
        <time>2021-09-21T12:35:27Z</time>
      </trkpt>
      <trkpt lat="46.55775" lon="0.34092">
        <ele>117.67970123608</ele>
        <time>2021-09-21T12:35:29Z</time>
      </trkpt>
      <trkpt lat="46.55772" lon="0.34092">
        <ele>117.23418246675</ele>
        <time>2021-09-21T12:35:31Z</time>
      </trkpt>
      <trkpt lat="46.5577" lon="0.34092">
        <ele>117.00299993996</ele>
        <time>2021-09-21T12:35:33Z</time>
      </trkpt>
      <trkpt lat="46.55768" lon="0.34092">
        <ele>117.11469635461</ele>
        <time>2021-09-21T12:35:35Z</time>
      </trkpt>
      <trkpt lat="46.55765" lon="0.34092">
        <ele>117.17742373142</ele>
        <time>2021-09-21T12:35:37Z</time>
      </trkpt>
      <trkpt lat="46.55764" lon="0.34093">
        <ele>117.26431354322</ele>
        <time>2021-09-21T12:35:39Z</time>
      </trkpt>
      <trkpt lat="46.55761" lon="0.34093">
        <ele>117.40001995116</ele>
        <time>2021-09-21T12:35:41Z</time>
      </trkpt>
      <trkpt lat="46.55759" lon="0.34092">
        <ele>117.54526112229</ele>
        <time>2021-09-21T12:35:43Z</time>
      </trkpt>
      <trkpt lat="46.55756" lon="0.34092">
        <ele>117.42670265678</ele>
        <time>2021-09-21T12:35:45Z</time>
      </trkpt>
      <trkpt lat="46.55754" lon="0.34093">
        <ele>117.3117465917</ele>
        <time>2021-09-21T12:35:48Z</time>
      </trkpt>
      <trkpt lat="46.55752" lon="0.34093">
        <ele>117.31934241951</ele>
        <time>2021-09-21T12:35:50Z</time>
      </trkpt>
      <trkpt lat="46.55748" lon="0.34093">
        <ele>117.44868260715</ele>
        <time>2021-09-21T12:35:52Z</time>
      </trkpt>
      <trkpt lat="46.55745" lon="0.34093">
        <ele>117.64329631999</ele>
        <time>2021-09-21T12:35:54Z</time>
      </trkpt>
      <trkpt lat="46.55743" lon="0.34092">
        <ele>116.95901614148</ele>
        <time>2021-09-21T12:35:55Z</time>
      </trkpt>
      <trkpt lat="46.5574" lon="0.34094">
        <ele>117.56061548367</ele>
        <time>2021-09-21T12:35:57Z</time>
      </trkpt>
      <trkpt lat="46.55738" lon="0.34094">
        <ele>117.6656672731</ele>
        <time>2021-09-21T12:35:58Z</time>
      </trkpt>
      <trkpt lat="46.55736" lon="0.34094">
        <ele>117.54531752411</ele>
        <time>2021-09-21T12:36:00Z</time>
      </trkpt>
      <trkpt lat="46.55733" lon="0.34094">
        <ele>117.5418532975</ele>
        <time>2021-09-21T12:36:02Z</time>
      </trkpt>
      <trkpt lat="46.55731" lon="0.34094">
        <ele>117.67669321317</ele>
        <time>2021-09-21T12:36:04Z</time>
      </trkpt>
      <trkpt lat="46.55729" lon="0.34095">
        <ele>117.68006474338</ele>
        <time>2021-09-21T12:36:06Z</time>
      </trkpt>
      <trkpt lat="46.55726" lon="0.34095">
        <ele>118.01045332849</ele>
        <time>2021-09-21T12:36:08Z</time>
      </trkpt>
      <trkpt lat="46.55724" lon="0.34095">
        <ele>118.03825535905</ele>
        <time>2021-09-21T12:36:10Z</time>
      </trkpt>
      <trkpt lat="46.55722" lon="0.34096">
        <ele>117.78594589699</ele>
        <time>2021-09-21T12:36:12Z</time>
      </trkpt>
      <trkpt lat="46.5572" lon="0.34096">
        <ele>117.89846898895</ele>
        <time>2021-09-21T12:36:15Z</time>
      </trkpt>
      <trkpt lat="46.55717" lon="0.34096">
        <ele>117.76973056979</ele>
        <time>2021-09-21T12:36:18Z</time>
      </trkpt>
      <trkpt lat="46.55715" lon="0.34096">
        <ele>118.41776103526</ele>
        <time>2021-09-21T12:36:21Z</time>
      </trkpt>
      <trkpt lat="46.55712" lon="0.34097">
        <ele>118.54881060123</ele>
        <time>2021-09-21T12:36:24Z</time>
      </trkpt>
      <trkpt lat="46.5571" lon="0.34099">
        <ele>118.88477942627</ele>
        <time>2021-09-21T12:36:26Z</time>
      </trkpt>
      <trkpt lat="46.55708" lon="0.34102">
        <ele>118.92763647716</ele>
        <time>2021-09-21T12:36:28Z</time>
      </trkpt>
      <trkpt lat="46.55707" lon="0.34104">
        <ele>119.05145536736</ele>
        <time>2021-09-21T12:36:30Z</time>
      </trkpt>
      <trkpt lat="46.55706" lon="0.34107">
        <ele>119.44950342271</ele>
        <time>2021-09-21T12:36:32Z</time>
      </trkpt>
      <trkpt lat="46.55706" lon="0.3411">
        <ele>119.20177818555</ele>
        <time>2021-09-21T12:36:34Z</time>
      </trkpt>
      <trkpt lat="46.55705" lon="0.34115">
        <ele>119.73801571224</ele>
        <time>2021-09-21T12:36:36Z</time>
      </trkpt>
      <trkpt lat="46.55704" lon="0.34118">
        <ele>119.9930240009</ele>
        <time>2021-09-21T12:36:38Z</time>
      </trkpt>
      <trkpt lat="46.55703" lon="0.34122">
        <ele>120.47283342853</ele>
        <time>2021-09-21T12:36:40Z</time>
      </trkpt>
      <trkpt lat="46.55702" lon="0.34125">
        <ele>120.26755187009</ele>
        <time>2021-09-21T12:36:42Z</time>
      </trkpt>
      <trkpt lat="46.55702" lon="0.34129">
        <ele>120.62737110909</ele>
        <time>2021-09-21T12:36:44Z</time>
      </trkpt>
      <trkpt lat="46.557" lon="0.34131">
        <ele>120.79389843624</ele>
        <time>2021-09-21T12:36:46Z</time>
      </trkpt>
      <trkpt lat="46.557" lon="0.34135">
        <ele>120.97927744314</ele>
        <time>2021-09-21T12:36:48Z</time>
      </trkpt>
      <trkpt lat="46.55699" lon="0.34138">
        <ele>120.88736083172</ele>
        <time>2021-09-21T12:36:50Z</time>
      </trkpt>
      <trkpt lat="46.55698" lon="0.34143">
        <ele>121.41905752849</ele>
        <time>2021-09-21T12:36:53Z</time>
      </trkpt>
      <trkpt lat="46.55698" lon="0.34145">
        <ele>121.59111395106</ele>
        <time>2021-09-21T12:36:55Z</time>
      </trkpt>
      <trkpt lat="46.55696" lon="0.34148">
        <ele>121.6755160233</ele>
        <time>2021-09-21T12:36:57Z</time>
      </trkpt>
      <trkpt lat="46.55695" lon="0.34151">
        <ele>121.89075668436</ele>
        <time>2021-09-21T12:36:59Z</time>
      </trkpt>
      <trkpt lat="46.55694" lon="0.34154">
        <ele>122.63471388817</ele>
        <time>2021-09-21T12:37:02Z</time>
      </trkpt>
      <trkpt lat="46.55692" lon="0.34157">
        <ele>122.11255391221</ele>
        <time>2021-09-21T12:37:04Z</time>
      </trkpt>
      <trkpt lat="46.55691" lon="0.3416">
        <ele>122.38144541346</ele>
        <time>2021-09-21T12:37:06Z</time>
      </trkpt>
      <trkpt lat="46.5569" lon="0.34163">
        <ele>122.95103408117</ele>
        <time>2021-09-21T12:37:08Z</time>
      </trkpt>
      <trkpt lat="46.55688" lon="0.34166">
        <ele>123.04205636866</ele>
        <time>2021-09-21T12:37:10Z</time>
      </trkpt>
      <trkpt lat="46.55687" lon="0.34168">
        <ele>122.59539780393</ele>
        <time>2021-09-21T12:37:12Z</time>
      </trkpt>
      <trkpt lat="46.55685" lon="0.34172">
        <ele>122.62007581163</ele>
        <time>2021-09-21T12:37:14Z</time>
      </trkpt>
      <trkpt lat="46.55684" lon="0.34175">
        <ele>122.74130930565</ele>
        <time>2021-09-21T12:37:16Z</time>
      </trkpt>
      <trkpt lat="46.55683" lon="0.34178">
        <ele>122.66529743187</ele>
        <time>2021-09-21T12:37:18Z</time>
      </trkpt>
      <trkpt lat="46.55683" lon="0.34181">
        <ele>122.81606597453</ele>
        <time>2021-09-21T12:37:20Z</time>
      </trkpt>
      <trkpt lat="46.55682" lon="0.34183">
        <ele>123.03332384303</ele>
        <time>2021-09-21T12:37:22Z</time>
      </trkpt>
      <trkpt lat="46.55681" lon="0.34186">
        <ele>123.25696725398</ele>
        <time>2021-09-21T12:37:24Z</time>
      </trkpt>
      <trkpt lat="46.55679" lon="0.34189">
        <ele>123.14536134526</ele>
        <time>2021-09-21T12:37:26Z</time>
      </trkpt>
      <trkpt lat="46.55678" lon="0.34191">
        <ele>123.04974702373</ele>
        <time>2021-09-21T12:37:28Z</time>
      </trkpt>
      <trkpt lat="46.55677" lon="0.34194">
        <ele>122.91856127325</ele>
        <time>2021-09-21T12:37:30Z</time>
      </trkpt>
      <trkpt lat="46.55675" lon="0.34197">
        <ele>123.30001133494</ele>
        <time>2021-09-21T12:37:32Z</time>
      </trkpt>
      <trkpt lat="46.55674" lon="0.342">
        <ele>123.54466229118</ele>
        <time>2021-09-21T12:37:34Z</time>
      </trkpt>
      <trkpt lat="46.55673" lon="0.34203">
        <ele>123.41353061795</ele>
        <time>2021-09-21T12:37:36Z</time>
      </trkpt>
      <trkpt lat="46.55672" lon="0.34205">
        <ele>123.27844344266</ele>
        <time>2021-09-21T12:37:38Z</time>
      </trkpt>
      <trkpt lat="46.5567" lon="0.34208">
        <ele>123.36703044455</ele>
        <time>2021-09-21T12:37:40Z</time>
      </trkpt>
      <trkpt lat="46.55668" lon="0.3421">
        <ele>123.2884205645</ele>
        <time>2021-09-21T12:37:52Z</time>
      </trkpt>
      <trkpt lat="46.55666" lon="0.34212">
        <ele>123.48588938732</ele>
        <time>2021-09-21T12:37:55Z</time>
      </trkpt>
      <trkpt lat="46.55664" lon="0.34212">
        <ele>124.00837388635</ele>
        <time>2021-09-21T12:37:57Z</time>
      </trkpt>
      <trkpt lat="46.55662" lon="0.34214">
        <ele>123.53558483347</ele>
        <time>2021-09-21T12:38:00Z</time>
      </trkpt>
      <trkpt lat="46.55662" lon="0.34217">
        <ele>124.28057367448</ele>
        <time>2021-09-21T12:38:03Z</time>
      </trkpt>
      <trkpt lat="46.55662" lon="0.34221">
        <ele>123.79996957909</ele>
        <time>2021-09-21T12:38:06Z</time>
      </trkpt>
      <trkpt lat="46.55664" lon="0.34222">
        <ele>123.86978095304</ele>
        <time>2021-09-21T12:38:09Z</time>
      </trkpt>
      <trkpt lat="46.55665" lon="0.34225">
        <ele>123.70455549285</ele>
        <time>2021-09-21T12:38:12Z</time>
      </trkpt>
      <trkpt lat="46.55667" lon="0.34228">
        <ele>123.58152191527</ele>
        <time>2021-09-21T12:38:17Z</time>
      </trkpt>
      <trkpt lat="46.55668" lon="0.34231">
        <ele>123.74254148453</ele>
        <time>2021-09-21T12:38:23Z</time>
      </trkpt>
      <trkpt lat="46.55669" lon="0.34234">
        <ele>123.96254199091</ele>
        <time>2021-09-21T12:38:29Z</time>
      </trkpt>
      <trkpt lat="46.55671" lon="0.34236">
        <ele>124.01977982372</ele>
        <time>2021-09-21T12:38:31Z</time>
      </trkpt>
      <trkpt lat="46.55673" lon="0.34238">
        <ele>124.2802973045</ele>
        <time>2021-09-21T12:38:33Z</time>
      </trkpt>
      <trkpt lat="46.55674" lon="0.34241">
        <ele>123.59409239702</ele>
        <time>2021-09-21T12:38:36Z</time>
      </trkpt>
      <trkpt lat="46.55675" lon="0.34244">
        <ele>123.68921648711</ele>
        <time>2021-09-21T12:38:38Z</time>
      </trkpt>
      <trkpt lat="46.55676" lon="0.34247">
        <ele>123.73809893243</ele>
        <time>2021-09-21T12:38:40Z</time>
      </trkpt>
      <trkpt lat="46.55678" lon="0.34249">
        <ele>123.75842886232</ele>
        <time>2021-09-21T12:38:42Z</time>
      </trkpt>
      <trkpt lat="46.5568" lon="0.34252">
        <ele>123.58595299628</ele>
        <time>2021-09-21T12:38:44Z</time>
      </trkpt>
      <trkpt lat="46.55681" lon="0.34256">
        <ele>123.87383178901</ele>
        <time>2021-09-21T12:38:47Z</time>
      </trkpt>
      <trkpt lat="46.55685" lon="0.34259">
        <ele>122.86861498374</ele>
        <time>2021-09-21T12:38:49Z</time>
      </trkpt>
      <trkpt lat="46.55687" lon="0.34261">
        <ele>123.17106456216</ele>
        <time>2021-09-21T12:38:51Z</time>
      </trkpt>
      <trkpt lat="46.55688" lon="0.34263">
        <ele>123.38278980181</ele>
        <time>2021-09-21T12:38:53Z</time>
      </trkpt>
      <trkpt lat="46.55689" lon="0.34266">
        <ele>123.41677549761</ele>
        <time>2021-09-21T12:38:55Z</time>
      </trkpt>
      <trkpt lat="46.5569" lon="0.34268">
        <ele>123.81173056364</ele>
        <time>2021-09-21T12:38:57Z</time>
      </trkpt>
      <trkpt lat="46.55692" lon="0.34272">
        <ele>123.93204657361</ele>
        <time>2021-09-21T12:38:59Z</time>
      </trkpt>
      <trkpt lat="46.55693" lon="0.34275">
        <ele>123.95590730757</ele>
        <time>2021-09-21T12:39:01Z</time>
      </trkpt>
      <trkpt lat="46.55693" lon="0.34278">
        <ele>123.42539007217</ele>
        <time>2021-09-21T12:39:03Z</time>
      </trkpt>
      <trkpt lat="46.55694" lon="0.34281">
        <ele>123.72439234145</ele>
        <time>2021-09-21T12:39:05Z</time>
      </trkpt>
      <trkpt lat="46.55695" lon="0.34284">
        <ele>123.93622974027</ele>
        <time>2021-09-21T12:39:07Z</time>
      </trkpt>
      <trkpt lat="46.55696" lon="0.34287">
        <ele>123.27135359496</ele>
        <time>2021-09-21T12:39:09Z</time>
      </trkpt>
      <trkpt lat="46.55698" lon="0.3429">
        <ele>123.86688155401</ele>
        <time>2021-09-21T12:39:12Z</time>
      </trkpt>
      <trkpt lat="46.55699" lon="0.34292">
        <ele>123.52773769107</ele>
        <time>2021-09-21T12:39:14Z</time>
      </trkpt>
      <trkpt lat="46.55701" lon="0.34294">
        <ele>123.60220369231</ele>
        <time>2021-09-21T12:39:16Z</time>
      </trkpt>
      <trkpt lat="46.55702" lon="0.34298">
        <ele>124.00135164242</ele>
        <time>2021-09-21T12:39:19Z</time>
      </trkpt>
      <trkpt lat="46.55703" lon="0.34301">
        <ele>123.80944553949</ele>
        <time>2021-09-21T12:39:21Z</time>
      </trkpt>
      <trkpt lat="46.55705" lon="0.34303">
        <ele>124.03607479297</ele>
        <time>2021-09-21T12:39:24Z</time>
      </trkpt>
      <trkpt lat="46.55706" lon="0.34307">
        <ele>123.59036153741</ele>
        <time>2021-09-21T12:39:26Z</time>
      </trkpt>
      <trkpt lat="46.55707" lon="0.34309">
        <ele>123.51215935964</ele>
        <time>2021-09-21T12:39:29Z</time>
      </trkpt>
      <trkpt lat="46.55709" lon="0.34312">
        <ele>123.80051288567</ele>
        <time>2021-09-21T12:39:32Z</time>
      </trkpt>
      <trkpt lat="46.55711" lon="0.34314">
        <ele>123.48831226397</ele>
        <time>2021-09-21T12:39:34Z</time>
      </trkpt>
      <trkpt lat="46.55713" lon="0.34316">
        <ele>123.58719229139</ele>
        <time>2021-09-21T12:39:36Z</time>
      </trkpt>
      <trkpt lat="46.55715" lon="0.34319">
        <ele>123.73363506049</ele>
        <time>2021-09-21T12:39:38Z</time>
      </trkpt>
      <trkpt lat="46.55717" lon="0.34321">
        <ele>124.06856607459</ele>
        <time>2021-09-21T12:39:40Z</time>
      </trkpt>
      <trkpt lat="46.55718" lon="0.34324">
        <ele>123.75221158937</ele>
        <time>2021-09-21T12:39:42Z</time>
      </trkpt>
      <trkpt lat="46.55719" lon="0.34326">
        <ele>123.52154115587</ele>
        <time>2021-09-21T12:39:44Z</time>
      </trkpt>
      <trkpt lat="46.55721" lon="0.34327">
        <ele>123.76058956143</ele>
        <time>2021-09-21T12:39:46Z</time>
      </trkpt>
      <trkpt lat="46.55723" lon="0.3433">
        <ele>124.05611212458</ele>
        <time>2021-09-21T12:39:48Z</time>
      </trkpt>
      <trkpt lat="46.55725" lon="0.34333">
        <ele>123.60719719809</ele>
        <time>2021-09-21T12:39:51Z</time>
      </trkpt>
      <trkpt lat="46.55725" lon="0.34336">
        <ele>124.05612764694</ele>
        <time>2021-09-21T12:39:53Z</time>
      </trkpt>
      <trkpt lat="46.55727" lon="0.34339">
        <ele>123.87064437475</ele>
        <time>2021-09-21T12:39:56Z</time>
      </trkpt>
      <trkpt lat="46.55728" lon="0.34342">
        <ele>124.11642658059</ele>
        <time>2021-09-21T12:39:58Z</time>
      </trkpt>
      <trkpt lat="46.5573" lon="0.34345">
        <ele>124.04964610934</ele>
        <time>2021-09-21T12:40:00Z</time>
      </trkpt>
      <trkpt lat="46.55732" lon="0.34347">
        <ele>123.96383762732</ele>
        <time>2021-09-21T12:40:02Z</time>
      </trkpt>
      <trkpt lat="46.55734" lon="0.3435">
        <ele>124.17371700425</ele>
        <time>2021-09-21T12:40:04Z</time>
      </trkpt>
      <trkpt lat="46.55735" lon="0.34352">
        <ele>124.68320828397</ele>
        <time>2021-09-21T12:40:06Z</time>
      </trkpt>
      <trkpt lat="46.55737" lon="0.34355">
        <ele>124.46919728536</ele>
        <time>2021-09-21T12:40:08Z</time>
      </trkpt>
      <trkpt lat="46.55738" lon="0.34358">
        <ele>124.33017482609</ele>
        <time>2021-09-21T12:40:10Z</time>
      </trkpt>
      <trkpt lat="46.5574" lon="0.34361">
        <ele>124.87316017132</ele>
        <time>2021-09-21T12:40:13Z</time>
      </trkpt>
      <trkpt lat="46.55741" lon="0.34363">
        <ele>125.28941313457</ele>
        <time>2021-09-21T12:40:15Z</time>
      </trkpt>
      <trkpt lat="46.55744" lon="0.34365">
        <ele>124.78391572461</ele>
        <time>2021-09-21T12:40:17Z</time>
      </trkpt>
      <trkpt lat="46.55746" lon="0.34367">
        <ele>124.66640309803</ele>
        <time>2021-09-21T12:40:19Z</time>
      </trkpt>
      <trkpt lat="46.55746" lon="0.34371">
        <ele>124.48628878128</ele>
        <time>2021-09-21T12:40:21Z</time>
      </trkpt>
      <trkpt lat="46.55747" lon="0.34373">
        <ele>124.68885266501</ele>
        <time>2021-09-21T12:40:22Z</time>
      </trkpt>
      <trkpt lat="46.55749" lon="0.34375">
        <ele>124.49768861104</ele>
        <time>2021-09-21T12:40:24Z</time>
      </trkpt>
      <trkpt lat="46.55751" lon="0.34378">
        <ele>124.48714149091</ele>
        <time>2021-09-21T12:40:26Z</time>
      </trkpt>
      <trkpt lat="46.55752" lon="0.34381">
        <ele>124.7198787434</ele>
        <time>2021-09-21T12:40:28Z</time>
      </trkpt>
      <trkpt lat="46.55753" lon="0.34383">
        <ele>124.53634727467</ele>
        <time>2021-09-21T12:40:30Z</time>
      </trkpt>
      <trkpt lat="46.55755" lon="0.34385">
        <ele>124.60643011332</ele>
        <time>2021-09-21T12:40:32Z</time>
      </trkpt>
      <trkpt lat="46.55757" lon="0.34388">
        <ele>124.46560955327</ele>
        <time>2021-09-21T12:40:34Z</time>
      </trkpt>
      <trkpt lat="46.55758" lon="0.34391">
        <ele>124.34333155677</ele>
        <time>2021-09-21T12:40:36Z</time>
      </trkpt>
      <trkpt lat="46.5576" lon="0.34395">
        <ele>125.21924433578</ele>
        <time>2021-09-21T12:40:39Z</time>
      </trkpt>
      <trkpt lat="46.55761" lon="0.34397">
        <ele>124.95953042433</ele>
        <time>2021-09-21T12:40:40Z</time>
      </trkpt>
      <trkpt lat="46.55762" lon="0.34399">
        <ele>124.85547751747</ele>
        <time>2021-09-21T12:40:42Z</time>
      </trkpt>
      <trkpt lat="46.55762" lon="0.34402">
        <ele>124.33969175816</ele>
        <time>2021-09-21T12:40:44Z</time>
      </trkpt>
      <trkpt lat="46.55763" lon="0.34405">
        <ele>124.58422625344</ele>
        <time>2021-09-21T12:40:46Z</time>
      </trkpt>
      <trkpt lat="46.55763" lon="0.34409">
        <ele>124.21434501559</ele>
        <time>2021-09-21T12:40:49Z</time>
      </trkpt>
      <trkpt lat="46.55762" lon="0.34412">
        <ele>124.23336101416</ele>
        <time>2021-09-21T12:40:51Z</time>
      </trkpt>
      <trkpt lat="46.55763" lon="0.34414">
        <ele>124.64465095103</ele>
        <time>2021-09-21T12:40:53Z</time>
      </trkpt>
      <trkpt lat="46.55763" lon="0.34418">
        <ele>124.53950314876</ele>
        <time>2021-09-21T12:40:55Z</time>
      </trkpt>
      <trkpt lat="46.55761" lon="0.34419">
        <ele>124.67523955647</ele>
        <time>2021-09-21T12:40:57Z</time>
      </trkpt>
      <trkpt lat="46.55759" lon="0.34422">
        <ele>124.66514728032</ele>
        <time>2021-09-21T12:41:00Z</time>
      </trkpt>
      <trkpt lat="46.55758" lon="0.34425">
        <ele>124.39149838593</ele>
        <time>2021-09-21T12:41:02Z</time>
      </trkpt>
      <trkpt lat="46.55758" lon="0.34429">
        <ele>124.52573458478</ele>
        <time>2021-09-21T12:41:05Z</time>
      </trkpt>
      <trkpt lat="46.55759" lon="0.34432">
        <ele>124.44718838017</ele>
        <time>2021-09-21T12:41:07Z</time>
      </trkpt>
      <trkpt lat="46.5576" lon="0.34435">
        <ele>124.80295974854</ele>
        <time>2021-09-21T12:41:09Z</time>
      </trkpt>
      <trkpt lat="46.55761" lon="0.34436">
        <ele>124.32546912134</ele>
        <time>2021-09-21T12:41:11Z</time>
      </trkpt>
      <trkpt lat="46.55764" lon="0.34436">
        <ele>124.74668787047</ele>
        <time>2021-09-21T12:41:14Z</time>
      </trkpt>
      <trkpt lat="46.55767" lon="0.34437">
        <ele>124.71453777421</ele>
        <time>2021-09-21T12:41:16Z</time>
      </trkpt>
      <trkpt lat="46.55769" lon="0.34438">
        <ele>124.78982792888</ele>
        <time>2021-09-21T12:41:18Z</time>
      </trkpt>
      <trkpt lat="46.55771" lon="0.34441">
        <ele>124.72354145721</ele>
        <time>2021-09-21T12:41:20Z</time>
      </trkpt>
      <trkpt lat="46.55772" lon="0.34443">
        <ele>124.70229884516</ele>
        <time>2021-09-21T12:41:22Z</time>
      </trkpt>
      <trkpt lat="46.55774" lon="0.34445">
        <ele>124.85641373042</ele>
        <time>2021-09-21T12:41:25Z</time>
      </trkpt>
      <trkpt lat="46.55776" lon="0.34446">
        <ele>124.54625093937</ele>
        <time>2021-09-21T12:41:28Z</time>
      </trkpt>
      <trkpt lat="46.55777" lon="0.34447">
        <ele>124.42558864225</ele>
        <time>2021-09-21T12:41:30Z</time>
      </trkpt>
      <trkpt lat="46.5578" lon="0.34448">
        <ele>124.34369432647</ele>
        <time>2021-09-21T12:41:32Z</time>
      </trkpt>
      <trkpt lat="46.55782" lon="0.34448">
        <ele>124.09841726068</ele>
        <time>2021-09-21T12:41:34Z</time>
      </trkpt>
      <trkpt lat="46.55784" lon="0.34449">
        <ele>124.35605693236</ele>
        <time>2021-09-21T12:41:36Z</time>
      </trkpt>
      <trkpt lat="46.55786" lon="0.34449">
        <ele>124.76274874527</ele>
        <time>2021-09-21T12:41:38Z</time>
      </trkpt>
      <trkpt lat="46.55786" lon="0.34453">
        <ele>124.32970282808</ele>
        <time>2021-09-21T12:41:40Z</time>
      </trkpt>
      <trkpt lat="46.55787" lon="0.34456">
        <ele>124.70519436523</ele>
        <time>2021-09-21T12:41:42Z</time>
      </trkpt>
      <trkpt lat="46.55787" lon="0.3446">
        <ele>124.76544949505</ele>
        <time>2021-09-21T12:41:44Z</time>
      </trkpt>
      <trkpt lat="46.55787" lon="0.34463">
        <ele>124.61746283714</ele>
        <time>2021-09-21T12:41:46Z</time>
      </trkpt>
      <trkpt lat="46.55787" lon="0.34466">
        <ele>124.43662120681</ele>
        <time>2021-09-21T12:41:48Z</time>
      </trkpt>
      <trkpt lat="46.55788" lon="0.3447">
        <ele>124.54750336707</ele>
        <time>2021-09-21T12:41:50Z</time>
      </trkpt>
      <trkpt lat="46.55788" lon="0.34473">
        <ele>124.56456467975</ele>
        <time>2021-09-21T12:41:52Z</time>
      </trkpt>
      <trkpt lat="46.55789" lon="0.34476">
        <ele>124.72515997943</ele>
        <time>2021-09-21T12:41:54Z</time>
      </trkpt>
      <trkpt lat="46.55791" lon="0.34479">
        <ele>124.28393281344</ele>
        <time>2021-09-21T12:41:56Z</time>
      </trkpt>
      <trkpt lat="46.55791" lon="0.34482">
        <ele>124.58598592132</ele>
        <time>2021-09-21T12:41:58Z</time>
      </trkpt>
      <trkpt lat="46.55792" lon="0.34486">
        <ele>124.56559168454</ele>
        <time>2021-09-21T12:42:00Z</time>
      </trkpt>
      <trkpt lat="46.55791" lon="0.34489">
        <ele>124.33740708046</ele>
        <time>2021-09-21T12:42:01Z</time>
      </trkpt>
      <trkpt lat="46.55792" lon="0.34492">
        <ele>124.30812709592</ele>
        <time>2021-09-21T12:42:03Z</time>
      </trkpt>
      <trkpt lat="46.55792" lon="0.34495">
        <ele>124.63698260114</ele>
        <time>2021-09-21T12:42:05Z</time>
      </trkpt>
      <trkpt lat="46.55793" lon="0.34498">
        <ele>124.76957497559</ele>
        <time>2021-09-21T12:42:07Z</time>
      </trkpt>
      <trkpt lat="46.55793" lon="0.34501">
        <ele>124.65617682878</ele>
        <time>2021-09-21T12:42:09Z</time>
      </trkpt>
      <trkpt lat="46.55794" lon="0.34504">
        <ele>124.64374328312</ele>
        <time>2021-09-21T12:42:11Z</time>
      </trkpt>
      <trkpt lat="46.55794" lon="0.34508">
        <ele>124.62534451205</ele>
        <time>2021-09-21T12:42:13Z</time>
      </trkpt>
      <trkpt lat="46.55794" lon="0.34512">
        <ele>124.6447459748</ele>
        <time>2021-09-21T12:42:15Z</time>
      </trkpt>
      <trkpt lat="46.55795" lon="0.34515">
        <ele>124.60278695915</ele>
        <time>2021-09-21T12:42:17Z</time>
      </trkpt>
      <trkpt lat="46.55796" lon="0.34518">
        <ele>124.1689819349</ele>
        <time>2021-09-21T12:42:19Z</time>
      </trkpt>
      <trkpt lat="46.55798" lon="0.3452">
        <ele>124.37936390564</ele>
        <time>2021-09-21T12:42:21Z</time>
      </trkpt>
      <trkpt lat="46.55798" lon="0.34524">
        <ele>124.59148890711</ele>
        <time>2021-09-21T12:42:23Z</time>
      </trkpt>
      <trkpt lat="46.55799" lon="0.34527">
        <ele>124.49852295313</ele>
        <time>2021-09-21T12:42:25Z</time>
      </trkpt>
      <trkpt lat="46.558" lon="0.3453">
        <ele>124.83820496313</ele>
        <time>2021-09-21T12:42:27Z</time>
      </trkpt>
      <trkpt lat="46.55801" lon="0.34534">
        <ele>124.19751030672</ele>
        <time>2021-09-21T12:42:29Z</time>
      </trkpt>
      <trkpt lat="46.55802" lon="0.34538">
        <ele>125.63625735883</ele>
        <time>2021-09-21T12:42:32Z</time>
      </trkpt>
      <trkpt lat="46.55802" lon="0.34541">
        <ele>124.38074454386</ele>
        <time>2021-09-21T12:42:34Z</time>
      </trkpt>
      <trkpt lat="46.55803" lon="0.34544">
        <ele>124.54940182343</ele>
        <time>2021-09-21T12:42:36Z</time>
      </trkpt>
      <trkpt lat="46.55805" lon="0.34546">
        <ele>124.48129109666</ele>
        <time>2021-09-21T12:42:38Z</time>
      </trkpt>
      <trkpt lat="46.55806" lon="0.34549">
        <ele>124.39905055985</ele>
        <time>2021-09-21T12:42:40Z</time>
      </trkpt>
      <trkpt lat="46.55807" lon="0.34552">
        <ele>125.16758980509</ele>
        <time>2021-09-21T12:42:42Z</time>
      </trkpt>
      <trkpt lat="46.55808" lon="0.34554">
        <ele>124.46111339238</ele>
        <time>2021-09-21T12:42:44Z</time>
      </trkpt>
      <trkpt lat="46.5581" lon="0.34558">
        <ele>124.70538978465</ele>
        <time>2021-09-21T12:42:46Z</time>
      </trkpt>
      <trkpt lat="46.55811" lon="0.3456">
        <ele>124.5892185038</ele>
        <time>2021-09-21T12:42:48Z</time>
      </trkpt>
      <trkpt lat="46.55812" lon="0.34564">
        <ele>125.07745232806</ele>
        <time>2021-09-21T12:42:50Z</time>
      </trkpt>
      <trkpt lat="46.55814" lon="0.34566">
        <ele>124.54142731521</ele>
        <time>2021-09-21T12:42:52Z</time>
      </trkpt>
      <trkpt lat="46.55816" lon="0.34567">
        <ele>124.9160864586</ele>
        <time>2021-09-21T12:42:54Z</time>
      </trkpt>
      <trkpt lat="46.55819" lon="0.34568">
        <ele>124.4175285669</ele>
        <time>2021-09-21T12:42:56Z</time>
      </trkpt>
      <trkpt lat="46.55821" lon="0.3457">
        <ele>124.78623142838</ele>
        <time>2021-09-21T12:42:58Z</time>
      </trkpt>
      <trkpt lat="46.55824" lon="0.3457">
        <ele>124.65791786928</ele>
        <time>2021-09-21T12:43:01Z</time>
      </trkpt>
      <trkpt lat="46.55826" lon="0.34571">
        <ele>124.88892052695</ele>
        <time>2021-09-21T12:43:03Z</time>
      </trkpt>
      <trkpt lat="46.55828" lon="0.34573">
        <ele>124.46044300869</ele>
        <time>2021-09-21T12:43:05Z</time>
      </trkpt>
      <trkpt lat="46.5583" lon="0.34575">
        <ele>124.9395314781</ele>
        <time>2021-09-21T12:43:07Z</time>
      </trkpt>
      <trkpt lat="46.55833" lon="0.34575">
        <ele>124.69326215889</ele>
        <time>2021-09-21T12:43:09Z</time>
      </trkpt>
      <trkpt lat="46.55835" lon="0.34577">
        <ele>124.92040180787</ele>
        <time>2021-09-21T12:43:11Z</time>
      </trkpt>
      <trkpt lat="46.55837" lon="0.34578">
        <ele>125.09106115252</ele>
        <time>2021-09-21T12:43:13Z</time>
      </trkpt>
      <trkpt lat="46.5584" lon="0.3458">
        <ele>125.34458626714</ele>
        <time>2021-09-21T12:43:15Z</time>
      </trkpt>
      <trkpt lat="46.55842" lon="0.3458">
        <ele>124.24063075241</ele>
        <time>2021-09-21T12:43:16Z</time>
      </trkpt>
      <trkpt lat="46.55844" lon="0.34581">
        <ele>124.57947225869</ele>
        <time>2021-09-21T12:43:19Z</time>
      </trkpt>
      <trkpt lat="46.55847" lon="0.34582">
        <ele>125.08296075091</ele>
        <time>2021-09-21T12:43:21Z</time>
      </trkpt>
      <trkpt lat="46.55849" lon="0.34585">
        <ele>124.83451088052</ele>
        <time>2021-09-21T12:43:24Z</time>
      </trkpt>
      <trkpt lat="46.55851" lon="0.34586">
        <ele>124.55521298572</ele>
        <time>2021-09-21T12:43:26Z</time>
      </trkpt>
      <trkpt lat="46.55854" lon="0.34588">
        <ele>124.32214380708</ele>
        <time>2021-09-21T12:43:28Z</time>
      </trkpt>
      <trkpt lat="46.55856" lon="0.34589">
        <ele>124.10521762539</ele>
        <time>2021-09-21T12:43:30Z</time>
      </trkpt>
      <trkpt lat="46.55858" lon="0.34591">
        <ele>124.02236212604</ele>
        <time>2021-09-21T12:43:32Z</time>
      </trkpt>
      <trkpt lat="46.5586" lon="0.34592">
        <ele>124.07222172245</ele>
        <time>2021-09-21T12:43:34Z</time>
      </trkpt>
      <trkpt lat="46.55863" lon="0.34593">
        <ele>123.99768388923</ele>
        <time>2021-09-21T12:43:36Z</time>
      </trkpt>
      <trkpt lat="46.55866" lon="0.34593">
        <ele>124.07762787957</ele>
        <time>2021-09-21T12:43:38Z</time>
      </trkpt>
      <trkpt lat="46.55867" lon="0.34594">
        <ele>124.50256385654</ele>
        <time>2021-09-21T12:43:40Z</time>
      </trkpt>
      <trkpt lat="46.5587" lon="0.34596">
        <ele>123.84300217126</ele>
        <time>2021-09-21T12:43:42Z</time>
      </trkpt>
      <trkpt lat="46.55872" lon="0.34597">
        <ele>124.45566487499</ele>
        <time>2021-09-21T12:43:44Z</time>
      </trkpt>
      <trkpt lat="46.55874" lon="0.34597">
        <ele>124.0876811957</ele>
        <time>2021-09-21T12:43:46Z</time>
      </trkpt>
      <trkpt lat="46.55877" lon="0.34598">
        <ele>124.60201511998</ele>
        <time>2021-09-21T12:43:48Z</time>
      </trkpt>
      <trkpt lat="46.5588" lon="0.34599">
        <ele>124.07394664176</ele>
        <time>2021-09-21T12:43:51Z</time>
      </trkpt>
      <trkpt lat="46.55882" lon="0.346">
        <ele>124.18164517637</ele>
        <time>2021-09-21T12:43:53Z</time>
      </trkpt>
      <trkpt lat="46.55885" lon="0.34601">
        <ele>124.35906315967</ele>
        <time>2021-09-21T12:43:55Z</time>
      </trkpt>
      <trkpt lat="46.55887" lon="0.34602">
        <ele>124.47227885947</ele>
        <time>2021-09-21T12:43:57Z</time>
      </trkpt>
      <trkpt lat="46.5589" lon="0.34603">
        <ele>124.45552253537</ele>
        <time>2021-09-21T12:43:59Z</time>
      </trkpt>
      <trkpt lat="46.55892" lon="0.34604">
        <ele>124.8206834374</ele>
        <time>2021-09-21T12:44:01Z</time>
      </trkpt>
      <trkpt lat="46.55894" lon="0.34604">
        <ele>124.85670989193</ele>
        <time>2021-09-21T12:44:03Z</time>
      </trkpt>
      <trkpt lat="46.55897" lon="0.34605">
        <ele>124.58580961078</ele>
        <time>2021-09-21T12:44:05Z</time>
      </trkpt>
      <trkpt lat="46.55899" lon="0.34606">
        <ele>124.41497914493</ele>
        <time>2021-09-21T12:44:07Z</time>
      </trkpt>
      <trkpt lat="46.55902" lon="0.34606">
        <ele>124.68020681944</ele>
        <time>2021-09-21T12:44:09Z</time>
      </trkpt>
      <trkpt lat="46.55904" lon="0.34607">
        <ele>124.17717441916</ele>
        <time>2021-09-21T12:44:11Z</time>
      </trkpt>
      <trkpt lat="46.55907" lon="0.34608">
        <ele>124.60417202208</ele>
        <time>2021-09-21T12:44:13Z</time>
      </trkpt>
      <trkpt lat="46.55909" lon="0.34609">
        <ele>124.85654853191</ele>
        <time>2021-09-21T12:44:15Z</time>
      </trkpt>
      <trkpt lat="46.55911" lon="0.34609">
        <ele>124.36278970726</ele>
        <time>2021-09-21T12:44:17Z</time>
      </trkpt>
      <trkpt lat="46.55913" lon="0.34611">
        <ele>124.16520154849</ele>
        <time>2021-09-21T12:44:19Z</time>
      </trkpt>
      <trkpt lat="46.55916" lon="0.34612">
        <ele>124.5589602096</ele>
        <time>2021-09-21T12:44:21Z</time>
      </trkpt>
      <trkpt lat="46.55918" lon="0.34613">
        <ele>124.42718701065</ele>
        <time>2021-09-21T12:44:23Z</time>
      </trkpt>
      <trkpt lat="46.5592" lon="0.34613">
        <ele>124.9274099078</ele>
        <time>2021-09-21T12:44:25Z</time>
      </trkpt>
      <trkpt lat="46.55922" lon="0.34614">
        <ele>124.56069163326</ele>
        <time>2021-09-21T12:44:27Z</time>
      </trkpt>
      <trkpt lat="46.55925" lon="0.34614">
        <ele>124.37111280859</ele>
        <time>2021-09-21T12:44:29Z</time>
      </trkpt>
      <trkpt lat="46.55927" lon="0.34615">
        <ele>124.16429479327</ele>
        <time>2021-09-21T12:44:31Z</time>
      </trkpt>
      <trkpt lat="46.55929" lon="0.34617">
        <ele>124.24688181747</ele>
        <time>2021-09-21T12:44:33Z</time>
      </trkpt>
      <trkpt lat="46.55931" lon="0.34618">
        <ele>124.58139141183</ele>
        <time>2021-09-21T12:44:35Z</time>
      </trkpt>
      <trkpt lat="46.55934" lon="0.34619">
        <ele>124.49574867915</ele>
        <time>2021-09-21T12:44:38Z</time>
      </trkpt>
      <trkpt lat="46.55936" lon="0.34621">
        <ele>124.6007055575</ele>
        <time>2021-09-21T12:44:41Z</time>
      </trkpt>
      <trkpt lat="46.55938" lon="0.34622">
        <ele>124.63119933289</ele>
        <time>2021-09-21T12:44:43Z</time>
      </trkpt>
      <trkpt lat="46.55941" lon="0.34622">
        <ele>124.2339229472</ele>
        <time>2021-09-21T12:44:45Z</time>
      </trkpt>
      <trkpt lat="46.55943" lon="0.34623">
        <ele>124.23137592617</ele>
        <time>2021-09-21T12:44:47Z</time>
      </trkpt>
      <trkpt lat="46.55945" lon="0.34624">
        <ele>124.17230703961</ele>
        <time>2021-09-21T12:44:49Z</time>
      </trkpt>
      <trkpt lat="46.55947" lon="0.34625">
        <ele>124.49012201279</ele>
        <time>2021-09-21T12:44:51Z</time>
      </trkpt>
      <trkpt lat="46.5595" lon="0.34626">
        <ele>124.65129528381</ele>
        <time>2021-09-21T12:44:53Z</time>
      </trkpt>
      <trkpt lat="46.55953" lon="0.34626">
        <ele>123.77075314801</ele>
        <time>2021-09-21T12:44:55Z</time>
      </trkpt>
      <trkpt lat="46.55955" lon="0.34627">
        <ele>124.05999401398</ele>
        <time>2021-09-21T12:44:57Z</time>
      </trkpt>
      <trkpt lat="46.55957" lon="0.34628">
        <ele>124.04860708769</ele>
        <time>2021-09-21T12:44:59Z</time>
      </trkpt>
      <trkpt lat="46.5596" lon="0.34629">
        <ele>124.05603805091</ele>
        <time>2021-09-21T12:45:01Z</time>
      </trkpt>
      <trkpt lat="46.55962" lon="0.3463">
        <ele>124.23332408909</ele>
        <time>2021-09-21T12:45:03Z</time>
      </trkpt>
      <trkpt lat="46.55964" lon="0.34631">
        <ele>124.40105832741</ele>
        <time>2021-09-21T12:45:05Z</time>
      </trkpt>
      <trkpt lat="46.55967" lon="0.34633">
        <ele>124.24598420691</ele>
        <time>2021-09-21T12:45:07Z</time>
      </trkpt>
      <trkpt lat="46.55969" lon="0.34633">
        <ele>124.27073859051</ele>
        <time>2021-09-21T12:45:09Z</time>
      </trkpt>
      <trkpt lat="46.55972" lon="0.34634">
        <ele>124.29120463599</ele>
        <time>2021-09-21T12:45:11Z</time>
      </trkpt>
      <trkpt lat="46.55974" lon="0.34635">
        <ele>124.40974254441</ele>
        <time>2021-09-21T12:45:13Z</time>
      </trkpt>
      <trkpt lat="46.55976" lon="0.34637">
        <ele>124.53539599292</ele>
        <time>2021-09-21T12:45:15Z</time>
      </trkpt>
      <trkpt lat="46.55978" lon="0.34637">
        <ele>124.67459857091</ele>
        <time>2021-09-21T12:45:17Z</time>
      </trkpt>
      <trkpt lat="46.55981" lon="0.34638">
        <ele>124.42604089808</ele>
        <time>2021-09-21T12:45:19Z</time>
      </trkpt>
      <trkpt lat="46.55983" lon="0.34638">
        <ele>124.66588161979</ele>
        <time>2021-09-21T12:45:21Z</time>
      </trkpt>
      <trkpt lat="46.55985" lon="0.34639">
        <ele>124.08669659309</ele>
        <time>2021-09-21T12:45:23Z</time>
      </trkpt>
      <trkpt lat="46.55988" lon="0.34639">
        <ele>124.37298739329</ele>
        <time>2021-09-21T12:45:25Z</time>
      </trkpt>
      <trkpt lat="46.5599" lon="0.3464">
        <ele>124.30517550185</ele>
        <time>2021-09-21T12:45:27Z</time>
      </trkpt>
      <trkpt lat="46.55992" lon="0.34641">
        <ele>124.62712001707</ele>
        <time>2021-09-21T12:45:29Z</time>
      </trkpt>
      <trkpt lat="46.55994" lon="0.34641">
        <ele>124.26132229809</ele>
        <time>2021-09-21T12:45:31Z</time>
      </trkpt>
      <trkpt lat="46.55997" lon="0.34642">
        <ele>124.16747719608</ele>
        <time>2021-09-21T12:45:33Z</time>
      </trkpt>
      <trkpt lat="46.55999" lon="0.34643">
        <ele>124.48921045568</ele>
        <time>2021-09-21T12:45:35Z</time>
      </trkpt>
      <trkpt lat="46.56001" lon="0.34643">
        <ele>124.52326013055</ele>
        <time>2021-09-21T12:45:37Z</time>
      </trkpt>
      <trkpt lat="46.56004" lon="0.34643">
        <ele>124.19843796827</ele>
        <time>2021-09-21T12:45:39Z</time>
      </trkpt>
      <trkpt lat="46.56006" lon="0.34644">
        <ele>124.77050114423</ele>
        <time>2021-09-21T12:45:41Z</time>
      </trkpt>
      <trkpt lat="46.56008" lon="0.34644">
        <ele>124.33586571179</ele>
        <time>2021-09-21T12:45:43Z</time>
      </trkpt>
      <trkpt lat="46.5601" lon="0.34644">
        <ele>124.75613953546</ele>
        <time>2021-09-21T12:45:44Z</time>
      </trkpt>
      <trkpt lat="46.56012" lon="0.34644">
        <ele>124.89288413059</ele>
        <time>2021-09-21T12:45:46Z</time>
      </trkpt>
      <trkpt lat="46.56015" lon="0.34644">
        <ele>124.7709169006</ele>
        <time>2021-09-21T12:45:48Z</time>
      </trkpt>
      <trkpt lat="46.56017" lon="0.34644">
        <ele>124.49993522931</ele>
        <time>2021-09-21T12:45:51Z</time>
      </trkpt>
      <trkpt lat="46.5602" lon="0.34644">
        <ele>124.95407928433</ele>
        <time>2021-09-21T12:45:53Z</time>
      </trkpt>
      <trkpt lat="46.56022" lon="0.34644">
        <ele>124.6258052513</ele>
        <time>2021-09-21T12:45:55Z</time>
      </trkpt>
      <trkpt lat="46.56025" lon="0.34645">
        <ele>125.07531923056</ele>
        <time>2021-09-21T12:45:57Z</time>
      </trkpt>
      <trkpt lat="46.56027" lon="0.34644">
        <ele>125.14316498488</ele>
        <time>2021-09-21T12:45:59Z</time>
      </trkpt>
      <trkpt lat="46.5603" lon="0.34644">
        <ele>124.56158782635</ele>
        <time>2021-09-21T12:46:01Z</time>
      </trkpt>
      <trkpt lat="46.56032" lon="0.34644">
        <ele>124.4340169793</ele>
        <time>2021-09-21T12:46:03Z</time>
      </trkpt>
      <trkpt lat="46.56035" lon="0.34644">
        <ele>124.38564052526</ele>
        <time>2021-09-21T12:46:05Z</time>
      </trkpt>
      <trkpt lat="46.56037" lon="0.34645">
        <ele>124.33693622984</ele>
        <time>2021-09-21T12:46:07Z</time>
      </trkpt>
      <trkpt lat="46.56039" lon="0.34644">
        <ele>124.18903879169</ele>
        <time>2021-09-21T12:46:09Z</time>
      </trkpt>
      <trkpt lat="46.56042" lon="0.34645">
        <ele>124.61346421018</ele>
        <time>2021-09-21T12:46:11Z</time>
      </trkpt>
      <trkpt lat="46.56044" lon="0.34645">
        <ele>124.53009345476</ele>
        <time>2021-09-21T12:46:13Z</time>
      </trkpt>
      <trkpt lat="46.56047" lon="0.34645">
        <ele>124.81059896201</ele>
        <time>2021-09-21T12:46:15Z</time>
      </trkpt>
      <trkpt lat="46.56049" lon="0.34646">
        <ele>124.98710574023</ele>
        <time>2021-09-21T12:46:17Z</time>
      </trkpt>
      <trkpt lat="46.56052" lon="0.34646">
        <ele>124.47288147081</ele>
        <time>2021-09-21T12:46:19Z</time>
      </trkpt>
      <trkpt lat="46.56054" lon="0.34646">
        <ele>124.3280312717</ele>
        <time>2021-09-21T12:46:21Z</time>
      </trkpt>
      <trkpt lat="46.56057" lon="0.34646">
        <ele>124.36951880902</ele>
        <time>2021-09-21T12:46:23Z</time>
      </trkpt>
      <trkpt lat="46.56059" lon="0.34647">
        <ele>125.21723166294</ele>
        <time>2021-09-21T12:46:25Z</time>
      </trkpt>
      <trkpt lat="46.56062" lon="0.34647">
        <ele>124.07783424947</ele>
        <time>2021-09-21T12:46:27Z</time>
      </trkpt>
      <trkpt lat="46.56064" lon="0.34648">
        <ele>124.08422930352</ele>
        <time>2021-09-21T12:46:29Z</time>
      </trkpt>
      <trkpt lat="46.56067" lon="0.3465">
        <ele>125.19456817769</ele>
        <time>2021-09-21T12:46:31Z</time>
      </trkpt>
      <trkpt lat="46.56069" lon="0.34649">
        <ele>123.82463476993</ele>
        <time>2021-09-21T12:46:33Z</time>
      </trkpt>
      <trkpt lat="46.56071" lon="0.3465">
        <ele>125.10711106192</ele>
        <time>2021-09-21T12:46:35Z</time>
      </trkpt>
      <trkpt lat="46.56073" lon="0.3465">
        <ele>123.78571521398</ele>
        <time>2021-09-21T12:46:37Z</time>
      </trkpt>
      <trkpt lat="46.56076" lon="0.34651">
        <ele>124.81087077688</ele>
        <time>2021-09-21T12:46:39Z</time>
      </trkpt>
      <trkpt lat="46.56078" lon="0.34653">
        <ele>124.10130667873</ele>
        <time>2021-09-21T12:46:41Z</time>
      </trkpt>
      <trkpt lat="46.5608" lon="0.34654">
        <ele>124.09014969505</ele>
        <time>2021-09-21T12:46:44Z</time>
      </trkpt>
      <trkpt lat="46.56082" lon="0.34655">
        <ele>125.23065912724</ele>
        <time>2021-09-21T12:46:45Z</time>
      </trkpt>
      <trkpt lat="46.56085" lon="0.34656">
        <ele>124.34119332489</ele>
        <time>2021-09-21T12:46:47Z</time>
      </trkpt>
      <trkpt lat="46.56087" lon="0.34657">
        <ele>124.0416297242</ele>
        <time>2021-09-21T12:46:49Z</time>
      </trkpt>
      <trkpt lat="46.56089" lon="0.34658">
        <ele>124.49906008877</ele>
        <time>2021-09-21T12:46:51Z</time>
      </trkpt>
      <trkpt lat="46.56092" lon="0.34659">
        <ele>124.72543696593</ele>
        <time>2021-09-21T12:46:53Z</time>
      </trkpt>
      <trkpt lat="46.56094" lon="0.34661">
        <ele>125.38818815444</ele>
        <time>2021-09-21T12:46:55Z</time>
      </trkpt>
      <trkpt lat="46.56097" lon="0.34663">
        <ele>124.21158342157</ele>
        <time>2021-09-21T12:46:57Z</time>
      </trkpt>
      <trkpt lat="46.56099" lon="0.34664">
        <ele>123.49715735205</ele>
        <time>2021-09-21T12:46:59Z</time>
      </trkpt>
      <trkpt lat="46.56101" lon="0.34665">
        <ele>124.28077772353</ele>
        <time>2021-09-21T12:47:01Z</time>
      </trkpt>
      <trkpt lat="46.56103" lon="0.34666">
        <ele>124.19388109446</ele>
        <time>2021-09-21T12:47:03Z</time>
      </trkpt>
      <trkpt lat="46.56105" lon="0.34667">
        <ele>123.83727971558</ele>
        <time>2021-09-21T12:47:05Z</time>
      </trkpt>
      <trkpt lat="46.56107" lon="0.3467">
        <ele>125.1260972321</ele>
        <time>2021-09-21T12:47:07Z</time>
      </trkpt>
      <trkpt lat="46.5611" lon="0.34671">
        <ele>126.6047378704</ele>
        <time>2021-09-21T12:47:09Z</time>
      </trkpt>
      <trkpt lat="46.56112" lon="0.34672">
        <ele>124.52160393167</ele>
        <time>2021-09-21T12:47:11Z</time>
      </trkpt>
      <trkpt lat="46.56114" lon="0.34674">
        <ele>124.74172721896</ele>
        <time>2021-09-21T12:47:13Z</time>
      </trkpt>
      <trkpt lat="46.56116" lon="0.34675">
        <ele>125.26943426579</ele>
        <time>2021-09-21T12:47:15Z</time>
      </trkpt>
      <trkpt lat="46.56118" lon="0.34676">
        <ele>123.75793781877</ele>
        <time>2021-09-21T12:47:17Z</time>
      </trkpt>
      <trkpt lat="46.5612" lon="0.34679">
        <ele>125.60449933447</ele>
        <time>2021-09-21T12:47:19Z</time>
      </trkpt>
      <trkpt lat="46.56122" lon="0.3468">
        <ele>124.9739616774</ele>
        <time>2021-09-21T12:47:21Z</time>
      </trkpt>
      <trkpt lat="46.56125" lon="0.34681">
        <ele>122.66275901347</ele>
        <time>2021-09-21T12:47:23Z</time>
      </trkpt>
      <trkpt lat="46.56127" lon="0.34683">
        <ele>124.01512187626</ele>
        <time>2021-09-21T12:47:25Z</time>
      </trkpt>
      <trkpt lat="46.56129" lon="0.34685">
        <ele>124.33946316689</ele>
        <time>2021-09-21T12:47:27Z</time>
      </trkpt>
      <trkpt lat="46.56132" lon="0.34687">
        <ele>123.78691508621</ele>
        <time>2021-09-21T12:47:29Z</time>
      </trkpt>
      <trkpt lat="46.56134" lon="0.34688">
        <ele>122.84645770676</ele>
        <time>2021-09-21T12:47:31Z</time>
      </trkpt>
      <trkpt lat="46.56136" lon="0.34689">
        <ele>123.14640482515</ele>
        <time>2021-09-21T12:47:33Z</time>
      </trkpt>
      <trkpt lat="46.56139" lon="0.34691">
        <ele>123.50569689926</ele>
        <time>2021-09-21T12:47:35Z</time>
      </trkpt>
      <trkpt lat="46.56141" lon="0.34692">
        <ele>124.01358095556</ele>
        <time>2021-09-21T12:47:37Z</time>
      </trkpt>
      <trkpt lat="46.56143" lon="0.34694">
        <ele>122.96086058766</ele>
        <time>2021-09-21T12:47:39Z</time>
      </trkpt>
      <trkpt lat="46.56146" lon="0.34695">
        <ele>123.1030108491</ele>
        <time>2021-09-21T12:47:41Z</time>
      </trkpt>
      <trkpt lat="46.56147" lon="0.34697">
        <ele>122.84790294059</ele>
        <time>2021-09-21T12:47:43Z</time>
      </trkpt>
      <trkpt lat="46.5615" lon="0.34699">
        <ele>122.74288096372</ele>
        <time>2021-09-21T12:47:45Z</time>
      </trkpt>
      <trkpt lat="46.56152" lon="0.34701">
        <ele>122.73823064007</ele>
        <time>2021-09-21T12:47:47Z</time>
      </trkpt>
      <trkpt lat="46.56154" lon="0.34702">
        <ele>122.92004072107</ele>
        <time>2021-09-21T12:47:49Z</time>
      </trkpt>
      <trkpt lat="46.56156" lon="0.34704">
        <ele>123.51652995031</ele>
        <time>2021-09-21T12:47:51Z</time>
      </trkpt>
      <trkpt lat="46.56158" lon="0.34706">
        <ele>123.2636177633</ele>
        <time>2021-09-21T12:47:53Z</time>
      </trkpt>
      <trkpt lat="46.56161" lon="0.34707">
        <ele>123.1664767582</ele>
        <time>2021-09-21T12:47:55Z</time>
      </trkpt>
      <trkpt lat="46.56163" lon="0.34709">
        <ele>122.85430719517</ele>
        <time>2021-09-21T12:47:57Z</time>
      </trkpt>
      <trkpt lat="46.56165" lon="0.34711">
        <ele>123.31227393448</ele>
        <time>2021-09-21T12:47:59Z</time>
      </trkpt>
      <trkpt lat="46.56167" lon="0.34712">
        <ele>122.88699587993</ele>
        <time>2021-09-21T12:48:01Z</time>
      </trkpt>
      <trkpt lat="46.56169" lon="0.34713">
        <ele>121.74391808268</ele>
        <time>2021-09-21T12:48:03Z</time>
      </trkpt>
      <trkpt lat="46.56171" lon="0.34715">
        <ele>121.87778388336</ele>
        <time>2021-09-21T12:48:05Z</time>
      </trkpt>
      <trkpt lat="46.56174" lon="0.34716">
        <ele>122.18599913362</ele>
        <time>2021-09-21T12:48:07Z</time>
      </trkpt>
      <trkpt lat="46.56176" lon="0.34718">
        <ele>122.07948883343</ele>
        <time>2021-09-21T12:48:09Z</time>
      </trkpt>
      <trkpt lat="46.56179" lon="0.34721">
        <ele>122.399836272</ele>
        <time>2021-09-21T12:48:11Z</time>
      </trkpt>
      <trkpt lat="46.56181" lon="0.34722">
        <ele>122.55780840013</ele>
        <time>2021-09-21T12:48:13Z</time>
      </trkpt>
      <trkpt lat="46.56183" lon="0.34724">
        <ele>122.59327982645</ele>
        <time>2021-09-21T12:48:15Z</time>
      </trkpt>
      <trkpt lat="46.56185" lon="0.34726">
        <ele>122.07331682555</ele>
        <time>2021-09-21T12:48:17Z</time>
      </trkpt>
      <trkpt lat="46.56188" lon="0.34727">
        <ele>122.54935424961</ele>
        <time>2021-09-21T12:48:19Z</time>
      </trkpt>
      <trkpt lat="46.5619" lon="0.34729">
        <ele>122.21095346846</ele>
        <time>2021-09-21T12:48:21Z</time>
      </trkpt>
      <trkpt lat="46.56192" lon="0.34731">
        <ele>122.37273977417</ele>
        <time>2021-09-21T12:48:23Z</time>
      </trkpt>
      <trkpt lat="46.56195" lon="0.34733">
        <ele>122.30177236069</ele>
        <time>2021-09-21T12:48:25Z</time>
      </trkpt>
      <trkpt lat="46.56197" lon="0.34734">
        <ele>122.1939969128</ele>
        <time>2021-09-21T12:48:27Z</time>
      </trkpt>
      <trkpt lat="46.56199" lon="0.34736">
        <ele>122.03595939931</ele>
        <time>2021-09-21T12:48:29Z</time>
      </trkpt>
      <trkpt lat="46.56201" lon="0.34737">
        <ele>122.31041981</ele>
        <time>2021-09-21T12:48:30Z</time>
      </trkpt>
      <trkpt lat="46.56204" lon="0.34739">
        <ele>122.14594000205</ele>
        <time>2021-09-21T12:48:32Z</time>
      </trkpt>
      <trkpt lat="46.56205" lon="0.3474">
        <ele>122.18341858871</ele>
        <time>2021-09-21T12:48:34Z</time>
      </trkpt>
      <trkpt lat="46.56207" lon="0.34741">
        <ele>122.45980529673</ele>
        <time>2021-09-21T12:48:36Z</time>
      </trkpt>
      <trkpt lat="46.56209" lon="0.34743">
        <ele>122.70422762819</ele>
        <time>2021-09-21T12:48:38Z</time>
      </trkpt>
      <trkpt lat="46.56211" lon="0.34744">
        <ele>122.79747180268</ele>
        <time>2021-09-21T12:48:40Z</time>
      </trkpt>
      <trkpt lat="46.56214" lon="0.34746">
        <ele>122.53322685231</ele>
        <time>2021-09-21T12:48:42Z</time>
      </trkpt>
      <trkpt lat="46.56215" lon="0.34747">
        <ele>122.62805581</ele>
        <time>2021-09-21T12:48:43Z</time>
      </trkpt>
      <trkpt lat="46.56217" lon="0.3475">
        <ele>122.56887948699</ele>
        <time>2021-09-21T12:48:46Z</time>
      </trkpt>
      <trkpt lat="46.56219" lon="0.34751">
        <ele>122.82735957205</ele>
        <time>2021-09-21T12:48:48Z</time>
      </trkpt>
      <trkpt lat="46.56222" lon="0.34753">
        <ele>123.03053375054</ele>
        <time>2021-09-21T12:48:50Z</time>
      </trkpt>
      <trkpt lat="46.56225" lon="0.34756">
        <ele>122.92965654377</ele>
        <time>2021-09-21T12:48:52Z</time>
      </trkpt>
      <trkpt lat="46.56226" lon="0.34758">
        <ele>122.97051306069</ele>
        <time>2021-09-21T12:48:54Z</time>
      </trkpt>
      <trkpt lat="46.56228" lon="0.3476">
        <ele>122.993441117</ele>
        <time>2021-09-21T12:48:56Z</time>
      </trkpt>
      <trkpt lat="46.5623" lon="0.34761">
        <ele>123.05169394054</ele>
        <time>2021-09-21T12:48:58Z</time>
      </trkpt>
      <trkpt lat="46.56232" lon="0.34763">
        <ele>123.16886239965</ele>
        <time>2021-09-21T12:48:59Z</time>
      </trkpt>
      <trkpt lat="46.56234" lon="0.34765">
        <ele>122.6017962452</ele>
        <time>2021-09-21T12:49:01Z</time>
      </trkpt>
      <trkpt lat="46.56236" lon="0.34767">
        <ele>122.53309466317</ele>
        <time>2021-09-21T12:49:03Z</time>
      </trkpt>
      <trkpt lat="46.56237" lon="0.3477">
        <ele>122.2795795491</ele>
        <time>2021-09-21T12:49:05Z</time>
      </trkpt>
      <trkpt lat="46.56239" lon="0.34771">
        <ele>122.37122565974</ele>
        <time>2021-09-21T12:49:07Z</time>
      </trkpt>
      <trkpt lat="46.56241" lon="0.34774">
        <ele>122.18619998544</ele>
        <time>2021-09-21T12:49:09Z</time>
      </trkpt>
      <trkpt lat="46.56242" lon="0.34777">
        <ele>121.94787925575</ele>
        <time>2021-09-21T12:49:12Z</time>
      </trkpt>
      <trkpt lat="46.56244" lon="0.34779">
        <ele>121.89498925488</ele>
        <time>2021-09-21T12:49:14Z</time>
      </trkpt>
      <trkpt lat="46.56246" lon="0.34782">
        <ele>122.19048964698</ele>
        <time>2021-09-21T12:49:16Z</time>
      </trkpt>
      <trkpt lat="46.56247" lon="0.34784">
        <ele>121.70692599658</ele>
        <time>2021-09-21T12:49:18Z</time>
      </trkpt>
      <trkpt lat="46.56249" lon="0.34787">
        <ele>121.69971020054</ele>
        <time>2021-09-21T12:49:21Z</time>
      </trkpt>
      <trkpt lat="46.56251" lon="0.3479">
        <ele>121.36102407705</ele>
        <time>2021-09-21T12:49:23Z</time>
      </trkpt>
      <trkpt lat="46.56253" lon="0.34792">
        <ele>121.45180556178</ele>
        <time>2021-09-21T12:49:25Z</time>
      </trkpt>
      <trkpt lat="46.56255" lon="0.34795">
        <ele>121.98163898196</ele>
        <time>2021-09-21T12:49:27Z</time>
      </trkpt>
      <trkpt lat="46.56256" lon="0.34798">
        <ele>121.76332376618</ele>
        <time>2021-09-21T12:49:29Z</time>
      </trkpt>
      <trkpt lat="46.56258" lon="0.34801">
        <ele>121.82273670752</ele>
        <time>2021-09-21T12:49:31Z</time>
      </trkpt>
      <trkpt lat="46.56259" lon="0.34804">
        <ele>121.20501395129</ele>
        <time>2021-09-21T12:49:33Z</time>
      </trkpt>
      <trkpt lat="46.5626" lon="0.34807">
        <ele>121.22665431444</ele>
        <time>2021-09-21T12:49:34Z</time>
      </trkpt>
      <trkpt lat="46.56261" lon="0.3481">
        <ele>121.54981405567</ele>
        <time>2021-09-21T12:49:36Z</time>
      </trkpt>
      <trkpt lat="46.56262" lon="0.34813">
        <ele>121.82958225068</ele>
        <time>2021-09-21T12:49:38Z</time>
      </trkpt>
      <trkpt lat="46.56264" lon="0.34816">
        <ele>121.57812781632</ele>
        <time>2021-09-21T12:49:40Z</time>
      </trkpt>
      <trkpt lat="46.56265" lon="0.34819">
        <ele>121.76411188021</ele>
        <time>2021-09-21T12:49:42Z</time>
      </trkpt>
      <trkpt lat="46.56266" lon="0.34822">
        <ele>121.56205976848</ele>
        <time>2021-09-21T12:49:44Z</time>
      </trkpt>
      <trkpt lat="46.56266" lon="0.34825">
        <ele>121.41097586602</ele>
        <time>2021-09-21T12:49:46Z</time>
      </trkpt>
      <trkpt lat="46.56267" lon="0.34829">
        <ele>121.66487909481</ele>
        <time>2021-09-21T12:49:48Z</time>
      </trkpt>
      <trkpt lat="46.56268" lon="0.34831">
        <ele>121.75597772654</ele>
        <time>2021-09-21T12:49:49Z</time>
      </trkpt>
      <trkpt lat="46.56269" lon="0.34833">
        <ele>121.7811046252</ele>
        <time>2021-09-21T12:49:51Z</time>
      </trkpt>
      <trkpt lat="46.56271" lon="0.34836">
        <ele>121.55500982236</ele>
        <time>2021-09-21T12:49:53Z</time>
      </trkpt>
      <trkpt lat="46.56271" lon="0.3484">
        <ele>121.9911768958</ele>
        <time>2021-09-21T12:49:55Z</time>
      </trkpt>
      <trkpt lat="46.56272" lon="0.34843">
        <ele>121.57789069787</ele>
        <time>2021-09-21T12:49:57Z</time>
      </trkpt>
      <trkpt lat="46.56274" lon="0.34845">
        <ele>121.9592879517</ele>
        <time>2021-09-21T12:49:59Z</time>
      </trkpt>
      <trkpt lat="46.56275" lon="0.34849">
        <ele>121.74238309916</ele>
        <time>2021-09-21T12:50:01Z</time>
      </trkpt>
      <trkpt lat="46.56276" lon="0.34852">
        <ele>121.41514345538</ele>
        <time>2021-09-21T12:50:03Z</time>
      </trkpt>
      <trkpt lat="46.56276" lon="0.34856">
        <ele>121.35347836744</ele>
        <time>2021-09-21T12:50:05Z</time>
      </trkpt>
      <trkpt lat="46.56277" lon="0.34859">
        <ele>121.32646879181</ele>
        <time>2021-09-21T12:50:07Z</time>
      </trkpt>
      <trkpt lat="46.56278" lon="0.34862">
        <ele>121.84028246719</ele>
        <time>2021-09-21T12:50:09Z</time>
      </trkpt>
      <trkpt lat="46.56279" lon="0.34865">
        <ele>121.69669816643</ele>
        <time>2021-09-21T12:50:11Z</time>
      </trkpt>
      <trkpt lat="46.5628" lon="0.34869">
        <ele>121.60420655645</ele>
        <time>2021-09-21T12:50:13Z</time>
      </trkpt>
      <trkpt lat="46.56281" lon="0.34872">
        <ele>121.73150327895</ele>
        <time>2021-09-21T12:50:15Z</time>
      </trkpt>
      <trkpt lat="46.56282" lon="0.34875">
        <ele>121.52406809852</ele>
        <time>2021-09-21T12:50:17Z</time>
      </trkpt>
      <trkpt lat="46.56283" lon="0.34878">
        <ele>121.66148042027</ele>
        <time>2021-09-21T12:50:19Z</time>
      </trkpt>
      <trkpt lat="46.56283" lon="0.3488">
        <ele>121.58470068127</ele>
        <time>2021-09-21T12:50:21Z</time>
      </trkpt>
      <trkpt lat="46.56284" lon="0.34883">
        <ele>121.7816709457</ele>
        <time>2021-09-21T12:50:29Z</time>
      </trkpt>
      <trkpt lat="46.56282" lon="0.34884">
        <ele>121.49999123812</ele>
        <time>2021-09-21T12:50:56Z</time>
      </trkpt>
      <trkpt lat="46.56284" lon="0.34883">
        <ele>121.84104989655</ele>
        <time>2021-09-21T12:51:21Z</time>
      </trkpt>
      <trkpt lat="46.56284" lon="0.34886">
        <ele>121.90854338184</ele>
        <time>2021-09-21T12:51:41Z</time>
      </trkpt>
      <trkpt lat="46.56285" lon="0.34889">
        <ele>121.17025065515</ele>
        <time>2021-09-21T12:51:55Z</time>
      </trkpt>
      <trkpt lat="46.56287" lon="0.34891">
        <ele>120.79415416252</ele>
        <time>2021-09-21T12:51:57Z</time>
      </trkpt>
      <trkpt lat="46.56287" lon="0.34894">
        <ele>121.81189776491</ele>
        <time>2021-09-21T12:51:59Z</time>
      </trkpt>
      <trkpt lat="46.56288" lon="0.34897">
        <ele>121.7654288942</ele>
        <time>2021-09-21T12:52:01Z</time>
      </trkpt>
      <trkpt lat="46.5629" lon="0.349">
        <ele>121.05076048616</ele>
        <time>2021-09-21T12:52:04Z</time>
      </trkpt>
      <trkpt lat="46.5629" lon="0.34903">
        <ele>121.42634276394</ele>
        <time>2021-09-21T12:52:06Z</time>
      </trkpt>
      <trkpt lat="46.56291" lon="0.34907">
        <ele>121.54641406145</ele>
        <time>2021-09-21T12:52:09Z</time>
      </trkpt>
      <trkpt lat="46.56293" lon="0.3491">
        <ele>121.3339109458</ele>
        <time>2021-09-21T12:52:11Z</time>
      </trkpt>
      <trkpt lat="46.56294" lon="0.34913">
        <ele>121.66700543743</ele>
        <time>2021-09-21T12:52:14Z</time>
      </trkpt>
      <trkpt lat="46.56295" lon="0.34916">
        <ele>121.25686304551</ele>
        <time>2021-09-21T12:52:16Z</time>
      </trkpt>
      <trkpt lat="46.56295" lon="0.3492">
        <ele>121.17777640652</ele>
        <time>2021-09-21T12:52:19Z</time>
      </trkpt>
      <trkpt lat="46.56295" lon="0.34924">
        <ele>121.24428544752</ele>
        <time>2021-09-21T12:52:21Z</time>
      </trkpt>
      <trkpt lat="46.56297" lon="0.34927">
        <ele>121.98429817054</ele>
        <time>2021-09-21T12:52:23Z</time>
      </trkpt>
      <trkpt lat="46.56299" lon="0.3493">
        <ele>121.19010865036</ele>
        <time>2021-09-21T12:52:26Z</time>
      </trkpt>
      <trkpt lat="46.563" lon="0.34933">
        <ele>121.24399244599</ele>
        <time>2021-09-21T12:52:28Z</time>
      </trkpt>
      <trkpt lat="46.56301" lon="0.34936">
        <ele>121.06797060277</ele>
        <time>2021-09-21T12:52:30Z</time>
      </trkpt>
      <trkpt lat="46.56302" lon="0.3494">
        <ele>121.65741165634</ele>
        <time>2021-09-21T12:52:33Z</time>
      </trkpt>
      <trkpt lat="46.56304" lon="0.34943">
        <ele>121.53607820254</ele>
        <time>2021-09-21T12:52:35Z</time>
      </trkpt>
      <trkpt lat="46.56305" lon="0.34947">
        <ele>121.43459514715</ele>
        <time>2021-09-21T12:52:37Z</time>
      </trkpt>
      <trkpt lat="46.56306" lon="0.3495">
        <ele>121.47994477767</ele>
        <time>2021-09-21T12:52:40Z</time>
      </trkpt>
      <trkpt lat="46.56307" lon="0.34953">
        <ele>121.6688287193</ele>
        <time>2021-09-21T12:52:42Z</time>
      </trkpt>
      <trkpt lat="46.56309" lon="0.34956">
        <ele>121.81107522175</ele>
        <time>2021-09-21T12:52:44Z</time>
      </trkpt>
      <trkpt lat="46.56309" lon="0.34959">
        <ele>122.03400481772</ele>
        <time>2021-09-21T12:52:46Z</time>
      </trkpt>
      <trkpt lat="46.56311" lon="0.34962">
        <ele>121.49109017756</ele>
        <time>2021-09-21T12:52:49Z</time>
      </trkpt>
      <trkpt lat="46.56312" lon="0.34965">
        <ele>121.64161711559</ele>
        <time>2021-09-21T12:52:51Z</time>
      </trkpt>
      <trkpt lat="46.56313" lon="0.34967">
        <ele>121.45215705223</ele>
        <time>2021-09-21T12:52:52Z</time>
      </trkpt>
      <trkpt lat="46.56314" lon="0.34971">
        <ele>122.02420102712</ele>
        <time>2021-09-21T12:52:54Z</time>
      </trkpt>
      <trkpt lat="46.56315" lon="0.34972">
        <ele>121.7909856271</ele>
        <time>2021-09-21T12:52:56Z</time>
      </trkpt>
      <trkpt lat="46.56317" lon="0.34975">
        <ele>121.93415734265</ele>
        <time>2021-09-21T12:52:58Z</time>
      </trkpt>
      <trkpt lat="46.56317" lon="0.34978">
        <ele>121.82703014091</ele>
        <time>2021-09-21T12:52:59Z</time>
      </trkpt>
      <trkpt lat="46.56318" lon="0.3498">
        <ele>121.87915327307</ele>
        <time>2021-09-21T12:53:01Z</time>
      </trkpt>
      <trkpt lat="46.56319" lon="0.34984">
        <ele>121.65313909575</ele>
        <time>2021-09-21T12:53:03Z</time>
      </trkpt>
      <trkpt lat="46.56321" lon="0.34986">
        <ele>121.67910830956</ele>
        <time>2021-09-21T12:53:05Z</time>
      </trkpt>
      <trkpt lat="46.56322" lon="0.3499">
        <ele>121.74522713944</ele>
        <time>2021-09-21T12:53:07Z</time>
      </trkpt>
      <trkpt lat="46.56323" lon="0.34993">
        <ele>121.53145976178</ele>
        <time>2021-09-21T12:53:10Z</time>
      </trkpt>
      <trkpt lat="46.56324" lon="0.34996">
        <ele>121.27825723309</ele>
        <time>2021-09-21T12:53:12Z</time>
      </trkpt>
      <trkpt lat="46.56325" lon="0.35">
        <ele>121.46418846026</ele>
        <time>2021-09-21T12:53:14Z</time>
      </trkpt>
      <trkpt lat="46.56326" lon="0.35004">
        <ele>121.91872686613</ele>
        <time>2021-09-21T12:53:16Z</time>
      </trkpt>
      <trkpt lat="46.56327" lon="0.35007">
        <ele>121.89925813582</ele>
        <time>2021-09-21T12:53:18Z</time>
      </trkpt>
      <trkpt lat="46.56328" lon="0.35011">
        <ele>122.26340364665</ele>
        <time>2021-09-21T12:53:20Z</time>
      </trkpt>
      <trkpt lat="46.56328" lon="0.35013">
        <ele>121.66995944083</ele>
        <time>2021-09-21T12:53:22Z</time>
      </trkpt>
      <trkpt lat="46.56328" lon="0.35016">
        <ele>121.39991482534</ele>
        <time>2021-09-21T12:53:24Z</time>
      </trkpt>
      <trkpt lat="46.56329" lon="0.3502">
        <ele>121.41336948518</ele>
        <time>2021-09-21T12:53:26Z</time>
      </trkpt>
      <trkpt lat="46.5633" lon="0.35023">
        <ele>121.81584948115</ele>
        <time>2021-09-21T12:53:28Z</time>
      </trkpt>
      <trkpt lat="46.5633" lon="0.35027">
        <ele>121.95286307763</ele>
        <time>2021-09-21T12:53:30Z</time>
      </trkpt>
      <trkpt lat="46.56331" lon="0.35029">
        <ele>122.03201745916</ele>
        <time>2021-09-21T12:53:32Z</time>
      </trkpt>
      <trkpt lat="46.56331" lon="0.35033">
        <ele>121.93379936274</ele>
        <time>2021-09-21T12:53:34Z</time>
      </trkpt>
      <trkpt lat="46.56332" lon="0.35037">
        <ele>121.86387041118</ele>
        <time>2021-09-21T12:53:36Z</time>
      </trkpt>
      <trkpt lat="46.56332" lon="0.35041">
        <ele>121.93721219338</ele>
        <time>2021-09-21T12:53:38Z</time>
      </trkpt>
      <trkpt lat="46.56331" lon="0.35045">
        <ele>122.21338742692</ele>
        <time>2021-09-21T12:53:40Z</time>
      </trkpt>
      <trkpt lat="46.56331" lon="0.35051">
        <ele>122.08435896877</ele>
        <time>2021-09-21T12:53:43Z</time>
      </trkpt>
      <trkpt lat="46.56331" lon="0.35054">
        <ele>122.45297604427</ele>
        <time>2021-09-21T12:53:45Z</time>
      </trkpt>
      <trkpt lat="46.56331" lon="0.35058">
        <ele>122.31384196039</ele>
        <time>2021-09-21T12:53:47Z</time>
      </trkpt>
      <trkpt lat="46.56331" lon="0.35061">
        <ele>122.67865280341</ele>
        <time>2021-09-21T12:53:49Z</time>
      </trkpt>
      <trkpt lat="46.56332" lon="0.35065">
        <ele>122.63409064338</ele>
        <time>2021-09-21T12:53:51Z</time>
      </trkpt>
      <trkpt lat="46.56333" lon="0.35068">
        <ele>122.66051774006</ele>
        <time>2021-09-21T12:53:53Z</time>
      </trkpt>
      <trkpt lat="46.56334" lon="0.35071">
        <ele>122.93336506002</ele>
        <time>2021-09-21T12:53:55Z</time>
      </trkpt>
      <trkpt lat="46.56335" lon="0.35076">
        <ele>123.14267507754</ele>
        <time>2021-09-21T12:53:58Z</time>
      </trkpt>
      <trkpt lat="46.56336" lon="0.35079">
        <ele>122.72085335199</ele>
        <time>2021-09-21T12:54:00Z</time>
      </trkpt>
      <trkpt lat="46.56337" lon="0.35083">
        <ele>123.0614143312</ele>
        <time>2021-09-21T12:54:02Z</time>
      </trkpt>
      <trkpt lat="46.56337" lon="0.35086">
        <ele>123.02905625384</ele>
        <time>2021-09-21T12:54:04Z</time>
      </trkpt>
      <trkpt lat="46.56338" lon="0.35089">
        <ele>122.99882455822</ele>
        <time>2021-09-21T12:54:06Z</time>
      </trkpt>
      <trkpt lat="46.56339" lon="0.35093">
        <ele>122.83457233291</ele>
        <time>2021-09-21T12:54:08Z</time>
      </trkpt>
      <trkpt lat="46.56338" lon="0.35097">
        <ele>122.98331328947</ele>
        <time>2021-09-21T12:54:10Z</time>
      </trkpt>
      <trkpt lat="46.56339" lon="0.351">
        <ele>122.57647151314</ele>
        <time>2021-09-21T12:54:12Z</time>
      </trkpt>
      <trkpt lat="46.5634" lon="0.35103">
        <ele>122.91041355208</ele>
        <time>2021-09-21T12:54:14Z</time>
      </trkpt>
      <trkpt lat="46.56341" lon="0.35107">
        <ele>122.15176530927</ele>
        <time>2021-09-21T12:54:17Z</time>
      </trkpt>
      <trkpt lat="46.56341" lon="0.3511">
        <ele>122.25742113031</ele>
        <time>2021-09-21T12:54:19Z</time>
      </trkpt>
      <trkpt lat="46.56341" lon="0.35114">
        <ele>122.51431349386</ele>
        <time>2021-09-21T12:54:21Z</time>
      </trkpt>
      <trkpt lat="46.56342" lon="0.35118">
        <ele>122.54310296848</ele>
        <time>2021-09-21T12:54:23Z</time>
      </trkpt>
      <trkpt lat="46.56341" lon="0.35121">
        <ele>122.17544028163</ele>
        <time>2021-09-21T12:54:25Z</time>
      </trkpt>
      <trkpt lat="46.56341" lon="0.35125">
        <ele>122.51093318593</ele>
        <time>2021-09-21T12:54:28Z</time>
      </trkpt>
      <trkpt lat="46.56342" lon="0.35128">
        <ele>122.71281486657</ele>
        <time>2021-09-21T12:54:30Z</time>
      </trkpt>
      <trkpt lat="46.5634" lon="0.35131">
        <ele>122.90555202961</ele>
        <time>2021-09-21T12:54:32Z</time>
      </trkpt>
      <trkpt lat="46.56338" lon="0.35132">
        <ele>122.7071541138</ele>
        <time>2021-09-21T12:54:33Z</time>
      </trkpt>
      <trkpt lat="46.56336" lon="0.35133">
        <ele>122.60550686903</ele>
        <time>2021-09-21T12:54:35Z</time>
      </trkpt>
      <trkpt lat="46.56333" lon="0.35134">
        <ele>122.12618184928</ele>
        <time>2021-09-21T12:54:37Z</time>
      </trkpt>
      <trkpt lat="46.5633" lon="0.35134">
        <ele>122.75313599035</ele>
        <time>2021-09-21T12:54:39Z</time>
      </trkpt>
      <trkpt lat="46.56327" lon="0.35135">
        <ele>122.89356022421</ele>
        <time>2021-09-21T12:54:41Z</time>
      </trkpt>
      <trkpt lat="46.56325" lon="0.35134">
        <ele>122.46067485865</ele>
        <time>2021-09-21T12:54:43Z</time>
      </trkpt>
      <trkpt lat="46.56323" lon="0.35134">
        <ele>122.43879392557</ele>
        <time>2021-09-21T12:54:45Z</time>
      </trkpt>
      <trkpt lat="46.5632" lon="0.35133">
        <ele>122.75965438224</ele>
        <time>2021-09-21T12:54:47Z</time>
      </trkpt>
      <trkpt lat="46.56318" lon="0.35133">
        <ele>122.61567235459</ele>
        <time>2021-09-21T12:54:49Z</time>
      </trkpt>
      <trkpt lat="46.56316" lon="0.35133">
        <ele>122.12704191729</ele>
        <time>2021-09-21T12:54:51Z</time>
      </trkpt>
      <trkpt lat="46.56314" lon="0.35132">
        <ele>122.46969537716</ele>
        <time>2021-09-21T12:54:53Z</time>
      </trkpt>
      <trkpt lat="46.56311" lon="0.3513">
        <ele>122.49640157633</ele>
        <time>2021-09-21T12:54:55Z</time>
      </trkpt>
      <trkpt lat="46.56308" lon="0.35129">
        <ele>122.64277357981</ele>
        <time>2021-09-21T12:54:57Z</time>
      </trkpt>
      <trkpt lat="46.56305" lon="0.35129">
        <ele>122.93758281134</ele>
        <time>2021-09-21T12:54:59Z</time>
      </trkpt>
      <trkpt lat="46.56303" lon="0.35128">
        <ele>122.97457152233</ele>
        <time>2021-09-21T12:55:01Z</time>
      </trkpt>
      <trkpt lat="46.56301" lon="0.35127">
        <ele>123.11198560428</ele>
        <time>2021-09-21T12:55:03Z</time>
      </trkpt>
      <trkpt lat="46.56298" lon="0.35126">
        <ele>122.6120143272</ele>
        <time>2021-09-21T12:55:05Z</time>
      </trkpt>
      <trkpt lat="46.56296" lon="0.35125">
        <ele>123.07816856261</ele>
        <time>2021-09-21T12:55:07Z</time>
      </trkpt>
      <trkpt lat="46.56293" lon="0.35125">
        <ele>122.82025318965</ele>
        <time>2021-09-21T12:55:09Z</time>
      </trkpt>
      <trkpt lat="46.56291" lon="0.35125">
        <ele>123.10959990602</ele>
        <time>2021-09-21T12:55:11Z</time>
      </trkpt>
      <trkpt lat="46.56289" lon="0.35124">
        <ele>122.94225384109</ele>
        <time>2021-09-21T12:55:13Z</time>
      </trkpt>
      <trkpt lat="46.56286" lon="0.35124">
        <ele>122.95129352529</ele>
        <time>2021-09-21T12:55:15Z</time>
      </trkpt>
      <trkpt lat="46.56284" lon="0.35123">
        <ele>123.15540081169</ele>
        <time>2021-09-21T12:55:16Z</time>
      </trkpt>
      <trkpt lat="46.56282" lon="0.35123">
        <ele>123.075419995</ele>
        <time>2021-09-21T12:55:18Z</time>
      </trkpt>
      <trkpt lat="46.56279" lon="0.35122">
        <ele>123.30751256272</ele>
        <time>2021-09-21T12:55:20Z</time>
      </trkpt>
      <trkpt lat="46.56276" lon="0.35121">
        <ele>122.99738339521</ele>
        <time>2021-09-21T12:55:22Z</time>
      </trkpt>
      <trkpt lat="46.56274" lon="0.3512">
        <ele>122.99565462209</ele>
        <time>2021-09-21T12:55:24Z</time>
      </trkpt>
      <trkpt lat="46.56271" lon="0.3512">
        <ele>123.16458196752</ele>
        <time>2021-09-21T12:55:26Z</time>
      </trkpt>
      <trkpt lat="46.56269" lon="0.3512">
        <ele>122.66314169206</ele>
        <time>2021-09-21T12:55:28Z</time>
      </trkpt>
      <trkpt lat="46.56267" lon="0.35119">
        <ele>122.86033813003</ele>
        <time>2021-09-21T12:55:30Z</time>
      </trkpt>
      <trkpt lat="46.56264" lon="0.35118">
        <ele>122.45795570593</ele>
        <time>2021-09-21T12:55:32Z</time>
      </trkpt>
      <trkpt lat="46.56262" lon="0.35117">
        <ele>122.24974023737</ele>
        <time>2021-09-21T12:55:34Z</time>
      </trkpt>
      <trkpt lat="46.56259" lon="0.35117">
        <ele>122.30287970137</ele>
        <time>2021-09-21T12:55:36Z</time>
      </trkpt>
      <trkpt lat="46.56257" lon="0.35116">
        <ele>122.28829342872</ele>
        <time>2021-09-21T12:55:38Z</time>
      </trkpt>
      <trkpt lat="46.56255" lon="0.35114">
        <ele>122.00139807444</ele>
        <time>2021-09-21T12:55:40Z</time>
      </trkpt>
      <trkpt lat="46.56252" lon="0.35114">
        <ele>122.06160917506</ele>
        <time>2021-09-21T12:55:42Z</time>
      </trkpt>
      <trkpt lat="46.5625" lon="0.35113">
        <ele>121.94392859563</ele>
        <time>2021-09-21T12:55:44Z</time>
      </trkpt>
      <trkpt lat="46.56247" lon="0.35112">
        <ele>121.99979510903</ele>
        <time>2021-09-21T12:55:46Z</time>
      </trkpt>
      <trkpt lat="46.56244" lon="0.35111">
        <ele>121.57382088806</ele>
        <time>2021-09-21T12:55:48Z</time>
      </trkpt>
      <trkpt lat="46.56242" lon="0.3511">
        <ele>121.63678109366</ele>
        <time>2021-09-21T12:55:50Z</time>
      </trkpt>
      <trkpt lat="46.56239" lon="0.3511">
        <ele>121.48982308619</ele>
        <time>2021-09-21T12:55:52Z</time>
      </trkpt>
      <trkpt lat="46.56238" lon="0.35109">
        <ele>121.48725328315</ele>
        <time>2021-09-21T12:55:53Z</time>
      </trkpt>
      <trkpt lat="46.56235" lon="0.35108">
        <ele>121.5992589891</ele>
        <time>2021-09-21T12:55:55Z</time>
      </trkpt>
      <trkpt lat="46.56233" lon="0.35106">
        <ele>121.49833817501</ele>
        <time>2021-09-21T12:55:57Z</time>
      </trkpt>
      <trkpt lat="46.5623" lon="0.35106">
        <ele>121.27844816353</ele>
        <time>2021-09-21T12:55:59Z</time>
      </trkpt>
      <trkpt lat="46.56228" lon="0.35105">
        <ele>121.38137569837</ele>
        <time>2021-09-21T12:56:01Z</time>
      </trkpt>
      <trkpt lat="46.56226" lon="0.35103">
        <ele>121.45210527163</ele>
        <time>2021-09-21T12:56:03Z</time>
      </trkpt>
      <trkpt lat="46.56224" lon="0.35103">
        <ele>121.47968477942</ele>
        <time>2021-09-21T12:56:05Z</time>
      </trkpt>
      <trkpt lat="46.56221" lon="0.35102">
        <ele>121.56832109485</ele>
        <time>2021-09-21T12:56:06Z</time>
      </trkpt>
      <trkpt lat="46.56219" lon="0.35101">
        <ele>121.08244593721</ele>
        <time>2021-09-21T12:56:08Z</time>
      </trkpt>
      <trkpt lat="46.56216" lon="0.351">
        <ele>121.26448069047</ele>
        <time>2021-09-21T12:56:10Z</time>
      </trkpt>
      <trkpt lat="46.56214" lon="0.35099">
        <ele>120.91433556657</ele>
        <time>2021-09-21T12:56:12Z</time>
      </trkpt>
      <trkpt lat="46.56212" lon="0.35098">
        <ele>121.1874047257</ele>
        <time>2021-09-21T12:56:14Z</time>
      </trkpt>
      <trkpt lat="46.56209" lon="0.35097">
        <ele>120.7767998809</ele>
        <time>2021-09-21T12:56:16Z</time>
      </trkpt>
      <trkpt lat="46.56207" lon="0.35097">
        <ele>120.46643669065</ele>
        <time>2021-09-21T12:56:18Z</time>
      </trkpt>
      <trkpt lat="46.56205" lon="0.35096">
        <ele>120.87896247767</ele>
        <time>2021-09-21T12:56:19Z</time>
      </trkpt>
      <trkpt lat="46.56203" lon="0.35097">
        <ele>120.2900103908</ele>
        <time>2021-09-21T12:56:21Z</time>
      </trkpt>
      <trkpt lat="46.56201" lon="0.35096">
        <ele>120.63037815318</ele>
        <time>2021-09-21T12:56:23Z</time>
      </trkpt>
      <trkpt lat="46.56199" lon="0.35095">
        <ele>120.79191507772</ele>
        <time>2021-09-21T12:56:25Z</time>
      </trkpt>
      <trkpt lat="46.56196" lon="0.35095">
        <ele>120.68945737462</ele>
        <time>2021-09-21T12:56:27Z</time>
      </trkpt>
      <trkpt lat="46.56193" lon="0.35094">
        <ele>120.68095236085</ele>
        <time>2021-09-21T12:56:29Z</time>
      </trkpt>
      <trkpt lat="46.56191" lon="0.35094">
        <ele>120.67694069631</ele>
        <time>2021-09-21T12:56:31Z</time>
      </trkpt>
      <trkpt lat="46.56188" lon="0.35093">
        <ele>120.54007549025</ele>
        <time>2021-09-21T12:56:33Z</time>
      </trkpt>
      <trkpt lat="46.56186" lon="0.35093">
        <ele>120.44861063175</ele>
        <time>2021-09-21T12:56:35Z</time>
      </trkpt>
      <trkpt lat="46.56183" lon="0.35092">
        <ele>120.40669187997</ele>
        <time>2021-09-21T12:56:37Z</time>
      </trkpt>
      <trkpt lat="46.56181" lon="0.35092">
        <ele>120.1398173077</ele>
        <time>2021-09-21T12:56:39Z</time>
      </trkpt>
      <trkpt lat="46.56179" lon="0.35092">
        <ele>120.12432321627</ele>
        <time>2021-09-21T12:56:41Z</time>
      </trkpt>
      <trkpt lat="46.56176" lon="0.35092">
        <ele>120.12771690451</ele>
        <time>2021-09-21T12:56:43Z</time>
      </trkpt>
      <trkpt lat="46.56174" lon="0.35092">
        <ele>119.82600894291</ele>
        <time>2021-09-21T12:56:45Z</time>
      </trkpt>
      <trkpt lat="46.56172" lon="0.35092">
        <ele>119.97799590323</ele>
        <time>2021-09-21T12:56:47Z</time>
      </trkpt>
      <trkpt lat="46.56169" lon="0.35091">
        <ele>119.9616727801</ele>
        <time>2021-09-21T12:56:49Z</time>
      </trkpt>
      <trkpt lat="46.56166" lon="0.35092">
        <ele>119.6869903272</ele>
        <time>2021-09-21T12:56:51Z</time>
      </trkpt>
      <trkpt lat="46.56164" lon="0.35093">
        <ele>119.44425210543</ele>
        <time>2021-09-21T12:56:53Z</time>
      </trkpt>
      <trkpt lat="46.56161" lon="0.35093">
        <ele>119.69265540969</ele>
        <time>2021-09-21T12:56:55Z</time>
      </trkpt>
      <trkpt lat="46.56159" lon="0.35093">
        <ele>119.29219792597</ele>
        <time>2021-09-21T12:56:57Z</time>
      </trkpt>
      <trkpt lat="46.56156" lon="0.35094">
        <ele>118.95896640606</ele>
        <time>2021-09-21T12:56:59Z</time>
      </trkpt>
      <trkpt lat="46.56154" lon="0.35094">
        <ele>119.0247821454</ele>
        <time>2021-09-21T12:57:01Z</time>
      </trkpt>
      <trkpt lat="46.56152" lon="0.35094">
        <ele>118.71745193936</ele>
        <time>2021-09-21T12:57:03Z</time>
      </trkpt>
      <trkpt lat="46.56149" lon="0.35095">
        <ele>118.58813799825</ele>
        <time>2021-09-21T12:57:05Z</time>
      </trkpt>
      <trkpt lat="46.56147" lon="0.35095">
        <ele>118.71573822014</ele>
        <time>2021-09-21T12:57:07Z</time>
      </trkpt>
      <trkpt lat="46.56144" lon="0.35096">
        <ele>118.57086475566</ele>
        <time>2021-09-21T12:57:09Z</time>
      </trkpt>
      <trkpt lat="46.56142" lon="0.35096">
        <ele>118.44626630843</ele>
        <time>2021-09-21T12:57:11Z</time>
      </trkpt>
      <trkpt lat="46.56139" lon="0.35097">
        <ele>118.45863220841</ele>
        <time>2021-09-21T12:57:13Z</time>
      </trkpt>
      <trkpt lat="46.56137" lon="0.35097">
        <ele>118.5762426937</ele>
        <time>2021-09-21T12:57:15Z</time>
      </trkpt>
      <trkpt lat="46.56134" lon="0.35097">
        <ele>118.30784928054</ele>
        <time>2021-09-21T12:57:17Z</time>
      </trkpt>
      <trkpt lat="46.56132" lon="0.35098">
        <ele>118.49297640566</ele>
        <time>2021-09-21T12:57:19Z</time>
      </trkpt>
      <trkpt lat="46.5613" lon="0.35097">
        <ele>118.57150822598</ele>
        <time>2021-09-21T12:57:21Z</time>
      </trkpt>
      <trkpt lat="46.56127" lon="0.35098">
        <ele>118.53696714155</ele>
        <time>2021-09-21T12:57:23Z</time>
      </trkpt>
      <trkpt lat="46.56125" lon="0.35097">
        <ele>118.77065628581</ele>
        <time>2021-09-21T12:57:25Z</time>
      </trkpt>
      <trkpt lat="46.56123" lon="0.35097">
        <ele>118.91473341547</ele>
        <time>2021-09-21T12:57:26Z</time>
      </trkpt>
      <trkpt lat="46.5612" lon="0.35097">
        <ele>118.89313465357</ele>
        <time>2021-09-21T12:57:29Z</time>
      </trkpt>
      <trkpt lat="46.56116" lon="0.35095">
        <ele>118.2295760354</ele>
        <time>2021-09-21T12:57:32Z</time>
      </trkpt>
      <trkpt lat="46.56114" lon="0.35096">
        <ele>118.68440196197</ele>
        <time>2021-09-21T12:57:34Z</time>
      </trkpt>
      <trkpt lat="46.56112" lon="0.35096">
        <ele>118.62944626529</ele>
        <time>2021-09-21T12:57:36Z</time>
      </trkpt>
      <trkpt lat="46.56109" lon="0.35094">
        <ele>118.14568739105</ele>
        <time>2021-09-21T12:57:38Z</time>
      </trkpt>
      <trkpt lat="46.56107" lon="0.35094">
        <ele>118.53959097713</ele>
        <time>2021-09-21T12:57:40Z</time>
      </trkpt>
      <trkpt lat="46.56105" lon="0.35094">
        <ele>118.49837428983</ele>
        <time>2021-09-21T12:57:42Z</time>
      </trkpt>
      <trkpt lat="46.56102" lon="0.35092">
        <ele>118.23551984224</ele>
        <time>2021-09-21T12:57:44Z</time>
      </trkpt>
      <trkpt lat="46.561" lon="0.35091">
        <ele>118.5066350773</ele>
        <time>2021-09-21T12:57:46Z</time>
      </trkpt>
      <trkpt lat="46.56097" lon="0.3509">
        <ele>118.41446968447</ele>
        <time>2021-09-21T12:57:48Z</time>
      </trkpt>
      <trkpt lat="46.56095" lon="0.35088">
        <ele>118.36187715828</ele>
        <time>2021-09-21T12:57:50Z</time>
      </trkpt>
      <trkpt lat="46.56092" lon="0.35086">
        <ele>118.39796902332</ele>
        <time>2021-09-21T12:57:52Z</time>
      </trkpt>
      <trkpt lat="46.56089" lon="0.35086">
        <ele>118.66777852923</ele>
        <time>2021-09-21T12:57:54Z</time>
      </trkpt>
      <trkpt lat="46.56087" lon="0.35085">
        <ele>119.24205507152</ele>
        <time>2021-09-21T12:57:56Z</time>
      </trkpt>
      <trkpt lat="46.56084" lon="0.35084">
        <ele>118.92466730718</ele>
        <time>2021-09-21T12:57:58Z</time>
      </trkpt>
      <trkpt lat="46.56082" lon="0.35082">
        <ele>118.800545251</ele>
        <time>2021-09-21T12:58:00Z</time>
      </trkpt>
      <trkpt lat="46.5608" lon="0.35082">
        <ele>118.61288028676</ele>
        <time>2021-09-21T12:58:02Z</time>
      </trkpt>
      <trkpt lat="46.56078" lon="0.35081">
        <ele>118.73251659144</ele>
        <time>2021-09-21T12:58:04Z</time>
      </trkpt>
      <trkpt lat="46.56075" lon="0.35081">
        <ele>118.8720105784</ele>
        <time>2021-09-21T12:58:06Z</time>
      </trkpt>
      <trkpt lat="46.56073" lon="0.35079">
        <ele>118.98179457523</ele>
        <time>2021-09-21T12:58:08Z</time>
      </trkpt>
      <trkpt lat="46.56071" lon="0.35079">
        <ele>118.69631168991</ele>
        <time>2021-09-21T12:58:10Z</time>
      </trkpt>
      <trkpt lat="46.56069" lon="0.35078">
        <ele>118.90905729868</ele>
        <time>2021-09-21T12:58:12Z</time>
      </trkpt>
      <trkpt lat="46.56066" lon="0.35077">
        <ele>118.58318710234</ele>
        <time>2021-09-21T12:58:14Z</time>
      </trkpt>
      <trkpt lat="46.56064" lon="0.35077">
        <ele>118.91085694358</ele>
        <time>2021-09-21T12:58:16Z</time>
      </trkpt>
      <trkpt lat="46.56061" lon="0.35076">
        <ele>119.13100095373</ele>
        <time>2021-09-21T12:58:18Z</time>
      </trkpt>
      <trkpt lat="46.56059" lon="0.35075">
        <ele>118.7850840101</ele>
        <time>2021-09-21T12:58:20Z</time>
      </trkpt>
      <trkpt lat="46.56057" lon="0.35074">
        <ele>119.12807724997</ele>
        <time>2021-09-21T12:58:22Z</time>
      </trkpt>
      <trkpt lat="46.56055" lon="0.35073">
        <ele>119.19089570642</ele>
        <time>2021-09-21T12:58:24Z</time>
      </trkpt>
      <trkpt lat="46.56052" lon="0.35073">
        <ele>118.99518479314</ele>
        <time>2021-09-21T12:58:26Z</time>
      </trkpt>
      <trkpt lat="46.5605" lon="0.35072">
        <ele>118.38371966314</ele>
        <time>2021-09-21T12:58:28Z</time>
      </trkpt>
      <trkpt lat="46.56047" lon="0.35071">
        <ele>118.57734465133</ele>
        <time>2021-09-21T12:58:30Z</time>
      </trkpt>
      <trkpt lat="46.56045" lon="0.3507">
        <ele>119.16485646088</ele>
        <time>2021-09-21T12:58:32Z</time>
      </trkpt>
      <trkpt lat="46.56043" lon="0.3507">
        <ele>118.82256889716</ele>
        <time>2021-09-21T12:58:34Z</time>
      </trkpt>
      <trkpt lat="46.56041" lon="0.35069">
        <ele>118.87347653322</ele>
        <time>2021-09-21T12:58:37Z</time>
      </trkpt>
      <trkpt lat="46.56038" lon="0.35069">
        <ele>118.53030188568</ele>
        <time>2021-09-21T12:58:39Z</time>
      </trkpt>
      <trkpt lat="46.56036" lon="0.35068">
        <ele>118.63016952854</ele>
        <time>2021-09-21T12:58:41Z</time>
      </trkpt>
      <trkpt lat="46.56033" lon="0.35067">
        <ele>118.72416447662</ele>
        <time>2021-09-21T12:58:44Z</time>
      </trkpt>
      <trkpt lat="46.56031" lon="0.35066">
        <ele>118.26199337095</ele>
        <time>2021-09-21T12:58:46Z</time>
      </trkpt>
      <trkpt lat="46.56029" lon="0.35064">
        <ele>118.13429540023</ele>
        <time>2021-09-21T12:58:48Z</time>
      </trkpt>
      <trkpt lat="46.56026" lon="0.35064">
        <ele>118.03289260622</ele>
        <time>2021-09-21T12:58:50Z</time>
      </trkpt>
      <trkpt lat="46.56024" lon="0.35063">
        <ele>118.66530774254</ele>
        <time>2021-09-21T12:58:52Z</time>
      </trkpt>
      <trkpt lat="46.56022" lon="0.35063">
        <ele>118.29148992058</ele>
        <time>2021-09-21T12:58:54Z</time>
      </trkpt>
      <trkpt lat="46.5602" lon="0.35061">
        <ele>118.44008710142</ele>
        <time>2021-09-21T12:58:56Z</time>
      </trkpt>
      <trkpt lat="46.56018" lon="0.3506">
        <ele>118.56227023248</ele>
        <time>2021-09-21T12:58:58Z</time>
      </trkpt>
      <trkpt lat="46.56015" lon="0.35059">
        <ele>118.13563780207</ele>
        <time>2021-09-21T12:59:00Z</time>
      </trkpt>
      <trkpt lat="46.56013" lon="0.35059">
        <ele>118.80807992537</ele>
        <time>2021-09-21T12:59:02Z</time>
      </trkpt>
      <trkpt lat="46.56011" lon="0.35058">
        <ele>118.65644955728</ele>
        <time>2021-09-21T12:59:03Z</time>
      </trkpt>
      <trkpt lat="46.56008" lon="0.35058">
        <ele>118.65572247468</ele>
        <time>2021-09-21T12:59:06Z</time>
      </trkpt>
      <trkpt lat="46.56006" lon="0.35057">
        <ele>118.63273083791</ele>
        <time>2021-09-21T12:59:08Z</time>
      </trkpt>
      <trkpt lat="46.56004" lon="0.35056">
        <ele>118.58152500447</ele>
        <time>2021-09-21T12:59:10Z</time>
      </trkpt>
      <trkpt lat="46.56001" lon="0.35055">
        <ele>119.14179897215</ele>
        <time>2021-09-21T12:59:12Z</time>
      </trkpt>
      <trkpt lat="46.55999" lon="0.35054">
        <ele>118.48460642155</ele>
        <time>2021-09-21T12:59:14Z</time>
      </trkpt>
      <trkpt lat="46.55996" lon="0.35054">
        <ele>118.69114427362</ele>
        <time>2021-09-21T12:59:16Z</time>
      </trkpt>
      <trkpt lat="46.55994" lon="0.35052">
        <ele>118.49315607827</ele>
        <time>2021-09-21T12:59:19Z</time>
      </trkpt>
      <trkpt lat="46.55992" lon="0.35051">
        <ele>118.11539559532</ele>
        <time>2021-09-21T12:59:21Z</time>
      </trkpt>
      <trkpt lat="46.55989" lon="0.3505">
        <ele>118.43357994594</ele>
        <time>2021-09-21T12:59:23Z</time>
      </trkpt>
      <trkpt lat="46.55987" lon="0.35049">
        <ele>118.18065734021</ele>
        <time>2021-09-21T12:59:25Z</time>
      </trkpt>
      <trkpt lat="46.55985" lon="0.35047">
        <ele>117.62878060341</ele>
        <time>2021-09-21T12:59:27Z</time>
      </trkpt>
      <trkpt lat="46.55983" lon="0.35045">
        <ele>118.2827204382</ele>
        <time>2021-09-21T12:59:29Z</time>
      </trkpt>
      <trkpt lat="46.5598" lon="0.35044">
        <ele>118.05178012419</ele>
        <time>2021-09-21T12:59:31Z</time>
      </trkpt>
      <trkpt lat="46.55978" lon="0.35044">
        <ele>118.40269805212</ele>
        <time>2021-09-21T12:59:33Z</time>
      </trkpt>
      <trkpt lat="46.55976" lon="0.35043">
        <ele>117.9796051383</ele>
        <time>2021-09-21T12:59:35Z</time>
      </trkpt>
      <trkpt lat="46.55973" lon="0.35042">
        <ele>118.40731671639</ele>
        <time>2021-09-21T12:59:37Z</time>
      </trkpt>
      <trkpt lat="46.55971" lon="0.35041">
        <ele>118.11456242669</ele>
        <time>2021-09-21T12:59:39Z</time>
      </trkpt>
      <trkpt lat="46.55968" lon="0.3504">
        <ele>118.49098404031</ele>
        <time>2021-09-21T12:59:41Z</time>
      </trkpt>
      <trkpt lat="46.55967" lon="0.35038">
        <ele>118.30062570143</ele>
        <time>2021-09-21T12:59:43Z</time>
      </trkpt>
      <trkpt lat="46.55965" lon="0.35037">
        <ele>118.00238703378</ele>
        <time>2021-09-21T12:59:45Z</time>
      </trkpt>
      <trkpt lat="46.55962" lon="0.35035">
        <ele>118.20016778354</ele>
        <time>2021-09-21T12:59:47Z</time>
      </trkpt>
      <trkpt lat="46.55961" lon="0.35034">
        <ele>118.06304986402</ele>
        <time>2021-09-21T12:59:49Z</time>
      </trkpt>
      <trkpt lat="46.55958" lon="0.35033">
        <ele>117.83936379757</ele>
        <time>2021-09-21T12:59:51Z</time>
      </trkpt>
      <trkpt lat="46.55956" lon="0.35032">
        <ele>117.80816124007</ele>
        <time>2021-09-21T12:59:53Z</time>
      </trkpt>
      <trkpt lat="46.55954" lon="0.35031">
        <ele>117.86633367464</ele>
        <time>2021-09-21T12:59:55Z</time>
      </trkpt>
      <trkpt lat="46.55951" lon="0.35029">
        <ele>117.6843033433</ele>
        <time>2021-09-21T12:59:57Z</time>
      </trkpt>
      <trkpt lat="46.55949" lon="0.35028">
        <ele>118.04460446909</ele>
        <time>2021-09-21T12:59:59Z</time>
      </trkpt>
      <trkpt lat="46.55946" lon="0.35026">
        <ele>117.67990190443</ele>
        <time>2021-09-21T13:00:01Z</time>
      </trkpt>
      <trkpt lat="46.55944" lon="0.35025">
        <ele>118.0086179683</ele>
        <time>2021-09-21T13:00:03Z</time>
      </trkpt>
      <trkpt lat="46.55942" lon="0.35024">
        <ele>117.90660797246</ele>
        <time>2021-09-21T13:00:05Z</time>
      </trkpt>
      <trkpt lat="46.55939" lon="0.35023">
        <ele>117.74788160622</ele>
        <time>2021-09-21T13:00:07Z</time>
      </trkpt>
      <trkpt lat="46.55937" lon="0.35021">
        <ele>117.70054246206</ele>
        <time>2021-09-21T13:00:09Z</time>
      </trkpt>
      <trkpt lat="46.55935" lon="0.35021">
        <ele>118.01498772483</ele>
        <time>2021-09-21T13:00:11Z</time>
      </trkpt>
      <trkpt lat="46.55933" lon="0.35019">
        <ele>117.89395987988</ele>
        <time>2021-09-21T13:00:13Z</time>
      </trkpt>
      <trkpt lat="46.5593" lon="0.35018">
        <ele>117.73339594994</ele>
        <time>2021-09-21T13:00:15Z</time>
      </trkpt>
      <trkpt lat="46.55927" lon="0.35017">
        <ele>117.8192633884</ele>
        <time>2021-09-21T13:00:17Z</time>
      </trkpt>
      <trkpt lat="46.55925" lon="0.35016">
        <ele>117.8577008443</ele>
        <time>2021-09-21T13:00:19Z</time>
      </trkpt>
      <trkpt lat="46.55923" lon="0.35015">
        <ele>117.83043046761</ele>
        <time>2021-09-21T13:00:21Z</time>
      </trkpt>
      <trkpt lat="46.55921" lon="0.35015">
        <ele>117.69948713202</ele>
        <time>2021-09-21T13:00:23Z</time>
      </trkpt>
      <trkpt lat="46.55918" lon="0.35013">
        <ele>117.80835748464</ele>
        <time>2021-09-21T13:00:25Z</time>
      </trkpt>
      <trkpt lat="46.55916" lon="0.35012">
        <ele>117.33652226906</ele>
        <time>2021-09-21T13:00:27Z</time>
      </trkpt>
      <trkpt lat="46.55914" lon="0.35011">
        <ele>117.47777491901</ele>
        <time>2021-09-21T13:00:29Z</time>
      </trkpt>
      <trkpt lat="46.55912" lon="0.35009">
        <ele>117.4687487483</ele>
        <time>2021-09-21T13:00:31Z</time>
      </trkpt>
      <trkpt lat="46.55909" lon="0.35009">
        <ele>117.52892023884</ele>
        <time>2021-09-21T13:00:33Z</time>
      </trkpt>
      <trkpt lat="46.55907" lon="0.35007">
        <ele>117.30068720784</ele>
        <time>2021-09-21T13:00:35Z</time>
      </trkpt>
      <trkpt lat="46.55905" lon="0.35007">
        <ele>117.59864113666</ele>
        <time>2021-09-21T13:00:37Z</time>
      </trkpt>
      <trkpt lat="46.55902" lon="0.35005">
        <ele>117.47628121264</ele>
        <time>2021-09-21T13:00:39Z</time>
      </trkpt>
      <trkpt lat="46.559" lon="0.35005">
        <ele>117.36321276985</ele>
        <time>2021-09-21T13:00:41Z</time>
      </trkpt>
      <trkpt lat="46.55898" lon="0.35004">
        <ele>117.30212891195</ele>
        <time>2021-09-21T13:00:43Z</time>
      </trkpt>
      <trkpt lat="46.55896" lon="0.35003">
        <ele>117.30561554339</ele>
        <time>2021-09-21T13:00:45Z</time>
      </trkpt>
      <trkpt lat="46.55893" lon="0.35001">
        <ele>117.23267746344</ele>
        <time>2021-09-21T13:00:47Z</time>
      </trkpt>
      <trkpt lat="46.55891" lon="0.35001">
        <ele>117.62046951801</ele>
        <time>2021-09-21T13:00:49Z</time>
      </trkpt>
      <trkpt lat="46.55889" lon="0.35">
        <ele>117.28108348045</ele>
        <time>2021-09-21T13:00:51Z</time>
      </trkpt>
      <trkpt lat="46.55887" lon="0.34999">
        <ele>117.1249329811</ele>
        <time>2021-09-21T13:00:53Z</time>
      </trkpt>
      <trkpt lat="46.55885" lon="0.34998">
        <ele>117.07071113586</ele>
        <time>2021-09-21T13:00:55Z</time>
      </trkpt>
      <trkpt lat="46.55882" lon="0.34997">
        <ele>117.05844685342</ele>
        <time>2021-09-21T13:00:57Z</time>
      </trkpt>
      <trkpt lat="46.55884" lon="0.34998">
        <ele>117.55248957779</ele>
        <time>2021-09-21T13:01:33Z</time>
      </trkpt>
      <trkpt lat="46.55882" lon="0.34999">
        <ele>117.34522966109</ele>
        <time>2021-09-21T13:01:59Z</time>
      </trkpt>
      <trkpt lat="46.55884" lon="0.34997">
        <ele>117.29345011991</ele>
        <time>2021-09-21T13:02:55Z</time>
      </trkpt>
      <trkpt lat="46.55882" lon="0.34996">
        <ele>117.56270406954</ele>
        <time>2021-09-21T13:03:21Z</time>
      </trkpt>
      <trkpt lat="46.5588" lon="0.34998">
        <ele>117.19786225632</ele>
        <time>2021-09-21T13:03:46Z</time>
      </trkpt>
      <trkpt lat="46.55878" lon="0.34997">
        <ele>117.12540519983</ele>
        <time>2021-09-21T13:03:51Z</time>
      </trkpt>
      <trkpt lat="46.55875" lon="0.34996">
        <ele>117.11652361974</ele>
        <time>2021-09-21T13:03:54Z</time>
      </trkpt>
      <trkpt lat="46.55873" lon="0.34996">
        <ele>117.0604482051</ele>
        <time>2021-09-21T13:03:56Z</time>
      </trkpt>
      <trkpt lat="46.55871" lon="0.34996">
        <ele>116.97464377712</ele>
        <time>2021-09-21T13:03:58Z</time>
      </trkpt>
      <trkpt lat="46.55869" lon="0.34996">
        <ele>117.44709974155</ele>
        <time>2021-09-21T13:04:00Z</time>
      </trkpt>
      <trkpt lat="46.55867" lon="0.34995">
        <ele>117.28451896086</ele>
        <time>2021-09-21T13:04:02Z</time>
      </trkpt>
      <trkpt lat="46.55865" lon="0.34995">
        <ele>116.65419678111</ele>
        <time>2021-09-21T13:04:04Z</time>
      </trkpt>
      <trkpt lat="46.55863" lon="0.34996">
        <ele>116.37135129794</ele>
        <time>2021-09-21T13:04:06Z</time>
      </trkpt>
      <trkpt lat="46.55861" lon="0.34995">
        <ele>116.33442856837</ele>
        <time>2021-09-21T13:04:07Z</time>
      </trkpt>
      <trkpt lat="46.55858" lon="0.34996">
        <ele>116.82142383046</ele>
        <time>2021-09-21T13:04:09Z</time>
      </trkpt>
      <trkpt lat="46.55856" lon="0.34995">
        <ele>117.0427585626</ele>
        <time>2021-09-21T13:04:11Z</time>
      </trkpt>
      <trkpt lat="46.55854" lon="0.34994">
        <ele>116.99393233098</ele>
        <time>2021-09-21T13:04:13Z</time>
      </trkpt>
      <trkpt lat="46.55851" lon="0.34994">
        <ele>117.16094525065</ele>
        <time>2021-09-21T13:04:15Z</time>
      </trkpt>
      <trkpt lat="46.55849" lon="0.34994">
        <ele>116.78256334271</ele>
        <time>2021-09-21T13:04:17Z</time>
      </trkpt>
      <trkpt lat="46.55847" lon="0.34994">
        <ele>116.69792850409</ele>
        <time>2021-09-21T13:04:18Z</time>
      </trkpt>
      <trkpt lat="46.55845" lon="0.34993">
        <ele>116.67514926754</ele>
        <time>2021-09-21T13:04:20Z</time>
      </trkpt>
      <trkpt lat="46.55842" lon="0.34993">
        <ele>116.56006153207</ele>
        <time>2021-09-21T13:04:22Z</time>
      </trkpt>
      <trkpt lat="46.5584" lon="0.34992">
        <ele>116.61487963796</ele>
        <time>2021-09-21T13:04:24Z</time>
      </trkpt>
      <trkpt lat="46.55837" lon="0.34993">
        <ele>116.62921048515</ele>
        <time>2021-09-21T13:04:26Z</time>
      </trkpt>
      <trkpt lat="46.55835" lon="0.34993">
        <ele>116.30545040406</ele>
        <time>2021-09-21T13:04:28Z</time>
      </trkpt>
      <trkpt lat="46.55832" lon="0.34993">
        <ele>116.29096802138</ele>
        <time>2021-09-21T13:04:30Z</time>
      </trkpt>
      <trkpt lat="46.5583" lon="0.34992">
        <ele>116.24208338931</ele>
        <time>2021-09-21T13:04:32Z</time>
      </trkpt>
      <trkpt lat="46.55827" lon="0.34992">
        <ele>116.06327587832</ele>
        <time>2021-09-21T13:04:34Z</time>
      </trkpt>
      <trkpt lat="46.55825" lon="0.34992">
        <ele>116.20305229351</ele>
        <time>2021-09-21T13:04:36Z</time>
      </trkpt>
      <trkpt lat="46.55822" lon="0.34991">
        <ele>115.55461894721</ele>
        <time>2021-09-21T13:04:38Z</time>
      </trkpt>
      <trkpt lat="46.5582" lon="0.3499">
        <ele>115.46124936361</ele>
        <time>2021-09-21T13:04:40Z</time>
      </trkpt>
      <trkpt lat="46.55818" lon="0.3499">
        <ele>115.59135728795</ele>
        <time>2021-09-21T13:04:42Z</time>
      </trkpt>
      <trkpt lat="46.55815" lon="0.3499">
        <ele>115.9475939991</ele>
        <time>2021-09-21T13:04:44Z</time>
      </trkpt>
      <trkpt lat="46.55812" lon="0.34989">
        <ele>115.98233979102</ele>
        <time>2021-09-21T13:04:46Z</time>
      </trkpt>
      <trkpt lat="46.5581" lon="0.34989">
        <ele>115.58122756705</ele>
        <time>2021-09-21T13:04:48Z</time>
      </trkpt>
      <trkpt lat="46.55808" lon="0.34989">
        <ele>115.42599709518</ele>
        <time>2021-09-21T13:04:50Z</time>
      </trkpt>
      <trkpt lat="46.55806" lon="0.34989">
        <ele>115.45139290951</ele>
        <time>2021-09-21T13:04:52Z</time>
      </trkpt>
      <trkpt lat="46.55804" lon="0.34988">
        <ele>115.32989260368</ele>
        <time>2021-09-21T13:04:54Z</time>
      </trkpt>
      <trkpt lat="46.55801" lon="0.34987">
        <ele>115.15299155284</ele>
        <time>2021-09-21T13:04:56Z</time>
      </trkpt>
      <trkpt lat="46.55799" lon="0.34986">
        <ele>115.42546005175</ele>
        <time>2021-09-21T13:04:58Z</time>
      </trkpt>
      <trkpt lat="46.55796" lon="0.34986">
        <ele>115.12877797522</ele>
        <time>2021-09-21T13:05:00Z</time>
      </trkpt>
      <trkpt lat="46.55794" lon="0.34986">
        <ele>115.12836401816</ele>
        <time>2021-09-21T13:05:02Z</time>
      </trkpt>
      <trkpt lat="46.55792" lon="0.34986">
        <ele>114.91174971405</ele>
        <time>2021-09-21T13:05:04Z</time>
      </trkpt>
      <trkpt lat="46.5579" lon="0.34985">
        <ele>115.52109247167</ele>
        <time>2021-09-21T13:05:05Z</time>
      </trkpt>
      <trkpt lat="46.55788" lon="0.34985">
        <ele>115.01866667531</ele>
        <time>2021-09-21T13:05:07Z</time>
      </trkpt>
      <trkpt lat="46.55786" lon="0.34984">
        <ele>114.98524054699</ele>
        <time>2021-09-21T13:05:09Z</time>
      </trkpt>
      <trkpt lat="46.55784" lon="0.34983">
        <ele>115.03386652283</ele>
        <time>2021-09-21T13:05:11Z</time>
      </trkpt>
      <trkpt lat="46.55782" lon="0.34982">
        <ele>114.9937870549</ele>
        <time>2021-09-21T13:05:13Z</time>
      </trkpt>
      <trkpt lat="46.5578" lon="0.34981">
        <ele>115.28319088649</ele>
        <time>2021-09-21T13:05:15Z</time>
      </trkpt>
      <trkpt lat="46.55778" lon="0.34977">
        <ele>115.38912913017</ele>
        <time>2021-09-21T13:05:18Z</time>
      </trkpt>
      <trkpt lat="46.55777" lon="0.34974">
        <ele>115.15539909434</ele>
        <time>2021-09-21T13:05:20Z</time>
      </trkpt>
      <trkpt lat="46.55775" lon="0.34971">
        <ele>115.70580152143</ele>
        <time>2021-09-21T13:05:23Z</time>
      </trkpt>
      <trkpt lat="46.55775" lon="0.34968">
        <ele>115.94648071937</ele>
        <time>2021-09-21T13:05:25Z</time>
      </trkpt>
      <trkpt lat="46.55774" lon="0.34965">
        <ele>116.20802323148</ele>
        <time>2021-09-21T13:05:27Z</time>
      </trkpt>
      <trkpt lat="46.55774" lon="0.34962">
        <ele>116.15465431102</ele>
        <time>2021-09-21T13:05:29Z</time>
      </trkpt>
      <trkpt lat="46.55773" lon="0.3496">
        <ele>116.26833724882</ele>
        <time>2021-09-21T13:05:31Z</time>
      </trkpt>
      <trkpt lat="46.55771" lon="0.34958">
        <ele>116.28452740423</ele>
        <time>2021-09-21T13:05:43Z</time>
      </trkpt>
      <trkpt lat="46.55769" lon="0.34959">
        <ele>116.82175082155</ele>
        <time>2021-09-21T13:05:45Z</time>
      </trkpt>
      <trkpt lat="46.55767" lon="0.34961">
        <ele>115.97398449015</ele>
        <time>2021-09-21T13:05:47Z</time>
      </trkpt>
      <trkpt lat="46.55767" lon="0.34965">
        <ele>115.25236491673</ele>
        <time>2021-09-21T13:05:50Z</time>
      </trkpt>
      <trkpt lat="46.55766" lon="0.34968">
        <ele>115.90684819035</ele>
        <time>2021-09-21T13:05:52Z</time>
      </trkpt>
      <trkpt lat="46.55765" lon="0.34971">
        <ele>115.01218890585</ele>
        <time>2021-09-21T13:05:54Z</time>
      </trkpt>
      <trkpt lat="46.55764" lon="0.34975">
        <ele>115.40125377756</ele>
        <time>2021-09-21T13:05:57Z</time>
      </trkpt>
      <trkpt lat="46.55762" lon="0.34977">
        <ele>114.91498059407</ele>
        <time>2021-09-21T13:05:59Z</time>
      </trkpt>
      <trkpt lat="46.5576" lon="0.34979">
        <ele>114.97310226876</ele>
        <time>2021-09-21T13:06:01Z</time>
      </trkpt>
      <trkpt lat="46.55757" lon="0.34982">
        <ele>114.76557196025</ele>
        <time>2021-09-21T13:06:04Z</time>
      </trkpt>
      <trkpt lat="46.55755" lon="0.34983">
        <ele>114.34949184768</ele>
        <time>2021-09-21T13:06:06Z</time>
      </trkpt>
      <trkpt lat="46.55752" lon="0.34982">
        <ele>114.23440590128</ele>
        <time>2021-09-21T13:06:08Z</time>
      </trkpt>
      <trkpt lat="46.55749" lon="0.34982">
        <ele>114.870224474</ele>
        <time>2021-09-21T13:06:10Z</time>
      </trkpt>
      <trkpt lat="46.55747" lon="0.34982">
        <ele>114.68004237209</ele>
        <time>2021-09-21T13:06:12Z</time>
      </trkpt>
      <trkpt lat="46.55745" lon="0.34982">
        <ele>114.41320761386</ele>
        <time>2021-09-21T13:06:14Z</time>
      </trkpt>
      <trkpt lat="46.55743" lon="0.34983">
        <ele>113.7741227299</ele>
        <time>2021-09-21T13:06:16Z</time>
      </trkpt>
      <trkpt lat="46.55741" lon="0.34983">
        <ele>114.08741771989</ele>
        <time>2021-09-21T13:06:18Z</time>
      </trkpt>
      <trkpt lat="46.55738" lon="0.34982">
        <ele>113.8474158356</ele>
        <time>2021-09-21T13:06:21Z</time>
      </trkpt>
      <trkpt lat="46.55735" lon="0.34984">
        <ele>113.82948776986</ele>
        <time>2021-09-21T13:06:23Z</time>
      </trkpt>
      <trkpt lat="46.55732" lon="0.34983">
        <ele>113.66025565472</ele>
        <time>2021-09-21T13:06:25Z</time>
      </trkpt>
      <trkpt lat="46.5573" lon="0.34981">
        <ele>113.45949451905</ele>
        <time>2021-09-21T13:06:28Z</time>
      </trkpt>
      <trkpt lat="46.55727" lon="0.34981">
        <ele>113.49099247064</ele>
        <time>2021-09-21T13:06:30Z</time>
      </trkpt>
      <trkpt lat="46.55725" lon="0.3498">
        <ele>113.41921142209</ele>
        <time>2021-09-21T13:06:32Z</time>
      </trkpt>
      <trkpt lat="46.55723" lon="0.34978">
        <ele>113.70233576465</ele>
        <time>2021-09-21T13:06:34Z</time>
      </trkpt>
      <trkpt lat="46.55721" lon="0.34977">
        <ele>113.01156785805</ele>
        <time>2021-09-21T13:06:36Z</time>
      </trkpt>
      <trkpt lat="46.55719" lon="0.34976">
        <ele>113.5073672263</ele>
        <time>2021-09-21T13:06:38Z</time>
      </trkpt>
      <trkpt lat="46.55716" lon="0.34975">
        <ele>113.44660201296</ele>
        <time>2021-09-21T13:06:40Z</time>
      </trkpt>
      <trkpt lat="46.55713" lon="0.34973">
        <ele>113.64070618898</ele>
        <time>2021-09-21T13:06:42Z</time>
      </trkpt>
      <trkpt lat="46.55711" lon="0.34971">
        <ele>113.13701849058</ele>
        <time>2021-09-21T13:06:44Z</time>
      </trkpt>
      <trkpt lat="46.55708" lon="0.34969">
        <ele>112.52664719615</ele>
        <time>2021-09-21T13:06:47Z</time>
      </trkpt>
      <trkpt lat="46.55707" lon="0.34967">
        <ele>112.91066093277</ele>
        <time>2021-09-21T13:06:48Z</time>
      </trkpt>
      <trkpt lat="46.55705" lon="0.34964">
        <ele>112.77463995013</ele>
        <time>2021-09-21T13:06:50Z</time>
      </trkpt>
      <trkpt lat="46.55703" lon="0.34961">
        <ele>113.19921305776</ele>
        <time>2021-09-21T13:06:52Z</time>
      </trkpt>
      <trkpt lat="46.55701" lon="0.34959">
        <ele>113.40237766504</ele>
        <time>2021-09-21T13:06:54Z</time>
      </trkpt>
      <trkpt lat="46.557" lon="0.34956">
        <ele>113.25252208952</ele>
        <time>2021-09-21T13:06:56Z</time>
      </trkpt>
      <trkpt lat="46.55699" lon="0.34953">
        <ele>113.82054349221</ele>
        <time>2021-09-21T13:06:58Z</time>
      </trkpt>
      <trkpt lat="46.55697" lon="0.3495">
        <ele>113.25146162789</ele>
        <time>2021-09-21T13:07:00Z</time>
      </trkpt>
      <trkpt lat="46.55696" lon="0.34946">
        <ele>113.81453998759</ele>
        <time>2021-09-21T13:07:02Z</time>
      </trkpt>
      <trkpt lat="46.55695" lon="0.34943">
        <ele>113.54095879663</ele>
        <time>2021-09-21T13:07:04Z</time>
      </trkpt>
      <trkpt lat="46.55693" lon="0.34939">
        <ele>113.83712230157</ele>
        <time>2021-09-21T13:07:06Z</time>
      </trkpt>
      <trkpt lat="46.55692" lon="0.34935">
        <ele>114.07247250993</ele>
        <time>2021-09-21T13:07:08Z</time>
      </trkpt>
      <trkpt lat="46.55691" lon="0.34932">
        <ele>114.01680405065</ele>
        <time>2021-09-21T13:07:10Z</time>
      </trkpt>
      <trkpt lat="46.5569" lon="0.34928">
        <ele>114.06864236388</ele>
        <time>2021-09-21T13:07:12Z</time>
      </trkpt>
      <trkpt lat="46.55689" lon="0.34925">
        <ele>114.10197690502</ele>
        <time>2021-09-21T13:07:14Z</time>
      </trkpt>
      <trkpt lat="46.55687" lon="0.34923">
        <ele>114.45812880993</ele>
        <time>2021-09-21T13:07:16Z</time>
      </trkpt>
      <trkpt lat="46.55685" lon="0.34921">
        <ele>114.37100904528</ele>
        <time>2021-09-21T13:07:18Z</time>
      </trkpt>
      <trkpt lat="46.55683" lon="0.34918">
        <ele>114.01573864464</ele>
        <time>2021-09-21T13:07:20Z</time>
      </trkpt>
      <trkpt lat="46.55683" lon="0.34915">
        <ele>114.39516524598</ele>
        <time>2021-09-21T13:07:21Z</time>
      </trkpt>
      <trkpt lat="46.55682" lon="0.34912">
        <ele>114.43128391635</ele>
        <time>2021-09-21T13:07:23Z</time>
      </trkpt>
      <trkpt lat="46.5568" lon="0.34909">
        <ele>114.33256407548</ele>
        <time>2021-09-21T13:07:25Z</time>
      </trkpt>
      <trkpt lat="46.55679" lon="0.34905">
        <ele>114.47387824859</ele>
        <time>2021-09-21T13:07:27Z</time>
      </trkpt>
      <trkpt lat="46.55679" lon="0.34902">
        <ele>114.43672391307</ele>
        <time>2021-09-21T13:07:29Z</time>
      </trkpt>
      <trkpt lat="46.55678" lon="0.349">
        <ele>114.38148985151</ele>
        <time>2021-09-21T13:07:30Z</time>
      </trkpt>
      <trkpt lat="46.55677" lon="0.34897">
        <ele>114.62004521769</ele>
        <time>2021-09-21T13:07:32Z</time>
      </trkpt>
      <trkpt lat="46.55675" lon="0.34894">
        <ele>114.71527442057</ele>
        <time>2021-09-21T13:07:34Z</time>
      </trkpt>
      <trkpt lat="46.55674" lon="0.3489">
        <ele>114.80489243753</ele>
        <time>2021-09-21T13:07:36Z</time>
      </trkpt>
      <trkpt lat="46.55671" lon="0.3489">
        <ele>114.36093752924</ele>
        <time>2021-09-21T13:07:40Z</time>
      </trkpt>
      <trkpt lat="46.55669" lon="0.3489">
        <ele>113.54545436427</ele>
        <time>2021-09-21T13:07:47Z</time>
      </trkpt>
      <trkpt lat="46.55667" lon="0.34892">
        <ele>112.95288888179</ele>
        <time>2021-09-21T13:07:49Z</time>
      </trkpt>
      <trkpt lat="46.55665" lon="0.34892">
        <ele>113.36120835599</ele>
        <time>2021-09-21T13:07:51Z</time>
      </trkpt>
      <trkpt lat="46.55663" lon="0.34893">
        <ele>112.84115064424</ele>
        <time>2021-09-21T13:07:54Z</time>
      </trkpt>
      <trkpt lat="46.5566" lon="0.34895">
        <ele>113.3330611838</ele>
        <time>2021-09-21T13:07:56Z</time>
      </trkpt>
      <trkpt lat="46.55658" lon="0.34895">
        <ele>112.70482658688</ele>
        <time>2021-09-21T13:07:59Z</time>
      </trkpt>
      <trkpt lat="46.55656" lon="0.34897">
        <ele>112.32241686713</ele>
        <time>2021-09-21T13:08:01Z</time>
      </trkpt>
      <trkpt lat="46.55653" lon="0.34899">
        <ele>112.19883251097</ele>
        <time>2021-09-21T13:08:03Z</time>
      </trkpt>
      <trkpt lat="46.55651" lon="0.34899">
        <ele>111.48855721671</ele>
        <time>2021-09-21T13:08:05Z</time>
      </trkpt>
      <trkpt lat="46.55649" lon="0.34901">
        <ele>111.42170576286</ele>
        <time>2021-09-21T13:08:07Z</time>
      </trkpt>
      <trkpt lat="46.55648" lon="0.34903">
        <ele>111.01542641129</ele>
        <time>2021-09-21T13:08:09Z</time>
      </trkpt>
      <trkpt lat="46.55645" lon="0.34903">
        <ele>110.444067562</ele>
        <time>2021-09-21T13:08:11Z</time>
      </trkpt>
      <trkpt lat="46.55644" lon="0.34905">
        <ele>109.60252258833</ele>
        <time>2021-09-21T13:08:13Z</time>
      </trkpt>
      <trkpt lat="46.55641" lon="0.34906">
        <ele>109.62366614863</ele>
        <time>2021-09-21T13:08:15Z</time>
      </trkpt>
      <trkpt lat="46.55639" lon="0.34907">
        <ele>109.48998399079</ele>
        <time>2021-09-21T13:08:17Z</time>
      </trkpt>
      <trkpt lat="46.55638" lon="0.34909">
        <ele>108.91883322783</ele>
        <time>2021-09-21T13:08:19Z</time>
      </trkpt>
      <trkpt lat="46.55636" lon="0.34907">
        <ele>108.75627931673</ele>
        <time>2021-09-21T13:08:22Z</time>
      </trkpt>
      <trkpt lat="46.55635" lon="0.34904">
        <ele>108.61811706331</ele>
        <time>2021-09-21T13:08:24Z</time>
      </trkpt>
      <trkpt lat="46.55635" lon="0.34901">
        <ele>108.01745726075</ele>
        <time>2021-09-21T13:08:27Z</time>
      </trkpt>
      <trkpt lat="46.55634" lon="0.34898">
        <ele>107.73497118894</ele>
        <time>2021-09-21T13:08:29Z</time>
      </trkpt>
      <trkpt lat="46.55633" lon="0.34895">
        <ele>108.11414093245</ele>
        <time>2021-09-21T13:08:31Z</time>
      </trkpt>
      <trkpt lat="46.55632" lon="0.34892">
        <ele>108.17944039777</ele>
        <time>2021-09-21T13:08:33Z</time>
      </trkpt>
      <trkpt lat="46.55631" lon="0.34889">
        <ele>108.27257424872</ele>
        <time>2021-09-21T13:08:35Z</time>
      </trkpt>
      <trkpt lat="46.55631" lon="0.34886">
        <ele>107.96659111883</ele>
        <time>2021-09-21T13:08:37Z</time>
      </trkpt>
      <trkpt lat="46.55629" lon="0.34884">
        <ele>107.7845408842</ele>
        <time>2021-09-21T13:08:40Z</time>
      </trkpt>
      <trkpt lat="46.55627" lon="0.34883">
        <ele>107.47796737403</ele>
        <time>2021-09-21T13:08:43Z</time>
      </trkpt>
      <trkpt lat="46.55624" lon="0.34882">
        <ele>106.76119052246</ele>
        <time>2021-09-21T13:08:46Z</time>
      </trkpt>
      <trkpt lat="46.55622" lon="0.34882">
        <ele>105.97250922676</ele>
        <time>2021-09-21T13:08:48Z</time>
      </trkpt>
      <trkpt lat="46.55619" lon="0.34881">
        <ele>106.39467740525</ele>
        <time>2021-09-21T13:08:50Z</time>
      </trkpt>
      <trkpt lat="46.55617" lon="0.3488">
        <ele>105.92048764601</ele>
        <time>2021-09-21T13:08:51Z</time>
      </trkpt>
      <trkpt lat="46.55615" lon="0.3488">
        <ele>105.51502548251</ele>
        <time>2021-09-21T13:08:53Z</time>
      </trkpt>
      <trkpt lat="46.55612" lon="0.34879">
        <ele>104.82339110039</ele>
        <time>2021-09-21T13:08:56Z</time>
      </trkpt>
      <trkpt lat="46.5561" lon="0.34876">
        <ele>104.598532442</ele>
        <time>2021-09-21T13:08:58Z</time>
      </trkpt>
      <trkpt lat="46.55609" lon="0.34874">
        <ele>104.35443381127</ele>
        <time>2021-09-21T13:09:01Z</time>
      </trkpt>
      <trkpt lat="46.55607" lon="0.34871">
        <ele>104.13191190455</ele>
        <time>2021-09-21T13:09:04Z</time>
      </trkpt>
      <trkpt lat="46.55605" lon="0.34869">
        <ele>104.14923774078</ele>
        <time>2021-09-21T13:09:06Z</time>
      </trkpt>
      <trkpt lat="46.55604" lon="0.34867">
        <ele>103.56229714211</ele>
        <time>2021-09-21T13:09:08Z</time>
      </trkpt>
      <trkpt lat="46.55601" lon="0.34864">
        <ele>103.48752652667</ele>
        <time>2021-09-21T13:09:10Z</time>
      </trkpt>
      <trkpt lat="46.556" lon="0.34862">
        <ele>103.16480018198</ele>
        <time>2021-09-21T13:09:13Z</time>
      </trkpt>
      <trkpt lat="46.55597" lon="0.34861">
        <ele>102.62867842708</ele>
        <time>2021-09-21T13:09:16Z</time>
      </trkpt>
      <trkpt lat="46.55595" lon="0.3486">
        <ele>102.46768906899</ele>
        <time>2021-09-21T13:09:19Z</time>
      </trkpt>
      <trkpt lat="46.55593" lon="0.34859">
        <ele>102.41135711875</ele>
        <time>2021-09-21T13:09:21Z</time>
      </trkpt>
      <trkpt lat="46.55591" lon="0.34857">
        <ele>102.04494075105</ele>
        <time>2021-09-21T13:09:23Z</time>
      </trkpt>
      <trkpt lat="46.55589" lon="0.34856">
        <ele>101.48687016778</ele>
        <time>2021-09-21T13:09:26Z</time>
      </trkpt>
      <trkpt lat="46.55587" lon="0.34855">
        <ele>101.31608534511</ele>
        <time>2021-09-21T13:09:28Z</time>
      </trkpt>
      <trkpt lat="46.55584" lon="0.34854">
        <ele>100.7201557206</ele>
        <time>2021-09-21T13:09:31Z</time>
      </trkpt>
      <trkpt lat="46.55582" lon="0.34853">
        <ele>100.67491452117</ele>
        <time>2021-09-21T13:09:33Z</time>
      </trkpt>
      <trkpt lat="46.55581" lon="0.34852">
        <ele>100.538972768</ele>
        <time>2021-09-21T13:09:34Z</time>
      </trkpt>
      <trkpt lat="46.55578" lon="0.3485">
        <ele>100.18500574399</ele>
        <time>2021-09-21T13:09:36Z</time>
      </trkpt>
      <trkpt lat="46.55577" lon="0.34849">
        <ele>100.3196726907</ele>
        <time>2021-09-21T13:09:38Z</time>
      </trkpt>
      <trkpt lat="46.55574" lon="0.34847">
        <ele>99.840529392473</ele>
        <time>2021-09-21T13:09:40Z</time>
      </trkpt>
      <trkpt lat="46.55572" lon="0.34846">
        <ele>99.643135008402</ele>
        <time>2021-09-21T13:09:42Z</time>
      </trkpt>
      <trkpt lat="46.5557" lon="0.34845">
        <ele>99.50156925153</ele>
        <time>2021-09-21T13:09:44Z</time>
      </trkpt>
      <trkpt lat="46.55569" lon="0.34842">
        <ele>99.814515396953</ele>
        <time>2021-09-21T13:09:46Z</time>
      </trkpt>
      <trkpt lat="46.55567" lon="0.34841">
        <ele>99.578120452352</ele>
        <time>2021-09-21T13:09:49Z</time>
      </trkpt>
      <trkpt lat="46.55565" lon="0.34839">
        <ele>99.416033206508</ele>
        <time>2021-09-21T13:09:51Z</time>
      </trkpt>
      <trkpt lat="46.55562" lon="0.34838">
        <ele>99.202233674936</ele>
        <time>2021-09-21T13:09:53Z</time>
      </trkpt>
      <trkpt lat="46.5556" lon="0.34836">
        <ele>98.895250342786</ele>
        <time>2021-09-21T13:09:55Z</time>
      </trkpt>
      <trkpt lat="46.55559" lon="0.34834">
        <ele>99.074627896771</ele>
        <time>2021-09-21T13:09:58Z</time>
      </trkpt>
      <trkpt lat="46.55557" lon="0.34833">
        <ele>99.459569392726</ele>
        <time>2021-09-21T13:10:00Z</time>
      </trkpt>
      <trkpt lat="46.55555" lon="0.34831">
        <ele>99.488630741835</ele>
        <time>2021-09-21T13:10:02Z</time>
      </trkpt>
      <trkpt lat="46.55552" lon="0.34829">
        <ele>99.491645436734</ele>
        <time>2021-09-21T13:10:05Z</time>
      </trkpt>
      <trkpt lat="46.5555" lon="0.34828">
        <ele>99.191975661553</ele>
        <time>2021-09-21T13:10:07Z</time>
      </trkpt>
      <trkpt lat="46.55549" lon="0.34826">
        <ele>99.122832917608</ele>
        <time>2021-09-21T13:10:10Z</time>
      </trkpt>
      <trkpt lat="46.55545" lon="0.34825">
        <ele>98.592987253331</ele>
        <time>2021-09-21T13:10:12Z</time>
      </trkpt>
      <trkpt lat="46.55543" lon="0.34824">
        <ele>98.309254634194</ele>
        <time>2021-09-21T13:10:14Z</time>
      </trkpt>
      <trkpt lat="46.55541" lon="0.34824">
        <ele>98.38903569337</ele>
        <time>2021-09-21T13:10:15Z</time>
      </trkpt>
      <trkpt lat="46.55539" lon="0.34823">
        <ele>98.138182651252</ele>
        <time>2021-09-21T13:10:17Z</time>
      </trkpt>
      <trkpt lat="46.55537" lon="0.34822">
        <ele>98.222851041704</ele>
        <time>2021-09-21T13:10:19Z</time>
      </trkpt>
      <trkpt lat="46.55536" lon="0.34821">
        <ele>97.679612954147</ele>
        <time>2021-09-21T13:10:21Z</time>
      </trkpt>
      <trkpt lat="46.55533" lon="0.34819">
        <ele>97.014506944455</ele>
        <time>2021-09-21T13:10:23Z</time>
      </trkpt>
      <trkpt lat="46.5553" lon="0.34817">
        <ele>96.706831263378</ele>
        <time>2021-09-21T13:10:25Z</time>
      </trkpt>
      <trkpt lat="46.55528" lon="0.34816">
        <ele>96.713416738436</ele>
        <time>2021-09-21T13:10:26Z</time>
      </trkpt>
      <trkpt lat="46.55526" lon="0.34814">
        <ele>96.649521463551</ele>
        <time>2021-09-21T13:10:28Z</time>
      </trkpt>
      <trkpt lat="46.55525" lon="0.34814">
        <ele>96.730709777214</ele>
        <time>2021-09-21T13:10:29Z</time>
      </trkpt>
      <trkpt lat="46.55522" lon="0.34814">
        <ele>95.949387445115</ele>
        <time>2021-09-21T13:10:31Z</time>
      </trkpt>
      <trkpt lat="46.5552" lon="0.34812">
        <ele>95.574439435266</ele>
        <time>2021-09-21T13:10:32Z</time>
      </trkpt>
      <trkpt lat="46.55517" lon="0.34811">
        <ele>95.743849335238</ele>
        <time>2021-09-21T13:10:35Z</time>
      </trkpt>
      <trkpt lat="46.55515" lon="0.34812">
        <ele>95.685601331294</ele>
        <time>2021-09-21T13:10:37Z</time>
      </trkpt>
      <trkpt lat="46.55512" lon="0.34811">
        <ele>94.987605107948</ele>
        <time>2021-09-21T13:10:39Z</time>
      </trkpt>
      <trkpt lat="46.55509" lon="0.3481">
        <ele>94.786694476381</ele>
        <time>2021-09-21T13:10:41Z</time>
      </trkpt>
      <trkpt lat="46.55506" lon="0.3481">
        <ele>94.327713048086</ele>
        <time>2021-09-21T13:10:43Z</time>
      </trkpt>
      <trkpt lat="46.55504" lon="0.3481">
        <ele>94.021828431636</ele>
        <time>2021-09-21T13:10:45Z</time>
      </trkpt>
      <trkpt lat="46.55502" lon="0.3481">
        <ele>93.57577672042</ele>
        <time>2021-09-21T13:10:47Z</time>
      </trkpt>
      <trkpt lat="46.55499" lon="0.3481">
        <ele>93.134485542774</ele>
        <time>2021-09-21T13:10:50Z</time>
      </trkpt>
      <trkpt lat="46.55497" lon="0.3481">
        <ele>92.962939474732</ele>
        <time>2021-09-21T13:10:52Z</time>
      </trkpt>
      <trkpt lat="46.55495" lon="0.34809">
        <ele>92.927521272562</ele>
        <time>2021-09-21T13:10:54Z</time>
      </trkpt>
      <trkpt lat="46.55493" lon="0.34808">
        <ele>92.200899718329</ele>
        <time>2021-09-21T13:10:56Z</time>
      </trkpt>
      <trkpt lat="46.55491" lon="0.34806">
        <ele>91.928824529983</ele>
        <time>2021-09-21T13:10:58Z</time>
      </trkpt>
      <trkpt lat="46.5549" lon="0.34804">
        <ele>92.056695621461</ele>
        <time>2021-09-21T13:11:00Z</time>
      </trkpt>
      <trkpt lat="46.55488" lon="0.34803">
        <ele>92.061905974522</ele>
        <time>2021-09-21T13:11:02Z</time>
      </trkpt>
      <trkpt lat="46.55486" lon="0.348">
        <ele>91.853175261989</ele>
        <time>2021-09-21T13:11:05Z</time>
      </trkpt>
      <trkpt lat="46.55484" lon="0.34798">
        <ele>91.849230028689</ele>
        <time>2021-09-21T13:11:07Z</time>
      </trkpt>
      <trkpt lat="46.55482" lon="0.34796">
        <ele>91.853783953004</ele>
        <time>2021-09-21T13:11:09Z</time>
      </trkpt>
      <trkpt lat="46.55481" lon="0.34793">
        <ele>91.865411377512</ele>
        <time>2021-09-21T13:11:11Z</time>
      </trkpt>
      <trkpt lat="46.55479" lon="0.34791">
        <ele>91.9401816139</ele>
        <time>2021-09-21T13:11:13Z</time>
      </trkpt>
      <trkpt lat="46.55477" lon="0.34789">
        <ele>91.605080293491</ele>
        <time>2021-09-21T13:11:15Z</time>
      </trkpt>
      <trkpt lat="46.55475" lon="0.34786">
        <ele>91.546936010942</ele>
        <time>2021-09-21T13:11:18Z</time>
      </trkpt>
      <trkpt lat="46.55474" lon="0.34785">
        <ele>91.848184692673</ele>
        <time>2021-09-21T13:11:20Z</time>
      </trkpt>
      <trkpt lat="46.55472" lon="0.34781">
        <ele>91.507681303658</ele>
        <time>2021-09-21T13:11:22Z</time>
      </trkpt>
      <trkpt lat="46.5547" lon="0.34779">
        <ele>91.142792201601</ele>
        <time>2021-09-21T13:11:24Z</time>
      </trkpt>
      <trkpt lat="46.55468" lon="0.34778">
        <ele>91.1572947409</ele>
        <time>2021-09-21T13:11:26Z</time>
      </trkpt>
      <trkpt lat="46.55466" lon="0.34775">
        <ele>91.349084275775</ele>
        <time>2021-09-21T13:11:28Z</time>
      </trkpt>
      <trkpt lat="46.55464" lon="0.34772">
        <ele>91.117976161651</ele>
        <time>2021-09-21T13:11:30Z</time>
      </trkpt>
      <trkpt lat="46.55462" lon="0.34769">
        <ele>90.961808991618</ele>
        <time>2021-09-21T13:11:32Z</time>
      </trkpt>
      <trkpt lat="46.5546" lon="0.34767">
        <ele>90.856674533337</ele>
        <time>2021-09-21T13:11:34Z</time>
      </trkpt>
      <trkpt lat="46.55458" lon="0.34763">
        <ele>90.217318540439</ele>
        <time>2021-09-21T13:11:37Z</time>
      </trkpt>
      <trkpt lat="46.55457" lon="0.34761">
        <ele>90.301971009001</ele>
        <time>2021-09-21T13:11:39Z</time>
      </trkpt>
      <trkpt lat="46.55455" lon="0.34759">
        <ele>90.310508207418</ele>
        <time>2021-09-21T13:11:41Z</time>
      </trkpt>
      <trkpt lat="46.55453" lon="0.34758">
        <ele>90.09279637225</ele>
        <time>2021-09-21T13:11:44Z</time>
      </trkpt>
      <trkpt lat="46.55451" lon="0.34756">
        <ele>89.794445964508</ele>
        <time>2021-09-21T13:11:48Z</time>
      </trkpt>
      <trkpt lat="46.5545" lon="0.34754">
        <ele>89.795755801722</ele>
        <time>2021-09-21T13:11:50Z</time>
      </trkpt>
      <trkpt lat="46.55448" lon="0.34751">
        <ele>89.750493800268</ele>
        <time>2021-09-21T13:11:52Z</time>
      </trkpt>
      <trkpt lat="46.55447" lon="0.34748">
        <ele>89.465169623494</ele>
        <time>2021-09-21T13:11:54Z</time>
      </trkpt>
      <trkpt lat="46.55446" lon="0.34744">
        <ele>89.457128204405</ele>
        <time>2021-09-21T13:11:57Z</time>
      </trkpt>
      <trkpt lat="46.55445" lon="0.34741">
        <ele>89.305236703716</ele>
        <time>2021-09-21T13:11:59Z</time>
      </trkpt>
      <trkpt lat="46.55444" lon="0.34738">
        <ele>89.340126906522</ele>
        <time>2021-09-21T13:12:01Z</time>
      </trkpt>
      <trkpt lat="46.55443" lon="0.34735">
        <ele>88.928354014643</ele>
        <time>2021-09-21T13:12:03Z</time>
      </trkpt>
      <trkpt lat="46.55442" lon="0.34732">
        <ele>89.087637980469</ele>
        <time>2021-09-21T13:12:05Z</time>
      </trkpt>
      <trkpt lat="46.5544" lon="0.3473">
        <ele>88.813775881194</ele>
        <time>2021-09-21T13:12:07Z</time>
      </trkpt>
      <trkpt lat="46.55437" lon="0.34727">
        <ele>88.880525806919</ele>
        <time>2021-09-21T13:12:09Z</time>
      </trkpt>
      <trkpt lat="46.55436" lon="0.34724">
        <ele>88.142795962282</ele>
        <time>2021-09-21T13:12:11Z</time>
      </trkpt>
      <trkpt lat="46.55434" lon="0.34722">
        <ele>87.985018666834</ele>
        <time>2021-09-21T13:12:13Z</time>
      </trkpt>
      <trkpt lat="46.55433" lon="0.34721">
        <ele>87.275278348476</ele>
        <time>2021-09-21T13:12:15Z</time>
      </trkpt>
      <trkpt lat="46.55431" lon="0.3472">
        <ele>87.343889569864</ele>
        <time>2021-09-21T13:12:17Z</time>
      </trkpt>
      <trkpt lat="46.55428" lon="0.34718">
        <ele>86.966160574928</ele>
        <time>2021-09-21T13:12:20Z</time>
      </trkpt>
      <trkpt lat="46.55426" lon="0.34717">
        <ele>86.737757284194</ele>
        <time>2021-09-21T13:12:23Z</time>
      </trkpt>
      <trkpt lat="46.55424" lon="0.34715">
        <ele>86.011667607352</ele>
        <time>2021-09-21T13:12:27Z</time>
      </trkpt>
      <trkpt lat="46.55422" lon="0.34714">
        <ele>85.919061495923</ele>
        <time>2021-09-21T13:12:29Z</time>
      </trkpt>
      <trkpt lat="46.5542" lon="0.34712">
        <ele>85.387732136063</ele>
        <time>2021-09-21T13:12:32Z</time>
      </trkpt>
      <trkpt lat="46.55418" lon="0.34711">
        <ele>85.031282283366</ele>
        <time>2021-09-21T13:12:35Z</time>
      </trkpt>
      <trkpt lat="46.55416" lon="0.3471">
        <ele>84.78227136936</ele>
        <time>2021-09-21T13:12:38Z</time>
      </trkpt>
      <trkpt lat="46.55414" lon="0.34707">
        <ele>84.408232092857</ele>
        <time>2021-09-21T13:12:42Z</time>
      </trkpt>
      <trkpt lat="46.55413" lon="0.34704">
        <ele>84.059229690582</ele>
        <time>2021-09-21T13:12:44Z</time>
      </trkpt>
      <trkpt lat="46.55412" lon="0.34701">
        <ele>84.124878223054</ele>
        <time>2021-09-21T13:12:46Z</time>
      </trkpt>
      <trkpt lat="46.55411" lon="0.34699">
        <ele>83.823690411635</ele>
        <time>2021-09-21T13:12:48Z</time>
      </trkpt>
      <trkpt lat="46.55409" lon="0.34697">
        <ele>83.875905577093</ele>
        <time>2021-09-21T13:12:50Z</time>
      </trkpt>
      <trkpt lat="46.55407" lon="0.34696">
        <ele>84.114552214742</ele>
        <time>2021-09-21T13:12:52Z</time>
      </trkpt>
      <trkpt lat="46.55405" lon="0.34695">
        <ele>83.925170644186</ele>
        <time>2021-09-21T13:12:58Z</time>
      </trkpt>
      <trkpt lat="46.55407" lon="0.34698">
        <ele>84.257867224514</ele>
        <time>2021-09-21T13:13:10Z</time>
      </trkpt>
      <trkpt lat="46.55405" lon="0.34699">
        <ele>83.695316995494</ele>
        <time>2021-09-21T13:13:25Z</time>
      </trkpt>
      <trkpt lat="46.55403" lon="0.34697">
        <ele>83.722448121756</ele>
        <time>2021-09-21T13:13:49Z</time>
      </trkpt>
      <trkpt lat="46.55401" lon="0.34695">
        <ele>83.483720594086</ele>
        <time>2021-09-21T13:13:52Z</time>
      </trkpt>
      <trkpt lat="46.55399" lon="0.34695">
        <ele>83.064266164787</ele>
        <time>2021-09-21T13:13:55Z</time>
      </trkpt>
      <trkpt lat="46.55396" lon="0.34696">
        <ele>83.127336747944</ele>
        <time>2021-09-21T13:13:59Z</time>
      </trkpt>
      <trkpt lat="46.55396" lon="0.34692">
        <ele>82.953046796843</ele>
        <time>2021-09-21T13:14:03Z</time>
      </trkpt>
      <trkpt lat="46.55397" lon="0.34689">
        <ele>82.795724404044</ele>
        <time>2021-09-21T13:14:05Z</time>
      </trkpt>
      <trkpt lat="46.55398" lon="0.34686">
        <ele>82.845909926109</ele>
        <time>2021-09-21T13:14:07Z</time>
      </trkpt>
      <trkpt lat="46.554" lon="0.34684">
        <ele>82.623527130112</ele>
        <time>2021-09-21T13:14:09Z</time>
      </trkpt>
      <trkpt lat="46.55401" lon="0.34682">
        <ele>82.807489123195</ele>
        <time>2021-09-21T13:14:11Z</time>
      </trkpt>
      <trkpt lat="46.55402" lon="0.3468">
        <ele>82.984932604246</ele>
        <time>2021-09-21T13:14:13Z</time>
      </trkpt>
      <trkpt lat="46.55403" lon="0.34677">
        <ele>83.011865328997</ele>
        <time>2021-09-21T13:14:15Z</time>
      </trkpt>
      <trkpt lat="46.55404" lon="0.34674">
        <ele>83.25527208671</ele>
        <time>2021-09-21T13:14:17Z</time>
      </trkpt>
      <trkpt lat="46.55405" lon="0.34672">
        <ele>83.522533079609</ele>
        <time>2021-09-21T13:14:19Z</time>
      </trkpt>
      <trkpt lat="46.55406" lon="0.34669">
        <ele>83.677771262825</ele>
        <time>2021-09-21T13:14:21Z</time>
      </trkpt>
      <trkpt lat="46.55408" lon="0.34666">
        <ele>83.743862232193</ele>
        <time>2021-09-21T13:14:23Z</time>
      </trkpt>
      <trkpt lat="46.55408" lon="0.34662">
        <ele>83.989603377879</ele>
        <time>2021-09-21T13:14:26Z</time>
      </trkpt>
      <trkpt lat="46.5541" lon="0.3466">
        <ele>84.053373732604</ele>
        <time>2021-09-21T13:14:27Z</time>
      </trkpt>
      <trkpt lat="46.55411" lon="0.34657">
        <ele>83.919491499662</ele>
        <time>2021-09-21T13:14:29Z</time>
      </trkpt>
      <trkpt lat="46.55412" lon="0.34654">
        <ele>83.984357120469</ele>
        <time>2021-09-21T13:14:31Z</time>
      </trkpt>
      <trkpt lat="46.55414" lon="0.34651">
        <ele>84.660984583199</ele>
        <time>2021-09-21T13:14:33Z</time>
      </trkpt>
      <trkpt lat="46.55415" lon="0.34648">
        <ele>84.073436001316</ele>
        <time>2021-09-21T13:14:35Z</time>
      </trkpt>
      <trkpt lat="46.55416" lon="0.34645">
        <ele>84.529621966183</ele>
        <time>2021-09-21T13:14:37Z</time>
      </trkpt>
      <trkpt lat="46.55417" lon="0.34642">
        <ele>84.556526827626</ele>
        <time>2021-09-21T13:14:39Z</time>
      </trkpt>
      <trkpt lat="46.55419" lon="0.34639">
        <ele>84.588598286733</ele>
        <time>2021-09-21T13:14:41Z</time>
      </trkpt>
      <trkpt lat="46.5542" lon="0.34635">
        <ele>84.864649272524</ele>
        <time>2021-09-21T13:14:43Z</time>
      </trkpt>
      <trkpt lat="46.5542" lon="0.34632">
        <ele>85.068076584488</ele>
        <time>2021-09-21T13:14:45Z</time>
      </trkpt>
      <trkpt lat="46.55421" lon="0.34629">
        <ele>85.137173461728</ele>
        <time>2021-09-21T13:14:47Z</time>
      </trkpt>
      <trkpt lat="46.55421" lon="0.34625">
        <ele>84.890230749734</ele>
        <time>2021-09-21T13:14:49Z</time>
      </trkpt>
      <trkpt lat="46.55422" lon="0.34622">
        <ele>85.133105489425</ele>
        <time>2021-09-21T13:14:51Z</time>
      </trkpt>
      <trkpt lat="46.55423" lon="0.34619">
        <ele>84.893444522284</ele>
        <time>2021-09-21T13:14:53Z</time>
      </trkpt>
      <trkpt lat="46.55424" lon="0.34616">
        <ele>85.032984534279</ele>
        <time>2021-09-21T13:14:55Z</time>
      </trkpt>
      <trkpt lat="46.55425" lon="0.34613">
        <ele>85.012525336817</ele>
        <time>2021-09-21T13:14:57Z</time>
      </trkpt>
      <trkpt lat="46.55426" lon="0.34611">
        <ele>85.032233802602</ele>
        <time>2021-09-21T13:14:59Z</time>
      </trkpt>
      <trkpt lat="46.55427" lon="0.34608">
        <ele>85.078398257494</ele>
        <time>2021-09-21T13:15:01Z</time>
      </trkpt>
      <trkpt lat="46.55428" lon="0.34605">
        <ele>85.11191069521</ele>
        <time>2021-09-21T13:15:03Z</time>
      </trkpt>
      <trkpt lat="46.55428" lon="0.34602">
        <ele>84.799199890345</ele>
        <time>2021-09-21T13:15:05Z</time>
      </trkpt>
      <trkpt lat="46.55429" lon="0.34598">
        <ele>84.76852499228</ele>
        <time>2021-09-21T13:15:07Z</time>
      </trkpt>
      <trkpt lat="46.5543" lon="0.34595">
        <ele>84.889811684377</ele>
        <time>2021-09-21T13:15:09Z</time>
      </trkpt>
      <trkpt lat="46.55431" lon="0.34591">
        <ele>84.808324918151</ele>
        <time>2021-09-21T13:15:11Z</time>
      </trkpt>
      <trkpt lat="46.55432" lon="0.34589">
        <ele>84.707533694804</ele>
        <time>2021-09-21T13:15:13Z</time>
      </trkpt>
      <trkpt lat="46.55433" lon="0.34585">
        <ele>84.818514254875</ele>
        <time>2021-09-21T13:15:15Z</time>
      </trkpt>
      <trkpt lat="46.55433" lon="0.34582">
        <ele>84.91437827237</ele>
        <time>2021-09-21T13:15:17Z</time>
      </trkpt>
      <trkpt lat="46.55434" lon="0.34579">
        <ele>84.913080278784</ele>
        <time>2021-09-21T13:15:19Z</time>
      </trkpt>
      <trkpt lat="46.55435" lon="0.34576">
        <ele>85.048013080843</ele>
        <time>2021-09-21T13:15:21Z</time>
      </trkpt>
      <trkpt lat="46.55436" lon="0.34573">
        <ele>84.80476357881</ele>
        <time>2021-09-21T13:15:23Z</time>
      </trkpt>
      <trkpt lat="46.55436" lon="0.34569">
        <ele>84.461841565557</ele>
        <time>2021-09-21T13:15:25Z</time>
      </trkpt>
      <trkpt lat="46.55437" lon="0.34567">
        <ele>84.245156887919</ele>
        <time>2021-09-21T13:15:27Z</time>
      </trkpt>
      <trkpt lat="46.55438" lon="0.34564">
        <ele>84.71630618535</ele>
        <time>2021-09-21T13:15:29Z</time>
      </trkpt>
      <trkpt lat="46.55438" lon="0.3456">
        <ele>84.536881780252</ele>
        <time>2021-09-21T13:15:31Z</time>
      </trkpt>
      <trkpt lat="46.55438" lon="0.34557">
        <ele>84.1348417392</ele>
        <time>2021-09-21T13:15:33Z</time>
      </trkpt>
      <trkpt lat="46.55439" lon="0.34553">
        <ele>84.116432961076</ele>
        <time>2021-09-21T13:15:35Z</time>
      </trkpt>
      <trkpt lat="46.55439" lon="0.34549">
        <ele>84.03746366594</ele>
        <time>2021-09-21T13:15:37Z</time>
      </trkpt>
      <trkpt lat="46.55439" lon="0.34546">
        <ele>83.921969559975</ele>
        <time>2021-09-21T13:15:39Z</time>
      </trkpt>
      <trkpt lat="46.5544" lon="0.34542">
        <ele>84.046957874671</ele>
        <time>2021-09-21T13:15:41Z</time>
      </trkpt>
      <trkpt lat="46.5544" lon="0.34539">
        <ele>84.164409975521</ele>
        <time>2021-09-21T13:15:43Z</time>
      </trkpt>
      <trkpt lat="46.55441" lon="0.34536">
        <ele>83.710474601947</ele>
        <time>2021-09-21T13:15:45Z</time>
      </trkpt>
      <trkpt lat="46.5544" lon="0.34533">
        <ele>83.779157632962</ele>
        <time>2021-09-21T13:15:47Z</time>
      </trkpt>
      <trkpt lat="46.55441" lon="0.34529">
        <ele>83.054513549432</ele>
        <time>2021-09-21T13:15:49Z</time>
      </trkpt>
      <trkpt lat="46.55441" lon="0.34525">
        <ele>83.111569763161</ele>
        <time>2021-09-21T13:15:51Z</time>
      </trkpt>
      <trkpt lat="46.5544" lon="0.34522">
        <ele>83.196097292937</ele>
        <time>2021-09-21T13:15:53Z</time>
      </trkpt>
      <trkpt lat="46.55441" lon="0.34518">
        <ele>83.197254272178</ele>
        <time>2021-09-21T13:15:55Z</time>
      </trkpt>
      <trkpt lat="46.5544" lon="0.34515">
        <ele>83.096035645343</ele>
        <time>2021-09-21T13:15:57Z</time>
      </trkpt>
      <trkpt lat="46.5544" lon="0.34511">
        <ele>82.770850876346</ele>
        <time>2021-09-21T13:15:59Z</time>
      </trkpt>
      <trkpt lat="46.55439" lon="0.34508">
        <ele>83.311519495212</ele>
        <time>2021-09-21T13:16:01Z</time>
      </trkpt>
      <trkpt lat="46.55438" lon="0.34504">
        <ele>82.677104145288</ele>
        <time>2021-09-21T13:16:03Z</time>
      </trkpt>
      <trkpt lat="46.55438" lon="0.345">
        <ele>82.777516196482</ele>
        <time>2021-09-21T13:16:05Z</time>
      </trkpt>
      <trkpt lat="46.55437" lon="0.34496">
        <ele>82.576090561226</ele>
        <time>2021-09-21T13:16:07Z</time>
      </trkpt>
      <trkpt lat="46.55437" lon="0.34494">
        <ele>82.695279465988</ele>
        <time>2021-09-21T13:16:09Z</time>
      </trkpt>
      <trkpt lat="46.55435" lon="0.3449">
        <ele>82.084507804364</ele>
        <time>2021-09-21T13:16:11Z</time>
      </trkpt>
      <trkpt lat="46.55434" lon="0.34485">
        <ele>82.436153206043</ele>
        <time>2021-09-21T13:16:14Z</time>
      </trkpt>
      <trkpt lat="46.55433" lon="0.34482">
        <ele>82.833160083741</ele>
        <time>2021-09-21T13:16:16Z</time>
      </trkpt>
      <trkpt lat="46.55432" lon="0.34479">
        <ele>82.409140380099</ele>
        <time>2021-09-21T13:16:18Z</time>
      </trkpt>
      <trkpt lat="46.55431" lon="0.34476">
        <ele>82.373507085256</ele>
        <time>2021-09-21T13:16:20Z</time>
      </trkpt>
      <trkpt lat="46.55429" lon="0.34473">
        <ele>82.524662092328</ele>
        <time>2021-09-21T13:16:22Z</time>
      </trkpt>
      <trkpt lat="46.55427" lon="0.3447">
        <ele>81.952111102641</ele>
        <time>2021-09-21T13:16:24Z</time>
      </trkpt>
      <trkpt lat="46.55425" lon="0.34467">
        <ele>82.059457147494</ele>
        <time>2021-09-21T13:16:26Z</time>
      </trkpt>
      <trkpt lat="46.55424" lon="0.34464">
        <ele>82.23452605214</ele>
        <time>2021-09-21T13:16:28Z</time>
      </trkpt>
      <trkpt lat="46.55423" lon="0.34462">
        <ele>82.083114090376</ele>
        <time>2021-09-21T13:16:30Z</time>
      </trkpt>
      <trkpt lat="46.55421" lon="0.34459">
        <ele>82.177273165435</ele>
        <time>2021-09-21T13:16:32Z</time>
      </trkpt>
      <trkpt lat="46.55419" lon="0.34456">
        <ele>82.009090944193</ele>
        <time>2021-09-21T13:16:34Z</time>
      </trkpt>
      <trkpt lat="46.55418" lon="0.34454">
        <ele>82.06810963247</ele>
        <time>2021-09-21T13:16:36Z</time>
      </trkpt>
      <trkpt lat="46.55415" lon="0.34451">
        <ele>81.653464400209</ele>
        <time>2021-09-21T13:16:38Z</time>
      </trkpt>
      <trkpt lat="46.55413" lon="0.34449">
        <ele>81.622851986438</ele>
        <time>2021-09-21T13:16:40Z</time>
      </trkpt>
      <trkpt lat="46.55412" lon="0.34446">
        <ele>81.966014282778</ele>
        <time>2021-09-21T13:16:42Z</time>
      </trkpt>
      <trkpt lat="46.5541" lon="0.34445">
        <ele>81.908362510614</ele>
        <time>2021-09-21T13:16:43Z</time>
      </trkpt>
      <trkpt lat="46.55409" lon="0.34442">
        <ele>81.703685432673</ele>
        <time>2021-09-21T13:16:45Z</time>
      </trkpt>
      <trkpt lat="46.55406" lon="0.34439">
        <ele>81.815776668489</ele>
        <time>2021-09-21T13:16:47Z</time>
      </trkpt>
      <trkpt lat="46.55404" lon="0.34437">
        <ele>81.794894374907</ele>
        <time>2021-09-21T13:16:49Z</time>
      </trkpt>
      <trkpt lat="46.55402" lon="0.34435">
        <ele>81.694975258783</ele>
        <time>2021-09-21T13:16:51Z</time>
      </trkpt>
      <trkpt lat="46.55399" lon="0.34434">
        <ele>81.65844592452</ele>
        <time>2021-09-21T13:16:53Z</time>
      </trkpt>
      <trkpt lat="46.55397" lon="0.34434">
        <ele>82.84752292186</ele>
        <time>2021-09-21T13:16:54Z</time>
      </trkpt>
      <trkpt lat="46.55394" lon="0.34434">
        <ele>82.81374811288</ele>
        <time>2021-09-21T13:16:56Z</time>
      </trkpt>
      <trkpt lat="46.55391" lon="0.34433">
        <ele>82.521133114584</ele>
        <time>2021-09-21T13:16:58Z</time>
      </trkpt>
      <trkpt lat="46.55389" lon="0.34432">
        <ele>83.114283626899</ele>
        <time>2021-09-21T13:17:00Z</time>
      </trkpt>
      <trkpt lat="46.55386" lon="0.34431">
        <ele>83.357235942967</ele>
        <time>2021-09-21T13:17:02Z</time>
      </trkpt>
      <trkpt lat="46.55383" lon="0.3443">
        <ele>82.518608179875</ele>
        <time>2021-09-21T13:17:04Z</time>
      </trkpt>
      <trkpt lat="46.55379" lon="0.34431">
        <ele>82.631632583216</ele>
        <time>2021-09-21T13:17:06Z</time>
      </trkpt>
      <trkpt lat="46.55377" lon="0.3443">
        <ele>82.577929953113</ele>
        <time>2021-09-21T13:17:08Z</time>
      </trkpt>
      <trkpt lat="46.55374" lon="0.34429">
        <ele>83.06397750508</ele>
        <time>2021-09-21T13:17:10Z</time>
      </trkpt>
      <trkpt lat="46.55371" lon="0.34427">
        <ele>83.130531318486</ele>
        <time>2021-09-21T13:17:12Z</time>
      </trkpt>
      <trkpt lat="46.55369" lon="0.34426">
        <ele>83.33926145453</ele>
        <time>2021-09-21T13:17:14Z</time>
      </trkpt>
      <trkpt lat="46.55366" lon="0.34426">
        <ele>83.318726042286</ele>
        <time>2021-09-21T13:17:16Z</time>
      </trkpt>
      <trkpt lat="46.55363" lon="0.34426">
        <ele>83.509379415773</ele>
        <time>2021-09-21T13:17:18Z</time>
      </trkpt>
      <trkpt lat="46.5536" lon="0.34426">
        <ele>83.925214894116</ele>
        <time>2021-09-21T13:17:20Z</time>
      </trkpt>
      <trkpt lat="46.55357" lon="0.34427">
        <ele>83.726823040284</ele>
        <time>2021-09-21T13:17:22Z</time>
      </trkpt>
      <trkpt lat="46.55354" lon="0.34426">
        <ele>83.881392953917</ele>
        <time>2021-09-21T13:17:24Z</time>
      </trkpt>
      <trkpt lat="46.55352" lon="0.34426">
        <ele>83.460372369736</ele>
        <time>2021-09-21T13:17:26Z</time>
      </trkpt>
      <trkpt lat="46.5535" lon="0.34426">
        <ele>83.331892778166</ele>
        <time>2021-09-21T13:17:28Z</time>
      </trkpt>
      <trkpt lat="46.55347" lon="0.34427">
        <ele>83.610848968849</ele>
        <time>2021-09-21T13:17:30Z</time>
      </trkpt>
      <trkpt lat="46.55345" lon="0.34426">
        <ele>84.063609607518</ele>
        <time>2021-09-21T13:17:32Z</time>
      </trkpt>
      <trkpt lat="46.55343" lon="0.34426">
        <ele>83.761975427158</ele>
        <time>2021-09-21T13:17:34Z</time>
      </trkpt>
      <trkpt lat="46.5534" lon="0.34427">
        <ele>84.066782794893</ele>
        <time>2021-09-21T13:17:36Z</time>
      </trkpt>
      <trkpt lat="46.55338" lon="0.34427">
        <ele>83.386390173808</ele>
        <time>2021-09-21T13:17:38Z</time>
      </trkpt>
      <trkpt lat="46.55335" lon="0.34427">
        <ele>83.523988761939</ele>
        <time>2021-09-21T13:17:40Z</time>
      </trkpt>
      <trkpt lat="46.55333" lon="0.34427">
        <ele>83.009665230289</ele>
        <time>2021-09-21T13:17:42Z</time>
      </trkpt>
      <trkpt lat="46.55331" lon="0.34428">
        <ele>83.345717091113</ele>
        <time>2021-09-21T13:17:44Z</time>
      </trkpt>
      <trkpt lat="46.55329" lon="0.34427">
        <ele>83.153881113976</ele>
        <time>2021-09-21T13:17:46Z</time>
      </trkpt>
      <trkpt lat="46.55326" lon="0.34427">
        <ele>83.55059203878</ele>
        <time>2021-09-21T13:17:48Z</time>
      </trkpt>
      <trkpt lat="46.55324" lon="0.34428">
        <ele>83.317626472563</ele>
        <time>2021-09-21T13:17:49Z</time>
      </trkpt>
      <trkpt lat="46.55322" lon="0.34428">
        <ele>83.091828187928</ele>
        <time>2021-09-21T13:17:51Z</time>
      </trkpt>
      <trkpt lat="46.5532" lon="0.34428">
        <ele>83.302255086601</ele>
        <time>2021-09-21T13:17:53Z</time>
      </trkpt>
      <trkpt lat="46.55317" lon="0.34428">
        <ele>83.169674785808</ele>
        <time>2021-09-21T13:17:55Z</time>
      </trkpt>
      <trkpt lat="46.55315" lon="0.34428">
        <ele>83.38077638112</ele>
        <time>2021-09-21T13:17:57Z</time>
      </trkpt>
      <trkpt lat="46.55312" lon="0.34428">
        <ele>82.807863484137</ele>
        <time>2021-09-21T13:17:59Z</time>
      </trkpt>
      <trkpt lat="46.55309" lon="0.34429">
        <ele>82.714186460711</ele>
        <time>2021-09-21T13:18:01Z</time>
      </trkpt>
      <trkpt lat="46.55307" lon="0.34429">
        <ele>82.981027247384</ele>
        <time>2021-09-21T13:18:03Z</time>
      </trkpt>
      <trkpt lat="46.55304" lon="0.34429">
        <ele>83.087627473287</ele>
        <time>2021-09-21T13:18:05Z</time>
      </trkpt>
      <trkpt lat="46.55302" lon="0.34428">
        <ele>83.009424049407</ele>
        <time>2021-09-21T13:18:07Z</time>
      </trkpt>
      <trkpt lat="46.553" lon="0.34429">
        <ele>82.739650119096</ele>
        <time>2021-09-21T13:18:09Z</time>
      </trkpt>
      <trkpt lat="46.55297" lon="0.34428">
        <ele>82.667568170466</ele>
        <time>2021-09-21T13:18:11Z</time>
      </trkpt>
      <trkpt lat="46.55294" lon="0.34428">
        <ele>82.522886779159</ele>
        <time>2021-09-21T13:18:13Z</time>
      </trkpt>
      <trkpt lat="46.55292" lon="0.34428">
        <ele>82.05381962657</ele>
        <time>2021-09-21T13:18:15Z</time>
      </trkpt>
      <trkpt lat="46.55289" lon="0.34428">
        <ele>82.3994925078</ele>
        <time>2021-09-21T13:18:17Z</time>
      </trkpt>
      <trkpt lat="46.55287" lon="0.34427">
        <ele>82.22741695866</ele>
        <time>2021-09-21T13:18:19Z</time>
      </trkpt>
      <trkpt lat="46.55285" lon="0.34427">
        <ele>82.260867601261</ele>
        <time>2021-09-21T13:18:21Z</time>
      </trkpt>
      <trkpt lat="46.55282" lon="0.34427">
        <ele>82.885534022935</ele>
        <time>2021-09-21T13:18:23Z</time>
      </trkpt>
      <trkpt lat="46.5528" lon="0.34426">
        <ele>82.319576045498</ele>
        <time>2021-09-21T13:18:25Z</time>
      </trkpt>
      <trkpt lat="46.55277" lon="0.34426">
        <ele>82.41673349496</ele>
        <time>2021-09-21T13:18:27Z</time>
      </trkpt>
      <trkpt lat="46.55274" lon="0.34426">
        <ele>82.302472147159</ele>
        <time>2021-09-21T13:18:29Z</time>
      </trkpt>
      <trkpt lat="46.55272" lon="0.34425">
        <ele>82.162185978144</ele>
        <time>2021-09-21T13:18:30Z</time>
      </trkpt>
      <trkpt lat="46.5527" lon="0.34425">
        <ele>82.009836412966</ele>
        <time>2021-09-21T13:18:32Z</time>
      </trkpt>
      <trkpt lat="46.55268" lon="0.34424">
        <ele>81.903804725967</ele>
        <time>2021-09-21T13:18:33Z</time>
      </trkpt>
      <trkpt lat="46.55266" lon="0.34423">
        <ele>82.035737990402</ele>
        <time>2021-09-21T13:18:35Z</time>
      </trkpt>
      <trkpt lat="46.55264" lon="0.34422">
        <ele>82.142943229526</ele>
        <time>2021-09-21T13:18:37Z</time>
      </trkpt>
      <trkpt lat="46.55262" lon="0.34421">
        <ele>82.428300116211</ele>
        <time>2021-09-21T13:18:39Z</time>
      </trkpt>
      <trkpt lat="46.5526" lon="0.3442">
        <ele>82.377694891766</ele>
        <time>2021-09-21T13:18:41Z</time>
      </trkpt>
      <trkpt lat="46.55258" lon="0.34419">
        <ele>82.358817957342</ele>
        <time>2021-09-21T13:18:43Z</time>
      </trkpt>
      <trkpt lat="46.55254" lon="0.34419">
        <ele>82.466636591591</ele>
        <time>2021-09-21T13:18:45Z</time>
      </trkpt>
      <trkpt lat="46.55251" lon="0.34419">
        <ele>82.554565520957</ele>
        <time>2021-09-21T13:18:47Z</time>
      </trkpt>
      <trkpt lat="46.55248" lon="0.34418">
        <ele>82.28580383677</ele>
        <time>2021-09-21T13:18:49Z</time>
      </trkpt>
      <trkpt lat="46.55247" lon="0.34417">
        <ele>82.399954591878</ele>
        <time>2021-09-21T13:18:51Z</time>
      </trkpt>
      <trkpt lat="46.55244" lon="0.34415">
        <ele>83.173490113579</ele>
        <time>2021-09-21T13:18:53Z</time>
      </trkpt>
      <trkpt lat="46.55242" lon="0.34415">
        <ele>82.770246649161</ele>
        <time>2021-09-21T13:18:55Z</time>
      </trkpt>
      <trkpt lat="46.55239" lon="0.34415">
        <ele>82.914382859133</ele>
        <time>2021-09-21T13:18:57Z</time>
      </trkpt>
      <trkpt lat="46.55236" lon="0.34414">
        <ele>82.257604656741</ele>
        <time>2021-09-21T13:18:59Z</time>
      </trkpt>
      <trkpt lat="46.55234" lon="0.34413">
        <ele>81.987692594528</ele>
        <time>2021-09-21T13:19:01Z</time>
      </trkpt>
      <trkpt lat="46.55231" lon="0.34412">
        <ele>82.241369804367</ele>
        <time>2021-09-21T13:19:04Z</time>
      </trkpt>
      <trkpt lat="46.55229" lon="0.34412">
        <ele>82.27151111234</ele>
        <time>2021-09-21T13:19:06Z</time>
      </trkpt>
      <trkpt lat="46.55227" lon="0.34411">
        <ele>82.641179583967</ele>
        <time>2021-09-21T13:19:08Z</time>
      </trkpt>
      <trkpt lat="46.55224" lon="0.3441">
        <ele>82.288179741241</ele>
        <time>2021-09-21T13:19:10Z</time>
      </trkpt>
      <trkpt lat="46.55221" lon="0.3441">
        <ele>82.734469356015</ele>
        <time>2021-09-21T13:19:12Z</time>
      </trkpt>
      <trkpt lat="46.55219" lon="0.3441">
        <ele>82.310353134759</ele>
        <time>2021-09-21T13:19:14Z</time>
      </trkpt>
      <trkpt lat="46.55216" lon="0.34409">
        <ele>82.258785163052</ele>
        <time>2021-09-21T13:19:16Z</time>
      </trkpt>
      <trkpt lat="46.55214" lon="0.34409">
        <ele>81.930465544574</ele>
        <time>2021-09-21T13:19:18Z</time>
      </trkpt>
      <trkpt lat="46.55211" lon="0.34408">
        <ele>81.833882105537</ele>
        <time>2021-09-21T13:19:20Z</time>
      </trkpt>
      <trkpt lat="46.55208" lon="0.34406">
        <ele>81.740128962323</ele>
        <time>2021-09-21T13:19:22Z</time>
      </trkpt>
      <trkpt lat="46.55206" lon="0.34406">
        <ele>81.726046857424</ele>
        <time>2021-09-21T13:19:25Z</time>
      </trkpt>
      <trkpt lat="46.55204" lon="0.34405">
        <ele>82.133592736907</ele>
        <time>2021-09-21T13:19:27Z</time>
      </trkpt>
      <trkpt lat="46.55201" lon="0.34404">
        <ele>82.147445250303</ele>
        <time>2021-09-21T13:19:29Z</time>
      </trkpt>
      <trkpt lat="46.55199" lon="0.34402">
        <ele>81.716449115425</ele>
        <time>2021-09-21T13:19:31Z</time>
      </trkpt>
      <trkpt lat="46.55197" lon="0.34401">
        <ele>82.32649618946</ele>
        <time>2021-09-21T13:19:33Z</time>
      </trkpt>
      <trkpt lat="46.55195" lon="0.344">
        <ele>81.975968033075</ele>
        <time>2021-09-21T13:19:35Z</time>
      </trkpt>
      <trkpt lat="46.55192" lon="0.34399">
        <ele>82.507311906666</ele>
        <time>2021-09-21T13:19:37Z</time>
      </trkpt>
      <trkpt lat="46.55189" lon="0.34397">
        <ele>82.29776381515</ele>
        <time>2021-09-21T13:19:39Z</time>
      </trkpt>
      <trkpt lat="46.55186" lon="0.34396">
        <ele>82.375243290327</ele>
        <time>2021-09-21T13:19:41Z</time>
      </trkpt>
      <trkpt lat="46.55184" lon="0.34396">
        <ele>82.518108081073</ele>
        <time>2021-09-21T13:19:43Z</time>
      </trkpt>
      <trkpt lat="46.55182" lon="0.34394">
        <ele>82.702104804106</ele>
        <time>2021-09-21T13:19:45Z</time>
      </trkpt>
      <trkpt lat="46.55179" lon="0.34394">
        <ele>82.870773090981</ele>
        <time>2021-09-21T13:19:47Z</time>
      </trkpt>
      <trkpt lat="46.55176" lon="0.34393">
        <ele>82.298295476474</ele>
        <time>2021-09-21T13:19:48Z</time>
      </trkpt>
      <trkpt lat="46.55173" lon="0.34391">
        <ele>82.17782640364</ele>
        <time>2021-09-21T13:19:51Z</time>
      </trkpt>
      <trkpt lat="46.55171" lon="0.3439">
        <ele>82.413335028104</ele>
        <time>2021-09-21T13:19:53Z</time>
      </trkpt>
      <trkpt lat="46.55168" lon="0.3439">
        <ele>82.151958552189</ele>
        <time>2021-09-21T13:19:55Z</time>
      </trkpt>
      <trkpt lat="46.55165" lon="0.34389">
        <ele>81.512499680743</ele>
        <time>2021-09-21T13:19:58Z</time>
      </trkpt>
      <trkpt lat="46.55163" lon="0.34388">
        <ele>82.080502103083</ele>
        <time>2021-09-21T13:19:59Z</time>
      </trkpt>
      <trkpt lat="46.5516" lon="0.34387">
        <ele>81.428748756647</ele>
        <time>2021-09-21T13:20:02Z</time>
      </trkpt>
      <trkpt lat="46.55157" lon="0.34386">
        <ele>81.681174932048</ele>
        <time>2021-09-21T13:20:04Z</time>
      </trkpt>
      <trkpt lat="46.55156" lon="0.34384">
        <ele>81.615861305967</ele>
        <time>2021-09-21T13:20:06Z</time>
      </trkpt>
      <trkpt lat="46.55152" lon="0.34383">
        <ele>81.764983104542</ele>
        <time>2021-09-21T13:20:08Z</time>
      </trkpt>
      <trkpt lat="46.5515" lon="0.34381">
        <ele>81.776733055711</ele>
        <time>2021-09-21T13:20:10Z</time>
      </trkpt>
      <trkpt lat="46.55148" lon="0.3438">
        <ele>81.8298558034</ele>
        <time>2021-09-21T13:20:12Z</time>
      </trkpt>
      <trkpt lat="46.55146" lon="0.34379">
        <ele>82.08211485669</ele>
        <time>2021-09-21T13:20:14Z</time>
      </trkpt>
      <trkpt lat="46.55143" lon="0.34378">
        <ele>81.725999904796</ele>
        <time>2021-09-21T13:20:16Z</time>
      </trkpt>
      <trkpt lat="46.5514" lon="0.34377">
        <ele>81.736357332207</ele>
        <time>2021-09-21T13:20:18Z</time>
      </trkpt>
      <trkpt lat="46.55138" lon="0.34376">
        <ele>81.731361281127</ele>
        <time>2021-09-21T13:20:20Z</time>
      </trkpt>
      <trkpt lat="46.55136" lon="0.34375">
        <ele>81.695097977296</ele>
        <time>2021-09-21T13:20:22Z</time>
      </trkpt>
      <trkpt lat="46.55133" lon="0.34374">
        <ele>81.442683892325</ele>
        <time>2021-09-21T13:20:24Z</time>
      </trkpt>
      <trkpt lat="46.55131" lon="0.34374">
        <ele>81.186577132903</ele>
        <time>2021-09-21T13:20:25Z</time>
      </trkpt>
      <trkpt lat="46.55129" lon="0.34374">
        <ele>81.26215290837</ele>
        <time>2021-09-21T13:20:27Z</time>
      </trkpt>
      <trkpt lat="46.55127" lon="0.34373">
        <ele>81.335516518913</ele>
        <time>2021-09-21T13:20:29Z</time>
      </trkpt>
      <trkpt lat="46.55123" lon="0.34373">
        <ele>81.277670389041</ele>
        <time>2021-09-21T13:20:31Z</time>
      </trkpt>
      <trkpt lat="46.55121" lon="0.34372">
        <ele>81.217084807344</ele>
        <time>2021-09-21T13:20:33Z</time>
      </trkpt>
      <trkpt lat="46.55119" lon="0.34371">
        <ele>80.831335158087</ele>
        <time>2021-09-21T13:20:35Z</time>
      </trkpt>
      <trkpt lat="46.55117" lon="0.34371">
        <ele>80.959604680538</ele>
        <time>2021-09-21T13:20:37Z</time>
      </trkpt>
      <trkpt lat="46.55115" lon="0.34369">
        <ele>80.920022717677</ele>
        <time>2021-09-21T13:20:39Z</time>
      </trkpt>
      <trkpt lat="46.55112" lon="0.34368">
        <ele>80.619963851757</ele>
        <time>2021-09-21T13:20:41Z</time>
      </trkpt>
      <trkpt lat="46.5511" lon="0.34368">
        <ele>80.660016811453</ele>
        <time>2021-09-21T13:20:43Z</time>
      </trkpt>
      <trkpt lat="46.55108" lon="0.34367">
        <ele>80.531035939232</ele>
        <time>2021-09-21T13:20:45Z</time>
      </trkpt>
      <trkpt lat="46.55107" lon="0.34365">
        <ele>80.49380225502</ele>
        <time>2021-09-21T13:20:47Z</time>
      </trkpt>
      <trkpt lat="46.55105" lon="0.34364">
        <ele>80.348643617705</ele>
        <time>2021-09-21T13:20:49Z</time>
      </trkpt>
      <trkpt lat="46.55103" lon="0.34362">
        <ele>80.347845735028</ele>
        <time>2021-09-21T13:20:52Z</time>
      </trkpt>
      <trkpt lat="46.55102" lon="0.34358">
        <ele>80.69618609827</ele>
        <time>2021-09-21T13:20:58Z</time>
      </trkpt>
      <trkpt lat="46.551" lon="0.34357">
        <ele>80.898659959435</ele>
        <time>2021-09-21T13:21:01Z</time>
      </trkpt>
      <trkpt lat="46.55099" lon="0.34355">
        <ele>80.801457282156</ele>
        <time>2021-09-21T13:21:04Z</time>
      </trkpt>
      <trkpt lat="46.55096" lon="0.34354">
        <ele>80.923562529497</ele>
        <time>2021-09-21T13:21:06Z</time>
      </trkpt>
      <trkpt lat="46.55094" lon="0.34353">
        <ele>80.725601088256</ele>
        <time>2021-09-21T13:21:08Z</time>
      </trkpt>
      <trkpt lat="46.55092" lon="0.34352">
        <ele>81.010134178214</ele>
        <time>2021-09-21T13:21:10Z</time>
      </trkpt>
      <trkpt lat="46.5509" lon="0.34351">
        <ele>81.029052537866</ele>
        <time>2021-09-21T13:21:12Z</time>
      </trkpt>
      <trkpt lat="46.55087" lon="0.3435">
        <ele>80.861233438365</ele>
        <time>2021-09-21T13:21:14Z</time>
      </trkpt>
      <trkpt lat="46.55085" lon="0.34347">
        <ele>80.831229679286</ele>
        <time>2021-09-21T13:21:16Z</time>
      </trkpt>
      <trkpt lat="46.55082" lon="0.34346">
        <ele>80.852758949623</ele>
        <time>2021-09-21T13:21:18Z</time>
      </trkpt>
      <trkpt lat="46.55079" lon="0.34344">
        <ele>80.487572014332</ele>
        <time>2021-09-21T13:21:20Z</time>
      </trkpt>
      <trkpt lat="46.55077" lon="0.34344">
        <ele>80.399801744148</ele>
        <time>2021-09-21T13:21:22Z</time>
      </trkpt>
      <trkpt lat="46.55074" lon="0.34342">
        <ele>80.439395211637</ele>
        <time>2021-09-21T13:21:24Z</time>
      </trkpt>
      <trkpt lat="46.55072" lon="0.34341">
        <ele>80.148118747398</ele>
        <time>2021-09-21T13:21:26Z</time>
      </trkpt>
      <trkpt lat="46.55069" lon="0.3434">
        <ele>80.173398073763</ele>
        <time>2021-09-21T13:21:28Z</time>
      </trkpt>
      <trkpt lat="46.55067" lon="0.3434">
        <ele>80.03150862176</ele>
        <time>2021-09-21T13:21:30Z</time>
      </trkpt>
      <trkpt lat="46.55064" lon="0.3434">
        <ele>80.316517102532</ele>
        <time>2021-09-21T13:21:32Z</time>
      </trkpt>
      <trkpt lat="46.55061" lon="0.34339">
        <ele>79.882147441618</ele>
        <time>2021-09-21T13:21:34Z</time>
      </trkpt>
      <trkpt lat="46.55059" lon="0.34338">
        <ele>79.971229886636</ele>
        <time>2021-09-21T13:21:36Z</time>
      </trkpt>
      <trkpt lat="46.55057" lon="0.34338">
        <ele>79.78942338936</ele>
        <time>2021-09-21T13:21:38Z</time>
      </trkpt>
      <trkpt lat="46.55054" lon="0.34337">
        <ele>79.83252070751</ele>
        <time>2021-09-21T13:21:40Z</time>
      </trkpt>
      <trkpt lat="46.55052" lon="0.34337">
        <ele>79.64092775993</ele>
        <time>2021-09-21T13:21:42Z</time>
      </trkpt>
      <trkpt lat="46.55051" lon="0.34339">
        <ele>79.449429345317</ele>
        <time>2021-09-21T13:21:44Z</time>
      </trkpt>
      <trkpt lat="46.55052" lon="0.34342">
        <ele>78.780312250368</ele>
        <time>2021-09-21T13:21:46Z</time>
      </trkpt>
      <trkpt lat="46.55053" lon="0.34344">
        <ele>78.891888073646</ele>
        <time>2021-09-21T13:21:48Z</time>
      </trkpt>
      <trkpt lat="46.55052" lon="0.34347">
        <ele>78.537418686785</ele>
        <time>2021-09-21T13:21:50Z</time>
      </trkpt>
      <trkpt lat="46.55053" lon="0.34349">
        <ele>78.436364473775</ele>
        <time>2021-09-21T13:21:53Z</time>
      </trkpt>
      <trkpt lat="46.55052" lon="0.34352">
        <ele>78.620290245861</ele>
        <time>2021-09-21T13:21:57Z</time>
      </trkpt>
      <trkpt lat="46.55051" lon="0.34355">
        <ele>78.153622711077</ele>
        <time>2021-09-21T13:22:18Z</time>
      </trkpt>
      <trkpt lat="46.55051" lon="0.34358">
        <ele>77.92455974035</ele>
        <time>2021-09-21T13:22:21Z</time>
      </trkpt>
      <trkpt lat="46.55051" lon="0.34361">
        <ele>77.768154052086</ele>
        <time>2021-09-21T13:22:28Z</time>
      </trkpt>
      <trkpt lat="46.5505" lon="0.34363">
        <ele>77.741147340275</ele>
        <time>2021-09-21T13:22:29Z</time>
      </trkpt>
      <trkpt lat="46.55049" lon="0.34367">
        <ele>78.06715316698</ele>
        <time>2021-09-21T13:22:31Z</time>
      </trkpt>
      <trkpt lat="46.55046" lon="0.34369">
        <ele>78.005639948882</ele>
        <time>2021-09-21T13:22:33Z</time>
      </trkpt>
      <trkpt lat="46.55045" lon="0.34372">
        <ele>78.065627896227</ele>
        <time>2021-09-21T13:22:34Z</time>
      </trkpt>
      <trkpt lat="46.55044" lon="0.34375">
        <ele>77.97150382027</ele>
        <time>2021-09-21T13:22:36Z</time>
      </trkpt>
      <trkpt lat="46.55044" lon="0.34377">
        <ele>77.991829556413</ele>
        <time>2021-09-21T13:22:37Z</time>
      </trkpt>
      <trkpt lat="46.55043" lon="0.34382">
        <ele>77.808209599927</ele>
        <time>2021-09-21T13:22:39Z</time>
      </trkpt>
      <trkpt lat="46.55045" lon="0.34385">
        <ele>78.005476777442</ele>
        <time>2021-09-21T13:22:40Z</time>
      </trkpt>
      <trkpt lat="46.55046" lon="0.34386">
        <ele>77.909285124391</ele>
        <time>2021-09-21T13:22:41Z</time>
      </trkpt>
      <trkpt lat="46.55048" lon="0.34387">
        <ele>78.02094956208</ele>
        <time>2021-09-21T13:22:42Z</time>
      </trkpt>
      <trkpt lat="46.55051" lon="0.34389">
        <ele>77.652162102982</ele>
        <time>2021-09-21T13:22:44Z</time>
      </trkpt>
      <trkpt lat="46.55053" lon="0.34389">
        <ele>78.277302371338</ele>
        <time>2021-09-21T13:22:48Z</time>
      </trkpt>
      <trkpt lat="46.55054" lon="0.3439">
        <ele>78.060615795664</ele>
        <time>2021-09-21T13:22:49Z</time>
      </trkpt>
      <trkpt lat="46.55057" lon="0.34391">
        <ele>78.03292467352</ele>
        <time>2021-09-21T13:22:50Z</time>
      </trkpt>
      <trkpt lat="46.55059" lon="0.34394">
        <ele>77.770771270618</ele>
        <time>2021-09-21T13:22:52Z</time>
      </trkpt>
      <trkpt lat="46.55058" lon="0.34398">
        <ele>78.097114976496</ele>
        <time>2021-09-21T13:22:54Z</time>
      </trkpt>
      <trkpt lat="46.55058" lon="0.34401">
        <ele>77.919845139608</ele>
        <time>2021-09-21T13:22:56Z</time>
      </trkpt>
      <trkpt lat="46.55059" lon="0.34405">
        <ele>78.013758956455</ele>
        <time>2021-09-21T13:22:58Z</time>
      </trkpt>
      <trkpt lat="46.55059" lon="0.34408">
        <ele>77.788615061902</ele>
        <time>2021-09-21T13:23:01Z</time>
      </trkpt>
      <trkpt lat="46.55059" lon="0.34413">
        <ele>77.978437678888</ele>
        <time>2021-09-21T13:23:03Z</time>
      </trkpt>
      <trkpt lat="46.55059" lon="0.34416">
        <ele>77.716460635886</ele>
        <time>2021-09-21T13:23:05Z</time>
      </trkpt>
      <trkpt lat="46.55058" lon="0.3442">
        <ele>77.752978230827</ele>
        <time>2021-09-21T13:23:07Z</time>
      </trkpt>
      <trkpt lat="46.55058" lon="0.34423">
        <ele>77.981654604897</ele>
        <time>2021-09-21T13:23:09Z</time>
      </trkpt>
      <trkpt lat="46.55056" lon="0.34426">
        <ele>78.459781941026</ele>
        <time>2021-09-21T13:23:11Z</time>
      </trkpt>
      <trkpt lat="46.55056" lon="0.34429">
        <ele>78.924357160926</ele>
        <time>2021-09-21T13:23:13Z</time>
      </trkpt>
      <trkpt lat="46.55055" lon="0.34432">
        <ele>79.267415949143</ele>
        <time>2021-09-21T13:23:15Z</time>
      </trkpt>
      <trkpt lat="46.55053" lon="0.34434">
        <ele>79.719722860493</ele>
        <time>2021-09-21T13:23:17Z</time>
      </trkpt>
      <trkpt lat="46.55051" lon="0.34437">
        <ele>80.235772577114</ele>
        <time>2021-09-21T13:23:19Z</time>
      </trkpt>
      <trkpt lat="46.55049" lon="0.34438">
        <ele>81.28932542447</ele>
        <time>2021-09-21T13:23:22Z</time>
      </trkpt>
      <trkpt lat="46.55047" lon="0.34438">
        <ele>81.501745293848</ele>
        <time>2021-09-21T13:23:24Z</time>
      </trkpt>
      <trkpt lat="46.55045" lon="0.3444">
        <ele>82.48867979832</ele>
        <time>2021-09-21T13:23:27Z</time>
      </trkpt>
      <trkpt lat="46.55042" lon="0.3444">
        <ele>82.553991556168</ele>
        <time>2021-09-21T13:23:28Z</time>
      </trkpt>
      <trkpt lat="46.5504" lon="0.3444">
        <ele>83.162217678502</ele>
        <time>2021-09-21T13:23:31Z</time>
      </trkpt>
      <trkpt lat="46.55037" lon="0.3444">
        <ele>83.683055977337</ele>
        <time>2021-09-21T13:23:34Z</time>
      </trkpt>
      <trkpt lat="46.55035" lon="0.34441">
        <ele>83.709834209643</ele>
        <time>2021-09-21T13:23:36Z</time>
      </trkpt>
      <trkpt lat="46.55033" lon="0.34443">
        <ele>83.587754394859</ele>
        <time>2021-09-21T13:23:39Z</time>
      </trkpt>
      <trkpt lat="46.5503" lon="0.34442">
        <ele>83.861847231165</ele>
        <time>2021-09-21T13:23:41Z</time>
      </trkpt>
      <trkpt lat="46.55029" lon="0.34443">
        <ele>84.102931249887</ele>
        <time>2021-09-21T13:23:43Z</time>
      </trkpt>
      <trkpt lat="46.55027" lon="0.34443">
        <ele>84.724782485515</ele>
        <time>2021-09-21T13:23:45Z</time>
      </trkpt>
      <trkpt lat="46.55025" lon="0.34445">
        <ele>84.60359003488</ele>
        <time>2021-09-21T13:23:47Z</time>
      </trkpt>
      <trkpt lat="46.55023" lon="0.34445">
        <ele>85.388809540309</ele>
        <time>2021-09-21T13:23:50Z</time>
      </trkpt>
      <trkpt lat="46.5502" lon="0.34446">
        <ele>86.486338416114</ele>
        <time>2021-09-21T13:23:53Z</time>
      </trkpt>
      <trkpt lat="46.55017" lon="0.34446">
        <ele>86.477723528631</ele>
        <time>2021-09-21T13:23:56Z</time>
      </trkpt>
      <trkpt lat="46.55015" lon="0.34447">
        <ele>86.829105546698</ele>
        <time>2021-09-21T13:23:59Z</time>
      </trkpt>
      <trkpt lat="46.55012" lon="0.34447">
        <ele>87.014502200298</ele>
        <time>2021-09-21T13:24:01Z</time>
      </trkpt>
      <trkpt lat="46.5501" lon="0.34448">
        <ele>87.495275981724</ele>
        <time>2021-09-21T13:24:03Z</time>
      </trkpt>
      <trkpt lat="46.55012" lon="0.3445">
        <ele>88.298338086344</ele>
        <time>2021-09-21T13:24:08Z</time>
      </trkpt>
      <trkpt lat="46.55014" lon="0.34452">
        <ele>88.798541642725</ele>
        <time>2021-09-21T13:24:12Z</time>
      </trkpt>
      <trkpt lat="46.55016" lon="0.34454">
        <ele>88.835586264729</ele>
        <time>2021-09-21T13:24:14Z</time>
      </trkpt>
      <trkpt lat="46.55017" lon="0.34457">
        <ele>89.201550723985</ele>
        <time>2021-09-21T13:24:17Z</time>
      </trkpt>
      <trkpt lat="46.5502" lon="0.34459">
        <ele>89.468654468656</ele>
        <time>2021-09-21T13:24:19Z</time>
      </trkpt>
      <trkpt lat="46.5502" lon="0.34463">
        <ele>89.516940630972</ele>
        <time>2021-09-21T13:24:22Z</time>
      </trkpt>
      <trkpt lat="46.55022" lon="0.34465">
        <ele>89.91448866576</ele>
        <time>2021-09-21T13:24:25Z</time>
      </trkpt>
      <trkpt lat="46.55024" lon="0.34467">
        <ele>90.2323168125</ele>
        <time>2021-09-21T13:24:29Z</time>
      </trkpt>
      <trkpt lat="46.55025" lon="0.34469">
        <ele>90.304153086618</ele>
        <time>2021-09-21T13:24:31Z</time>
      </trkpt>
      <trkpt lat="46.55027" lon="0.3447">
        <ele>90.288983927108</ele>
        <time>2021-09-21T13:24:33Z</time>
      </trkpt>
      <trkpt lat="46.55029" lon="0.34472">
        <ele>90.386302886531</ele>
        <time>2021-09-21T13:24:35Z</time>
      </trkpt>
      <trkpt lat="46.55031" lon="0.34474">
        <ele>90.665206450038</ele>
        <time>2021-09-21T13:24:38Z</time>
      </trkpt>
      <trkpt lat="46.55032" lon="0.34476">
        <ele>91.056588077918</ele>
        <time>2021-09-21T13:24:40Z</time>
      </trkpt>
      <trkpt lat="46.55035" lon="0.34478">
        <ele>91.118889725767</ele>
        <time>2021-09-21T13:24:42Z</time>
      </trkpt>
      <trkpt lat="46.55037" lon="0.34479">
        <ele>91.33337567281</ele>
        <time>2021-09-21T13:24:45Z</time>
      </trkpt>
      <trkpt lat="46.5504" lon="0.34483">
        <ele>91.463977835141</ele>
        <time>2021-09-21T13:24:47Z</time>
      </trkpt>
      <trkpt lat="46.55041" lon="0.34486">
        <ele>91.770798475482</ele>
        <time>2021-09-21T13:24:49Z</time>
      </trkpt>
      <trkpt lat="46.55043" lon="0.34488">
        <ele>91.986076747999</ele>
        <time>2021-09-21T13:24:51Z</time>
      </trkpt>
      <trkpt lat="46.55044" lon="0.34491">
        <ele>92.424533434212</ele>
        <time>2021-09-21T13:24:53Z</time>
      </trkpt>
      <trkpt lat="46.55046" lon="0.34493">
        <ele>93.277023451403</ele>
        <time>2021-09-21T13:24:55Z</time>
      </trkpt>
      <trkpt lat="46.55047" lon="0.34495">
        <ele>93.358134075999</ele>
        <time>2021-09-21T13:24:57Z</time>
      </trkpt>
      <trkpt lat="46.55049" lon="0.34497">
        <ele>94.283226514235</ele>
        <time>2021-09-21T13:25:00Z</time>
      </trkpt>
      <trkpt lat="46.55051" lon="0.34498">
        <ele>94.33798693493</ele>
        <time>2021-09-21T13:25:03Z</time>
      </trkpt>
      <trkpt lat="46.55054" lon="0.345">
        <ele>94.248359095305</ele>
        <time>2021-09-21T13:25:06Z</time>
      </trkpt>
      <trkpt lat="46.55056" lon="0.34501">
        <ele>94.296606579795</ele>
        <time>2021-09-21T13:25:08Z</time>
      </trkpt>
      <trkpt lat="46.55058" lon="0.34504">
        <ele>94.336101754569</ele>
        <time>2021-09-21T13:25:11Z</time>
      </trkpt>
      <trkpt lat="46.5506" lon="0.34507">
        <ele>94.803994243965</ele>
        <time>2021-09-21T13:25:13Z</time>
      </trkpt>
      <trkpt lat="46.55061" lon="0.34508">
        <ele>95.596834502183</ele>
        <time>2021-09-21T13:25:15Z</time>
      </trkpt>
      <trkpt lat="46.55063" lon="0.34509">
        <ele>95.149211377837</ele>
        <time>2021-09-21T13:25:16Z</time>
      </trkpt>
      <trkpt lat="46.55065" lon="0.34512">
        <ele>95.858743270859</ele>
        <time>2021-09-21T13:25:19Z</time>
      </trkpt>
      <trkpt lat="46.55066" lon="0.34514">
        <ele>95.938933351077</ele>
        <time>2021-09-21T13:25:21Z</time>
      </trkpt>
      <trkpt lat="46.55067" lon="0.34517">
        <ele>96.122647453099</ele>
        <time>2021-09-21T13:25:24Z</time>
      </trkpt>
      <trkpt lat="46.55069" lon="0.34518">
        <ele>96.863473854028</ele>
        <time>2021-09-21T13:25:26Z</time>
      </trkpt>
      <trkpt lat="46.55071" lon="0.3452">
        <ele>96.671249662526</ele>
        <time>2021-09-21T13:25:29Z</time>
      </trkpt>
      <trkpt lat="46.55073" lon="0.34521">
        <ele>97.647908676416</ele>
        <time>2021-09-21T13:25:31Z</time>
      </trkpt>
      <trkpt lat="46.55075" lon="0.34523">
        <ele>97.228501173668</ele>
        <time>2021-09-21T13:25:34Z</time>
      </trkpt>
      <trkpt lat="46.55078" lon="0.34525">
        <ele>97.773649149574</ele>
        <time>2021-09-21T13:25:37Z</time>
      </trkpt>
      <trkpt lat="46.55079" lon="0.34527">
        <ele>98.038101430982</ele>
        <time>2021-09-21T13:25:39Z</time>
      </trkpt>
      <trkpt lat="46.5508" lon="0.34529">
        <ele>98.205929991789</ele>
        <time>2021-09-21T13:25:41Z</time>
      </trkpt>
      <trkpt lat="46.55082" lon="0.3453">
        <ele>98.823157983832</ele>
        <time>2021-09-21T13:25:44Z</time>
      </trkpt>
      <trkpt lat="46.55084" lon="0.34533">
        <ele>98.932166320272</ele>
        <time>2021-09-21T13:25:46Z</time>
      </trkpt>
      <trkpt lat="46.55085" lon="0.34535">
        <ele>99.230281296186</ele>
        <time>2021-09-21T13:25:48Z</time>
      </trkpt>
      <trkpt lat="46.55087" lon="0.34537">
        <ele>99.837458913215</ele>
        <time>2021-09-21T13:25:51Z</time>
      </trkpt>
      <trkpt lat="46.55089" lon="0.34538">
        <ele>99.449616824277</ele>
        <time>2021-09-21T13:25:53Z</time>
      </trkpt>
      <trkpt lat="46.5509" lon="0.34542">
        <ele>99.905379512347</ele>
        <time>2021-09-21T13:25:55Z</time>
      </trkpt>
      <trkpt lat="46.55093" lon="0.34544">
        <ele>99.797613956034</ele>
        <time>2021-09-21T13:25:57Z</time>
      </trkpt>
      <trkpt lat="46.55095" lon="0.34546">
        <ele>100.25848620199</ele>
        <time>2021-09-21T13:26:00Z</time>
      </trkpt>
      <trkpt lat="46.55097" lon="0.34548">
        <ele>100.58228914719</ele>
        <time>2021-09-21T13:26:02Z</time>
      </trkpt>
      <trkpt lat="46.55099" lon="0.3455">
        <ele>100.92550767493</ele>
        <time>2021-09-21T13:26:05Z</time>
      </trkpt>
      <trkpt lat="46.55101" lon="0.34553">
        <ele>100.79777091462</ele>
        <time>2021-09-21T13:26:08Z</time>
      </trkpt>
      <trkpt lat="46.55103" lon="0.34555">
        <ele>101.15051957127</ele>
        <time>2021-09-21T13:26:10Z</time>
      </trkpt>
      <trkpt lat="46.55104" lon="0.34557">
        <ele>101.65206051338</ele>
        <time>2021-09-21T13:26:13Z</time>
      </trkpt>
      <trkpt lat="46.55106" lon="0.34559">
        <ele>102.29818907287</ele>
        <time>2021-09-21T13:26:15Z</time>
      </trkpt>
      <trkpt lat="46.55108" lon="0.34562">
        <ele>102.24301667139</ele>
        <time>2021-09-21T13:26:19Z</time>
      </trkpt>
      <trkpt lat="46.5511" lon="0.34563">
        <ele>103.32075790502</ele>
        <time>2021-09-21T13:26:23Z</time>
      </trkpt>
      <trkpt lat="46.55111" lon="0.34566">
        <ele>102.86570854206</ele>
        <time>2021-09-21T13:26:25Z</time>
      </trkpt>
      <trkpt lat="46.55112" lon="0.34568">
        <ele>103.23881452531</ele>
        <time>2021-09-21T13:26:27Z</time>
      </trkpt>
      <trkpt lat="46.55114" lon="0.34572">
        <ele>103.36877751909</ele>
        <time>2021-09-21T13:26:29Z</time>
      </trkpt>
      <trkpt lat="46.55116" lon="0.34573">
        <ele>104.03151520528</ele>
        <time>2021-09-21T13:26:31Z</time>
      </trkpt>
      <trkpt lat="46.55119" lon="0.34575">
        <ele>104.36752067786</ele>
        <time>2021-09-21T13:26:33Z</time>
      </trkpt>
      <trkpt lat="46.55119" lon="0.34578">
        <ele>104.8167359028</ele>
        <time>2021-09-21T13:26:35Z</time>
      </trkpt>
      <trkpt lat="46.55121" lon="0.3458">
        <ele>105.14875782654</ele>
        <time>2021-09-21T13:26:38Z</time>
      </trkpt>
      <trkpt lat="46.55122" lon="0.34582">
        <ele>105.29638298228</ele>
        <time>2021-09-21T13:26:42Z</time>
      </trkpt>
      <trkpt lat="46.55124" lon="0.34584">
        <ele>106.1973829139</ele>
        <time>2021-09-21T13:26:45Z</time>
      </trkpt>
      <trkpt lat="46.55124" lon="0.34587">
        <ele>106.36985548399</ele>
        <time>2021-09-21T13:26:46Z</time>
      </trkpt>
      <trkpt lat="46.55125" lon="0.3459">
        <ele>106.61819940247</ele>
        <time>2021-09-21T13:26:48Z</time>
      </trkpt>
      <trkpt lat="46.55125" lon="0.34594">
        <ele>107.32748237625</ele>
        <time>2021-09-21T13:26:51Z</time>
      </trkpt>
      <trkpt lat="46.55126" lon="0.34598">
        <ele>107.58138052281</ele>
        <time>2021-09-21T13:26:54Z</time>
      </trkpt>
      <trkpt lat="46.55125" lon="0.34602">
        <ele>107.86832373124</ele>
        <time>2021-09-21T13:26:56Z</time>
      </trkpt>
      <trkpt lat="46.55123" lon="0.34605">
        <ele>108.39963972941</ele>
        <time>2021-09-21T13:27:00Z</time>
      </trkpt>
      <trkpt lat="46.55123" lon="0.34608">
        <ele>108.70295765251</ele>
        <time>2021-09-21T13:27:03Z</time>
      </trkpt>
      <trkpt lat="46.55121" lon="0.3461">
        <ele>109.01731433906</ele>
        <time>2021-09-21T13:27:05Z</time>
      </trkpt>
      <trkpt lat="46.55119" lon="0.34612">
        <ele>108.9627451729</ele>
        <time>2021-09-21T13:27:08Z</time>
      </trkpt>
      <trkpt lat="46.55117" lon="0.34616">
        <ele>109.44100653194</ele>
        <time>2021-09-21T13:27:12Z</time>
      </trkpt>
      <trkpt lat="46.55116" lon="0.34619">
        <ele>109.51342762914</ele>
        <time>2021-09-21T13:27:14Z</time>
      </trkpt>
      <trkpt lat="46.55114" lon="0.34621">
        <ele>109.42861601152</ele>
        <time>2021-09-21T13:27:16Z</time>
      </trkpt>
      <trkpt lat="46.55112" lon="0.34624">
        <ele>109.54368456546</ele>
        <time>2021-09-21T13:27:18Z</time>
      </trkpt>
      <trkpt lat="46.5511" lon="0.34627">
        <ele>110.33491803985</ele>
        <time>2021-09-21T13:27:22Z</time>
      </trkpt>
      <trkpt lat="46.55108" lon="0.3463">
        <ele>110.78085404914</ele>
        <time>2021-09-21T13:27:25Z</time>
      </trkpt>
      <trkpt lat="46.55107" lon="0.34632">
        <ele>110.57289814483</ele>
        <time>2021-09-21T13:27:27Z</time>
      </trkpt>
      <trkpt lat="46.55105" lon="0.34633">
        <ele>110.928966254</ele>
        <time>2021-09-21T13:27:29Z</time>
      </trkpt>
      <trkpt lat="46.55103" lon="0.34636">
        <ele>111.219924598</ele>
        <time>2021-09-21T13:27:32Z</time>
      </trkpt>
      <trkpt lat="46.55101" lon="0.34638">
        <ele>111.64925059676</ele>
        <time>2021-09-21T13:27:34Z</time>
      </trkpt>
      <trkpt lat="46.55099" lon="0.3464">
        <ele>111.9932301566</ele>
        <time>2021-09-21T13:27:36Z</time>
      </trkpt>
      <trkpt lat="46.55098" lon="0.34643">
        <ele>112.14238133002</ele>
        <time>2021-09-21T13:27:38Z</time>
      </trkpt>
      <trkpt lat="46.55096" lon="0.34645">
        <ele>112.08286686335</ele>
        <time>2021-09-21T13:27:40Z</time>
      </trkpt>
      <trkpt lat="46.55094" lon="0.34647">
        <ele>112.66706875712</ele>
        <time>2021-09-21T13:27:42Z</time>
      </trkpt>
      <trkpt lat="46.55091" lon="0.34649">
        <ele>112.73871861678</ele>
        <time>2021-09-21T13:27:46Z</time>
      </trkpt>
      <trkpt lat="46.55089" lon="0.34652">
        <ele>113.38941540848</ele>
        <time>2021-09-21T13:27:48Z</time>
      </trkpt>
      <trkpt lat="46.55087" lon="0.34654">
        <ele>113.37166331895</ele>
        <time>2021-09-21T13:27:51Z</time>
      </trkpt>
      <trkpt lat="46.55084" lon="0.34656">
        <ele>113.88117444329</ele>
        <time>2021-09-21T13:27:54Z</time>
      </trkpt>
      <trkpt lat="46.55081" lon="0.34658">
        <ele>114.44140523486</ele>
        <time>2021-09-21T13:27:57Z</time>
      </trkpt>
      <trkpt lat="46.5508" lon="0.34659">
        <ele>114.87330111582</ele>
        <time>2021-09-21T13:28:00Z</time>
      </trkpt>
      <trkpt lat="46.55077" lon="0.34662">
        <ele>114.88081528712</ele>
        <time>2021-09-21T13:28:03Z</time>
      </trkpt>
      <trkpt lat="46.55076" lon="0.34665">
        <ele>114.95542634372</ele>
        <time>2021-09-21T13:28:06Z</time>
      </trkpt>
      <trkpt lat="46.55075" lon="0.34668">
        <ele>115.53705866821</ele>
        <time>2021-09-21T13:28:09Z</time>
      </trkpt>
      <trkpt lat="46.55075" lon="0.34673">
        <ele>115.26086981129</ele>
        <time>2021-09-21T13:28:12Z</time>
      </trkpt>
      <trkpt lat="46.55076" lon="0.34677">
        <ele>115.43835661281</ele>
        <time>2021-09-21T13:28:15Z</time>
      </trkpt>
      <trkpt lat="46.55076" lon="0.3468">
        <ele>115.56080949493</ele>
        <time>2021-09-21T13:28:18Z</time>
      </trkpt>
      <trkpt lat="46.55077" lon="0.34685">
        <ele>115.40957461484</ele>
        <time>2021-09-21T13:28:20Z</time>
      </trkpt>
      <trkpt lat="46.55077" lon="0.34689">
        <ele>116.1739030676</ele>
        <time>2021-09-21T13:28:23Z</time>
      </trkpt>
      <trkpt lat="46.55078" lon="0.34692">
        <ele>115.89433708228</ele>
        <time>2021-09-21T13:28:25Z</time>
      </trkpt>
      <trkpt lat="46.55078" lon="0.34695">
        <ele>116.04141537193</ele>
        <time>2021-09-21T13:28:27Z</time>
      </trkpt>
      <trkpt lat="46.55078" lon="0.34698">
        <ele>115.8545822436</ele>
        <time>2021-09-21T13:28:29Z</time>
      </trkpt>
      <trkpt lat="46.55079" lon="0.34702">
        <ele>115.69491658546</ele>
        <time>2021-09-21T13:28:31Z</time>
      </trkpt>
      <trkpt lat="46.5508" lon="0.34706">
        <ele>116.18051982205</ele>
        <time>2021-09-21T13:28:33Z</time>
      </trkpt>
      <trkpt lat="46.5508" lon="0.34709">
        <ele>116.50112544186</ele>
        <time>2021-09-21T13:28:35Z</time>
      </trkpt>
      <trkpt lat="46.55081" lon="0.34712">
        <ele>116.63383152802</ele>
        <time>2021-09-21T13:28:37Z</time>
      </trkpt>
      <trkpt lat="46.55081" lon="0.34715">
        <ele>116.70659777988</ele>
        <time>2021-09-21T13:28:39Z</time>
      </trkpt>
      <trkpt lat="46.55082" lon="0.34718">
        <ele>116.74252082687</ele>
        <time>2021-09-21T13:28:41Z</time>
      </trkpt>
      <trkpt lat="46.55083" lon="0.34722">
        <ele>116.88554632943</ele>
        <time>2021-09-21T13:28:43Z</time>
      </trkpt>
      <trkpt lat="46.55084" lon="0.34725">
        <ele>117.19347385038</ele>
        <time>2021-09-21T13:28:45Z</time>
      </trkpt>
      <trkpt lat="46.55084" lon="0.34729">
        <ele>116.92243898287</ele>
        <time>2021-09-21T13:28:47Z</time>
      </trkpt>
      <trkpt lat="46.55086" lon="0.34732">
        <ele>116.77156716399</ele>
        <time>2021-09-21T13:28:49Z</time>
      </trkpt>
      <trkpt lat="46.55086" lon="0.34735">
        <ele>117.24882529676</ele>
        <time>2021-09-21T13:28:51Z</time>
      </trkpt>
      <trkpt lat="46.55087" lon="0.34738">
        <ele>116.87579918373</ele>
        <time>2021-09-21T13:28:53Z</time>
      </trkpt>
      <trkpt lat="46.55087" lon="0.34741">
        <ele>116.84157602303</ele>
        <time>2021-09-21T13:28:55Z</time>
      </trkpt>
      <trkpt lat="46.55087" lon="0.34743">
        <ele>116.9474998815</ele>
        <time>2021-09-21T13:28:57Z</time>
      </trkpt>
      <trkpt lat="46.55087" lon="0.34747">
        <ele>117.09728261083</ele>
        <time>2021-09-21T13:29:00Z</time>
      </trkpt>
      <trkpt lat="46.55088" lon="0.34751">
        <ele>116.95960116107</ele>
        <time>2021-09-21T13:29:02Z</time>
      </trkpt>
      <trkpt lat="46.55089" lon="0.34753">
        <ele>116.55845174566</ele>
        <time>2021-09-21T13:29:03Z</time>
      </trkpt>
      <trkpt lat="46.55088" lon="0.34757">
        <ele>116.79537322372</ele>
        <time>2021-09-21T13:29:06Z</time>
      </trkpt>
      <trkpt lat="46.5509" lon="0.34758">
        <ele>116.73107962217</ele>
        <time>2021-09-21T13:29:11Z</time>
      </trkpt>
      <trkpt lat="46.5509" lon="0.34761">
        <ele>116.4213680122</ele>
        <time>2021-09-21T13:29:22Z</time>
      </trkpt>
      <trkpt lat="46.55092" lon="0.34762">
        <ele>116.53474174626</ele>
        <time>2021-09-21T13:29:50Z</time>
      </trkpt>
      <trkpt lat="46.5509" lon="0.34763">
        <ele>116.18655498978</ele>
        <time>2021-09-21T13:30:09Z</time>
      </trkpt>
      <trkpt lat="46.55089" lon="0.3476">
        <ele>116.29884783365</ele>
        <time>2021-09-21T13:30:21Z</time>
      </trkpt>
      <trkpt lat="46.55088" lon="0.34763">
        <ele>116.3170207832</ele>
        <time>2021-09-21T13:30:30Z</time>
      </trkpt>
      <trkpt lat="46.5509" lon="0.34765">
        <ele>116.4357656315</ele>
        <time>2021-09-21T13:30:40Z</time>
      </trkpt>
      <trkpt lat="46.55089" lon="0.34763">
        <ele>116.15854107495</ele>
        <time>2021-09-21T13:30:44Z</time>
      </trkpt>
      <trkpt lat="46.5509" lon="0.34764">
        <ele>116.33471529838</ele>
        <time>2021-09-21T13:30:49Z</time>
      </trkpt>
      <trkpt lat="46.55092" lon="0.34765">
        <ele>116.63208838739</ele>
        <time>2021-09-21T13:31:04Z</time>
      </trkpt>
      <trkpt lat="46.55091" lon="0.34763">
        <ele>116.27816265728</ele>
        <time>2021-09-21T13:31:10Z</time>
      </trkpt>
      <trkpt lat="46.5509" lon="0.34761">
        <ele>116.44153768104</ele>
        <time>2021-09-21T13:31:20Z</time>
      </trkpt>
      <trkpt lat="46.55092" lon="0.3476">
        <ele>116.79546916671</ele>
        <time>2021-09-21T13:31:47Z</time>
      </trkpt>
      <trkpt lat="46.55091" lon="0.34765">
        <ele>115.87852385174</ele>
        <time>2021-09-21T13:31:54Z</time>
      </trkpt>
      <trkpt lat="46.5509" lon="0.34767">
        <ele>116.24396902602</ele>
        <time>2021-09-21T13:31:56Z</time>
      </trkpt>
      <trkpt lat="46.55087" lon="0.3477">
        <ele>116.3734758338</ele>
        <time>2021-09-21T13:31:58Z</time>
      </trkpt>
      <trkpt lat="46.55085" lon="0.34772">
        <ele>116.32076538634</ele>
        <time>2021-09-21T13:32:01Z</time>
      </trkpt>
      <trkpt lat="46.55082" lon="0.34775">
        <ele>116.52641783841</ele>
        <time>2021-09-21T13:32:03Z</time>
      </trkpt>
      <trkpt lat="46.55081" lon="0.34777">
        <ele>116.67978921812</ele>
        <time>2021-09-21T13:32:05Z</time>
      </trkpt>
      <trkpt lat="46.5508" lon="0.34778">
        <ele>116.70019697119</ele>
        <time>2021-09-21T13:32:07Z</time>
      </trkpt>
      <trkpt lat="46.55078" lon="0.3478">
        <ele>116.73401765712</ele>
        <time>2021-09-21T13:32:09Z</time>
      </trkpt>
      <trkpt lat="46.55076" lon="0.34783">
        <ele>117.1932692593</ele>
        <time>2021-09-21T13:32:11Z</time>
      </trkpt>
      <trkpt lat="46.55074" lon="0.34785">
        <ele>117.17493414879</ele>
        <time>2021-09-21T13:32:13Z</time>
      </trkpt>
      <trkpt lat="46.55072" lon="0.34787">
        <ele>117.03934844863</ele>
        <time>2021-09-21T13:32:15Z</time>
      </trkpt>
      <trkpt lat="46.55069" lon="0.34789">
        <ele>117.09093779977</ele>
        <time>2021-09-21T13:32:17Z</time>
      </trkpt>
      <trkpt lat="46.55067" lon="0.34791">
        <ele>116.6578656612</ele>
        <time>2021-09-21T13:32:19Z</time>
      </trkpt>
      <trkpt lat="46.55066" lon="0.34793">
        <ele>116.85233181529</ele>
        <time>2021-09-21T13:32:21Z</time>
      </trkpt>
      <trkpt lat="46.55064" lon="0.34796">
        <ele>116.86053651664</ele>
        <time>2021-09-21T13:32:23Z</time>
      </trkpt>
      <trkpt lat="46.55061" lon="0.34797">
        <ele>117.0790157374</ele>
        <time>2021-09-21T13:32:25Z</time>
      </trkpt>
      <trkpt lat="46.55059" lon="0.34798">
        <ele>117.01744832657</ele>
        <time>2021-09-21T13:32:27Z</time>
      </trkpt>
      <trkpt lat="46.55057" lon="0.348">
        <ele>117.19095417857</ele>
        <time>2021-09-21T13:32:29Z</time>
      </trkpt>
      <trkpt lat="46.55055" lon="0.34802">
        <ele>117.1411352437</ele>
        <time>2021-09-21T13:32:31Z</time>
      </trkpt>
      <trkpt lat="46.55053" lon="0.34804">
        <ele>117.19060212839</ele>
        <time>2021-09-21T13:32:33Z</time>
      </trkpt>
      <trkpt lat="46.5505" lon="0.34807">
        <ele>117.10578875616</ele>
        <time>2021-09-21T13:32:35Z</time>
      </trkpt>
      <trkpt lat="46.55048" lon="0.3481">
        <ele>116.70486256108</ele>
        <time>2021-09-21T13:32:38Z</time>
      </trkpt>
      <trkpt lat="46.55046" lon="0.34812">
        <ele>117.25695402548</ele>
        <time>2021-09-21T13:32:40Z</time>
      </trkpt>
      <trkpt lat="46.55044" lon="0.34813">
        <ele>116.77686079685</ele>
        <time>2021-09-21T13:32:42Z</time>
      </trkpt>
      <trkpt lat="46.55042" lon="0.34815">
        <ele>117.06208945345</ele>
        <time>2021-09-21T13:32:44Z</time>
      </trkpt>
      <trkpt lat="46.5504" lon="0.34817">
        <ele>116.83692860324</ele>
        <time>2021-09-21T13:32:47Z</time>
      </trkpt>
      <trkpt lat="46.55038" lon="0.34819">
        <ele>117.14232950378</ele>
        <time>2021-09-21T13:32:49Z</time>
      </trkpt>
      <trkpt lat="46.55035" lon="0.34821">
        <ele>116.78819636814</ele>
        <time>2021-09-21T13:32:51Z</time>
      </trkpt>
      <trkpt lat="46.55034" lon="0.34822">
        <ele>116.78079935908</ele>
        <time>2021-09-21T13:32:53Z</time>
      </trkpt>
      <trkpt lat="46.55032" lon="0.34824">
        <ele>116.54393706843</ele>
        <time>2021-09-21T13:32:55Z</time>
      </trkpt>
      <trkpt lat="46.55029" lon="0.34825">
        <ele>116.80549627077</ele>
        <time>2021-09-21T13:32:57Z</time>
      </trkpt>
      <trkpt lat="46.55027" lon="0.34826">
        <ele>117.08535874914</ele>
        <time>2021-09-21T13:32:59Z</time>
      </trkpt>
      <trkpt lat="46.55025" lon="0.34828">
        <ele>116.90866407566</ele>
        <time>2021-09-21T13:33:01Z</time>
      </trkpt>
      <trkpt lat="46.55023" lon="0.34829">
        <ele>117.21134759672</ele>
        <time>2021-09-21T13:33:03Z</time>
      </trkpt>
      <trkpt lat="46.55021" lon="0.3483">
        <ele>117.3214739887</ele>
        <time>2021-09-21T13:33:05Z</time>
      </trkpt>
      <trkpt lat="46.55019" lon="0.34832">
        <ele>117.27436472848</ele>
        <time>2021-09-21T13:33:07Z</time>
      </trkpt>
      <trkpt lat="46.55017" lon="0.34833">
        <ele>117.27855690755</ele>
        <time>2021-09-21T13:33:09Z</time>
      </trkpt>
      <trkpt lat="46.55015" lon="0.34834">
        <ele>117.35930843186</ele>
        <time>2021-09-21T13:33:11Z</time>
      </trkpt>
      <trkpt lat="46.55013" lon="0.34836">
        <ele>117.27093637455</ele>
        <time>2021-09-21T13:33:13Z</time>
      </trkpt>
      <trkpt lat="46.55011" lon="0.34838">
        <ele>117.18477637693</ele>
        <time>2021-09-21T13:33:15Z</time>
      </trkpt>
      <trkpt lat="46.55008" lon="0.3484">
        <ele>117.66402511206</ele>
        <time>2021-09-21T13:33:17Z</time>
      </trkpt>
      <trkpt lat="46.55006" lon="0.34842">
        <ele>117.68185283989</ele>
        <time>2021-09-21T13:33:19Z</time>
      </trkpt>
      <trkpt lat="46.55004" lon="0.34843">
        <ele>117.80942519847</ele>
        <time>2021-09-21T13:33:21Z</time>
      </trkpt>
      <trkpt lat="46.55002" lon="0.34845">
        <ele>117.61079180147</ele>
        <time>2021-09-21T13:33:23Z</time>
      </trkpt>
      <trkpt lat="46.55" lon="0.34846">
        <ele>117.64333207253</ele>
        <time>2021-09-21T13:33:25Z</time>
      </trkpt>
      <trkpt lat="46.54999" lon="0.34847">
        <ele>117.70346737653</ele>
        <time>2021-09-21T13:33:27Z</time>
      </trkpt>
      <trkpt lat="46.54997" lon="0.3485">
        <ele>118.0392993493</ele>
        <time>2021-09-21T13:33:31Z</time>
      </trkpt>
      <trkpt lat="46.54996" lon="0.34852">
        <ele>117.97239374835</ele>
        <time>2021-09-21T13:33:33Z</time>
      </trkpt>
      <trkpt lat="46.54994" lon="0.34854">
        <ele>118.07224263996</ele>
        <time>2021-09-21T13:33:35Z</time>
      </trkpt>
      <trkpt lat="46.54992" lon="0.34856">
        <ele>118.24210575316</ele>
        <time>2021-09-21T13:33:37Z</time>
      </trkpt>
      <trkpt lat="46.54989" lon="0.34857">
        <ele>117.83890470397</ele>
        <time>2021-09-21T13:33:39Z</time>
      </trkpt>
      <trkpt lat="46.54987" lon="0.34858">
        <ele>117.88630516548</ele>
        <time>2021-09-21T13:33:41Z</time>
      </trkpt>
      <trkpt lat="46.54985" lon="0.34859">
        <ele>118.00004922878</ele>
        <time>2021-09-21T13:33:43Z</time>
      </trkpt>
      <trkpt lat="46.54983" lon="0.34861">
        <ele>118.40123309568</ele>
        <time>2021-09-21T13:33:45Z</time>
      </trkpt>
      <trkpt lat="46.54981" lon="0.34861">
        <ele>118.20058565866</ele>
        <time>2021-09-21T13:33:48Z</time>
      </trkpt>
      <trkpt lat="46.54979" lon="0.34862">
        <ele>118.27500191703</ele>
        <time>2021-09-21T13:33:50Z</time>
      </trkpt>
      <trkpt lat="46.54976" lon="0.34863">
        <ele>118.44120702893</ele>
        <time>2021-09-21T13:33:52Z</time>
      </trkpt>
      <trkpt lat="46.54974" lon="0.34864">
        <ele>118.33757629804</ele>
        <time>2021-09-21T13:33:54Z</time>
      </trkpt>
      <trkpt lat="46.54972" lon="0.34866">
        <ele>118.4121341547</ele>
        <time>2021-09-21T13:33:56Z</time>
      </trkpt>
      <trkpt lat="46.54969" lon="0.34867">
        <ele>118.23722260538</ele>
        <time>2021-09-21T13:33:59Z</time>
      </trkpt>
      <trkpt lat="46.54967" lon="0.34868">
        <ele>118.30719623156</ele>
        <time>2021-09-21T13:34:01Z</time>
      </trkpt>
      <trkpt lat="46.54965" lon="0.34869">
        <ele>118.12087433413</ele>
        <time>2021-09-21T13:34:03Z</time>
      </trkpt>
      <trkpt lat="46.54962" lon="0.3487">
        <ele>117.81447400246</ele>
        <time>2021-09-21T13:34:05Z</time>
      </trkpt>
      <trkpt lat="46.5496" lon="0.34872">
        <ele>117.88948419504</ele>
        <time>2021-09-21T13:34:08Z</time>
      </trkpt>
      <trkpt lat="46.54958" lon="0.34874">
        <ele>118.04704067018</ele>
        <time>2021-09-21T13:34:10Z</time>
      </trkpt>
      <trkpt lat="46.54956" lon="0.34875">
        <ele>117.89494008012</ele>
        <time>2021-09-21T13:34:12Z</time>
      </trkpt>
      <trkpt lat="46.54953" lon="0.34877">
        <ele>117.81983013172</ele>
        <time>2021-09-21T13:34:14Z</time>
      </trkpt>
      <trkpt lat="46.54952" lon="0.34879">
        <ele>118.19237846509</ele>
        <time>2021-09-21T13:34:16Z</time>
      </trkpt>
      <trkpt lat="46.54949" lon="0.3488">
        <ele>117.83722915687</ele>
        <time>2021-09-21T13:34:19Z</time>
      </trkpt>
      <trkpt lat="46.54947" lon="0.34882">
        <ele>117.78199296445</ele>
        <time>2021-09-21T13:34:22Z</time>
      </trkpt>
      <trkpt lat="46.54945" lon="0.34883">
        <ele>118.00952557754</ele>
        <time>2021-09-21T13:34:26Z</time>
      </trkpt>
      <trkpt lat="46.54943" lon="0.34885">
        <ele>117.6341171423</ele>
        <time>2021-09-21T13:34:28Z</time>
      </trkpt>
      <trkpt lat="46.54941" lon="0.34887">
        <ele>117.89722025488</ele>
        <time>2021-09-21T13:34:30Z</time>
      </trkpt>
      <trkpt lat="46.54938" lon="0.3489">
        <ele>117.8237183569</ele>
        <time>2021-09-21T13:34:32Z</time>
      </trkpt>
      <trkpt lat="46.54936" lon="0.34891">
        <ele>118.11481859349</ele>
        <time>2021-09-21T13:34:34Z</time>
      </trkpt>
      <trkpt lat="46.54934" lon="0.34892">
        <ele>118.15584755968</ele>
        <time>2021-09-21T13:34:35Z</time>
      </trkpt>
      <trkpt lat="46.54931" lon="0.34892">
        <ele>118.02989869472</ele>
        <time>2021-09-21T13:34:37Z</time>
      </trkpt>
      <trkpt lat="46.54929" lon="0.34894">
        <ele>118.34716569819</ele>
        <time>2021-09-21T13:34:39Z</time>
      </trkpt>
      <trkpt lat="46.54926" lon="0.34895">
        <ele>118.3002830632</ele>
        <time>2021-09-21T13:34:41Z</time>
      </trkpt>
      <trkpt lat="46.54924" lon="0.34895">
        <ele>118.10398820881</ele>
        <time>2021-09-21T13:34:43Z</time>
      </trkpt>
      <trkpt lat="46.54922" lon="0.34897">
        <ele>118.24238584377</ele>
        <time>2021-09-21T13:34:45Z</time>
      </trkpt>
      <trkpt lat="46.5492" lon="0.34898">
        <ele>118.43766646832</ele>
        <time>2021-09-21T13:34:46Z</time>
      </trkpt>
      <trkpt lat="46.54918" lon="0.34901">
        <ele>118.22466610651</ele>
        <time>2021-09-21T13:34:48Z</time>
      </trkpt>
      <trkpt lat="46.54916" lon="0.34902">
        <ele>118.21129305288</ele>
        <time>2021-09-21T13:34:50Z</time>
      </trkpt>
      <trkpt lat="46.54913" lon="0.34903">
        <ele>118.13844155893</ele>
        <time>2021-09-21T13:34:52Z</time>
      </trkpt>
      <trkpt lat="46.54911" lon="0.34904">
        <ele>118.17797110602</ele>
        <time>2021-09-21T13:34:53Z</time>
      </trkpt>
      <trkpt lat="46.5491" lon="0.34906">
        <ele>118.08847252838</ele>
        <time>2021-09-21T13:34:55Z</time>
      </trkpt>
      <trkpt lat="46.54907" lon="0.34907">
        <ele>118.36818048358</ele>
        <time>2021-09-21T13:34:57Z</time>
      </trkpt>
      <trkpt lat="46.54904" lon="0.34909">
        <ele>118.43781534955</ele>
        <time>2021-09-21T13:34:59Z</time>
      </trkpt>
      <trkpt lat="46.54902" lon="0.3491">
        <ele>118.25837982818</ele>
        <time>2021-09-21T13:35:01Z</time>
      </trkpt>
      <trkpt lat="46.54899" lon="0.34911">
        <ele>118.19523767196</ele>
        <time>2021-09-21T13:35:03Z</time>
      </trkpt>
      <trkpt lat="46.54897" lon="0.34913">
        <ele>118.24988179002</ele>
        <time>2021-09-21T13:35:05Z</time>
      </trkpt>
      <trkpt lat="46.54895" lon="0.34914">
        <ele>118.31366276648</ele>
        <time>2021-09-21T13:35:07Z</time>
      </trkpt>
      <trkpt lat="46.54893" lon="0.34915">
        <ele>118.72953560855</ele>
        <time>2021-09-21T13:35:09Z</time>
      </trkpt>
      <trkpt lat="46.54891" lon="0.34916">
        <ele>118.58575506508</ele>
        <time>2021-09-21T13:35:10Z</time>
      </trkpt>
      <trkpt lat="46.54889" lon="0.34917">
        <ele>118.65720603429</ele>
        <time>2021-09-21T13:35:12Z</time>
      </trkpt>
      <trkpt lat="46.54886" lon="0.34919">
        <ele>118.8053566739</ele>
        <time>2021-09-21T13:35:14Z</time>
      </trkpt>
      <trkpt lat="46.54884" lon="0.3492">
        <ele>118.61697591469</ele>
        <time>2021-09-21T13:35:16Z</time>
      </trkpt>
      <trkpt lat="46.54882" lon="0.34922">
        <ele>118.84225093108</ele>
        <time>2021-09-21T13:35:19Z</time>
      </trkpt>
      <trkpt lat="46.5488" lon="0.34923">
        <ele>118.67596381716</ele>
        <time>2021-09-21T13:35:21Z</time>
      </trkpt>
      <trkpt lat="46.54877" lon="0.34924">
        <ele>118.74373366684</ele>
        <time>2021-09-21T13:35:23Z</time>
      </trkpt>
      <trkpt lat="46.54875" lon="0.34925">
        <ele>118.96293591242</ele>
        <time>2021-09-21T13:35:25Z</time>
      </trkpt>
      <trkpt lat="46.54873" lon="0.34927">
        <ele>118.76879005041</ele>
        <time>2021-09-21T13:35:27Z</time>
      </trkpt>
      <trkpt lat="46.54871" lon="0.34929">
        <ele>118.67331196181</ele>
        <time>2021-09-21T13:35:30Z</time>
      </trkpt>
      <trkpt lat="46.54868" lon="0.3493">
        <ele>118.99660283234</ele>
        <time>2021-09-21T13:35:32Z</time>
      </trkpt>
      <trkpt lat="46.54866" lon="0.34932">
        <ele>118.89673164021</ele>
        <time>2021-09-21T13:35:34Z</time>
      </trkpt>
      <trkpt lat="46.54864" lon="0.34934">
        <ele>119.44375207182</ele>
        <time>2021-09-21T13:35:36Z</time>
      </trkpt>
      <trkpt lat="46.54862" lon="0.34934">
        <ele>118.93244025484</ele>
        <time>2021-09-21T13:35:39Z</time>
      </trkpt>
      <trkpt lat="46.5486" lon="0.34936">
        <ele>118.74979723524</ele>
        <time>2021-09-21T13:35:40Z</time>
      </trkpt>
      <trkpt lat="46.54858" lon="0.34939">
        <ele>118.79209003784</ele>
        <time>2021-09-21T13:35:42Z</time>
      </trkpt>
      <trkpt lat="46.54856" lon="0.34939">
        <ele>118.92777339928</ele>
        <time>2021-09-21T13:35:44Z</time>
      </trkpt>
      <trkpt lat="46.54853" lon="0.34941">
        <ele>118.95924836677</ele>
        <time>2021-09-21T13:35:47Z</time>
      </trkpt>
      <trkpt lat="46.5485" lon="0.34942">
        <ele>119.27367971931</ele>
        <time>2021-09-21T13:35:49Z</time>
      </trkpt>
      <trkpt lat="46.54848" lon="0.34943">
        <ele>118.69839924015</ele>
        <time>2021-09-21T13:35:51Z</time>
      </trkpt>
      <trkpt lat="46.54846" lon="0.34945">
        <ele>118.97432541661</ele>
        <time>2021-09-21T13:35:53Z</time>
      </trkpt>
      <trkpt lat="46.54843" lon="0.34946">
        <ele>119.04085523821</ele>
        <time>2021-09-21T13:35:55Z</time>
      </trkpt>
      <trkpt lat="46.54841" lon="0.34948">
        <ele>118.98891634773</ele>
        <time>2021-09-21T13:35:57Z</time>
      </trkpt>
      <trkpt lat="46.54839" lon="0.34948">
        <ele>119.23708417267</ele>
        <time>2021-09-21T13:35:59Z</time>
      </trkpt>
      <trkpt lat="46.54837" lon="0.3495">
        <ele>119.22257688362</ele>
        <time>2021-09-21T13:36:01Z</time>
      </trkpt>
      <trkpt lat="46.54834" lon="0.34951">
        <ele>118.71997773182</ele>
        <time>2021-09-21T13:36:03Z</time>
      </trkpt>
      <trkpt lat="46.54832" lon="0.34952">
        <ele>118.55245785881</ele>
        <time>2021-09-21T13:36:05Z</time>
      </trkpt>
      <trkpt lat="46.54829" lon="0.34954">
        <ele>118.53397354297</ele>
        <time>2021-09-21T13:36:07Z</time>
      </trkpt>
      <trkpt lat="46.54827" lon="0.34956">
        <ele>118.65871968679</ele>
        <time>2021-09-21T13:36:09Z</time>
      </trkpt>
      <trkpt lat="46.54825" lon="0.34956">
        <ele>118.48481555283</ele>
        <time>2021-09-21T13:36:11Z</time>
      </trkpt>
      <trkpt lat="46.54823" lon="0.34958">
        <ele>118.62554907892</ele>
        <time>2021-09-21T13:36:13Z</time>
      </trkpt>
      <trkpt lat="46.54821" lon="0.34959">
        <ele>118.55369899422</ele>
        <time>2021-09-21T13:36:15Z</time>
      </trkpt>
      <trkpt lat="46.54818" lon="0.34961">
        <ele>119.01112679951</ele>
        <time>2021-09-21T13:36:17Z</time>
      </trkpt>
      <trkpt lat="46.54816" lon="0.34962">
        <ele>118.88706012163</ele>
        <time>2021-09-21T13:36:19Z</time>
      </trkpt>
      <trkpt lat="46.54814" lon="0.34964">
        <ele>118.87305926438</ele>
        <time>2021-09-21T13:36:22Z</time>
      </trkpt>
      <trkpt lat="46.54812" lon="0.34965">
        <ele>119.07038643677</ele>
        <time>2021-09-21T13:36:24Z</time>
      </trkpt>
      <trkpt lat="46.54809" lon="0.34967">
        <ele>118.92984873243</ele>
        <time>2021-09-21T13:36:26Z</time>
      </trkpt>
      <trkpt lat="46.54807" lon="0.34967">
        <ele>118.72425590642</ele>
        <time>2021-09-21T13:36:28Z</time>
      </trkpt>
      <trkpt lat="46.54804" lon="0.34969">
        <ele>119.17553767934</ele>
        <time>2021-09-21T13:36:30Z</time>
      </trkpt>
      <trkpt lat="46.54802" lon="0.3497">
        <ele>119.238540099</ele>
        <time>2021-09-21T13:36:32Z</time>
      </trkpt>
      <trkpt lat="46.548" lon="0.34971">
        <ele>119.3508367613</ele>
        <time>2021-09-21T13:36:34Z</time>
      </trkpt>
      <trkpt lat="46.54798" lon="0.34972">
        <ele>119.39036188088</ele>
        <time>2021-09-21T13:36:35Z</time>
      </trkpt>
      <trkpt lat="46.54796" lon="0.34973">
        <ele>119.2743078908</ele>
        <time>2021-09-21T13:36:37Z</time>
      </trkpt>
      <trkpt lat="46.54794" lon="0.34973">
        <ele>118.50296328589</ele>
        <time>2021-09-21T13:36:40Z</time>
      </trkpt>
      <trkpt lat="46.54791" lon="0.34975">
        <ele>118.8152430132</ele>
        <time>2021-09-21T13:36:42Z</time>
      </trkpt>
      <trkpt lat="46.54789" lon="0.34976">
        <ele>118.93071067706</ele>
        <time>2021-09-21T13:36:43Z</time>
      </trkpt>
      <trkpt lat="46.54787" lon="0.34977">
        <ele>119.20862642769</ele>
        <time>2021-09-21T13:36:45Z</time>
      </trkpt>
      <trkpt lat="46.54785" lon="0.34978">
        <ele>118.68064207304</ele>
        <time>2021-09-21T13:36:47Z</time>
      </trkpt>
      <trkpt lat="46.54784" lon="0.3498">
        <ele>119.10309677199</ele>
        <time>2021-09-21T13:36:49Z</time>
      </trkpt>
      <trkpt lat="46.54782" lon="0.3498">
        <ele>118.82757682167</ele>
        <time>2021-09-21T13:36:51Z</time>
      </trkpt>
      <trkpt lat="46.5478" lon="0.34982">
        <ele>119.14647530578</ele>
        <time>2021-09-21T13:36:53Z</time>
      </trkpt>
      <trkpt lat="46.54777" lon="0.34984">
        <ele>118.98526175413</ele>
        <time>2021-09-21T13:36:55Z</time>
      </trkpt>
      <trkpt lat="46.54775" lon="0.34986">
        <ele>118.63674564846</ele>
        <time>2021-09-21T13:36:57Z</time>
      </trkpt>
      <trkpt lat="46.54773" lon="0.34987">
        <ele>118.46994450595</ele>
        <time>2021-09-21T13:37:00Z</time>
      </trkpt>
      <trkpt lat="46.5477" lon="0.34989">
        <ele>118.85240131523</ele>
        <time>2021-09-21T13:37:02Z</time>
      </trkpt>
      <trkpt lat="46.54767" lon="0.34991">
        <ele>118.27046371065</ele>
        <time>2021-09-21T13:37:04Z</time>
      </trkpt>
      <trkpt lat="46.54764" lon="0.34993">
        <ele>118.4271144392</ele>
        <time>2021-09-21T13:37:07Z</time>
      </trkpt>
      <trkpt lat="46.54762" lon="0.34994">
        <ele>118.46437827311</ele>
        <time>2021-09-21T13:37:09Z</time>
      </trkpt>
      <trkpt lat="46.54759" lon="0.34994">
        <ele>117.97083883453</ele>
        <time>2021-09-21T13:37:11Z</time>
      </trkpt>
      <trkpt lat="46.54756" lon="0.34996">
        <ele>118.55879458692</ele>
        <time>2021-09-21T13:37:13Z</time>
      </trkpt>
      <trkpt lat="46.54754" lon="0.34997">
        <ele>118.46838366613</ele>
        <time>2021-09-21T13:37:15Z</time>
      </trkpt>
      <trkpt lat="46.54752" lon="0.34999">
        <ele>118.92414577678</ele>
        <time>2021-09-21T13:37:17Z</time>
      </trkpt>
      <trkpt lat="46.5475" lon="0.35">
        <ele>118.98674868047</ele>
        <time>2021-09-21T13:37:19Z</time>
      </trkpt>
      <trkpt lat="46.54748" lon="0.35001">
        <ele>118.85996717121</ele>
        <time>2021-09-21T13:37:21Z</time>
      </trkpt>
      <trkpt lat="46.54745" lon="0.35003">
        <ele>118.99063976482</ele>
        <time>2021-09-21T13:37:23Z</time>
      </trkpt>
      <trkpt lat="46.54743" lon="0.35004">
        <ele>118.81026221439</ele>
        <time>2021-09-21T13:37:24Z</time>
      </trkpt>
      <trkpt lat="46.54741" lon="0.35005">
        <ele>118.98088521417</ele>
        <time>2021-09-21T13:37:26Z</time>
      </trkpt>
      <trkpt lat="46.54739" lon="0.35006">
        <ele>118.79232859798</ele>
        <time>2021-09-21T13:37:28Z</time>
      </trkpt>
      <trkpt lat="46.54737" lon="0.35008">
        <ele>118.55798323173</ele>
        <time>2021-09-21T13:37:30Z</time>
      </trkpt>
      <trkpt lat="46.54735" lon="0.35008">
        <ele>118.76272282284</ele>
        <time>2021-09-21T13:37:32Z</time>
      </trkpt>
      <trkpt lat="46.54732" lon="0.3501">
        <ele>118.76403496508</ele>
        <time>2021-09-21T13:37:34Z</time>
      </trkpt>
      <trkpt lat="46.5473" lon="0.35011">
        <ele>118.86515485216</ele>
        <time>2021-09-21T13:37:36Z</time>
      </trkpt>
      <trkpt lat="46.54728" lon="0.35012">
        <ele>118.90502743702</ele>
        <time>2021-09-21T13:37:38Z</time>
      </trkpt>
      <trkpt lat="46.54726" lon="0.35013">
        <ele>118.63417221233</ele>
        <time>2021-09-21T13:37:40Z</time>
      </trkpt>
      <trkpt lat="46.54724" lon="0.35014">
        <ele>118.60539056826</ele>
        <time>2021-09-21T13:37:42Z</time>
      </trkpt>
      <trkpt lat="46.54721" lon="0.35015">
        <ele>118.66406871658</ele>
        <time>2021-09-21T13:37:44Z</time>
      </trkpt>
      <trkpt lat="46.54717" lon="0.35016">
        <ele>118.58358259592</ele>
        <time>2021-09-21T13:37:46Z</time>
      </trkpt>
      <trkpt lat="46.54715" lon="0.35017">
        <ele>118.11845352314</ele>
        <time>2021-09-21T13:37:48Z</time>
      </trkpt>
      <trkpt lat="46.54714" lon="0.35019">
        <ele>118.36983509548</ele>
        <time>2021-09-21T13:37:50Z</time>
      </trkpt>
      <trkpt lat="46.54711" lon="0.3502">
        <ele>118.68427109811</ele>
        <time>2021-09-21T13:37:53Z</time>
      </trkpt>
      <trkpt lat="46.54708" lon="0.35021">
        <ele>118.30165608879</ele>
        <time>2021-09-21T13:37:55Z</time>
      </trkpt>
      <trkpt lat="46.54705" lon="0.35022">
        <ele>118.52195067424</ele>
        <time>2021-09-21T13:37:57Z</time>
      </trkpt>
      <trkpt lat="46.54702" lon="0.35024">
        <ele>118.1231949497</ele>
        <time>2021-09-21T13:37:59Z</time>
      </trkpt>
      <trkpt lat="46.547" lon="0.35025">
        <ele>118.36053897999</ele>
        <time>2021-09-21T13:38:01Z</time>
      </trkpt>
      <trkpt lat="46.54698" lon="0.35026">
        <ele>118.14339314029</ele>
        <time>2021-09-21T13:38:03Z</time>
      </trkpt>
      <trkpt lat="46.54696" lon="0.35026">
        <ele>118.13995214086</ele>
        <time>2021-09-21T13:38:04Z</time>
      </trkpt>
      <trkpt lat="46.54694" lon="0.35026">
        <ele>118.41338301916</ele>
        <time>2021-09-21T13:38:05Z</time>
      </trkpt>
      <trkpt lat="46.54693" lon="0.35027">
        <ele>118.37026604824</ele>
        <time>2021-09-21T13:38:07Z</time>
      </trkpt>
      <trkpt lat="46.5469" lon="0.35028">
        <ele>118.05464436021</ele>
        <time>2021-09-21T13:38:09Z</time>
      </trkpt>
      <trkpt lat="46.54687" lon="0.35029">
        <ele>118.46245617606</ele>
        <time>2021-09-21T13:38:11Z</time>
      </trkpt>
      <trkpt lat="46.54685" lon="0.35029">
        <ele>118.25698639732</ele>
        <time>2021-09-21T13:38:14Z</time>
      </trkpt>
      <trkpt lat="46.54682" lon="0.35029">
        <ele>117.89519865625</ele>
        <time>2021-09-21T13:38:16Z</time>
      </trkpt>
      <trkpt lat="46.54679" lon="0.35029">
        <ele>118.31705183536</ele>
        <time>2021-09-21T13:38:18Z</time>
      </trkpt>
      <trkpt lat="46.54676" lon="0.35029">
        <ele>118.06003796682</ele>
        <time>2021-09-21T13:38:20Z</time>
      </trkpt>
      <trkpt lat="46.54674" lon="0.35029">
        <ele>118.26550731342</ele>
        <time>2021-09-21T13:38:22Z</time>
      </trkpt>
      <trkpt lat="46.54671" lon="0.3503">
        <ele>118.10391297378</ele>
        <time>2021-09-21T13:38:25Z</time>
      </trkpt>
      <trkpt lat="46.54669" lon="0.35032">
        <ele>117.79351246729</ele>
        <time>2021-09-21T13:38:27Z</time>
      </trkpt>
      <trkpt lat="46.54668" lon="0.35035">
        <ele>117.66795731615</ele>
        <time>2021-09-21T13:38:29Z</time>
      </trkpt>
      <trkpt lat="46.54667" lon="0.35038">
        <ele>116.94560777396</ele>
        <time>2021-09-21T13:38:34Z</time>
      </trkpt>
      <trkpt lat="46.54665" lon="0.35042">
        <ele>117.07453403901</ele>
        <time>2021-09-21T13:38:36Z</time>
      </trkpt>
      <trkpt lat="46.54664" lon="0.35045">
        <ele>117.66786342952</ele>
        <time>2021-09-21T13:38:38Z</time>
      </trkpt>
      <trkpt lat="46.54662" lon="0.35046">
        <ele>117.19778749626</ele>
        <time>2021-09-21T13:38:40Z</time>
      </trkpt>
      <trkpt lat="46.54661" lon="0.35049">
        <ele>117.27016120404</ele>
        <time>2021-09-21T13:38:43Z</time>
      </trkpt>
      <trkpt lat="46.5466" lon="0.35052">
        <ele>116.72485819086</ele>
        <time>2021-09-21T13:38:46Z</time>
      </trkpt>
      <trkpt lat="46.54658" lon="0.35054">
        <ele>116.51786687225</ele>
        <time>2021-09-21T13:38:47Z</time>
      </trkpt>
      <trkpt lat="46.54657" lon="0.35057">
        <ele>116.90306910407</ele>
        <time>2021-09-21T13:38:49Z</time>
      </trkpt>
      <trkpt lat="46.54655" lon="0.35059">
        <ele>116.70959750656</ele>
        <time>2021-09-21T13:38:51Z</time>
      </trkpt>
      <trkpt lat="46.54653" lon="0.35062">
        <ele>116.76783778705</ele>
        <time>2021-09-21T13:38:53Z</time>
      </trkpt>
      <trkpt lat="46.54651" lon="0.35065">
        <ele>116.22393020894</ele>
        <time>2021-09-21T13:38:55Z</time>
      </trkpt>
      <trkpt lat="46.5465" lon="0.35068">
        <ele>116.15743281506</ele>
        <time>2021-09-21T13:38:57Z</time>
      </trkpt>
      <trkpt lat="46.54648" lon="0.35071">
        <ele>115.92258844897</ele>
        <time>2021-09-21T13:38:59Z</time>
      </trkpt>
      <trkpt lat="46.54647" lon="0.35074">
        <ele>115.90028603841</ele>
        <time>2021-09-21T13:39:01Z</time>
      </trkpt>
      <trkpt lat="46.54646" lon="0.35077">
        <ele>115.8224145472</ele>
        <time>2021-09-21T13:39:02Z</time>
      </trkpt>
      <trkpt lat="46.54645" lon="0.35081">
        <ele>116.0191855263</ele>
        <time>2021-09-21T13:39:04Z</time>
      </trkpt>
      <trkpt lat="46.54644" lon="0.35084">
        <ele>115.48024434038</ele>
        <time>2021-09-21T13:39:06Z</time>
      </trkpt>
      <trkpt lat="46.54643" lon="0.35087">
        <ele>115.540327508</ele>
        <time>2021-09-21T13:39:08Z</time>
      </trkpt>
      <trkpt lat="46.54642" lon="0.35091">
        <ele>115.46670370921</ele>
        <time>2021-09-21T13:39:10Z</time>
      </trkpt>
      <trkpt lat="46.54642" lon="0.35095">
        <ele>115.22182389814</ele>
        <time>2021-09-21T13:39:12Z</time>
      </trkpt>
      <trkpt lat="46.54641" lon="0.35098">
        <ele>114.85824708827</ele>
        <time>2021-09-21T13:39:14Z</time>
      </trkpt>
      <trkpt lat="46.54641" lon="0.35102">
        <ele>114.64051567856</ele>
        <time>2021-09-21T13:39:16Z</time>
      </trkpt>
      <trkpt lat="46.54641" lon="0.35105">
        <ele>114.27975174785</ele>
        <time>2021-09-21T13:39:19Z</time>
      </trkpt>
      <trkpt lat="46.5464" lon="0.35109">
        <ele>114.04303939268</ele>
        <time>2021-09-21T13:39:21Z</time>
      </trkpt>
      <trkpt lat="46.54639" lon="0.35113">
        <ele>113.98296432663</ele>
        <time>2021-09-21T13:39:23Z</time>
      </trkpt>
      <trkpt lat="46.54638" lon="0.35115">
        <ele>113.37283650413</ele>
        <time>2021-09-21T13:39:25Z</time>
      </trkpt>
      <trkpt lat="46.54637" lon="0.35119">
        <ele>113.41963001341</ele>
        <time>2021-09-21T13:39:27Z</time>
      </trkpt>
      <trkpt lat="46.54635" lon="0.35123">
        <ele>113.11160312034</ele>
        <time>2021-09-21T13:39:29Z</time>
      </trkpt>
      <trkpt lat="46.54634" lon="0.35126">
        <ele>113.03388323449</ele>
        <time>2021-09-21T13:39:31Z</time>
      </trkpt>
      <trkpt lat="46.54633" lon="0.3513">
        <ele>112.93998559192</ele>
        <time>2021-09-21T13:39:33Z</time>
      </trkpt>
      <trkpt lat="46.54632" lon="0.35133">
        <ele>112.55888353568</ele>
        <time>2021-09-21T13:39:35Z</time>
      </trkpt>
      <trkpt lat="46.5463" lon="0.35136">
        <ele>112.59449042846</ele>
        <time>2021-09-21T13:39:37Z</time>
      </trkpt>
      <trkpt lat="46.54629" lon="0.35138">
        <ele>112.46794743929</ele>
        <time>2021-09-21T13:39:39Z</time>
      </trkpt>
      <trkpt lat="46.54628" lon="0.35141">
        <ele>112.42802856117</ele>
        <time>2021-09-21T13:39:41Z</time>
      </trkpt>
      <trkpt lat="46.54627" lon="0.35144">
        <ele>112.33270631731</ele>
        <time>2021-09-21T13:39:43Z</time>
      </trkpt>
      <trkpt lat="46.54626" lon="0.35147">
        <ele>111.91796297207</ele>
        <time>2021-09-21T13:39:45Z</time>
      </trkpt>
      <trkpt lat="46.54624" lon="0.3515">
        <ele>111.97273309343</ele>
        <time>2021-09-21T13:39:47Z</time>
      </trkpt>
      <trkpt lat="46.54624" lon="0.35152">
        <ele>111.78980012424</ele>
        <time>2021-09-21T13:39:49Z</time>
      </trkpt>
      <trkpt lat="46.54623" lon="0.35156">
        <ele>111.80307085719</ele>
        <time>2021-09-21T13:39:51Z</time>
      </trkpt>
      <trkpt lat="46.54623" lon="0.35158">
        <ele>111.91047426499</ele>
        <time>2021-09-21T13:39:53Z</time>
      </trkpt>
      <trkpt lat="46.54622" lon="0.35162">
        <ele>111.4352199547</ele>
        <time>2021-09-21T13:39:55Z</time>
      </trkpt>
      <trkpt lat="46.54622" lon="0.35165">
        <ele>111.82020423841</ele>
        <time>2021-09-21T13:39:56Z</time>
      </trkpt>
      <trkpt lat="46.54621" lon="0.35168">
        <ele>111.43907962367</ele>
        <time>2021-09-21T13:39:58Z</time>
      </trkpt>
      <trkpt lat="46.54621" lon="0.35171">
        <ele>111.76916832104</ele>
        <time>2021-09-21T13:40:00Z</time>
      </trkpt>
      <trkpt lat="46.54621" lon="0.35174">
        <ele>111.40736681316</ele>
        <time>2021-09-21T13:40:02Z</time>
      </trkpt>
      <trkpt lat="46.54621" lon="0.35179">
        <ele>111.32949222531</ele>
        <time>2021-09-21T13:40:04Z</time>
      </trkpt>
      <trkpt lat="46.54619" lon="0.35182">
        <ele>111.50172482431</ele>
        <time>2021-09-21T13:40:06Z</time>
      </trkpt>
      <trkpt lat="46.54619" lon="0.35186">
        <ele>111.35022403393</ele>
        <time>2021-09-21T13:40:08Z</time>
      </trkpt>
      <trkpt lat="46.54618" lon="0.35189">
        <ele>111.179824627</ele>
        <time>2021-09-21T13:40:10Z</time>
      </trkpt>
      <trkpt lat="46.54617" lon="0.35191">
        <ele>110.84020225704</ele>
        <time>2021-09-21T13:40:12Z</time>
      </trkpt>
      <trkpt lat="46.54616" lon="0.35194">
        <ele>110.94715929963</ele>
        <time>2021-09-21T13:40:14Z</time>
      </trkpt>
      <trkpt lat="46.54614" lon="0.35198">
        <ele>111.11052791774</ele>
        <time>2021-09-21T13:40:16Z</time>
      </trkpt>
      <trkpt lat="46.54613" lon="0.35201">
        <ele>110.98784941155</ele>
        <time>2021-09-21T13:40:18Z</time>
      </trkpt>
      <trkpt lat="46.54612" lon="0.35204">
        <ele>111.0736761</ele>
        <time>2021-09-21T13:40:20Z</time>
      </trkpt>
      <trkpt lat="46.54611" lon="0.35207">
        <ele>111.23302909918</ele>
        <time>2021-09-21T13:40:22Z</time>
      </trkpt>
      <trkpt lat="46.5461" lon="0.35211">
        <ele>111.14764055051</ele>
        <time>2021-09-21T13:40:24Z</time>
      </trkpt>
      <trkpt lat="46.54609" lon="0.35216">
        <ele>111.72120799031</ele>
        <time>2021-09-21T13:40:26Z</time>
      </trkpt>
      <trkpt lat="46.54608" lon="0.35219">
        <ele>111.87805204187</ele>
        <time>2021-09-21T13:40:28Z</time>
      </trkpt>
      <trkpt lat="46.54607" lon="0.35222">
        <ele>111.95483017154</ele>
        <time>2021-09-21T13:40:30Z</time>
      </trkpt>
      <trkpt lat="46.54606" lon="0.35226">
        <ele>111.88650975004</ele>
        <time>2021-09-21T13:40:32Z</time>
      </trkpt>
      <trkpt lat="46.54605" lon="0.3523">
        <ele>111.83657784853</ele>
        <time>2021-09-21T13:40:34Z</time>
      </trkpt>
      <trkpt lat="46.54604" lon="0.35233">
        <ele>111.81232091598</ele>
        <time>2021-09-21T13:40:36Z</time>
      </trkpt>
      <trkpt lat="46.54603" lon="0.35236">
        <ele>111.7591178501</ele>
        <time>2021-09-21T13:40:38Z</time>
      </trkpt>
      <trkpt lat="46.54601" lon="0.3524">
        <ele>111.9443870103</ele>
        <time>2021-09-21T13:40:40Z</time>
      </trkpt>
      <trkpt lat="46.546" lon="0.35243">
        <ele>112.06960142031</ele>
        <time>2021-09-21T13:40:42Z</time>
      </trkpt>
      <trkpt lat="46.54599" lon="0.35246">
        <ele>112.19770458713</ele>
        <time>2021-09-21T13:40:44Z</time>
      </trkpt>
      <trkpt lat="46.54598" lon="0.3525">
        <ele>112.17268563621</ele>
        <time>2021-09-21T13:40:46Z</time>
      </trkpt>
      <trkpt lat="46.54597" lon="0.35253">
        <ele>112.01533534192</ele>
        <time>2021-09-21T13:40:49Z</time>
      </trkpt>
      <trkpt lat="46.54595" lon="0.35256">
        <ele>112.37148283329</ele>
        <time>2021-09-21T13:40:50Z</time>
      </trkpt>
      <trkpt lat="46.54595" lon="0.35259">
        <ele>112.84462785441</ele>
        <time>2021-09-21T13:40:52Z</time>
      </trkpt>
      <trkpt lat="46.54593" lon="0.35262">
        <ele>112.37053787056</ele>
        <time>2021-09-21T13:40:54Z</time>
      </trkpt>
      <trkpt lat="46.54592" lon="0.35266">
        <ele>112.71408489998</ele>
        <time>2021-09-21T13:40:56Z</time>
      </trkpt>
      <trkpt lat="46.54592" lon="0.35269">
        <ele>112.69336472359</ele>
        <time>2021-09-21T13:40:58Z</time>
      </trkpt>
      <trkpt lat="46.54591" lon="0.35271">
        <ele>113.04200669657</ele>
        <time>2021-09-21T13:40:59Z</time>
      </trkpt>
      <trkpt lat="46.54589" lon="0.35275">
        <ele>112.8103538882</ele>
        <time>2021-09-21T13:41:01Z</time>
      </trkpt>
      <trkpt lat="46.54588" lon="0.35278">
        <ele>113.71118429583</ele>
        <time>2021-09-21T13:41:03Z</time>
      </trkpt>
      <trkpt lat="46.54587" lon="0.35282">
        <ele>113.76110386755</ele>
        <time>2021-09-21T13:41:06Z</time>
      </trkpt>
      <trkpt lat="46.54586" lon="0.35285">
        <ele>113.8341663368</ele>
        <time>2021-09-21T13:41:10Z</time>
      </trkpt>
      <trkpt lat="46.54586" lon="0.35289">
        <ele>113.59294172283</ele>
        <time>2021-09-21T13:41:13Z</time>
      </trkpt>
      <trkpt lat="46.54587" lon="0.35291">
        <ele>113.69709429704</ele>
        <time>2021-09-21T13:41:17Z</time>
      </trkpt>
      <trkpt lat="46.54586" lon="0.35294">
        <ele>113.59598060418</ele>
        <time>2021-09-21T13:41:21Z</time>
      </trkpt>
      <trkpt lat="46.54585" lon="0.35298">
        <ele>113.26228075568</ele>
        <time>2021-09-21T13:41:23Z</time>
      </trkpt>
      <trkpt lat="46.54585" lon="0.35301">
        <ele>113.33812148403</ele>
        <time>2021-09-21T13:41:27Z</time>
      </trkpt>
      <trkpt lat="46.54584" lon="0.35303">
        <ele>113.44450227171</ele>
        <time>2021-09-21T13:41:28Z</time>
      </trkpt>
      <trkpt lat="46.54584" lon="0.35305">
        <ele>113.9600823056</ele>
        <time>2021-09-21T13:41:30Z</time>
      </trkpt>
      <trkpt lat="46.54581" lon="0.35307">
        <ele>113.68454928044</ele>
        <time>2021-09-21T13:41:33Z</time>
      </trkpt>
      <trkpt lat="46.5458" lon="0.35309">
        <ele>113.51440222841</ele>
        <time>2021-09-21T13:41:35Z</time>
      </trkpt>
      <trkpt lat="46.54578" lon="0.35311">
        <ele>114.00483108778</ele>
        <time>2021-09-21T13:41:37Z</time>
      </trkpt>
      <trkpt lat="46.54577" lon="0.35314">
        <ele>114.33931864984</ele>
        <time>2021-09-21T13:41:39Z</time>
      </trkpt>
      <trkpt lat="46.54575" lon="0.35315">
        <ele>114.19940198679</ele>
        <time>2021-09-21T13:41:41Z</time>
      </trkpt>
      <trkpt lat="46.54572" lon="0.35317">
        <ele>114.31850321032</ele>
        <time>2021-09-21T13:41:43Z</time>
      </trkpt>
      <trkpt lat="46.54571" lon="0.35318">
        <ele>114.24657597393</ele>
        <time>2021-09-21T13:41:45Z</time>
      </trkpt>
      <trkpt lat="46.54568" lon="0.3532">
        <ele>115.17060018703</ele>
        <time>2021-09-21T13:41:48Z</time>
      </trkpt>
      <trkpt lat="46.54566" lon="0.35321">
        <ele>114.88070924114</ele>
        <time>2021-09-21T13:41:51Z</time>
      </trkpt>
      <trkpt lat="46.54564" lon="0.35324">
        <ele>114.91119734105</ele>
        <time>2021-09-21T13:41:53Z</time>
      </trkpt>
      <trkpt lat="46.54564" lon="0.35326">
        <ele>115.19169463497</ele>
        <time>2021-09-21T13:41:55Z</time>
      </trkpt>
      <trkpt lat="46.54565" lon="0.35326">
        <ele>115.21268308163</ele>
        <time>2021-09-21T13:42:02Z</time>
      </trkpt>
      <trkpt lat="46.54565" lon="0.35329">
        <ele>115.05017294642</ele>
        <time>2021-09-21T13:42:03Z</time>
      </trkpt>
      <trkpt lat="46.54565" lon="0.35333">
        <ele>115.35172127374</ele>
        <time>2021-09-21T13:42:05Z</time>
      </trkpt>
      <trkpt lat="46.54565" lon="0.35337">
        <ele>114.99911125284</ele>
        <time>2021-09-21T13:42:08Z</time>
      </trkpt>
      <trkpt lat="46.54563" lon="0.35339">
        <ele>115.22794625722</ele>
        <time>2021-09-21T13:42:10Z</time>
      </trkpt>
      <trkpt lat="46.54563" lon="0.35341">
        <ele>114.47742609307</ele>
        <time>2021-09-21T13:42:12Z</time>
      </trkpt>
      <trkpt lat="46.54563" lon="0.35344">
        <ele>114.48453570157</ele>
        <time>2021-09-21T13:42:14Z</time>
      </trkpt>
      <trkpt lat="46.54564" lon="0.35346">
        <ele>114.17968637589</ele>
        <time>2021-09-21T13:42:17Z</time>
      </trkpt>
      <trkpt lat="46.54566" lon="0.35346">
        <ele>113.82579397131</ele>
        <time>2021-09-21T13:42:19Z</time>
      </trkpt>
      <trkpt lat="46.54568" lon="0.35347">
        <ele>113.13587012049</ele>
        <time>2021-09-21T13:42:21Z</time>
      </trkpt>
      <trkpt lat="46.5457" lon="0.35348">
        <ele>112.82039082982</ele>
        <time>2021-09-21T13:42:24Z</time>
      </trkpt>
      <trkpt lat="46.54573" lon="0.3535">
        <ele>112.35407907981</ele>
        <time>2021-09-21T13:42:29Z</time>
      </trkpt>
      <trkpt lat="46.54574" lon="0.35349">
        <ele>112.2525201831</ele>
        <time>2021-09-21T13:42:31Z</time>
      </trkpt>
      <trkpt lat="46.54576" lon="0.3535">
        <ele>112.07990624569</ele>
        <time>2021-09-21T13:42:37Z</time>
      </trkpt>
      <trkpt lat="46.54578" lon="0.35352">
        <ele>111.43810957577</ele>
        <time>2021-09-21T13:42:39Z</time>
      </trkpt>
      <trkpt lat="46.5458" lon="0.35353">
        <ele>110.86851965636</ele>
        <time>2021-09-21T13:42:41Z</time>
      </trkpt>
      <trkpt lat="46.54582" lon="0.35352">
        <ele>110.75692549814</ele>
        <time>2021-09-21T13:42:45Z</time>
      </trkpt>
      <trkpt lat="46.54584" lon="0.35351">
        <ele>110.42896228004</ele>
        <time>2021-09-21T13:42:48Z</time>
      </trkpt>
      <trkpt lat="46.54587" lon="0.35352">
        <ele>110.02869484946</ele>
        <time>2021-09-21T13:42:52Z</time>
      </trkpt>
      <trkpt lat="46.54589" lon="0.35352">
        <ele>109.50079196226</ele>
        <time>2021-09-21T13:42:54Z</time>
      </trkpt>
      <trkpt lat="46.54591" lon="0.35354">
        <ele>108.8250129763</ele>
        <time>2021-09-21T13:42:57Z</time>
      </trkpt>
      <trkpt lat="46.54593" lon="0.35355">
        <ele>108.63920699153</ele>
        <time>2021-09-21T13:43:03Z</time>
      </trkpt>
      <trkpt lat="46.54595" lon="0.35358">
        <ele>108.289706829</ele>
        <time>2021-09-21T13:43:06Z</time>
      </trkpt>
      <trkpt lat="46.54597" lon="0.3536">
        <ele>107.63871413097</ele>
        <time>2021-09-21T13:43:09Z</time>
      </trkpt>
      <trkpt lat="46.54598" lon="0.35361">
        <ele>107.03834106866</ele>
        <time>2021-09-21T13:43:11Z</time>
      </trkpt>
      <trkpt lat="46.54601" lon="0.35361">
        <ele>106.55231694784</ele>
        <time>2021-09-21T13:43:14Z</time>
      </trkpt>
      <trkpt lat="46.54603" lon="0.35362">
        <ele>105.88470191229</ele>
        <time>2021-09-21T13:43:17Z</time>
      </trkpt>
      <trkpt lat="46.54605" lon="0.35364">
        <ele>105.73269382771</ele>
        <time>2021-09-21T13:43:19Z</time>
      </trkpt>
      <trkpt lat="46.54607" lon="0.35363">
        <ele>105.90851414017</ele>
        <time>2021-09-21T13:43:21Z</time>
      </trkpt>
      <trkpt lat="46.5461" lon="0.35363">
        <ele>104.67223695759</ele>
        <time>2021-09-21T13:43:24Z</time>
      </trkpt>
      <trkpt lat="46.54612" lon="0.35364">
        <ele>104.17257286794</ele>
        <time>2021-09-21T13:43:26Z</time>
      </trkpt>
      <trkpt lat="46.54614" lon="0.35367">
        <ele>104.02971419785</ele>
        <time>2021-09-21T13:43:29Z</time>
      </trkpt>
      <trkpt lat="46.54615" lon="0.35369">
        <ele>103.51681493782</ele>
        <time>2021-09-21T13:43:31Z</time>
      </trkpt>
      <trkpt lat="46.54618" lon="0.3537">
        <ele>103.59905625694</ele>
        <time>2021-09-21T13:43:33Z</time>
      </trkpt>
      <trkpt lat="46.54619" lon="0.35371">
        <ele>103.51867194287</ele>
        <time>2021-09-21T13:43:35Z</time>
      </trkpt>
      <trkpt lat="46.54621" lon="0.35371">
        <ele>103.09229268972</ele>
        <time>2021-09-21T13:43:37Z</time>
      </trkpt>
      <trkpt lat="46.54623" lon="0.3537">
        <ele>102.8559913775</ele>
        <time>2021-09-21T13:43:39Z</time>
      </trkpt>
      <trkpt lat="46.54626" lon="0.35369">
        <ele>102.44592184015</ele>
        <time>2021-09-21T13:43:42Z</time>
      </trkpt>
      <trkpt lat="46.54628" lon="0.35368">
        <ele>101.85846862011</ele>
        <time>2021-09-21T13:43:44Z</time>
      </trkpt>
      <trkpt lat="46.54631" lon="0.35369">
        <ele>101.81505241245</ele>
        <time>2021-09-21T13:43:46Z</time>
      </trkpt>
      <trkpt lat="46.54633" lon="0.35371">
        <ele>100.96623898856</ele>
        <time>2021-09-21T13:43:49Z</time>
      </trkpt>
      <trkpt lat="46.54635" lon="0.35372">
        <ele>101.11080018152</ele>
        <time>2021-09-21T13:43:51Z</time>
      </trkpt>
      <trkpt lat="46.54637" lon="0.35374">
        <ele>100.3102992028</ele>
        <time>2021-09-21T13:43:53Z</time>
      </trkpt>
      <trkpt lat="46.54639" lon="0.35377">
        <ele>100.22812656872</ele>
        <time>2021-09-21T13:43:56Z</time>
      </trkpt>
      <trkpt lat="46.54641" lon="0.35379">
        <ele>99.854730343446</ele>
        <time>2021-09-21T13:43:58Z</time>
      </trkpt>
      <trkpt lat="46.54644" lon="0.35382">
        <ele>99.692178492434</ele>
        <time>2021-09-21T13:44:02Z</time>
      </trkpt>
      <trkpt lat="46.54645" lon="0.35386">
        <ele>99.552583675832</ele>
        <time>2021-09-21T13:44:04Z</time>
      </trkpt>
      <trkpt lat="46.54646" lon="0.35388">
        <ele>99.374758356251</ele>
        <time>2021-09-21T13:44:06Z</time>
      </trkpt>
      <trkpt lat="46.54648" lon="0.3539">
        <ele>99.066878119484</ele>
        <time>2021-09-21T13:44:08Z</time>
      </trkpt>
      <trkpt lat="46.5465" lon="0.35393">
        <ele>99.032961630262</ele>
        <time>2021-09-21T13:44:10Z</time>
      </trkpt>
      <trkpt lat="46.54652" lon="0.35395">
        <ele>98.964624399319</ele>
        <time>2021-09-21T13:44:11Z</time>
      </trkpt>
      <trkpt lat="46.54652" lon="0.35398">
        <ele>98.79490120057</ele>
        <time>2021-09-21T13:44:13Z</time>
      </trkpt>
      <trkpt lat="46.54654" lon="0.35399">
        <ele>98.254472639412</ele>
        <time>2021-09-21T13:44:15Z</time>
      </trkpt>
      <trkpt lat="46.54655" lon="0.35402">
        <ele>98.210049207322</ele>
        <time>2021-09-21T13:44:18Z</time>
      </trkpt>
      <trkpt lat="46.54657" lon="0.35404">
        <ele>97.95143433474</ele>
        <time>2021-09-21T13:44:20Z</time>
      </trkpt>
      <trkpt lat="46.54658" lon="0.35407">
        <ele>97.401610590518</ele>
        <time>2021-09-21T13:44:23Z</time>
      </trkpt>
      <trkpt lat="46.5466" lon="0.3541">
        <ele>97.130072203465</ele>
        <time>2021-09-21T13:44:25Z</time>
      </trkpt>
      <trkpt lat="46.54662" lon="0.35412">
        <ele>97.051173263229</ele>
        <time>2021-09-21T13:44:27Z</time>
      </trkpt>
      <trkpt lat="46.54664" lon="0.35413">
        <ele>96.836893392727</ele>
        <time>2021-09-21T13:44:29Z</time>
      </trkpt>
      <trkpt lat="46.54665" lon="0.35415">
        <ele>96.836429882795</ele>
        <time>2021-09-21T13:44:31Z</time>
      </trkpt>
      <trkpt lat="46.54667" lon="0.35417">
        <ele>96.316701472737</ele>
        <time>2021-09-21T13:44:33Z</time>
      </trkpt>
      <trkpt lat="46.54669" lon="0.35418">
        <ele>95.99065222498</ele>
        <time>2021-09-21T13:44:35Z</time>
      </trkpt>
      <trkpt lat="46.54671" lon="0.3542">
        <ele>96.149372695014</ele>
        <time>2021-09-21T13:44:37Z</time>
      </trkpt>
      <trkpt lat="46.54674" lon="0.35422">
        <ele>95.759007141925</ele>
        <time>2021-09-21T13:44:39Z</time>
      </trkpt>
      <trkpt lat="46.54676" lon="0.35424">
        <ele>95.429832408205</ele>
        <time>2021-09-21T13:44:42Z</time>
      </trkpt>
      <trkpt lat="46.54678" lon="0.35424">
        <ele>95.398654844612</ele>
        <time>2021-09-21T13:44:43Z</time>
      </trkpt>
      <trkpt lat="46.5468" lon="0.35426">
        <ele>95.055139989592</ele>
        <time>2021-09-21T13:44:45Z</time>
      </trkpt>
      <trkpt lat="46.54682" lon="0.35427">
        <ele>94.813401224092</ele>
        <time>2021-09-21T13:44:47Z</time>
      </trkpt>
      <trkpt lat="46.54685" lon="0.35429">
        <ele>94.349979105406</ele>
        <time>2021-09-21T13:44:49Z</time>
      </trkpt>
      <trkpt lat="46.54687" lon="0.35431">
        <ele>94.203068397008</ele>
        <time>2021-09-21T13:44:51Z</time>
      </trkpt>
      <trkpt lat="46.54689" lon="0.35434">
        <ele>93.315568441525</ele>
        <time>2021-09-21T13:44:54Z</time>
      </trkpt>
      <trkpt lat="46.5469" lon="0.35437">
        <ele>93.451883744448</ele>
        <time>2021-09-21T13:44:56Z</time>
      </trkpt>
      <trkpt lat="46.54692" lon="0.35439">
        <ele>92.824114346877</ele>
        <time>2021-09-21T13:44:58Z</time>
      </trkpt>
      <trkpt lat="46.54694" lon="0.35441">
        <ele>92.631673289463</ele>
        <time>2021-09-21T13:45:00Z</time>
      </trkpt>
      <trkpt lat="46.54696" lon="0.35444">
        <ele>92.685630289838</ele>
        <time>2021-09-21T13:45:02Z</time>
      </trkpt>
      <trkpt lat="46.54697" lon="0.35446">
        <ele>92.394112369046</ele>
        <time>2021-09-21T13:45:04Z</time>
      </trkpt>
      <trkpt lat="46.54699" lon="0.35448">
        <ele>91.755914295092</ele>
        <time>2021-09-21T13:45:06Z</time>
      </trkpt>
      <trkpt lat="46.547" lon="0.35451">
        <ele>91.362012106925</ele>
        <time>2021-09-21T13:45:08Z</time>
      </trkpt>
      <trkpt lat="46.547" lon="0.35453">
        <ele>91.169359859079</ele>
        <time>2021-09-21T13:45:10Z</time>
      </trkpt>
      <trkpt lat="46.54699" lon="0.35456">
        <ele>90.90855536703</ele>
        <time>2021-09-21T13:45:12Z</time>
      </trkpt>
      <trkpt lat="46.54699" lon="0.35459">
        <ele>90.477697660215</ele>
        <time>2021-09-21T13:45:15Z</time>
      </trkpt>
      <trkpt lat="46.54698" lon="0.35463">
        <ele>90.25343521405</ele>
        <time>2021-09-21T13:45:17Z</time>
      </trkpt>
      <trkpt lat="46.54697" lon="0.35465">
        <ele>90.479807468131</ele>
        <time>2021-09-21T13:45:19Z</time>
      </trkpt>
      <trkpt lat="46.54696" lon="0.35468">
        <ele>90.313847586513</ele>
        <time>2021-09-21T13:45:21Z</time>
      </trkpt>
      <trkpt lat="46.54696" lon="0.35471">
        <ele>90.442363622598</ele>
        <time>2021-09-21T13:45:23Z</time>
      </trkpt>
      <trkpt lat="46.54695" lon="0.35475">
        <ele>90.15851988364</ele>
        <time>2021-09-21T13:45:26Z</time>
      </trkpt>
      <trkpt lat="46.54695" lon="0.35479">
        <ele>90.016647837125</ele>
        <time>2021-09-21T13:45:28Z</time>
      </trkpt>
      <trkpt lat="46.54695" lon="0.35481">
        <ele>89.876290583052</ele>
        <time>2021-09-21T13:45:30Z</time>
      </trkpt>
      <trkpt lat="46.54695" lon="0.35485">
        <ele>89.493275056593</ele>
        <time>2021-09-21T13:45:33Z</time>
      </trkpt>
      <trkpt lat="46.54695" lon="0.35488">
        <ele>88.730982693844</ele>
        <time>2021-09-21T13:45:35Z</time>
      </trkpt>
      <trkpt lat="46.54695" lon="0.35492">
        <ele>88.843910463154</ele>
        <time>2021-09-21T13:45:37Z</time>
      </trkpt>
      <trkpt lat="46.54696" lon="0.35495">
        <ele>88.807997239754</ele>
        <time>2021-09-21T13:45:38Z</time>
      </trkpt>
      <trkpt lat="46.54696" lon="0.35498">
        <ele>88.44603083469</ele>
        <time>2021-09-21T13:45:40Z</time>
      </trkpt>
      <trkpt lat="46.54696" lon="0.35502">
        <ele>88.16125364881</ele>
        <time>2021-09-21T13:45:43Z</time>
      </trkpt>
      <trkpt lat="46.54697" lon="0.35505">
        <ele>87.970777899958</ele>
        <time>2021-09-21T13:45:45Z</time>
      </trkpt>
      <trkpt lat="46.54697" lon="0.35508">
        <ele>87.477571991272</ele>
        <time>2021-09-21T13:45:47Z</time>
      </trkpt>
      <trkpt lat="46.54697" lon="0.35511">
        <ele>87.673847141676</ele>
        <time>2021-09-21T13:45:49Z</time>
      </trkpt>
      <trkpt lat="46.54698" lon="0.35515">
        <ele>87.267291010357</ele>
        <time>2021-09-21T13:45:51Z</time>
      </trkpt>
      <trkpt lat="46.54698" lon="0.35519">
        <ele>87.516374659725</ele>
        <time>2021-09-21T13:45:53Z</time>
      </trkpt>
      <trkpt lat="46.54699" lon="0.35523">
        <ele>86.621148687787</ele>
        <time>2021-09-21T13:45:55Z</time>
      </trkpt>
      <trkpt lat="46.54699" lon="0.35526">
        <ele>86.620643923059</ele>
        <time>2021-09-21T13:45:57Z</time>
      </trkpt>
      <trkpt lat="46.54699" lon="0.3553">
        <ele>86.363395505585</ele>
        <time>2021-09-21T13:45:59Z</time>
      </trkpt>
      <trkpt lat="46.54699" lon="0.35533">
        <ele>85.970714066178</ele>
        <time>2021-09-21T13:46:02Z</time>
      </trkpt>
      <trkpt lat="46.54699" lon="0.35536">
        <ele>85.611622109078</ele>
        <time>2021-09-21T13:46:04Z</time>
      </trkpt>
      <trkpt lat="46.547" lon="0.35539">
        <ele>85.740085054189</ele>
        <time>2021-09-21T13:46:06Z</time>
      </trkpt>
      <trkpt lat="46.54701" lon="0.35542">
        <ele>85.506074462086</ele>
        <time>2021-09-21T13:46:08Z</time>
      </trkpt>
      <trkpt lat="46.54703" lon="0.35544">
        <ele>85.446901008487</ele>
        <time>2021-09-21T13:46:10Z</time>
      </trkpt>
      <trkpt lat="46.54704" lon="0.35547">
        <ele>85.233047190122</ele>
        <time>2021-09-21T13:46:12Z</time>
      </trkpt>
      <trkpt lat="46.54705" lon="0.3555">
        <ele>85.0358326938</ele>
        <time>2021-09-21T13:46:14Z</time>
      </trkpt>
      <trkpt lat="46.54706" lon="0.35553">
        <ele>84.561344879679</ele>
        <time>2021-09-21T13:46:16Z</time>
      </trkpt>
      <trkpt lat="46.54707" lon="0.35555">
        <ele>84.366117640398</ele>
        <time>2021-09-21T13:46:19Z</time>
      </trkpt>
      <trkpt lat="46.54708" lon="0.35558">
        <ele>84.631338248961</ele>
        <time>2021-09-21T13:46:21Z</time>
      </trkpt>
      <trkpt lat="46.54708" lon="0.35561">
        <ele>85.355694013648</ele>
        <time>2021-09-21T13:46:24Z</time>
      </trkpt>
      <trkpt lat="46.54711" lon="0.35562">
        <ele>84.831098150462</ele>
        <time>2021-09-21T13:46:29Z</time>
      </trkpt>
      <trkpt lat="46.54714" lon="0.35563">
        <ele>84.607298741117</ele>
        <time>2021-09-21T13:46:31Z</time>
      </trkpt>
      <trkpt lat="46.54715" lon="0.35564">
        <ele>83.955622111447</ele>
        <time>2021-09-21T13:46:34Z</time>
      </trkpt>
      <trkpt lat="46.54717" lon="0.35565">
        <ele>83.93755603116</ele>
        <time>2021-09-21T13:46:36Z</time>
      </trkpt>
      <trkpt lat="46.54719" lon="0.35566">
        <ele>83.728058477864</ele>
        <time>2021-09-21T13:46:38Z</time>
      </trkpt>
      <trkpt lat="46.54722" lon="0.35566">
        <ele>83.390549014322</ele>
        <time>2021-09-21T13:46:41Z</time>
      </trkpt>
      <trkpt lat="46.54724" lon="0.35565">
        <ele>82.62073788885</ele>
        <time>2021-09-21T13:46:43Z</time>
      </trkpt>
      <trkpt lat="46.54726" lon="0.35565">
        <ele>82.674496693537</ele>
        <time>2021-09-21T13:46:45Z</time>
      </trkpt>
      <trkpt lat="46.54729" lon="0.35565">
        <ele>82.76184809953</ele>
        <time>2021-09-21T13:46:48Z</time>
      </trkpt>
      <trkpt lat="46.54731" lon="0.35565">
        <ele>82.208374689333</ele>
        <time>2021-09-21T13:46:49Z</time>
      </trkpt>
      <trkpt lat="46.54734" lon="0.35567">
        <ele>81.827650396153</ele>
        <time>2021-09-21T13:46:51Z</time>
      </trkpt>
      <trkpt lat="46.54735" lon="0.35567">
        <ele>82.097331291996</ele>
        <time>2021-09-21T13:46:53Z</time>
      </trkpt>
      <trkpt lat="46.54737" lon="0.35569">
        <ele>81.910630364902</ele>
        <time>2021-09-21T13:46:56Z</time>
      </trkpt>
      <trkpt lat="46.54738" lon="0.3557">
        <ele>81.619281862862</ele>
        <time>2021-09-21T13:47:00Z</time>
      </trkpt>
      <trkpt lat="46.54738" lon="0.35573">
        <ele>81.740586653352</ele>
        <time>2021-09-21T13:47:12Z</time>
      </trkpt>
      <trkpt lat="46.54737" lon="0.35575">
        <ele>81.672601374798</ele>
        <time>2021-09-21T13:47:13Z</time>
      </trkpt>
      <trkpt lat="46.54739" lon="0.35578">
        <ele>81.688442966901</ele>
        <time>2021-09-21T13:47:20Z</time>
      </trkpt>
      <trkpt lat="46.54741" lon="0.35575">
        <ele>81.713544101454</ele>
        <time>2021-09-21T13:47:23Z</time>
      </trkpt>
      <trkpt lat="46.54742" lon="0.35573">
        <ele>81.585735823959</ele>
        <time>2021-09-21T13:47:25Z</time>
      </trkpt>
      <trkpt lat="46.54743" lon="0.3557">
        <ele>81.403794851154</ele>
        <time>2021-09-21T13:47:29Z</time>
      </trkpt>
      <trkpt lat="46.54742" lon="0.35572">
        <ele>81.040393969044</ele>
        <time>2021-09-21T13:47:38Z</time>
      </trkpt>
      <trkpt lat="46.54742" lon="0.35577">
        <ele>81.033564681187</ele>
        <time>2021-09-21T13:47:41Z</time>
      </trkpt>
      <trkpt lat="46.54742" lon="0.35581">
        <ele>81.000465561636</ele>
        <time>2021-09-21T13:47:43Z</time>
      </trkpt>
      <trkpt lat="46.54741" lon="0.35584">
        <ele>81.16207280755</ele>
        <time>2021-09-21T13:47:45Z</time>
      </trkpt>
      <trkpt lat="46.54741" lon="0.35588">
        <ele>81.277468042448</ele>
        <time>2021-09-21T13:47:47Z</time>
      </trkpt>
      <trkpt lat="46.54742" lon="0.35592">
        <ele>81.768659892492</ele>
        <time>2021-09-21T13:47:50Z</time>
      </trkpt>
      <trkpt lat="46.54742" lon="0.35596">
        <ele>81.857220299542</ele>
        <time>2021-09-21T13:47:52Z</time>
      </trkpt>
      <trkpt lat="46.54743" lon="0.35598">
        <ele>81.834410754964</ele>
        <time>2021-09-21T13:47:54Z</time>
      </trkpt>
      <trkpt lat="46.54743" lon="0.35602">
        <ele>82.108601407148</ele>
        <time>2021-09-21T13:47:56Z</time>
      </trkpt>
      <trkpt lat="46.54744" lon="0.35606">
        <ele>81.967903380282</ele>
        <time>2021-09-21T13:47:58Z</time>
      </trkpt>
      <trkpt lat="46.54745" lon="0.35609">
        <ele>82.438102359883</ele>
        <time>2021-09-21T13:48:01Z</time>
      </trkpt>
      <trkpt lat="46.54745" lon="0.35614">
        <ele>82.266971758567</ele>
        <time>2021-09-21T13:48:03Z</time>
      </trkpt>
      <trkpt lat="46.54746" lon="0.35616">
        <ele>82.071575716138</ele>
        <time>2021-09-21T13:48:05Z</time>
      </trkpt>
      <trkpt lat="46.54746" lon="0.35619">
        <ele>82.438322659582</ele>
        <time>2021-09-21T13:48:07Z</time>
      </trkpt>
      <trkpt lat="46.54746" lon="0.35622">
        <ele>82.479452281259</ele>
        <time>2021-09-21T13:48:09Z</time>
      </trkpt>
      <trkpt lat="46.54746" lon="0.35626">
        <ele>82.670956501737</ele>
        <time>2021-09-21T13:48:11Z</time>
      </trkpt>
      <trkpt lat="46.54747" lon="0.35629">
        <ele>82.632505389862</ele>
        <time>2021-09-21T13:48:13Z</time>
      </trkpt>
      <trkpt lat="46.54747" lon="0.35632">
        <ele>82.675291958265</ele>
        <time>2021-09-21T13:48:15Z</time>
      </trkpt>
      <trkpt lat="46.54747" lon="0.35635">
        <ele>82.969605044462</ele>
        <time>2021-09-21T13:48:17Z</time>
      </trkpt>
      <trkpt lat="46.54747" lon="0.35638">
        <ele>82.662882748991</ele>
        <time>2021-09-21T13:48:18Z</time>
      </trkpt>
      <trkpt lat="46.54747" lon="0.35642">
        <ele>83.362479169853</ele>
        <time>2021-09-21T13:48:20Z</time>
      </trkpt>
      <trkpt lat="46.54747" lon="0.35645">
        <ele>83.375017552637</ele>
        <time>2021-09-21T13:48:22Z</time>
      </trkpt>
      <trkpt lat="46.54747" lon="0.35649">
        <ele>83.555921126157</ele>
        <time>2021-09-21T13:48:25Z</time>
      </trkpt>
      <trkpt lat="46.54748" lon="0.35654">
        <ele>83.399231726304</ele>
        <time>2021-09-21T13:48:27Z</time>
      </trkpt>
      <trkpt lat="46.54749" lon="0.35658">
        <ele>83.780014099553</ele>
        <time>2021-09-21T13:48:29Z</time>
      </trkpt>
      <trkpt lat="46.5475" lon="0.35662">
        <ele>84.138875038363</ele>
        <time>2021-09-21T13:48:32Z</time>
      </trkpt>
      <trkpt lat="46.5475" lon="0.35666">
        <ele>84.362345012836</ele>
        <time>2021-09-21T13:48:34Z</time>
      </trkpt>
      <trkpt lat="46.54751" lon="0.3567">
        <ele>83.988716976717</ele>
        <time>2021-09-21T13:48:36Z</time>
      </trkpt>
      <trkpt lat="46.54751" lon="0.35673">
        <ele>84.063939323649</ele>
        <time>2021-09-21T13:48:38Z</time>
      </trkpt>
      <trkpt lat="46.54752" lon="0.35676">
        <ele>83.875444787554</ele>
        <time>2021-09-21T13:48:40Z</time>
      </trkpt>
      <trkpt lat="46.54751" lon="0.35681">
        <ele>84.446007374674</ele>
        <time>2021-09-21T13:48:43Z</time>
      </trkpt>
      <trkpt lat="46.54752" lon="0.35686">
        <ele>84.594449880533</ele>
        <time>2021-09-21T13:48:46Z</time>
      </trkpt>
      <trkpt lat="46.54752" lon="0.3569">
        <ele>84.633951765485</ele>
        <time>2021-09-21T13:48:48Z</time>
      </trkpt>
      <trkpt lat="46.54752" lon="0.35692">
        <ele>84.743711655028</ele>
        <time>2021-09-21T13:48:50Z</time>
      </trkpt>
      <trkpt lat="46.54752" lon="0.35695">
        <ele>84.970825526863</ele>
        <time>2021-09-21T13:48:51Z</time>
      </trkpt>
      <trkpt lat="46.54754" lon="0.35698">
        <ele>85.208318211138</ele>
        <time>2021-09-21T13:48:53Z</time>
      </trkpt>
      <trkpt lat="46.54755" lon="0.35701">
        <ele>85.174358555116</ele>
        <time>2021-09-21T13:48:54Z</time>
      </trkpt>
      <trkpt lat="46.54755" lon="0.35704">
        <ele>84.754488110542</ele>
        <time>2021-09-21T13:48:57Z</time>
      </trkpt>
      <trkpt lat="46.54755" lon="0.35708">
        <ele>84.752812241204</ele>
        <time>2021-09-21T13:49:00Z</time>
      </trkpt>
      <trkpt lat="46.54756" lon="0.35711">
        <ele>84.769118938595</ele>
        <time>2021-09-21T13:49:02Z</time>
      </trkpt>
      <trkpt lat="46.54755" lon="0.35714">
        <ele>84.844402863644</ele>
        <time>2021-09-21T13:49:04Z</time>
      </trkpt>
      <trkpt lat="46.54755" lon="0.35718">
        <ele>85.08713155333</ele>
        <time>2021-09-21T13:49:06Z</time>
      </trkpt>
      <trkpt lat="46.54756" lon="0.35722">
        <ele>85.351451128721</ele>
        <time>2021-09-21T13:49:08Z</time>
      </trkpt>
      <trkpt lat="46.54757" lon="0.35726">
        <ele>85.130737631582</ele>
        <time>2021-09-21T13:49:10Z</time>
      </trkpt>
      <trkpt lat="46.54758" lon="0.3573">
        <ele>85.350039731711</ele>
        <time>2021-09-21T13:49:12Z</time>
      </trkpt>
      <trkpt lat="46.54758" lon="0.35734">
        <ele>85.380249135196</ele>
        <time>2021-09-21T13:49:14Z</time>
      </trkpt>
      <trkpt lat="46.54758" lon="0.35737">
        <ele>85.728711134754</ele>
        <time>2021-09-21T13:49:16Z</time>
      </trkpt>
      <trkpt lat="46.54759" lon="0.3574">
        <ele>86.044856133871</ele>
        <time>2021-09-21T13:49:18Z</time>
      </trkpt>
      <trkpt lat="46.54759" lon="0.35744">
        <ele>86.074151207693</ele>
        <time>2021-09-21T13:49:20Z</time>
      </trkpt>
      <trkpt lat="46.54758" lon="0.35747">
        <ele>86.138105181977</ele>
        <time>2021-09-21T13:49:22Z</time>
      </trkpt>
      <trkpt lat="46.54758" lon="0.35751">
        <ele>86.534143157303</ele>
        <time>2021-09-21T13:49:25Z</time>
      </trkpt>
      <trkpt lat="46.54759" lon="0.35754">
        <ele>86.37890299689</ele>
        <time>2021-09-21T13:49:27Z</time>
      </trkpt>
      <trkpt lat="46.54759" lon="0.35757">
        <ele>86.149074711837</ele>
        <time>2021-09-21T13:49:28Z</time>
      </trkpt>
      <trkpt lat="46.54759" lon="0.35761">
        <ele>86.530240350403</ele>
        <time>2021-09-21T13:49:30Z</time>
      </trkpt>
      <trkpt lat="46.54758" lon="0.35764">
        <ele>86.660445638932</ele>
        <time>2021-09-21T13:49:32Z</time>
      </trkpt>
      <trkpt lat="46.54759" lon="0.35768">
        <ele>86.696520889178</ele>
        <time>2021-09-21T13:49:34Z</time>
      </trkpt>
      <trkpt lat="46.54759" lon="0.35772">
        <ele>86.92472056672</ele>
        <time>2021-09-21T13:49:36Z</time>
      </trkpt>
      <trkpt lat="46.5476" lon="0.35776">
        <ele>87.050178030506</ele>
        <time>2021-09-21T13:49:38Z</time>
      </trkpt>
      <trkpt lat="46.5476" lon="0.35779">
        <ele>87.143540078774</ele>
        <time>2021-09-21T13:49:40Z</time>
      </trkpt>
      <trkpt lat="46.5476" lon="0.35781">
        <ele>87.462809856981</ele>
        <time>2021-09-21T13:49:42Z</time>
      </trkpt>
      <trkpt lat="46.54761" lon="0.35786">
        <ele>87.010557685979</ele>
        <time>2021-09-21T13:49:45Z</time>
      </trkpt>
      <trkpt lat="46.5476" lon="0.3579">
        <ele>87.46552596055</ele>
        <time>2021-09-21T13:49:47Z</time>
      </trkpt>
      <trkpt lat="46.54761" lon="0.35793">
        <ele>87.919167551212</ele>
        <time>2021-09-21T13:49:50Z</time>
      </trkpt>
      <trkpt lat="46.54762" lon="0.35798">
        <ele>87.915982344188</ele>
        <time>2021-09-21T13:49:52Z</time>
      </trkpt>
      <trkpt lat="46.54763" lon="0.35801">
        <ele>87.807143683545</ele>
        <time>2021-09-21T13:49:54Z</time>
      </trkpt>
      <trkpt lat="46.54763" lon="0.35805">
        <ele>87.602407364175</ele>
        <time>2021-09-21T13:49:56Z</time>
      </trkpt>
      <trkpt lat="46.54762" lon="0.3581">
        <ele>87.883436235599</ele>
        <time>2021-09-21T13:49:58Z</time>
      </trkpt>
      <trkpt lat="46.54763" lon="0.35813">
        <ele>88.112585045397</ele>
        <time>2021-09-21T13:50:00Z</time>
      </trkpt>
      <trkpt lat="46.54764" lon="0.35816">
        <ele>87.945159749128</ele>
        <time>2021-09-21T13:50:02Z</time>
      </trkpt>
      <trkpt lat="46.54765" lon="0.35819">
        <ele>87.925946611911</ele>
        <time>2021-09-21T13:50:04Z</time>
      </trkpt>
      <trkpt lat="46.54766" lon="0.35822">
        <ele>88.133891418576</ele>
        <time>2021-09-21T13:50:07Z</time>
      </trkpt>
      <trkpt lat="46.54767" lon="0.35825">
        <ele>88.232054508291</ele>
        <time>2021-09-21T13:50:09Z</time>
      </trkpt>
      <trkpt lat="46.54768" lon="0.35827">
        <ele>88.048421845771</ele>
        <time>2021-09-21T13:50:11Z</time>
      </trkpt>
      <trkpt lat="46.54768" lon="0.35832">
        <ele>88.672418196686</ele>
        <time>2021-09-21T13:50:14Z</time>
      </trkpt>
      <trkpt lat="46.54768" lon="0.35835">
        <ele>87.995205697604</ele>
        <time>2021-09-21T13:50:16Z</time>
      </trkpt>
      <trkpt lat="46.54769" lon="0.35839">
        <ele>88.2498333361</ele>
        <time>2021-09-21T13:50:18Z</time>
      </trkpt>
      <trkpt lat="46.5477" lon="0.35842">
        <ele>88.387922649272</ele>
        <time>2021-09-21T13:50:20Z</time>
      </trkpt>
      <trkpt lat="46.54771" lon="0.35845">
        <ele>88.082953139208</ele>
        <time>2021-09-21T13:50:21Z</time>
      </trkpt>
      <trkpt lat="46.54772" lon="0.35847">
        <ele>87.929742636159</ele>
        <time>2021-09-21T13:50:23Z</time>
      </trkpt>
      <trkpt lat="46.54773" lon="0.3585">
        <ele>87.607178009115</ele>
        <time>2021-09-21T13:50:26Z</time>
      </trkpt>
      <trkpt lat="46.54774" lon="0.35852">
        <ele>87.489192064852</ele>
        <time>2021-09-21T13:50:27Z</time>
      </trkpt>
      <trkpt lat="46.54775" lon="0.35857">
        <ele>87.810452629812</ele>
        <time>2021-09-21T13:50:29Z</time>
      </trkpt>
      <trkpt lat="46.54775" lon="0.3586">
        <ele>87.778554220684</ele>
        <time>2021-09-21T13:50:31Z</time>
      </trkpt>
      <trkpt lat="46.54776" lon="0.35864">
        <ele>87.854124315083</ele>
        <time>2021-09-21T13:50:34Z</time>
      </trkpt>
      <trkpt lat="46.54778" lon="0.35866">
        <ele>87.436327748001</ele>
        <time>2021-09-21T13:50:36Z</time>
      </trkpt>
      <trkpt lat="46.54778" lon="0.3587">
        <ele>87.42736440897</ele>
        <time>2021-09-21T13:50:38Z</time>
      </trkpt>
      <trkpt lat="46.54779" lon="0.35874">
        <ele>87.182001236826</ele>
        <time>2021-09-21T13:50:40Z</time>
      </trkpt>
      <trkpt lat="46.5478" lon="0.35877">
        <ele>87.298977852799</ele>
        <time>2021-09-21T13:50:42Z</time>
      </trkpt>
      <trkpt lat="46.54781" lon="0.35882">
        <ele>87.307292311452</ele>
        <time>2021-09-21T13:50:45Z</time>
      </trkpt>
      <trkpt lat="46.54782" lon="0.35885">
        <ele>87.235628566705</ele>
        <time>2021-09-21T13:50:47Z</time>
      </trkpt>
      <trkpt lat="46.54783" lon="0.35889">
        <ele>87.274964337237</ele>
        <time>2021-09-21T13:50:49Z</time>
      </trkpt>
      <trkpt lat="46.54783" lon="0.35893">
        <ele>87.333322621882</ele>
        <time>2021-09-21T13:50:51Z</time>
      </trkpt>
      <trkpt lat="46.54785" lon="0.35895">
        <ele>86.874085483141</ele>
        <time>2021-09-21T13:50:53Z</time>
      </trkpt>
      <trkpt lat="46.54786" lon="0.35898">
        <ele>87.265088859014</ele>
        <time>2021-09-21T13:50:55Z</time>
      </trkpt>
      <trkpt lat="46.54787" lon="0.359">
        <ele>87.501498430036</ele>
        <time>2021-09-21T13:50:59Z</time>
      </trkpt>
      <trkpt lat="46.54789" lon="0.35903">
        <ele>87.218287551776</ele>
        <time>2021-09-21T13:51:01Z</time>
      </trkpt>
      <trkpt lat="46.5479" lon="0.35906">
        <ele>87.562850382179</ele>
        <time>2021-09-21T13:51:03Z</time>
      </trkpt>
      <trkpt lat="46.54791" lon="0.35909">
        <ele>87.348395227455</ele>
        <time>2021-09-21T13:51:04Z</time>
      </trkpt>
      <trkpt lat="46.54792" lon="0.35912">
        <ele>87.327220930718</ele>
        <time>2021-09-21T13:51:06Z</time>
      </trkpt>
      <trkpt lat="46.54792" lon="0.35914">
        <ele>87.469476922415</ele>
        <time>2021-09-21T13:51:08Z</time>
      </trkpt>
      <trkpt lat="46.54794" lon="0.35917">
        <ele>87.626322698779</ele>
        <time>2021-09-21T13:51:12Z</time>
      </trkpt>
      <trkpt lat="46.54796" lon="0.35919">
        <ele>87.347383758053</ele>
        <time>2021-09-21T13:51:14Z</time>
      </trkpt>
      <trkpt lat="46.54798" lon="0.35921">
        <ele>87.24130497314</ele>
        <time>2021-09-21T13:51:16Z</time>
      </trkpt>
      <trkpt lat="46.54799" lon="0.35924">
        <ele>87.157212293707</ele>
        <time>2021-09-21T13:51:18Z</time>
      </trkpt>
      <trkpt lat="46.54801" lon="0.35927">
        <ele>86.823015095666</ele>
        <time>2021-09-21T13:51:20Z</time>
      </trkpt>
      <trkpt lat="46.54803" lon="0.3593">
        <ele>87.02191271726</ele>
        <time>2021-09-21T13:51:22Z</time>
      </trkpt>
      <trkpt lat="46.54805" lon="0.35932">
        <ele>86.698497678153</ele>
        <time>2021-09-21T13:51:24Z</time>
      </trkpt>
      <trkpt lat="46.54807" lon="0.35935">
        <ele>86.592874513939</ele>
        <time>2021-09-21T13:51:27Z</time>
      </trkpt>
      <trkpt lat="46.54809" lon="0.35937">
        <ele>86.605407591909</ele>
        <time>2021-09-21T13:51:28Z</time>
      </trkpt>
      <trkpt lat="46.54811" lon="0.3594">
        <ele>86.684126856737</ele>
        <time>2021-09-21T13:51:30Z</time>
      </trkpt>
      <trkpt lat="46.54813" lon="0.35941">
        <ele>86.5089389598</ele>
        <time>2021-09-21T13:51:32Z</time>
      </trkpt>
      <trkpt lat="46.54815" lon="0.35944">
        <ele>86.419283778407</ele>
        <time>2021-09-21T13:51:34Z</time>
      </trkpt>
      <trkpt lat="46.54818" lon="0.35946">
        <ele>86.328999973834</ele>
        <time>2021-09-21T13:51:36Z</time>
      </trkpt>
      <trkpt lat="46.5482" lon="0.35947">
        <ele>86.333434646018</ele>
        <time>2021-09-21T13:51:37Z</time>
      </trkpt>
      <trkpt lat="46.54821" lon="0.3595">
        <ele>86.273228618316</ele>
        <time>2021-09-21T13:51:39Z</time>
      </trkpt>
      <trkpt lat="46.54823" lon="0.35953">
        <ele>86.68295043055</ele>
        <time>2021-09-21T13:51:41Z</time>
      </trkpt>
      <trkpt lat="46.54825" lon="0.35955">
        <ele>86.707109199837</ele>
        <time>2021-09-21T13:51:44Z</time>
      </trkpt>
      <trkpt lat="46.54826" lon="0.35958">
        <ele>86.538446216844</ele>
        <time>2021-09-21T13:51:45Z</time>
      </trkpt>
      <trkpt lat="46.54828" lon="0.35961">
        <ele>86.429208737798</ele>
        <time>2021-09-21T13:51:47Z</time>
      </trkpt>
      <trkpt lat="46.5483" lon="0.35963">
        <ele>86.750166373327</ele>
        <time>2021-09-21T13:51:49Z</time>
      </trkpt>
      <trkpt lat="46.54832" lon="0.35964">
        <ele>86.70906855911</ele>
        <time>2021-09-21T13:51:51Z</time>
      </trkpt>
      <trkpt lat="46.54834" lon="0.35966">
        <ele>86.649093272164</ele>
        <time>2021-09-21T13:51:53Z</time>
      </trkpt>
      <trkpt lat="46.54836" lon="0.35967">
        <ele>86.795178357512</ele>
        <time>2021-09-21T13:51:55Z</time>
      </trkpt>
      <trkpt lat="46.54838" lon="0.35968">
        <ele>86.529829063453</ele>
        <time>2021-09-21T13:51:57Z</time>
      </trkpt>
      <trkpt lat="46.5484" lon="0.35968">
        <ele>86.791293192655</ele>
        <time>2021-09-21T13:51:58Z</time>
      </trkpt>
      <trkpt lat="46.54842" lon="0.3597">
        <ele>86.563717615791</ele>
        <time>2021-09-21T13:52:01Z</time>
      </trkpt>
      <trkpt lat="46.54843" lon="0.35972">
        <ele>86.369524508715</ele>
        <time>2021-09-21T13:52:03Z</time>
      </trkpt>
      <trkpt lat="46.54845" lon="0.35974">
        <ele>86.341083087027</ele>
        <time>2021-09-21T13:52:05Z</time>
      </trkpt>
      <trkpt lat="46.54846" lon="0.35977">
        <ele>86.286900016479</ele>
        <time>2021-09-21T13:52:07Z</time>
      </trkpt>
      <trkpt lat="46.54848" lon="0.35979">
        <ele>86.418678113259</ele>
        <time>2021-09-21T13:52:09Z</time>
      </trkpt>
      <trkpt lat="46.54849" lon="0.35981">
        <ele>86.468607056886</ele>
        <time>2021-09-21T13:52:10Z</time>
      </trkpt>
      <trkpt lat="46.54851" lon="0.35984">
        <ele>86.403491561301</ele>
        <time>2021-09-21T13:52:11Z</time>
      </trkpt>
      <trkpt lat="46.54853" lon="0.35986">
        <ele>86.526242149994</ele>
        <time>2021-09-21T13:52:13Z</time>
      </trkpt>
      <trkpt lat="46.54855" lon="0.35988">
        <ele>86.367190338671</ele>
        <time>2021-09-21T13:52:15Z</time>
      </trkpt>
      <trkpt lat="46.54857" lon="0.35989">
        <ele>86.370284539647</ele>
        <time>2021-09-21T13:52:17Z</time>
      </trkpt>
      <trkpt lat="46.54858" lon="0.3599">
        <ele>86.311905750073</ele>
        <time>2021-09-21T13:52:18Z</time>
      </trkpt>
      <trkpt lat="46.5486" lon="0.35994">
        <ele>86.284077127464</ele>
        <time>2021-09-21T13:52:20Z</time>
      </trkpt>
      <trkpt lat="46.54862" lon="0.35996">
        <ele>86.152256386355</ele>
        <time>2021-09-21T13:52:23Z</time>
      </trkpt>
      <trkpt lat="46.54864" lon="0.35999">
        <ele>86.191783039831</ele>
        <time>2021-09-21T13:52:25Z</time>
      </trkpt>
      <trkpt lat="46.54866" lon="0.36">
        <ele>86.024481541477</ele>
        <time>2021-09-21T13:52:28Z</time>
      </trkpt>
      <trkpt lat="46.54868" lon="0.36001">
        <ele>86.403924859129</ele>
        <time>2021-09-21T13:52:31Z</time>
      </trkpt>
      <trkpt lat="46.54871" lon="0.36003">
        <ele>86.185763462447</ele>
        <time>2021-09-21T13:52:33Z</time>
      </trkpt>
      <trkpt lat="46.54872" lon="0.36006">
        <ele>86.058747028932</ele>
        <time>2021-09-21T13:52:36Z</time>
      </trkpt>
      <trkpt lat="46.54874" lon="0.36009">
        <ele>86.082238937728</ele>
        <time>2021-09-21T13:52:38Z</time>
      </trkpt>
      <trkpt lat="46.54876" lon="0.3601">
        <ele>86.208030626178</ele>
        <time>2021-09-21T13:52:41Z</time>
      </trkpt>
      <trkpt lat="46.54878" lon="0.36011">
        <ele>86.191569696181</ele>
        <time>2021-09-21T13:52:43Z</time>
      </trkpt>
      <trkpt lat="46.54879" lon="0.36013">
        <ele>86.041759228334</ele>
        <time>2021-09-21T13:52:44Z</time>
      </trkpt>
      <trkpt lat="46.54881" lon="0.36015">
        <ele>86.032557504252</ele>
        <time>2021-09-21T13:52:46Z</time>
      </trkpt>
      <trkpt lat="46.54883" lon="0.36016">
        <ele>85.984413323924</ele>
        <time>2021-09-21T13:52:48Z</time>
      </trkpt>
      <trkpt lat="46.54885" lon="0.36016">
        <ele>86.051779679954</ele>
        <time>2021-09-21T13:52:50Z</time>
      </trkpt>
      <trkpt lat="46.54887" lon="0.36018">
        <ele>85.989398028702</ele>
        <time>2021-09-21T13:52:52Z</time>
      </trkpt>
      <trkpt lat="46.54889" lon="0.36021">
        <ele>85.739880980924</ele>
        <time>2021-09-21T13:52:54Z</time>
      </trkpt>
      <trkpt lat="46.5489" lon="0.36023">
        <ele>85.393297507428</ele>
        <time>2021-09-21T13:52:57Z</time>
      </trkpt>
      <trkpt lat="46.54892" lon="0.36025">
        <ele>85.271419553086</ele>
        <time>2021-09-21T13:52:59Z</time>
      </trkpt>
      <trkpt lat="46.54895" lon="0.36027">
        <ele>85.223489080556</ele>
        <time>2021-09-21T13:53:01Z</time>
      </trkpt>
      <trkpt lat="46.54896" lon="0.36029">
        <ele>85.266067120247</ele>
        <time>2021-09-21T13:53:02Z</time>
      </trkpt>
      <trkpt lat="46.54897" lon="0.36033">
        <ele>85.371721738949</ele>
        <time>2021-09-21T13:53:04Z</time>
      </trkpt>
      <trkpt lat="46.54899" lon="0.36036">
        <ele>85.604845961556</ele>
        <time>2021-09-21T13:53:06Z</time>
      </trkpt>
      <trkpt lat="46.549" lon="0.36038">
        <ele>85.655873857439</ele>
        <time>2021-09-21T13:53:09Z</time>
      </trkpt>
      <trkpt lat="46.54903" lon="0.36042">
        <ele>85.813603132032</ele>
        <time>2021-09-21T13:53:11Z</time>
      </trkpt>
      <trkpt lat="46.54904" lon="0.36046">
        <ele>85.613968454301</ele>
        <time>2021-09-21T13:53:13Z</time>
      </trkpt>
      <trkpt lat="46.54906" lon="0.3605">
        <ele>85.824069465511</ele>
        <time>2021-09-21T13:53:15Z</time>
      </trkpt>
      <trkpt lat="46.54908" lon="0.36051">
        <ele>85.302649926394</ele>
        <time>2021-09-21T13:53:16Z</time>
      </trkpt>
      <trkpt lat="46.5491" lon="0.36054">
        <ele>85.518180583604</ele>
        <time>2021-09-21T13:53:18Z</time>
      </trkpt>
      <trkpt lat="46.54913" lon="0.36057">
        <ele>85.628710185178</ele>
        <time>2021-09-21T13:53:21Z</time>
      </trkpt>
      <trkpt lat="46.54914" lon="0.36059">
        <ele>85.534888185561</ele>
        <time>2021-09-21T13:53:23Z</time>
      </trkpt>
      <trkpt lat="46.54916" lon="0.36061">
        <ele>85.481266116723</ele>
        <time>2021-09-21T13:53:25Z</time>
      </trkpt>
      <trkpt lat="46.54918" lon="0.36064">
        <ele>85.625222776085</ele>
        <time>2021-09-21T13:53:27Z</time>
      </trkpt>
      <trkpt lat="46.54919" lon="0.36066">
        <ele>85.450919549912</ele>
        <time>2021-09-21T13:53:29Z</time>
      </trkpt>
      <trkpt lat="46.54921" lon="0.36068">
        <ele>85.418476168066</ele>
        <time>2021-09-21T13:53:31Z</time>
      </trkpt>
      <trkpt lat="46.54923" lon="0.36071">
        <ele>85.472542260773</ele>
        <time>2021-09-21T13:53:33Z</time>
      </trkpt>
      <trkpt lat="46.54924" lon="0.36074">
        <ele>85.093204638921</ele>
        <time>2021-09-21T13:53:36Z</time>
      </trkpt>
      <trkpt lat="46.54925" lon="0.36077">
        <ele>85.568592962809</ele>
        <time>2021-09-21T13:53:37Z</time>
      </trkpt>
      <trkpt lat="46.54926" lon="0.3608">
        <ele>85.767752207816</ele>
        <time>2021-09-21T13:53:39Z</time>
      </trkpt>
      <trkpt lat="46.54927" lon="0.36084">
        <ele>85.491391664371</ele>
        <time>2021-09-21T13:53:42Z</time>
      </trkpt>
      <trkpt lat="46.54929" lon="0.36087">
        <ele>86.060498234816</ele>
        <time>2021-09-21T13:53:44Z</time>
      </trkpt>
      <trkpt lat="46.5493" lon="0.3609">
        <ele>85.855295451358</ele>
        <time>2021-09-21T13:53:47Z</time>
      </trkpt>
      <trkpt lat="46.54931" lon="0.36093">
        <ele>85.990990865976</ele>
        <time>2021-09-21T13:53:50Z</time>
      </trkpt>
      <trkpt lat="46.54932" lon="0.36095">
        <ele>85.822123921476</ele>
        <time>2021-09-21T13:53:52Z</time>
      </trkpt>
      <trkpt lat="46.54934" lon="0.36098">
        <ele>85.961179845035</ele>
        <time>2021-09-21T13:53:54Z</time>
      </trkpt>
      <trkpt lat="46.54934" lon="0.361">
        <ele>86.031399689615</ele>
        <time>2021-09-21T13:53:56Z</time>
      </trkpt>
      <trkpt lat="46.54936" lon="0.36103">
        <ele>85.735753926449</ele>
        <time>2021-09-21T13:53:58Z</time>
      </trkpt>
      <trkpt lat="46.54938" lon="0.36106">
        <ele>85.930038465187</ele>
        <time>2021-09-21T13:54:00Z</time>
      </trkpt>
      <trkpt lat="46.54939" lon="0.36109">
        <ele>86.629718206823</ele>
        <time>2021-09-21T13:54:02Z</time>
      </trkpt>
      <trkpt lat="46.54941" lon="0.36115">
        <ele>85.663018286228</ele>
        <time>2021-09-21T13:54:05Z</time>
      </trkpt>
      <trkpt lat="46.54942" lon="0.36117">
        <ele>85.154609221034</ele>
        <time>2021-09-21T13:54:06Z</time>
      </trkpt>
      <trkpt lat="46.54944" lon="0.3612">
        <ele>85.812755267136</ele>
        <time>2021-09-21T13:54:08Z</time>
      </trkpt>
      <trkpt lat="46.54946" lon="0.36123">
        <ele>85.955205921084</ele>
        <time>2021-09-21T13:54:10Z</time>
      </trkpt>
      <trkpt lat="46.54947" lon="0.36126">
        <ele>85.840576766059</ele>
        <time>2021-09-21T13:54:14Z</time>
      </trkpt>
      <trkpt lat="46.54947" lon="0.3613">
        <ele>85.932160579599</ele>
        <time>2021-09-21T13:54:16Z</time>
      </trkpt>
      <trkpt lat="46.54949" lon="0.36132">
        <ele>86.50934915524</ele>
        <time>2021-09-21T13:54:18Z</time>
      </trkpt>
      <trkpt lat="46.5495" lon="0.36134">
        <ele>86.277959392406</ele>
        <time>2021-09-21T13:54:21Z</time>
      </trkpt>
      <trkpt lat="46.54951" lon="0.36138">
        <ele>86.375004208647</ele>
        <time>2021-09-21T13:54:23Z</time>
      </trkpt>
      <trkpt lat="46.54953" lon="0.36142">
        <ele>86.211657243781</ele>
        <time>2021-09-21T13:54:25Z</time>
      </trkpt>
      <trkpt lat="46.54955" lon="0.36146">
        <ele>86.344186993316</ele>
        <time>2021-09-21T13:54:27Z</time>
      </trkpt>
      <trkpt lat="46.54957" lon="0.36148">
        <ele>86.372026303783</ele>
        <time>2021-09-21T13:54:29Z</time>
      </trkpt>
      <trkpt lat="46.54957" lon="0.36151">
        <ele>86.329911189154</ele>
        <time>2021-09-21T13:54:31Z</time>
      </trkpt>
      <trkpt lat="46.54959" lon="0.36154">
        <ele>86.282698247582</ele>
        <time>2021-09-21T13:54:33Z</time>
      </trkpt>
      <trkpt lat="46.54961" lon="0.36157">
        <ele>86.194683591835</ele>
        <time>2021-09-21T13:54:35Z</time>
      </trkpt>
      <trkpt lat="46.54962" lon="0.36159">
        <ele>86.354647027329</ele>
        <time>2021-09-21T13:54:37Z</time>
      </trkpt>
      <trkpt lat="46.54964" lon="0.36162">
        <ele>85.942465253174</ele>
        <time>2021-09-21T13:54:39Z</time>
      </trkpt>
      <trkpt lat="46.54966" lon="0.36164">
        <ele>85.749459690414</ele>
        <time>2021-09-21T13:54:41Z</time>
      </trkpt>
      <trkpt lat="46.54968" lon="0.36166">
        <ele>85.614433655515</ele>
        <time>2021-09-21T13:54:44Z</time>
      </trkpt>
      <trkpt lat="46.54969" lon="0.36169">
        <ele>85.668192335404</ele>
        <time>2021-09-21T13:54:46Z</time>
      </trkpt>
      <trkpt lat="46.5497" lon="0.36172">
        <ele>85.600174083374</ele>
        <time>2021-09-21T13:54:48Z</time>
      </trkpt>
      <trkpt lat="46.54972" lon="0.36173">
        <ele>85.233658926561</ele>
        <time>2021-09-21T13:54:50Z</time>
      </trkpt>
      <trkpt lat="46.54974" lon="0.36175">
        <ele>85.588317436166</ele>
        <time>2021-09-21T13:54:52Z</time>
      </trkpt>
      <trkpt lat="46.54976" lon="0.36178">
        <ele>85.470024900511</ele>
        <time>2021-09-21T13:54:54Z</time>
      </trkpt>
      <trkpt lat="46.54977" lon="0.3618">
        <ele>85.001222738996</ele>
        <time>2021-09-21T13:54:56Z</time>
      </trkpt>
      <trkpt lat="46.5498" lon="0.36182">
        <ele>85.00438562315</ele>
        <time>2021-09-21T13:54:59Z</time>
      </trkpt>
      <trkpt lat="46.54982" lon="0.36183">
        <ele>85.340342087671</ele>
        <time>2021-09-21T13:55:01Z</time>
      </trkpt>
      <trkpt lat="46.54984" lon="0.36184">
        <ele>85.220648522489</ele>
        <time>2021-09-21T13:55:03Z</time>
      </trkpt>
      <trkpt lat="46.54986" lon="0.36185">
        <ele>84.992113028653</ele>
        <time>2021-09-21T13:55:05Z</time>
      </trkpt>
      <trkpt lat="46.54988" lon="0.36185">
        <ele>84.764651284553</ele>
        <time>2021-09-21T13:55:08Z</time>
      </trkpt>
      <trkpt lat="46.5499" lon="0.36188">
        <ele>84.806398722343</ele>
        <time>2021-09-21T13:55:10Z</time>
      </trkpt>
      <trkpt lat="46.54994" lon="0.36189">
        <ele>84.62796331197</ele>
        <time>2021-09-21T13:55:12Z</time>
      </trkpt>
      <trkpt lat="46.54997" lon="0.3619">
        <ele>84.595236176625</ele>
        <time>2021-09-21T13:55:14Z</time>
      </trkpt>
      <trkpt lat="46.55" lon="0.36192">
        <ele>84.215010426007</ele>
        <time>2021-09-21T13:55:16Z</time>
      </trkpt>
      <trkpt lat="46.55002" lon="0.36193">
        <ele>83.688578288071</ele>
        <time>2021-09-21T13:55:18Z</time>
      </trkpt>
      <trkpt lat="46.55005" lon="0.36194">
        <ele>83.573380313814</ele>
        <time>2021-09-21T13:55:21Z</time>
      </trkpt>
      <trkpt lat="46.55007" lon="0.36194">
        <ele>83.473473953083</ele>
        <time>2021-09-21T13:55:23Z</time>
      </trkpt>
      <trkpt lat="46.5501" lon="0.36195">
        <ele>83.160297583789</ele>
        <time>2021-09-21T13:55:25Z</time>
      </trkpt>
      <trkpt lat="46.55011" lon="0.36196">
        <ele>83.341200413182</ele>
        <time>2021-09-21T13:55:26Z</time>
      </trkpt>
      <trkpt lat="46.55013" lon="0.36197">
        <ele>82.853058520705</ele>
        <time>2021-09-21T13:55:27Z</time>
      </trkpt>
      <trkpt lat="46.55015" lon="0.36198">
        <ele>83.259771333076</ele>
        <time>2021-09-21T13:55:29Z</time>
      </trkpt>
      <trkpt lat="46.55018" lon="0.36199">
        <ele>83.088870688342</ele>
        <time>2021-09-21T13:55:32Z</time>
      </trkpt>
      <trkpt lat="46.55019" lon="0.362">
        <ele>83.075062409043</ele>
        <time>2021-09-21T13:55:34Z</time>
      </trkpt>
      <trkpt lat="46.55021" lon="0.362">
        <ele>83.026033947244</ele>
        <time>2021-09-21T13:55:35Z</time>
      </trkpt>
      <trkpt lat="46.55025" lon="0.36201">
        <ele>83.212694966234</ele>
        <time>2021-09-21T13:55:37Z</time>
      </trkpt>
      <trkpt lat="46.55027" lon="0.36201">
        <ele>82.806372058578</ele>
        <time>2021-09-21T13:55:39Z</time>
      </trkpt>
      <trkpt lat="46.55029" lon="0.36204">
        <ele>82.666365863755</ele>
        <time>2021-09-21T13:55:42Z</time>
      </trkpt>
      <trkpt lat="46.55032" lon="0.36205">
        <ele>82.20931996312</ele>
        <time>2021-09-21T13:55:44Z</time>
      </trkpt>
      <trkpt lat="46.55034" lon="0.36205">
        <ele>82.285926161334</ele>
        <time>2021-09-21T13:55:46Z</time>
      </trkpt>
      <trkpt lat="46.55036" lon="0.36206">
        <ele>82.657465823926</ele>
        <time>2021-09-21T13:55:49Z</time>
      </trkpt>
      <trkpt lat="46.55039" lon="0.36208">
        <ele>82.17952272296</ele>
        <time>2021-09-21T13:55:53Z</time>
      </trkpt>
      <trkpt lat="46.55041" lon="0.36208">
        <ele>82.354406990111</ele>
        <time>2021-09-21T13:55:55Z</time>
      </trkpt>
      <trkpt lat="46.55044" lon="0.3621">
        <ele>82.094245058484</ele>
        <time>2021-09-21T13:55:57Z</time>
      </trkpt>
      <trkpt lat="46.55046" lon="0.36209">
        <ele>82.25155137945</ele>
        <time>2021-09-21T13:55:59Z</time>
      </trkpt>
      <trkpt lat="46.5505" lon="0.3621">
        <ele>82.364664374851</ele>
        <time>2021-09-21T13:56:01Z</time>
      </trkpt>
      <trkpt lat="46.55052" lon="0.36211">
        <ele>82.159313673154</ele>
        <time>2021-09-21T13:56:03Z</time>
      </trkpt>
      <trkpt lat="46.55054" lon="0.36213">
        <ele>82.223192204721</ele>
        <time>2021-09-21T13:56:05Z</time>
      </trkpt>
      <trkpt lat="46.55056" lon="0.36213">
        <ele>82.200012582354</ele>
        <time>2021-09-21T13:56:07Z</time>
      </trkpt>
      <trkpt lat="46.5506" lon="0.36213">
        <ele>82.095157865435</ele>
        <time>2021-09-21T13:56:09Z</time>
      </trkpt>
      <trkpt lat="46.55063" lon="0.36214">
        <ele>81.980084599927</ele>
        <time>2021-09-21T13:56:11Z</time>
      </trkpt>
      <trkpt lat="46.55064" lon="0.36215">
        <ele>81.859686876647</ele>
        <time>2021-09-21T13:56:13Z</time>
      </trkpt>
      <trkpt lat="46.55067" lon="0.36219">
        <ele>81.784329980612</ele>
        <time>2021-09-21T13:56:15Z</time>
      </trkpt>
      <trkpt lat="46.55069" lon="0.36219">
        <ele>81.668099286035</ele>
        <time>2021-09-21T13:56:17Z</time>
      </trkpt>
      <trkpt lat="46.55072" lon="0.36221">
        <ele>81.899349175394</ele>
        <time>2021-09-21T13:56:19Z</time>
      </trkpt>
      <trkpt lat="46.55075" lon="0.36222">
        <ele>81.930568940938</ele>
        <time>2021-09-21T13:56:21Z</time>
      </trkpt>
      <trkpt lat="46.55077" lon="0.36222">
        <ele>81.939526076429</ele>
        <time>2021-09-21T13:56:23Z</time>
      </trkpt>
      <trkpt lat="46.55079" lon="0.36223">
        <ele>81.940898911096</ele>
        <time>2021-09-21T13:56:25Z</time>
      </trkpt>
      <trkpt lat="46.55081" lon="0.36226">
        <ele>82.005019917153</ele>
        <time>2021-09-21T13:56:27Z</time>
      </trkpt>
      <trkpt lat="46.55084" lon="0.36227">
        <ele>82.026580016129</ele>
        <time>2021-09-21T13:56:30Z</time>
      </trkpt>
      <trkpt lat="46.55086" lon="0.36227">
        <ele>81.816581016406</ele>
        <time>2021-09-21T13:56:33Z</time>
      </trkpt>
      <trkpt lat="46.55088" lon="0.36227">
        <ele>81.762593165971</ele>
        <time>2021-09-21T13:56:35Z</time>
      </trkpt>
      <trkpt lat="46.55091" lon="0.36228">
        <ele>81.60209270101</ele>
        <time>2021-09-21T13:56:37Z</time>
      </trkpt>
      <trkpt lat="46.55093" lon="0.36228">
        <ele>81.622706087306</ele>
        <time>2021-09-21T13:56:39Z</time>
      </trkpt>
      <trkpt lat="46.55096" lon="0.36228">
        <ele>81.674551711418</ele>
        <time>2021-09-21T13:56:43Z</time>
      </trkpt>
      <trkpt lat="46.55098" lon="0.3623">
        <ele>81.845273190178</ele>
        <time>2021-09-21T13:56:45Z</time>
      </trkpt>
      <trkpt lat="46.551" lon="0.36231">
        <ele>81.642026156187</ele>
        <time>2021-09-21T13:56:47Z</time>
      </trkpt>
      <trkpt lat="46.55101" lon="0.36233">
        <ele>81.608616285026</ele>
        <time>2021-09-21T13:56:50Z</time>
      </trkpt>
      <trkpt lat="46.55103" lon="0.36237">
        <ele>81.743604824878</ele>
        <time>2021-09-21T13:56:53Z</time>
      </trkpt>
      <trkpt lat="46.55104" lon="0.3624">
        <ele>81.475072588772</ele>
        <time>2021-09-21T13:56:55Z</time>
      </trkpt>
      <trkpt lat="46.55105" lon="0.36244">
        <ele>81.646500241943</ele>
        <time>2021-09-21T13:56:57Z</time>
      </trkpt>
      <trkpt lat="46.55107" lon="0.36247">
        <ele>81.659940919839</ele>
        <time>2021-09-21T13:57:00Z</time>
      </trkpt>
      <trkpt lat="46.55109" lon="0.36248">
        <ele>81.781245362945</ele>
        <time>2021-09-21T13:57:03Z</time>
      </trkpt>
      <trkpt lat="46.55112" lon="0.36248">
        <ele>81.538788436912</ele>
        <time>2021-09-21T13:57:05Z</time>
      </trkpt>
      <trkpt lat="46.55114" lon="0.36247">
        <ele>81.6429904541</ele>
        <time>2021-09-21T13:57:07Z</time>
      </trkpt>
      <trkpt lat="46.55117" lon="0.36247">
        <ele>81.518486719579</ele>
        <time>2021-09-21T13:57:09Z</time>
      </trkpt>
      <trkpt lat="46.5512" lon="0.36248">
        <ele>81.660161084495</ele>
        <time>2021-09-21T13:57:12Z</time>
      </trkpt>
      <trkpt lat="46.55122" lon="0.36249">
        <ele>81.890287247486</ele>
        <time>2021-09-21T13:57:14Z</time>
      </trkpt>
      <trkpt lat="46.55124" lon="0.3625">
        <ele>81.57483142335</ele>
        <time>2021-09-21T13:57:16Z</time>
      </trkpt>
      <trkpt lat="46.55126" lon="0.36251">
        <ele>81.721509773284</ele>
        <time>2021-09-21T13:57:18Z</time>
      </trkpt>
      <trkpt lat="46.55128" lon="0.36254">
        <ele>81.465179678984</ele>
        <time>2021-09-21T13:57:20Z</time>
      </trkpt>
      <trkpt lat="46.55129" lon="0.36258">
        <ele>81.382707539015</ele>
        <time>2021-09-21T13:57:22Z</time>
      </trkpt>
      <trkpt lat="46.55132" lon="0.3626">
        <ele>81.177106836811</ele>
        <time>2021-09-21T13:57:24Z</time>
      </trkpt>
      <trkpt lat="46.55134" lon="0.36264">
        <ele>81.013696249574</ele>
        <time>2021-09-21T13:57:26Z</time>
      </trkpt>
      <trkpt lat="46.55135" lon="0.36266">
        <ele>81.08358327765</ele>
        <time>2021-09-21T13:57:28Z</time>
      </trkpt>
      <trkpt lat="46.55137" lon="0.36269">
        <ele>80.93024269212</ele>
        <time>2021-09-21T13:57:30Z</time>
      </trkpt>
      <trkpt lat="46.55138" lon="0.36272">
        <ele>80.755319821648</ele>
        <time>2021-09-21T13:57:32Z</time>
      </trkpt>
      <trkpt lat="46.55139" lon="0.36274">
        <ele>80.655394940637</ele>
        <time>2021-09-21T13:57:34Z</time>
      </trkpt>
      <trkpt lat="46.55141" lon="0.36278">
        <ele>80.718092641793</ele>
        <time>2021-09-21T13:57:36Z</time>
      </trkpt>
      <trkpt lat="46.55143" lon="0.3628">
        <ele>81.020593540743</ele>
        <time>2021-09-21T13:57:38Z</time>
      </trkpt>
      <trkpt lat="46.55145" lon="0.36283">
        <ele>80.967849570327</ele>
        <time>2021-09-21T13:57:40Z</time>
      </trkpt>
      <trkpt lat="46.55145" lon="0.36287">
        <ele>80.539548176341</ele>
        <time>2021-09-21T13:57:43Z</time>
      </trkpt>
      <trkpt lat="46.55146" lon="0.36291">
        <ele>80.921803262085</ele>
        <time>2021-09-21T13:57:45Z</time>
      </trkpt>
      <trkpt lat="46.55147" lon="0.36294">
        <ele>80.777715581469</ele>
        <time>2021-09-21T13:57:47Z</time>
      </trkpt>
      <trkpt lat="46.55147" lon="0.36296">
        <ele>80.762846396305</ele>
        <time>2021-09-21T13:57:49Z</time>
      </trkpt>
      <trkpt lat="46.55148" lon="0.363">
        <ele>80.533176933415</ele>
        <time>2021-09-21T13:57:51Z</time>
      </trkpt>
      <trkpt lat="46.55148" lon="0.36303">
        <ele>80.891354473308</ele>
        <time>2021-09-21T13:57:54Z</time>
      </trkpt>
      <trkpt lat="46.55147" lon="0.36305">
        <ele>81.062205273658</ele>
        <time>2021-09-21T13:57:56Z</time>
      </trkpt>
      <trkpt lat="46.55146" lon="0.36309">
        <ele>80.831285338849</ele>
        <time>2021-09-21T13:57:58Z</time>
      </trkpt>
      <trkpt lat="46.55144" lon="0.36312">
        <ele>80.953532446176</ele>
        <time>2021-09-21T13:58:00Z</time>
      </trkpt>
      <trkpt lat="46.55141" lon="0.36313">
        <ele>81.281616942026</ele>
        <time>2021-09-21T13:58:02Z</time>
      </trkpt>
      <trkpt lat="46.55139" lon="0.36315">
        <ele>81.366981509142</ele>
        <time>2021-09-21T13:58:04Z</time>
      </trkpt>
      <trkpt lat="46.55136" lon="0.36315">
        <ele>81.23314815294</ele>
        <time>2021-09-21T13:58:06Z</time>
      </trkpt>
      <trkpt lat="46.55134" lon="0.36316">
        <ele>81.151342383586</ele>
        <time>2021-09-21T13:58:08Z</time>
      </trkpt>
      <trkpt lat="46.55131" lon="0.36316">
        <ele>81.246062501334</ele>
        <time>2021-09-21T13:58:10Z</time>
      </trkpt>
      <trkpt lat="46.55129" lon="0.36315">
        <ele>81.37429813575</ele>
        <time>2021-09-21T13:58:15Z</time>
      </trkpt>
      <trkpt lat="46.55128" lon="0.36312">
        <ele>81.100290204398</ele>
        <time>2021-09-21T13:58:21Z</time>
      </trkpt>
      <trkpt lat="46.55126" lon="0.36312">
        <ele>81.39624713175</ele>
        <time>2021-09-21T13:58:24Z</time>
      </trkpt>
      <trkpt lat="46.55124" lon="0.36313">
        <ele>81.482476436533</ele>
        <time>2021-09-21T13:58:26Z</time>
      </trkpt>
      <trkpt lat="46.55122" lon="0.36315">
        <ele>81.51346529182</ele>
        <time>2021-09-21T13:58:28Z</time>
      </trkpt>
      <trkpt lat="46.5512" lon="0.36317">
        <ele>81.495327518322</ele>
        <time>2021-09-21T13:58:30Z</time>
      </trkpt>
      <trkpt lat="46.55119" lon="0.36318">
        <ele>81.686134120449</ele>
        <time>2021-09-21T13:58:32Z</time>
      </trkpt>
      <trkpt lat="46.55116" lon="0.36319">
        <ele>81.608652788214</ele>
        <time>2021-09-21T13:58:34Z</time>
      </trkpt>
      <trkpt lat="46.55115" lon="0.36321">
        <ele>81.8279584907</ele>
        <time>2021-09-21T13:58:36Z</time>
      </trkpt>
      <trkpt lat="46.55113" lon="0.36323">
        <ele>82.102625145577</ele>
        <time>2021-09-21T13:58:39Z</time>
      </trkpt>
      <trkpt lat="46.55112" lon="0.36326">
        <ele>81.84812199045</ele>
        <time>2021-09-21T13:58:41Z</time>
      </trkpt>
      <trkpt lat="46.55109" lon="0.36327">
        <ele>81.858776598237</ele>
        <time>2021-09-21T13:58:44Z</time>
      </trkpt>
      <trkpt lat="46.55107" lon="0.36326">
        <ele>82.213373745792</ele>
        <time>2021-09-21T13:58:47Z</time>
      </trkpt>
      <trkpt lat="46.55104" lon="0.36326">
        <ele>81.911633491516</ele>
        <time>2021-09-21T13:58:49Z</time>
      </trkpt>
      <trkpt lat="46.55102" lon="0.36325">
        <ele>81.899245836772</ele>
        <time>2021-09-21T13:58:51Z</time>
      </trkpt>
      <trkpt lat="46.55099" lon="0.36323">
        <ele>81.855082582682</ele>
        <time>2021-09-21T13:58:54Z</time>
      </trkpt>
      <trkpt lat="46.55098" lon="0.36321">
        <ele>81.880651450716</ele>
        <time>2021-09-21T13:58:58Z</time>
      </trkpt>
      <trkpt lat="46.55096" lon="0.3632">
        <ele>82.24228576012</ele>
        <time>2021-09-21T13:59:00Z</time>
      </trkpt>
      <trkpt lat="46.55094" lon="0.36319">
        <ele>82.404218255542</ele>
        <time>2021-09-21T13:59:03Z</time>
      </trkpt>
      <trkpt lat="46.55092" lon="0.36319">
        <ele>82.481605161913</ele>
        <time>2021-09-21T13:59:06Z</time>
      </trkpt>
      <trkpt lat="46.5509" lon="0.36319">
        <ele>82.241298261099</ele>
        <time>2021-09-21T13:59:07Z</time>
      </trkpt>
      <trkpt lat="46.55088" lon="0.36318">
        <ele>82.552689168602</ele>
        <time>2021-09-21T13:59:09Z</time>
      </trkpt>
      <trkpt lat="46.55085" lon="0.36317">
        <ele>82.568879953586</ele>
        <time>2021-09-21T13:59:11Z</time>
      </trkpt>
      <trkpt lat="46.55084" lon="0.36315">
        <ele>82.604787670076</ele>
        <time>2021-09-21T13:59:13Z</time>
      </trkpt>
      <trkpt lat="46.55081" lon="0.36315">
        <ele>82.390110275708</ele>
        <time>2021-09-21T13:59:15Z</time>
      </trkpt>
      <trkpt lat="46.55079" lon="0.36316">
        <ele>82.786418046802</ele>
        <time>2021-09-21T13:59:17Z</time>
      </trkpt>
      <trkpt lat="46.55076" lon="0.36315">
        <ele>82.823418390937</ele>
        <time>2021-09-21T13:59:22Z</time>
      </trkpt>
      <trkpt lat="46.55074" lon="0.36316">
        <ele>82.907494721003</ele>
        <time>2021-09-21T13:59:24Z</time>
      </trkpt>
      <trkpt lat="46.55071" lon="0.36316">
        <ele>83.125419897027</ele>
        <time>2021-09-21T13:59:26Z</time>
      </trkpt>
      <trkpt lat="46.55069" lon="0.36316">
        <ele>83.117567522451</ele>
        <time>2021-09-21T13:59:28Z</time>
      </trkpt>
      <trkpt lat="46.55067" lon="0.36316">
        <ele>82.796629716642</ele>
        <time>2021-09-21T13:59:30Z</time>
      </trkpt>
      <trkpt lat="46.55064" lon="0.36316">
        <ele>83.349407759495</ele>
        <time>2021-09-21T13:59:33Z</time>
      </trkpt>
      <trkpt lat="46.55062" lon="0.36316">
        <ele>83.225970060565</ele>
        <time>2021-09-21T13:59:37Z</time>
      </trkpt>
      <trkpt lat="46.5506" lon="0.36316">
        <ele>83.467826224864</ele>
        <time>2021-09-21T13:59:39Z</time>
      </trkpt>
      <trkpt lat="46.55058" lon="0.36315">
        <ele>83.108722619712</ele>
        <time>2021-09-21T13:59:46Z</time>
      </trkpt>
      <trkpt lat="46.55058" lon="0.36312">
        <ele>83.452648147941</ele>
        <time>2021-09-21T13:59:49Z</time>
      </trkpt>
      <trkpt lat="46.55056" lon="0.3631">
        <ele>83.502638227306</ele>
        <time>2021-09-21T13:59:54Z</time>
      </trkpt>
      <trkpt lat="46.55054" lon="0.3631">
        <ele>83.529002342373</ele>
        <time>2021-09-21T14:00:04Z</time>
      </trkpt>
      <trkpt lat="46.55055" lon="0.36307">
        <ele>83.514184679836</ele>
        <time>2021-09-21T14:00:09Z</time>
      </trkpt>
      <trkpt lat="46.55054" lon="0.36305">
        <ele>84.370299557224</ele>
        <time>2021-09-21T14:00:24Z</time>
      </trkpt>
      <trkpt lat="46.55052" lon="0.36305">
        <ele>84.687110456638</ele>
        <time>2021-09-21T14:00:26Z</time>
      </trkpt>
      <trkpt lat="46.55053" lon="0.36307">
        <ele>84.126169515774</ele>
        <time>2021-09-21T14:00:41Z</time>
      </trkpt>
      <trkpt lat="46.55052" lon="0.36308">
        <ele>83.897840820253</ele>
        <time>2021-09-21T14:00:50Z</time>
      </trkpt>
      <trkpt lat="46.55052" lon="0.3631">
        <ele>83.950779575855</ele>
        <time>2021-09-21T14:00:58Z</time>
      </trkpt>
      <trkpt lat="46.55054" lon="0.36311">
        <ele>84.012992588803</ele>
        <time>2021-09-21T14:01:04Z</time>
      </trkpt>
      <trkpt lat="46.55056" lon="0.3631">
        <ele>84.755098107271</ele>
        <time>2021-09-21T14:01:19Z</time>
      </trkpt>
      <trkpt lat="46.55054" lon="0.3631">
        <ele>84.1638789149</ele>
        <time>2021-09-21T14:01:29Z</time>
      </trkpt>
      <trkpt lat="46.55052" lon="0.36309">
        <ele>84.117145957425</ele>
        <time>2021-09-21T14:01:48Z</time>
      </trkpt>
      <trkpt lat="46.5505" lon="0.36309">
        <ele>84.366718353704</ele>
        <time>2021-09-21T14:01:50Z</time>
      </trkpt>
      <trkpt lat="46.55047" lon="0.36308">
        <ele>83.909095635638</ele>
        <time>2021-09-21T14:01:54Z</time>
      </trkpt>
      <trkpt lat="46.55045" lon="0.36308">
        <ele>83.657080556266</ele>
        <time>2021-09-21T14:01:56Z</time>
      </trkpt>
      <trkpt lat="46.55042" lon="0.36307">
        <ele>84.283441213891</ele>
        <time>2021-09-21T14:01:58Z</time>
      </trkpt>
      <trkpt lat="46.55041" lon="0.36306">
        <ele>84.840595351532</ele>
        <time>2021-09-21T14:02:00Z</time>
      </trkpt>
      <trkpt lat="46.55039" lon="0.36305">
        <ele>84.533994610421</ele>
        <time>2021-09-21T14:02:02Z</time>
      </trkpt>
      <trkpt lat="46.55037" lon="0.36303">
        <ele>84.714497603476</ele>
        <time>2021-09-21T14:02:05Z</time>
      </trkpt>
      <trkpt lat="46.55036" lon="0.36301">
        <ele>85.271133126691</ele>
        <time>2021-09-21T14:02:10Z</time>
      </trkpt>
      <trkpt lat="46.55034" lon="0.36299">
        <ele>85.702539256774</ele>
        <time>2021-09-21T14:02:11Z</time>
      </trkpt>
      <trkpt lat="46.55032" lon="0.36298">
        <ele>85.846428108402</ele>
        <time>2021-09-21T14:02:15Z</time>
      </trkpt>
      <trkpt lat="46.55031" lon="0.36295">
        <ele>85.754421554506</ele>
        <time>2021-09-21T14:02:17Z</time>
      </trkpt>
      <trkpt lat="46.55029" lon="0.36294">
        <ele>85.771417428739</ele>
        <time>2021-09-21T14:02:20Z</time>
      </trkpt>
      <trkpt lat="46.55027" lon="0.36293">
        <ele>85.654562403448</ele>
        <time>2021-09-21T14:02:22Z</time>
      </trkpt>
      <trkpt lat="46.55025" lon="0.36291">
        <ele>86.268882401288</ele>
        <time>2021-09-21T14:02:25Z</time>
      </trkpt>
      <trkpt lat="46.55024" lon="0.36289">
        <ele>86.294210716151</ele>
        <time>2021-09-21T14:02:27Z</time>
      </trkpt>
      <trkpt lat="46.55022" lon="0.36287">
        <ele>86.305179001763</ele>
        <time>2021-09-21T14:02:30Z</time>
      </trkpt>
      <trkpt lat="46.5502" lon="0.36285">
        <ele>86.201854150742</ele>
        <time>2021-09-21T14:02:32Z</time>
      </trkpt>
      <trkpt lat="46.55018" lon="0.36282">
        <ele>86.291204524226</ele>
        <time>2021-09-21T14:02:35Z</time>
      </trkpt>
      <trkpt lat="46.55016" lon="0.3628">
        <ele>86.313662454486</ele>
        <time>2021-09-21T14:02:37Z</time>
      </trkpt>
      <trkpt lat="46.55014" lon="0.36279">
        <ele>86.275161139667</ele>
        <time>2021-09-21T14:02:39Z</time>
      </trkpt>
      <trkpt lat="46.55012" lon="0.36277">
        <ele>86.359133528545</ele>
        <time>2021-09-21T14:02:41Z</time>
      </trkpt>
      <trkpt lat="46.55011" lon="0.36274">
        <ele>86.413664180785</ele>
        <time>2021-09-21T14:02:43Z</time>
      </trkpt>
      <trkpt lat="46.55009" lon="0.36273">
        <ele>86.501525553875</ele>
        <time>2021-09-21T14:02:45Z</time>
      </trkpt>
      <trkpt lat="46.55007" lon="0.3627">
        <ele>86.372445289977</ele>
        <time>2021-09-21T14:02:48Z</time>
      </trkpt>
      <trkpt lat="46.55005" lon="0.36268">
        <ele>86.436652409844</ele>
        <time>2021-09-21T14:02:50Z</time>
      </trkpt>
      <trkpt lat="46.55003" lon="0.36266">
        <ele>86.717049073428</ele>
        <time>2021-09-21T14:02:52Z</time>
      </trkpt>
      <trkpt lat="46.55002" lon="0.36264">
        <ele>86.868541872129</ele>
        <time>2021-09-21T14:02:54Z</time>
      </trkpt>
      <trkpt lat="46.55" lon="0.36262">
        <ele>86.788685271516</ele>
        <time>2021-09-21T14:02:57Z</time>
      </trkpt>
      <trkpt lat="46.54998" lon="0.3626">
        <ele>86.629248133861</ele>
        <time>2021-09-21T14:02:59Z</time>
      </trkpt>
      <trkpt lat="46.54997" lon="0.36256">
        <ele>86.833804935217</ele>
        <time>2021-09-21T14:03:02Z</time>
      </trkpt>
      <trkpt lat="46.54995" lon="0.36255">
        <ele>86.942747539841</ele>
        <time>2021-09-21T14:03:06Z</time>
      </trkpt>
      <trkpt lat="46.54993" lon="0.36252">
        <ele>86.771444205195</ele>
        <time>2021-09-21T14:03:10Z</time>
      </trkpt>
      <trkpt lat="46.54991" lon="0.36249">
        <ele>87.071091468446</ele>
        <time>2021-09-21T14:03:13Z</time>
      </trkpt>
      <trkpt lat="46.5499" lon="0.36247">
        <ele>86.959422588348</ele>
        <time>2021-09-21T14:03:14Z</time>
      </trkpt>
      <trkpt lat="46.54987" lon="0.36245">
        <ele>86.912807148881</ele>
        <time>2021-09-21T14:03:16Z</time>
      </trkpt>
      <trkpt lat="46.54985" lon="0.36242">
        <ele>86.99029009603</ele>
        <time>2021-09-21T14:03:19Z</time>
      </trkpt>
      <trkpt lat="46.54983" lon="0.3624">
        <ele>87.048149186186</ele>
        <time>2021-09-21T14:03:21Z</time>
      </trkpt>
      <trkpt lat="46.5498" lon="0.36237">
        <ele>87.805016697384</ele>
        <time>2021-09-21T14:03:23Z</time>
      </trkpt>
      <trkpt lat="46.54977" lon="0.36238">
        <ele>86.985381613486</ele>
        <time>2021-09-21T14:03:25Z</time>
      </trkpt>
      <trkpt lat="46.54975" lon="0.36238">
        <ele>86.854393070564</ele>
        <time>2021-09-21T14:03:27Z</time>
      </trkpt>
      <trkpt lat="46.54973" lon="0.36235">
        <ele>87.247193962336</ele>
        <time>2021-09-21T14:03:29Z</time>
      </trkpt>
      <trkpt lat="46.5497" lon="0.36234">
        <ele>87.496059894562</ele>
        <time>2021-09-21T14:03:31Z</time>
      </trkpt>
      <trkpt lat="46.54969" lon="0.36232">
        <ele>87.453673034906</ele>
        <time>2021-09-21T14:03:32Z</time>
      </trkpt>
      <trkpt lat="46.54966" lon="0.3623">
        <ele>87.402293819003</ele>
        <time>2021-09-21T14:03:34Z</time>
      </trkpt>
      <trkpt lat="46.54964" lon="0.36229">
        <ele>87.656299368478</ele>
        <time>2021-09-21T14:03:36Z</time>
      </trkpt>
      <trkpt lat="46.54962" lon="0.36228">
        <ele>87.837409949861</ele>
        <time>2021-09-21T14:03:38Z</time>
      </trkpt>
      <trkpt lat="46.54959" lon="0.36226">
        <ele>87.926709144376</ele>
        <time>2021-09-21T14:03:41Z</time>
      </trkpt>
      <trkpt lat="46.54956" lon="0.36224">
        <ele>88.185245689005</ele>
        <time>2021-09-21T14:03:44Z</time>
      </trkpt>
      <trkpt lat="46.54954" lon="0.36223">
        <ele>88.784989979118</ele>
        <time>2021-09-21T14:03:46Z</time>
      </trkpt>
      <trkpt lat="46.54952" lon="0.36221">
        <ele>88.871064096689</ele>
        <time>2021-09-21T14:03:48Z</time>
      </trkpt>
      <trkpt lat="46.5495" lon="0.3622">
        <ele>89.023552727886</ele>
        <time>2021-09-21T14:03:51Z</time>
      </trkpt>
      <trkpt lat="46.54948" lon="0.36219">
        <ele>88.97817093879</ele>
        <time>2021-09-21T14:03:53Z</time>
      </trkpt>
      <trkpt lat="46.54946" lon="0.36217">
        <ele>88.755254332907</ele>
        <time>2021-09-21T14:03:55Z</time>
      </trkpt>
      <trkpt lat="46.54944" lon="0.36213">
        <ele>88.836985793896</ele>
        <time>2021-09-21T14:03:58Z</time>
      </trkpt>
      <trkpt lat="46.54943" lon="0.3621">
        <ele>88.644165895879</ele>
        <time>2021-09-21T14:04:00Z</time>
      </trkpt>
      <trkpt lat="46.54941" lon="0.36207">
        <ele>88.897777177393</ele>
        <time>2021-09-21T14:04:04Z</time>
      </trkpt>
      <trkpt lat="46.54939" lon="0.36205">
        <ele>89.093040402979</ele>
        <time>2021-09-21T14:04:06Z</time>
      </trkpt>
      <trkpt lat="46.54936" lon="0.36203">
        <ele>89.411757281981</ele>
        <time>2021-09-21T14:04:08Z</time>
      </trkpt>
      <trkpt lat="46.54934" lon="0.362">
        <ele>89.704203540459</ele>
        <time>2021-09-21T14:04:10Z</time>
      </trkpt>
      <trkpt lat="46.54932" lon="0.36198">
        <ele>89.647909921594</ele>
        <time>2021-09-21T14:04:12Z</time>
      </trkpt>
      <trkpt lat="46.5493" lon="0.36195">
        <ele>89.680227186531</ele>
        <time>2021-09-21T14:04:14Z</time>
      </trkpt>
      <trkpt lat="46.54929" lon="0.36194">
        <ele>89.677915412933</ele>
        <time>2021-09-21T14:04:15Z</time>
      </trkpt>
      <trkpt lat="46.54927" lon="0.36192">
        <ele>90.176869319752</ele>
        <time>2021-09-21T14:04:17Z</time>
      </trkpt>
      <trkpt lat="46.54926" lon="0.36189">
        <ele>90.205847813748</ele>
        <time>2021-09-21T14:04:20Z</time>
      </trkpt>
      <trkpt lat="46.54923" lon="0.36187">
        <ele>90.628960130736</ele>
        <time>2021-09-21T14:04:22Z</time>
      </trkpt>
      <trkpt lat="46.54921" lon="0.36186">
        <ele>90.956131839193</ele>
        <time>2021-09-21T14:04:24Z</time>
      </trkpt>
      <trkpt lat="46.54919" lon="0.36184">
        <ele>91.559263500385</ele>
        <time>2021-09-21T14:04:26Z</time>
      </trkpt>
      <trkpt lat="46.54917" lon="0.36182">
        <ele>91.767624964006</ele>
        <time>2021-09-21T14:04:28Z</time>
      </trkpt>
      <trkpt lat="46.54916" lon="0.3618">
        <ele>91.688615379855</ele>
        <time>2021-09-21T14:04:30Z</time>
      </trkpt>
      <trkpt lat="46.54914" lon="0.36178">
        <ele>92.292672810145</ele>
        <time>2021-09-21T14:04:33Z</time>
      </trkpt>
      <trkpt lat="46.54912" lon="0.36176">
        <ele>91.909509590827</ele>
        <time>2021-09-21T14:04:35Z</time>
      </trkpt>
      <trkpt lat="46.5491" lon="0.36174">
        <ele>92.315974575467</ele>
        <time>2021-09-21T14:04:38Z</time>
      </trkpt>
      <trkpt lat="46.54908" lon="0.36172">
        <ele>92.087015413679</ele>
        <time>2021-09-21T14:04:40Z</time>
      </trkpt>
      <trkpt lat="46.54905" lon="0.3617">
        <ele>92.31617797073</ele>
        <time>2021-09-21T14:04:43Z</time>
      </trkpt>
      <trkpt lat="46.54903" lon="0.36169">
        <ele>91.943428287283</ele>
        <time>2021-09-21T14:04:45Z</time>
      </trkpt>
      <trkpt lat="46.54901" lon="0.36166">
        <ele>92.251749669202</ele>
        <time>2021-09-21T14:04:48Z</time>
      </trkpt>
      <trkpt lat="46.54898" lon="0.36163">
        <ele>92.309120805003</ele>
        <time>2021-09-21T14:04:51Z</time>
      </trkpt>
      <trkpt lat="46.54897" lon="0.36161">
        <ele>92.675023631193</ele>
        <time>2021-09-21T14:04:53Z</time>
      </trkpt>
      <trkpt lat="46.54895" lon="0.36158">
        <ele>92.963949859142</ele>
        <time>2021-09-21T14:04:56Z</time>
      </trkpt>
      <trkpt lat="46.54893" lon="0.36156">
        <ele>92.913534790277</ele>
        <time>2021-09-21T14:04:58Z</time>
      </trkpt>
      <trkpt lat="46.54891" lon="0.36154">
        <ele>92.871155306697</ele>
        <time>2021-09-21T14:05:00Z</time>
      </trkpt>
      <trkpt lat="46.54889" lon="0.36152">
        <ele>93.50353669934</ele>
        <time>2021-09-21T14:05:02Z</time>
      </trkpt>
      <trkpt lat="46.54887" lon="0.36149">
        <ele>93.549457503483</ele>
        <time>2021-09-21T14:05:05Z</time>
      </trkpt>
      <trkpt lat="46.54886" lon="0.36147">
        <ele>93.396604466252</ele>
        <time>2021-09-21T14:05:07Z</time>
      </trkpt>
      <trkpt lat="46.54884" lon="0.36145">
        <ele>93.818568011746</ele>
        <time>2021-09-21T14:05:09Z</time>
      </trkpt>
      <trkpt lat="46.54882" lon="0.36143">
        <ele>94.008998989128</ele>
        <time>2021-09-21T14:05:11Z</time>
      </trkpt>
      <trkpt lat="46.54881" lon="0.36141">
        <ele>94.294838137925</ele>
        <time>2021-09-21T14:05:13Z</time>
      </trkpt>
      <trkpt lat="46.54878" lon="0.36139">
        <ele>93.857702717185</ele>
        <time>2021-09-21T14:05:15Z</time>
      </trkpt>
      <trkpt lat="46.54876" lon="0.36136">
        <ele>93.941513306461</ele>
        <time>2021-09-21T14:05:20Z</time>
      </trkpt>
      <trkpt lat="46.54875" lon="0.36134">
        <ele>94.303312289529</ele>
        <time>2021-09-21T14:05:22Z</time>
      </trkpt>
      <trkpt lat="46.54873" lon="0.36131">
        <ele>94.373793783598</ele>
        <time>2021-09-21T14:05:24Z</time>
      </trkpt>
      <trkpt lat="46.54871" lon="0.36128">
        <ele>94.384891867638</ele>
        <time>2021-09-21T14:05:26Z</time>
      </trkpt>
      <trkpt lat="46.5487" lon="0.36126">
        <ele>94.619834561832</ele>
        <time>2021-09-21T14:05:28Z</time>
      </trkpt>
      <trkpt lat="46.54868" lon="0.36123">
        <ele>94.401673626155</ele>
        <time>2021-09-21T14:05:30Z</time>
      </trkpt>
      <trkpt lat="46.54866" lon="0.36122">
        <ele>94.506548557431</ele>
        <time>2021-09-21T14:05:32Z</time>
      </trkpt>
      <trkpt lat="46.54863" lon="0.3612">
        <ele>94.858083540574</ele>
        <time>2021-09-21T14:05:34Z</time>
      </trkpt>
      <trkpt lat="46.54861" lon="0.36118">
        <ele>95.212198849767</ele>
        <time>2021-09-21T14:05:36Z</time>
      </trkpt>
      <trkpt lat="46.54859" lon="0.36117">
        <ele>95.363060001284</ele>
        <time>2021-09-21T14:05:38Z</time>
      </trkpt>
      <trkpt lat="46.54857" lon="0.36114">
        <ele>95.115001149476</ele>
        <time>2021-09-21T14:05:41Z</time>
      </trkpt>
      <trkpt lat="46.54855" lon="0.36112">
        <ele>95.44560062699</ele>
        <time>2021-09-21T14:05:43Z</time>
      </trkpt>
      <trkpt lat="46.54854" lon="0.3611">
        <ele>95.379674130119</ele>
        <time>2021-09-21T14:05:45Z</time>
      </trkpt>
      <trkpt lat="46.54852" lon="0.36108">
        <ele>95.765875541605</ele>
        <time>2021-09-21T14:05:47Z</time>
      </trkpt>
      <trkpt lat="46.5485" lon="0.36106">
        <ele>96.046858155169</ele>
        <time>2021-09-21T14:05:49Z</time>
      </trkpt>
      <trkpt lat="46.54849" lon="0.36105">
        <ele>96.03165997006</ele>
        <time>2021-09-21T14:05:51Z</time>
      </trkpt>
      <trkpt lat="46.54847" lon="0.36103">
        <ele>95.620056460612</ele>
        <time>2021-09-21T14:05:53Z</time>
      </trkpt>
      <trkpt lat="46.54845" lon="0.36101">
        <ele>95.59757818561</ele>
        <time>2021-09-21T14:05:55Z</time>
      </trkpt>
      <trkpt lat="46.54843" lon="0.36099">
        <ele>96.117439603433</ele>
        <time>2021-09-21T14:05:57Z</time>
      </trkpt>
      <trkpt lat="46.54841" lon="0.36098">
        <ele>95.27653208375</ele>
        <time>2021-09-21T14:05:59Z</time>
      </trkpt>
      <trkpt lat="46.54838" lon="0.36096">
        <ele>95.554376503453</ele>
        <time>2021-09-21T14:06:01Z</time>
      </trkpt>
      <trkpt lat="46.54837" lon="0.36094">
        <ele>95.891833219677</ele>
        <time>2021-09-21T14:06:03Z</time>
      </trkpt>
      <trkpt lat="46.54835" lon="0.36092">
        <ele>95.870935927145</ele>
        <time>2021-09-21T14:06:05Z</time>
      </trkpt>
      <trkpt lat="46.54833" lon="0.3609">
        <ele>96.223195306025</ele>
        <time>2021-09-21T14:06:07Z</time>
      </trkpt>
      <trkpt lat="46.5483" lon="0.36089">
        <ele>95.955338864587</ele>
        <time>2021-09-21T14:06:09Z</time>
      </trkpt>
      <trkpt lat="46.54828" lon="0.36086">
        <ele>96.158685711212</ele>
        <time>2021-09-21T14:06:11Z</time>
      </trkpt>
      <trkpt lat="46.54827" lon="0.36084">
        <ele>96.272986859083</ele>
        <time>2021-09-21T14:06:13Z</time>
      </trkpt>
      <trkpt lat="46.54824" lon="0.36082">
        <ele>96.378137797117</ele>
        <time>2021-09-21T14:06:15Z</time>
      </trkpt>
      <trkpt lat="46.54822" lon="0.3608">
        <ele>96.202855329029</ele>
        <time>2021-09-21T14:06:17Z</time>
      </trkpt>
      <trkpt lat="46.5482" lon="0.36078">
        <ele>96.389628130943</ele>
        <time>2021-09-21T14:06:19Z</time>
      </trkpt>
      <trkpt lat="46.54818" lon="0.36076">
        <ele>96.238247635774</ele>
        <time>2021-09-21T14:06:21Z</time>
      </trkpt>
      <trkpt lat="46.54817" lon="0.36075">
        <ele>95.780789645389</ele>
        <time>2021-09-21T14:06:23Z</time>
      </trkpt>
      <trkpt lat="46.54816" lon="0.36073">
        <ele>95.92804897204</ele>
        <time>2021-09-21T14:06:25Z</time>
      </trkpt>
      <trkpt lat="46.54814" lon="0.36071">
        <ele>95.714974267408</ele>
        <time>2021-09-21T14:06:27Z</time>
      </trkpt>
      <trkpt lat="46.54812" lon="0.36068">
        <ele>96.039272283204</ele>
        <time>2021-09-21T14:06:29Z</time>
      </trkpt>
      <trkpt lat="46.54811" lon="0.36066">
        <ele>95.760683624074</ele>
        <time>2021-09-21T14:06:31Z</time>
      </trkpt>
      <trkpt lat="46.5481" lon="0.36063">
        <ele>95.793086688034</ele>
        <time>2021-09-21T14:06:34Z</time>
      </trkpt>
      <trkpt lat="46.54808" lon="0.3606">
        <ele>95.850483681075</ele>
        <time>2021-09-21T14:06:36Z</time>
      </trkpt>
      <trkpt lat="46.54806" lon="0.36058">
        <ele>96.222254816443</ele>
        <time>2021-09-21T14:06:38Z</time>
      </trkpt>
      <trkpt lat="46.54804" lon="0.36055">
        <ele>95.864287357777</ele>
        <time>2021-09-21T14:06:41Z</time>
      </trkpt>
      <trkpt lat="46.54802" lon="0.36052">
        <ele>95.59626556281</ele>
        <time>2021-09-21T14:06:44Z</time>
      </trkpt>
      <trkpt lat="46.54801" lon="0.3605">
        <ele>95.48411270231</ele>
        <time>2021-09-21T14:06:46Z</time>
      </trkpt>
      <trkpt lat="46.54799" lon="0.36047">
        <ele>95.353123980574</ele>
        <time>2021-09-21T14:06:48Z</time>
      </trkpt>
      <trkpt lat="46.54797" lon="0.36044">
        <ele>94.963342609815</ele>
        <time>2021-09-21T14:06:50Z</time>
      </trkpt>
      <trkpt lat="46.54796" lon="0.36042">
        <ele>94.768081787974</ele>
        <time>2021-09-21T14:06:52Z</time>
      </trkpt>
      <trkpt lat="46.54795" lon="0.3604">
        <ele>94.742819330655</ele>
        <time>2021-09-21T14:06:54Z</time>
      </trkpt>
      <trkpt lat="46.54794" lon="0.36038">
        <ele>94.473718265072</ele>
        <time>2021-09-21T14:06:56Z</time>
      </trkpt>
      <trkpt lat="46.54792" lon="0.36035">
        <ele>94.477084735408</ele>
        <time>2021-09-21T14:06:59Z</time>
      </trkpt>
      <trkpt lat="46.54791" lon="0.36032">
        <ele>94.772151150741</ele>
        <time>2021-09-21T14:07:01Z</time>
      </trkpt>
      <trkpt lat="46.5479" lon="0.36029">
        <ele>94.580669155344</ele>
        <time>2021-09-21T14:07:04Z</time>
      </trkpt>
      <trkpt lat="46.54789" lon="0.36026">
        <ele>94.507355500944</ele>
        <time>2021-09-21T14:07:06Z</time>
      </trkpt>
      <trkpt lat="46.54788" lon="0.36022">
        <ele>94.421691109426</ele>
        <time>2021-09-21T14:07:09Z</time>
      </trkpt>
      <trkpt lat="46.54787" lon="0.3602">
        <ele>94.31396918837</ele>
        <time>2021-09-21T14:07:11Z</time>
      </trkpt>
      <trkpt lat="46.54785" lon="0.36017">
        <ele>94.095788471401</ele>
        <time>2021-09-21T14:07:13Z</time>
      </trkpt>
      <trkpt lat="46.54784" lon="0.36015">
        <ele>94.043435769156</ele>
        <time>2021-09-21T14:07:15Z</time>
      </trkpt>
      <trkpt lat="46.54782" lon="0.36012">
        <ele>93.922599360347</ele>
        <time>2021-09-21T14:07:17Z</time>
      </trkpt>
      <trkpt lat="46.54782" lon="0.36008">
        <ele>93.998799047433</ele>
        <time>2021-09-21T14:07:19Z</time>
      </trkpt>
      <trkpt lat="46.54781" lon="0.36004">
        <ele>94.430606400594</ele>
        <time>2021-09-21T14:07:21Z</time>
      </trkpt>
      <trkpt lat="46.5478" lon="0.36001">
        <ele>94.605842552148</ele>
        <time>2021-09-21T14:07:23Z</time>
      </trkpt>
      <trkpt lat="46.54778" lon="0.35998">
        <ele>94.089657475241</ele>
        <time>2021-09-21T14:07:25Z</time>
      </trkpt>
      <trkpt lat="46.54776" lon="0.35994">
        <ele>94.500493307598</ele>
        <time>2021-09-21T14:07:27Z</time>
      </trkpt>
      <trkpt lat="46.54775" lon="0.3599">
        <ele>94.410263900645</ele>
        <time>2021-09-21T14:07:29Z</time>
      </trkpt>
      <trkpt lat="46.54774" lon="0.35987">
        <ele>94.50923135411</ele>
        <time>2021-09-21T14:07:31Z</time>
      </trkpt>
      <trkpt lat="46.54773" lon="0.35985">
        <ele>94.654725807719</ele>
        <time>2021-09-21T14:07:33Z</time>
      </trkpt>
      <trkpt lat="46.54772" lon="0.35981">
        <ele>93.982193424366</ele>
        <time>2021-09-21T14:07:36Z</time>
      </trkpt>
      <trkpt lat="46.5477" lon="0.35979">
        <ele>93.846442516893</ele>
        <time>2021-09-21T14:07:38Z</time>
      </trkpt>
      <trkpt lat="46.54769" lon="0.35974">
        <ele>93.436990370043</ele>
        <time>2021-09-21T14:07:41Z</time>
      </trkpt>
      <trkpt lat="46.54768" lon="0.35972">
        <ele>93.820928397588</ele>
        <time>2021-09-21T14:07:42Z</time>
      </trkpt>
      <trkpt lat="46.54766" lon="0.35969">
        <ele>93.490438900888</ele>
        <time>2021-09-21T14:07:44Z</time>
      </trkpt>
      <trkpt lat="46.54764" lon="0.35967">
        <ele>93.902147326618</ele>
        <time>2021-09-21T14:07:46Z</time>
      </trkpt>
      <trkpt lat="46.54762" lon="0.35964">
        <ele>93.214458894916</ele>
        <time>2021-09-21T14:07:48Z</time>
      </trkpt>
      <trkpt lat="46.54761" lon="0.35961">
        <ele>93.59974520281</ele>
        <time>2021-09-21T14:07:50Z</time>
      </trkpt>
      <trkpt lat="46.54759" lon="0.35958">
        <ele>93.555120229721</ele>
        <time>2021-09-21T14:07:52Z</time>
      </trkpt>
      <trkpt lat="46.54758" lon="0.35956">
        <ele>93.960183460265</ele>
        <time>2021-09-21T14:07:54Z</time>
      </trkpt>
      <trkpt lat="46.54756" lon="0.35952">
        <ele>94.171392428689</ele>
        <time>2021-09-21T14:07:56Z</time>
      </trkpt>
      <trkpt lat="46.54755" lon="0.3595">
        <ele>93.695926767774</ele>
        <time>2021-09-21T14:07:59Z</time>
      </trkpt>
      <trkpt lat="46.54753" lon="0.35947">
        <ele>94.130153841339</ele>
        <time>2021-09-21T14:08:01Z</time>
      </trkpt>
      <trkpt lat="46.54751" lon="0.35945">
        <ele>94.080975195393</ele>
        <time>2021-09-21T14:08:04Z</time>
      </trkpt>
      <trkpt lat="46.54749" lon="0.35943">
        <ele>93.963081446476</ele>
        <time>2021-09-21T14:08:06Z</time>
      </trkpt>
      <trkpt lat="46.54747" lon="0.35941">
        <ele>93.962438083254</ele>
        <time>2021-09-21T14:08:09Z</time>
      </trkpt>
      <trkpt lat="46.54746" lon="0.35938">
        <ele>94.023099381477</ele>
        <time>2021-09-21T14:08:11Z</time>
      </trkpt>
      <trkpt lat="46.54745" lon="0.35936">
        <ele>93.803147155792</ele>
        <time>2021-09-21T14:08:13Z</time>
      </trkpt>
      <trkpt lat="46.54743" lon="0.35933">
        <ele>94.106341768987</ele>
        <time>2021-09-21T14:08:15Z</time>
      </trkpt>
      <trkpt lat="46.54742" lon="0.35931">
        <ele>94.138596258126</ele>
        <time>2021-09-21T14:08:16Z</time>
      </trkpt>
      <trkpt lat="46.5474" lon="0.35927">
        <ele>93.966771188192</ele>
        <time>2021-09-21T14:08:18Z</time>
      </trkpt>
      <trkpt lat="46.54739" lon="0.35925">
        <ele>93.973130410537</ele>
        <time>2021-09-21T14:08:20Z</time>
      </trkpt>
      <trkpt lat="46.54738" lon="0.35922">
        <ele>94.240555339493</ele>
        <time>2021-09-21T14:08:22Z</time>
      </trkpt>
      <trkpt lat="46.54738" lon="0.35919">
        <ele>94.292880614288</ele>
        <time>2021-09-21T14:08:24Z</time>
      </trkpt>
      <trkpt lat="46.54736" lon="0.35916">
        <ele>94.392955821939</ele>
        <time>2021-09-21T14:08:26Z</time>
      </trkpt>
      <trkpt lat="46.54735" lon="0.35914">
        <ele>94.742881259881</ele>
        <time>2021-09-21T14:08:28Z</time>
      </trkpt>
      <trkpt lat="46.54734" lon="0.35911">
        <ele>94.409547802061</ele>
        <time>2021-09-21T14:08:30Z</time>
      </trkpt>
      <trkpt lat="46.54734" lon="0.35908">
        <ele>94.938597938977</ele>
        <time>2021-09-21T14:08:32Z</time>
      </trkpt>
      <trkpt lat="46.54732" lon="0.35905">
        <ele>95.160448261537</ele>
        <time>2021-09-21T14:08:34Z</time>
      </trkpt>
      <trkpt lat="46.54731" lon="0.35903">
        <ele>95.656555403955</ele>
        <time>2021-09-21T14:08:36Z</time>
      </trkpt>
      <trkpt lat="46.5473" lon="0.359">
        <ele>95.704666230828</ele>
        <time>2021-09-21T14:08:38Z</time>
      </trkpt>
      <trkpt lat="46.54729" lon="0.35897">
        <ele>96.194235416129</ele>
        <time>2021-09-21T14:08:41Z</time>
      </trkpt>
      <trkpt lat="46.54728" lon="0.35893">
        <ele>96.546244951896</ele>
        <time>2021-09-21T14:08:44Z</time>
      </trkpt>
      <trkpt lat="46.54727" lon="0.35888">
        <ele>96.899105015211</ele>
        <time>2021-09-21T14:08:47Z</time>
      </trkpt>
      <trkpt lat="46.54727" lon="0.35886">
        <ele>97.282593760639</ele>
        <time>2021-09-21T14:08:49Z</time>
      </trkpt>
      <trkpt lat="46.54726" lon="0.35883">
        <ele>97.502366206609</ele>
        <time>2021-09-21T14:08:51Z</time>
      </trkpt>
      <trkpt lat="46.54724" lon="0.3588">
        <ele>97.838460431434</ele>
        <time>2021-09-21T14:08:53Z</time>
      </trkpt>
      <trkpt lat="46.54722" lon="0.35877">
        <ele>97.988343775272</ele>
        <time>2021-09-21T14:08:55Z</time>
      </trkpt>
      <trkpt lat="46.54721" lon="0.35874">
        <ele>98.234086708166</ele>
        <time>2021-09-21T14:08:58Z</time>
      </trkpt>
      <trkpt lat="46.5472" lon="0.3587">
        <ele>98.315776383504</ele>
        <time>2021-09-21T14:09:01Z</time>
      </trkpt>
      <trkpt lat="46.54718" lon="0.35866">
        <ele>98.766735316254</ele>
        <time>2021-09-21T14:09:04Z</time>
      </trkpt>
      <trkpt lat="46.54718" lon="0.35862">
        <ele>98.756118711084</ele>
        <time>2021-09-21T14:09:07Z</time>
      </trkpt>
      <trkpt lat="46.54717" lon="0.35859">
        <ele>99.187316699885</ele>
        <time>2021-09-21T14:09:10Z</time>
      </trkpt>
      <trkpt lat="46.54716" lon="0.35856">
        <ele>99.213382633403</ele>
        <time>2021-09-21T14:09:12Z</time>
      </trkpt>
      <trkpt lat="46.54715" lon="0.35854">
        <ele>99.211672593839</ele>
        <time>2021-09-21T14:09:14Z</time>
      </trkpt>
      <trkpt lat="46.54715" lon="0.35851">
        <ele>99.184674864635</ele>
        <time>2021-09-21T14:09:17Z</time>
      </trkpt>
      <trkpt lat="46.54714" lon="0.35848">
        <ele>99.37511384394</ele>
        <time>2021-09-21T14:09:19Z</time>
      </trkpt>
      <trkpt lat="46.54713" lon="0.35845">
        <ele>99.442574300803</ele>
        <time>2021-09-21T14:09:21Z</time>
      </trkpt>
      <trkpt lat="46.54712" lon="0.35841">
        <ele>99.962763811462</ele>
        <time>2021-09-21T14:09:24Z</time>
      </trkpt>
      <trkpt lat="46.54711" lon="0.35838">
        <ele>99.722517164424</ele>
        <time>2021-09-21T14:09:26Z</time>
      </trkpt>
      <trkpt lat="46.54711" lon="0.35835">
        <ele>100.05137093179</ele>
        <time>2021-09-21T14:09:28Z</time>
      </trkpt>
      <trkpt lat="46.5471" lon="0.35832">
        <ele>100.18928992469</ele>
        <time>2021-09-21T14:09:31Z</time>
      </trkpt>
      <trkpt lat="46.5471" lon="0.35829">
        <ele>100.44207719713</ele>
        <time>2021-09-21T14:09:33Z</time>
      </trkpt>
      <trkpt lat="46.54708" lon="0.35825">
        <ele>100.56834928226</ele>
        <time>2021-09-21T14:09:36Z</time>
      </trkpt>
      <trkpt lat="46.54708" lon="0.35822">
        <ele>100.77337407507</ele>
        <time>2021-09-21T14:09:38Z</time>
      </trkpt>
      <trkpt lat="46.54707" lon="0.35819">
        <ele>100.65885796491</ele>
        <time>2021-09-21T14:09:40Z</time>
      </trkpt>
      <trkpt lat="46.54707" lon="0.35815">
        <ele>100.70631445944</ele>
        <time>2021-09-21T14:09:43Z</time>
      </trkpt>
      <trkpt lat="46.54706" lon="0.35812">
        <ele>100.37068431545</ele>
        <time>2021-09-21T14:09:45Z</time>
      </trkpt>
      <trkpt lat="46.54705" lon="0.35809">
        <ele>100.54532022029</ele>
        <time>2021-09-21T14:09:47Z</time>
      </trkpt>
      <trkpt lat="46.54705" lon="0.35806">
        <ele>100.17321033403</ele>
        <time>2021-09-21T14:09:50Z</time>
      </trkpt>
      <trkpt lat="46.54704" lon="0.35803">
        <ele>100.14637165796</ele>
        <time>2021-09-21T14:09:52Z</time>
      </trkpt>
      <trkpt lat="46.54704" lon="0.35799">
        <ele>100.04826017655</ele>
        <time>2021-09-21T14:09:55Z</time>
      </trkpt>
      <trkpt lat="46.54704" lon="0.35795">
        <ele>100.01577286702</ele>
        <time>2021-09-21T14:09:57Z</time>
      </trkpt>
      <trkpt lat="46.54702" lon="0.35792">
        <ele>100.6354205953</ele>
        <time>2021-09-21T14:10:00Z</time>
      </trkpt>
      <trkpt lat="46.54702" lon="0.35789">
        <ele>101.17313528433</ele>
        <time>2021-09-21T14:10:02Z</time>
      </trkpt>
      <trkpt lat="46.54701" lon="0.35786">
        <ele>100.89476996567</ele>
        <time>2021-09-21T14:10:05Z</time>
      </trkpt>
      <trkpt lat="46.54699" lon="0.35783">
        <ele>101.07629913371</ele>
        <time>2021-09-21T14:10:08Z</time>
      </trkpt>
      <trkpt lat="46.54698" lon="0.35779">
        <ele>101.31491072942</ele>
        <time>2021-09-21T14:10:10Z</time>
      </trkpt>
      <trkpt lat="46.54696" lon="0.35776">
        <ele>101.87104811147</ele>
        <time>2021-09-21T14:10:13Z</time>
      </trkpt>
      <trkpt lat="46.54695" lon="0.35773">
        <ele>101.97816655226</ele>
        <time>2021-09-21T14:10:15Z</time>
      </trkpt>
      <trkpt lat="46.54695" lon="0.3577">
        <ele>102.22004214115</ele>
        <time>2021-09-21T14:10:17Z</time>
      </trkpt>
      <trkpt lat="46.54694" lon="0.35767">
        <ele>102.47951258905</ele>
        <time>2021-09-21T14:10:19Z</time>
      </trkpt>
      <trkpt lat="46.54692" lon="0.35764">
        <ele>102.87464988325</ele>
        <time>2021-09-21T14:10:22Z</time>
      </trkpt>
      <trkpt lat="46.54691" lon="0.3576">
        <ele>102.55415696651</ele>
        <time>2021-09-21T14:10:24Z</time>
      </trkpt>
      <trkpt lat="46.5469" lon="0.35757">
        <ele>102.75127447117</ele>
        <time>2021-09-21T14:10:26Z</time>
      </trkpt>
      <trkpt lat="46.54689" lon="0.35755">
        <ele>102.22031810414</ele>
        <time>2021-09-21T14:10:28Z</time>
      </trkpt>
      <trkpt lat="46.54687" lon="0.35752">
        <ele>102.51352128293</ele>
        <time>2021-09-21T14:10:30Z</time>
      </trkpt>
      <trkpt lat="46.54686" lon="0.3575">
        <ele>102.65608711541</ele>
        <time>2021-09-21T14:10:33Z</time>
      </trkpt>
      <trkpt lat="46.54684" lon="0.35748">
        <ele>102.58372636046</ele>
        <time>2021-09-21T14:10:37Z</time>
      </trkpt>
      <trkpt lat="46.54682" lon="0.35747">
        <ele>102.21997836418</ele>
        <time>2021-09-21T14:10:43Z</time>
      </trkpt>
      <trkpt lat="46.54681" lon="0.35745">
        <ele>102.22676778305</ele>
        <time>2021-09-21T14:10:46Z</time>
      </trkpt>
      <trkpt lat="46.54679" lon="0.35744">
        <ele>102.34249496181</ele>
        <time>2021-09-21T14:10:50Z</time>
      </trkpt>
      <trkpt lat="46.54677" lon="0.35742">
        <ele>102.60002923477</ele>
        <time>2021-09-21T14:11:23Z</time>
      </trkpt>
      <trkpt lat="46.54678" lon="0.3574">
        <ele>102.42024226766</ele>
        <time>2021-09-21T14:11:44Z</time>
      </trkpt>
      <trkpt lat="46.5468" lon="0.35741">
        <ele>102.55928044952</ele>
        <time>2021-09-21T14:12:29Z</time>
      </trkpt>
      <trkpt lat="46.54678" lon="0.35743">
        <ele>102.81037999131</ele>
        <time>2021-09-21T14:13:11Z</time>
      </trkpt>
      <trkpt lat="46.54678" lon="0.35746">
        <ele>102.72458909731</ele>
        <time>2021-09-21T14:13:39Z</time>
      </trkpt>
      <trkpt lat="46.54679" lon="0.35744">
        <ele>102.37457432691</ele>
        <time>2021-09-21T14:13:49Z</time>
      </trkpt>
      <trkpt lat="46.54679" lon="0.35741">
        <ele>102.63632121868</ele>
        <time>2021-09-21T14:14:01Z</time>
      </trkpt>
      <trkpt lat="46.54678" lon="0.35737">
        <ele>102.93515277281</ele>
        <time>2021-09-21T14:14:04Z</time>
      </trkpt>
      <trkpt lat="46.54677" lon="0.35736">
        <ele>103.22309066821</ele>
        <time>2021-09-21T14:14:07Z</time>
      </trkpt>
      <trkpt lat="46.54675" lon="0.35733">
        <ele>102.80844495539</ele>
        <time>2021-09-21T14:14:10Z</time>
      </trkpt>
      <trkpt lat="46.54674" lon="0.35731">
        <ele>102.98415285908</ele>
        <time>2021-09-21T14:14:13Z</time>
      </trkpt>
      <trkpt lat="46.54673" lon="0.35729">
        <ele>102.8359384127</ele>
        <time>2021-09-21T14:14:15Z</time>
      </trkpt>
      <trkpt lat="46.54671" lon="0.35726">
        <ele>102.93476223573</ele>
        <time>2021-09-21T14:14:19Z</time>
      </trkpt>
      <trkpt lat="46.54669" lon="0.35722">
        <ele>102.91207633074</ele>
        <time>2021-09-21T14:14:22Z</time>
      </trkpt>
      <trkpt lat="46.54668" lon="0.3572">
        <ele>103.18072671257</ele>
        <time>2021-09-21T14:14:23Z</time>
      </trkpt>
      <trkpt lat="46.54666" lon="0.35718">
        <ele>103.25594840385</ele>
        <time>2021-09-21T14:14:25Z</time>
      </trkpt>
      <trkpt lat="46.54664" lon="0.35717">
        <ele>102.81274853367</ele>
        <time>2021-09-21T14:14:27Z</time>
      </trkpt>
      <trkpt lat="46.54663" lon="0.35715">
        <ele>103.10532643087</ele>
        <time>2021-09-21T14:14:29Z</time>
      </trkpt>
      <trkpt lat="46.54662" lon="0.35712">
        <ele>103.03275143914</ele>
        <time>2021-09-21T14:14:32Z</time>
      </trkpt>
      <trkpt lat="46.54661" lon="0.35709">
        <ele>103.06188685913</ele>
        <time>2021-09-21T14:14:34Z</time>
      </trkpt>
      <trkpt lat="46.5466" lon="0.35706">
        <ele>103.01816910133</ele>
        <time>2021-09-21T14:14:37Z</time>
      </trkpt>
      <trkpt lat="46.54659" lon="0.35704">
        <ele>103.05125145148</ele>
        <time>2021-09-21T14:14:39Z</time>
      </trkpt>
      <trkpt lat="46.54656" lon="0.35701">
        <ele>102.91101228539</ele>
        <time>2021-09-21T14:14:41Z</time>
      </trkpt>
      <trkpt lat="46.54654" lon="0.35698">
        <ele>102.72830912098</ele>
        <time>2021-09-21T14:14:43Z</time>
      </trkpt>
      <trkpt lat="46.54652" lon="0.35695">
        <ele>102.85201600194</ele>
        <time>2021-09-21T14:14:45Z</time>
      </trkpt>
      <trkpt lat="46.5465" lon="0.35692">
        <ele>102.90001399815</ele>
        <time>2021-09-21T14:14:48Z</time>
      </trkpt>
      <trkpt lat="46.54647" lon="0.3569">
        <ele>102.99158715736</ele>
        <time>2021-09-21T14:14:50Z</time>
      </trkpt>
      <trkpt lat="46.54644" lon="0.35688">
        <ele>102.94173411094</ele>
        <time>2021-09-21T14:14:52Z</time>
      </trkpt>
      <trkpt lat="46.54641" lon="0.35686">
        <ele>102.83991003688</ele>
        <time>2021-09-21T14:14:54Z</time>
      </trkpt>
      <trkpt lat="46.54639" lon="0.35684">
        <ele>102.63985466957</ele>
        <time>2021-09-21T14:14:56Z</time>
      </trkpt>
      <trkpt lat="46.54636" lon="0.35683">
        <ele>102.67001958191</ele>
        <time>2021-09-21T14:14:58Z</time>
      </trkpt>
      <trkpt lat="46.54634" lon="0.35681">
        <ele>102.19927556068</ele>
        <time>2021-09-21T14:15:00Z</time>
      </trkpt>
      <trkpt lat="46.54632" lon="0.35679">
        <ele>102.84926843271</ele>
        <time>2021-09-21T14:15:02Z</time>
      </trkpt>
      <trkpt lat="46.5463" lon="0.35676">
        <ele>102.60655060504</ele>
        <time>2021-09-21T14:15:04Z</time>
      </trkpt>
      <trkpt lat="46.54628" lon="0.35675">
        <ele>102.25441303384</ele>
        <time>2021-09-21T14:15:05Z</time>
      </trkpt>
      <trkpt lat="46.54626" lon="0.35673">
        <ele>102.72801450361</ele>
        <time>2021-09-21T14:15:07Z</time>
      </trkpt>
      <trkpt lat="46.54623" lon="0.35671">
        <ele>103.17765255552</ele>
        <time>2021-09-21T14:15:09Z</time>
      </trkpt>
      <trkpt lat="46.54621" lon="0.35669">
        <ele>103.1158885872</ele>
        <time>2021-09-21T14:15:11Z</time>
      </trkpt>
      <trkpt lat="46.54618" lon="0.35665">
        <ele>102.83129622694</ele>
        <time>2021-09-21T14:15:13Z</time>
      </trkpt>
      <trkpt lat="46.54616" lon="0.35663">
        <ele>103.45011948515</ele>
        <time>2021-09-21T14:15:15Z</time>
      </trkpt>
      <trkpt lat="46.54613" lon="0.35661">
        <ele>103.68848588504</ele>
        <time>2021-09-21T14:15:17Z</time>
      </trkpt>
      <trkpt lat="46.5461" lon="0.35659">
        <ele>103.87900094502</ele>
        <time>2021-09-21T14:15:19Z</time>
      </trkpt>
      <trkpt lat="46.54609" lon="0.35657">
        <ele>103.50646489765</ele>
        <time>2021-09-21T14:15:21Z</time>
      </trkpt>
      <trkpt lat="46.54607" lon="0.35654">
        <ele>103.53967156447</ele>
        <time>2021-09-21T14:15:23Z</time>
      </trkpt>
      <trkpt lat="46.54606" lon="0.35653">
        <ele>103.86917060707</ele>
        <time>2021-09-21T14:15:25Z</time>
      </trkpt>
      <trkpt lat="46.54603" lon="0.35652">
        <ele>103.79708835762</ele>
        <time>2021-09-21T14:15:27Z</time>
      </trkpt>
      <trkpt lat="46.54601" lon="0.3565">
        <ele>103.67492408492</ele>
        <time>2021-09-21T14:15:29Z</time>
      </trkpt>
      <trkpt lat="46.54599" lon="0.35648">
        <ele>104.54709472414</ele>
        <time>2021-09-21T14:15:31Z</time>
      </trkpt>
      <trkpt lat="46.54597" lon="0.35646">
        <ele>104.27565628663</ele>
        <time>2021-09-21T14:15:33Z</time>
      </trkpt>
      <trkpt lat="46.54595" lon="0.35644">
        <ele>104.65491035953</ele>
        <time>2021-09-21T14:15:35Z</time>
      </trkpt>
      <trkpt lat="46.54593" lon="0.35642">
        <ele>104.8729448216</ele>
        <time>2021-09-21T14:15:37Z</time>
      </trkpt>
      <trkpt lat="46.54591" lon="0.3564">
        <ele>104.83227528911</ele>
        <time>2021-09-21T14:15:39Z</time>
      </trkpt>
      <trkpt lat="46.54589" lon="0.35638">
        <ele>105.29505100567</ele>
        <time>2021-09-21T14:15:41Z</time>
      </trkpt>
      <trkpt lat="46.54587" lon="0.35636">
        <ele>105.52791126538</ele>
        <time>2021-09-21T14:15:43Z</time>
      </trkpt>
      <trkpt lat="46.54585" lon="0.35633">
        <ele>105.77769569959</ele>
        <time>2021-09-21T14:15:45Z</time>
      </trkpt>
      <trkpt lat="46.54582" lon="0.35631">
        <ele>105.60974040069</ele>
        <time>2021-09-21T14:15:47Z</time>
      </trkpt>
      <trkpt lat="46.54581" lon="0.35629">
        <ele>106.26216677111</ele>
        <time>2021-09-21T14:15:49Z</time>
      </trkpt>
      <trkpt lat="46.54579" lon="0.35627">
        <ele>106.30084101111</ele>
        <time>2021-09-21T14:15:51Z</time>
      </trkpt>
      <trkpt lat="46.54576" lon="0.35625">
        <ele>106.17945810873</ele>
        <time>2021-09-21T14:15:53Z</time>
      </trkpt>
      <trkpt lat="46.54574" lon="0.35623">
        <ele>106.28665286861</ele>
        <time>2021-09-21T14:15:56Z</time>
      </trkpt>
      <trkpt lat="46.54572" lon="0.35622">
        <ele>106.47689474002</ele>
        <time>2021-09-21T14:15:59Z</time>
      </trkpt>
      <trkpt lat="46.5457" lon="0.35621">
        <ele>106.65953583829</ele>
        <time>2021-09-21T14:16:01Z</time>
      </trkpt>
      <trkpt lat="46.54569" lon="0.35618">
        <ele>106.66996321827</ele>
        <time>2021-09-21T14:16:04Z</time>
      </trkpt>
      <trkpt lat="46.54567" lon="0.35616">
        <ele>106.63615688682</ele>
        <time>2021-09-21T14:16:06Z</time>
      </trkpt>
      <trkpt lat="46.54565" lon="0.35613">
        <ele>107.04781343136</ele>
        <time>2021-09-21T14:16:08Z</time>
      </trkpt>
      <trkpt lat="46.54564" lon="0.35612">
        <ele>107.21084275376</ele>
        <time>2021-09-21T14:16:10Z</time>
      </trkpt>
      <trkpt lat="46.54562" lon="0.3561">
        <ele>107.40870508645</ele>
        <time>2021-09-21T14:16:12Z</time>
      </trkpt>
      <trkpt lat="46.5456" lon="0.35607">
        <ele>107.30359178223</ele>
        <time>2021-09-21T14:16:15Z</time>
      </trkpt>
      <trkpt lat="46.54559" lon="0.35605">
        <ele>107.92480750009</ele>
        <time>2021-09-21T14:16:17Z</time>
      </trkpt>
      <trkpt lat="46.54558" lon="0.35602">
        <ele>107.72525129747</ele>
        <time>2021-09-21T14:16:19Z</time>
      </trkpt>
      <trkpt lat="46.54556" lon="0.356">
        <ele>107.97871042974</ele>
        <time>2021-09-21T14:16:21Z</time>
      </trkpt>
      <trkpt lat="46.54555" lon="0.35597">
        <ele>107.90671092086</ele>
        <time>2021-09-21T14:16:23Z</time>
      </trkpt>
      <trkpt lat="46.54554" lon="0.35595">
        <ele>108.21531919856</ele>
        <time>2021-09-21T14:16:25Z</time>
      </trkpt>
      <trkpt lat="46.54553" lon="0.35592">
        <ele>108.51586450357</ele>
        <time>2021-09-21T14:16:27Z</time>
      </trkpt>
      <trkpt lat="46.54551" lon="0.35589">
        <ele>109.35648507439</ele>
        <time>2021-09-21T14:16:30Z</time>
      </trkpt>
      <trkpt lat="46.54551" lon="0.35586">
        <ele>109.30945307203</ele>
        <time>2021-09-21T14:16:31Z</time>
      </trkpt>
      <trkpt lat="46.54549" lon="0.35584">
        <ele>109.86918127723</ele>
        <time>2021-09-21T14:16:33Z</time>
      </trkpt>
      <trkpt lat="46.54547" lon="0.35581">
        <ele>110.71170276962</ele>
        <time>2021-09-21T14:16:36Z</time>
      </trkpt>
      <trkpt lat="46.54545" lon="0.35579">
        <ele>110.54141843691</ele>
        <time>2021-09-21T14:16:38Z</time>
      </trkpt>
      <trkpt lat="46.54543" lon="0.35575">
        <ele>111.00992128067</ele>
        <time>2021-09-21T14:16:43Z</time>
      </trkpt>
      <trkpt lat="46.54541" lon="0.35573">
        <ele>110.9588481104</ele>
        <time>2021-09-21T14:16:45Z</time>
      </trkpt>
      <trkpt lat="46.5454" lon="0.35571">
        <ele>110.80190935079</ele>
        <time>2021-09-21T14:16:47Z</time>
      </trkpt>
      <trkpt lat="46.54537" lon="0.35567">
        <ele>111.17591027822</ele>
        <time>2021-09-21T14:16:50Z</time>
      </trkpt>
      <trkpt lat="46.54536" lon="0.35565">
        <ele>111.49164565094</ele>
        <time>2021-09-21T14:16:52Z</time>
      </trkpt>
      <trkpt lat="46.54534" lon="0.35563">
        <ele>111.50872272905</ele>
        <time>2021-09-21T14:16:54Z</time>
      </trkpt>
      <trkpt lat="46.54533" lon="0.3556">
        <ele>112.08633595798</ele>
        <time>2021-09-21T14:16:56Z</time>
      </trkpt>
      <trkpt lat="46.54531" lon="0.35557">
        <ele>112.1127035534</ele>
        <time>2021-09-21T14:16:58Z</time>
      </trkpt>
      <trkpt lat="46.54531" lon="0.35554">
        <ele>112.73961808998</ele>
        <time>2021-09-21T14:17:00Z</time>
      </trkpt>
      <trkpt lat="46.5453" lon="0.35552">
        <ele>112.90304988995</ele>
        <time>2021-09-21T14:17:02Z</time>
      </trkpt>
      <trkpt lat="46.54529" lon="0.35549">
        <ele>112.93555069808</ele>
        <time>2021-09-21T14:17:04Z</time>
      </trkpt>
      <trkpt lat="46.54528" lon="0.35546">
        <ele>113.52030076087</ele>
        <time>2021-09-21T14:17:06Z</time>
      </trkpt>
      <trkpt lat="46.54526" lon="0.35542">
        <ele>113.56244904641</ele>
        <time>2021-09-21T14:17:08Z</time>
      </trkpt>
      <trkpt lat="46.54525" lon="0.35539">
        <ele>113.68001573253</ele>
        <time>2021-09-21T14:17:10Z</time>
      </trkpt>
      <trkpt lat="46.54523" lon="0.35537">
        <ele>114.06839389261</ele>
        <time>2021-09-21T14:17:12Z</time>
      </trkpt>
      <trkpt lat="46.5452" lon="0.35535">
        <ele>114.09880333487</ele>
        <time>2021-09-21T14:17:14Z</time>
      </trkpt>
      <trkpt lat="46.54518" lon="0.35535">
        <ele>114.51820282172</ele>
        <time>2021-09-21T14:17:16Z</time>
      </trkpt>
      <trkpt lat="46.54515" lon="0.35536">
        <ele>114.34262902942</ele>
        <time>2021-09-21T14:17:18Z</time>
      </trkpt>
      <trkpt lat="46.54513" lon="0.35536">
        <ele>114.96279090177</ele>
        <time>2021-09-21T14:17:20Z</time>
      </trkpt>
      <trkpt lat="46.54509" lon="0.35536">
        <ele>114.75798279047</ele>
        <time>2021-09-21T14:17:23Z</time>
      </trkpt>
      <trkpt lat="46.54507" lon="0.35537">
        <ele>114.9212488886</ele>
        <time>2021-09-21T14:17:25Z</time>
      </trkpt>
      <trkpt lat="46.54505" lon="0.35537">
        <ele>115.01539940294</ele>
        <time>2021-09-21T14:17:27Z</time>
      </trkpt>
      <trkpt lat="46.54503" lon="0.35539">
        <ele>115.03905695677</ele>
        <time>2021-09-21T14:17:29Z</time>
      </trkpt>
      <trkpt lat="46.54501" lon="0.3554">
        <ele>115.20004238281</ele>
        <time>2021-09-21T14:17:31Z</time>
      </trkpt>
      <trkpt lat="46.54498" lon="0.35542">
        <ele>115.08171822783</ele>
        <time>2021-09-21T14:17:33Z</time>
      </trkpt>
      <trkpt lat="46.54496" lon="0.35544">
        <ele>114.8707153853</ele>
        <time>2021-09-21T14:17:35Z</time>
      </trkpt>
      <trkpt lat="46.54494" lon="0.35545">
        <ele>115.30583655648</ele>
        <time>2021-09-21T14:17:37Z</time>
      </trkpt>
      <trkpt lat="46.54492" lon="0.35546">
        <ele>115.52023500297</ele>
        <time>2021-09-21T14:17:39Z</time>
      </trkpt>
      <trkpt lat="46.5449" lon="0.35545">
        <ele>115.69178077299</ele>
        <time>2021-09-21T14:17:41Z</time>
      </trkpt>
      <trkpt lat="46.54488" lon="0.35544">
        <ele>115.78631113563</ele>
        <time>2021-09-21T14:17:44Z</time>
      </trkpt>
      <trkpt lat="46.54485" lon="0.35544">
        <ele>115.94668449741</ele>
        <time>2021-09-21T14:17:47Z</time>
      </trkpt>
      <trkpt lat="46.54482" lon="0.35543">
        <ele>116.27338833176</ele>
        <time>2021-09-21T14:17:49Z</time>
      </trkpt>
      <trkpt lat="46.5448" lon="0.35542">
        <ele>116.24837220646</ele>
        <time>2021-09-21T14:17:52Z</time>
      </trkpt>
      <trkpt lat="46.54478" lon="0.35543">
        <ele>116.7338755019</ele>
        <time>2021-09-21T14:17:54Z</time>
      </trkpt>
      <trkpt lat="46.54476" lon="0.35542">
        <ele>116.73839579429</ele>
        <time>2021-09-21T14:17:56Z</time>
      </trkpt>
      <trkpt lat="46.54474" lon="0.35542">
        <ele>116.94695007335</ele>
        <time>2021-09-21T14:17:58Z</time>
      </trkpt>
      <trkpt lat="46.54472" lon="0.35542">
        <ele>116.93589337729</ele>
        <time>2021-09-21T14:18:00Z</time>
      </trkpt>
      <trkpt lat="46.54469" lon="0.35542">
        <ele>117.20592639223</ele>
        <time>2021-09-21T14:18:03Z</time>
      </trkpt>
      <trkpt lat="46.54466" lon="0.35542">
        <ele>117.21363973338</ele>
        <time>2021-09-21T14:18:05Z</time>
      </trkpt>
      <trkpt lat="46.54464" lon="0.35542">
        <ele>117.24871412292</ele>
        <time>2021-09-21T14:18:07Z</time>
      </trkpt>
      <trkpt lat="46.54462" lon="0.35541">
        <ele>117.21502953954</ele>
        <time>2021-09-21T14:18:09Z</time>
      </trkpt>
      <trkpt lat="46.54459" lon="0.35541">
        <ele>117.50270615052</ele>
        <time>2021-09-21T14:18:12Z</time>
      </trkpt>
      <trkpt lat="46.54457" lon="0.35539">
        <ele>117.50529684126</ele>
        <time>2021-09-21T14:18:14Z</time>
      </trkpt>
      <trkpt lat="46.54455" lon="0.35539">
        <ele>117.59025203157</ele>
        <time>2021-09-21T14:18:16Z</time>
      </trkpt>
      <trkpt lat="46.54452" lon="0.35537">
        <ele>117.64723901264</ele>
        <time>2021-09-21T14:18:19Z</time>
      </trkpt>
      <trkpt lat="46.5445" lon="0.35535">
        <ele>117.9441887401</ele>
        <time>2021-09-21T14:18:21Z</time>
      </trkpt>
      <trkpt lat="46.54448" lon="0.35533">
        <ele>118.05976575799</ele>
        <time>2021-09-21T14:18:23Z</time>
      </trkpt>
      <trkpt lat="46.54445" lon="0.35533">
        <ele>118.40262227319</ele>
        <time>2021-09-21T14:18:26Z</time>
      </trkpt>
      <trkpt lat="46.54442" lon="0.35533">
        <ele>118.13260057569</ele>
        <time>2021-09-21T14:18:28Z</time>
      </trkpt>
      <trkpt lat="46.5444" lon="0.35532">
        <ele>118.38944085408</ele>
        <time>2021-09-21T14:18:30Z</time>
      </trkpt>
      <trkpt lat="46.54438" lon="0.3553">
        <ele>118.57243821025</ele>
        <time>2021-09-21T14:18:33Z</time>
      </trkpt>
      <trkpt lat="46.54436" lon="0.35528">
        <ele>118.53983978089</ele>
        <time>2021-09-21T14:18:35Z</time>
      </trkpt>
      <trkpt lat="46.54434" lon="0.35526">
        <ele>118.62200528663</ele>
        <time>2021-09-21T14:18:38Z</time>
      </trkpt>
      <trkpt lat="46.54433" lon="0.35523">
        <ele>118.88137466088</ele>
        <time>2021-09-21T14:18:40Z</time>
      </trkpt>
      <trkpt lat="46.54431" lon="0.35519">
        <ele>119.37670040317</ele>
        <time>2021-09-21T14:18:42Z</time>
      </trkpt>
      <trkpt lat="46.54429" lon="0.35517">
        <ele>119.28905028943</ele>
        <time>2021-09-21T14:18:43Z</time>
      </trkpt>
      <trkpt lat="46.54427" lon="0.35515">
        <ele>120.04869670887</ele>
        <time>2021-09-21T14:18:46Z</time>
      </trkpt>
      <trkpt lat="46.54425" lon="0.35513">
        <ele>119.73789539002</ele>
        <time>2021-09-21T14:18:49Z</time>
      </trkpt>
      <trkpt lat="46.54423" lon="0.35512">
        <ele>119.75897745974</ele>
        <time>2021-09-21T14:18:51Z</time>
      </trkpt>
      <trkpt lat="46.5442" lon="0.35511">
        <ele>120.03720852081</ele>
        <time>2021-09-21T14:18:54Z</time>
      </trkpt>
      <trkpt lat="46.54418" lon="0.3551">
        <ele>120.10436336417</ele>
        <time>2021-09-21T14:18:56Z</time>
      </trkpt>
      <trkpt lat="46.54416" lon="0.35507">
        <ele>120.45851703733</ele>
        <time>2021-09-21T14:18:58Z</time>
      </trkpt>
      <trkpt lat="46.54414" lon="0.35507">
        <ele>120.30332674086</ele>
        <time>2021-09-21T14:18:59Z</time>
      </trkpt>
      <trkpt lat="46.54411" lon="0.35506">
        <ele>120.3429476805</ele>
        <time>2021-09-21T14:19:02Z</time>
      </trkpt>
      <trkpt lat="46.54409" lon="0.35503">
        <ele>120.48476899508</ele>
        <time>2021-09-21T14:19:05Z</time>
      </trkpt>
      <trkpt lat="46.54407" lon="0.35501">
        <ele>120.69152743835</ele>
        <time>2021-09-21T14:19:06Z</time>
      </trkpt>
      <trkpt lat="46.54404" lon="0.35499">
        <ele>120.76624050085</ele>
        <time>2021-09-21T14:19:08Z</time>
      </trkpt>
      <trkpt lat="46.54402" lon="0.35498">
        <ele>121.0479862541</ele>
        <time>2021-09-21T14:19:10Z</time>
      </trkpt>
      <trkpt lat="46.544" lon="0.35495">
        <ele>121.11823994573</ele>
        <time>2021-09-21T14:19:12Z</time>
      </trkpt>
      <trkpt lat="46.54399" lon="0.35493">
        <ele>120.99991170783</ele>
        <time>2021-09-21T14:19:14Z</time>
      </trkpt>
      <trkpt lat="46.54398" lon="0.35489">
        <ele>121.17086674366</ele>
        <time>2021-09-21T14:19:16Z</time>
      </trkpt>
      <trkpt lat="46.54396" lon="0.35487">
        <ele>121.62888966966</ele>
        <time>2021-09-21T14:19:18Z</time>
      </trkpt>
      <trkpt lat="46.54394" lon="0.35484">
        <ele>121.58262874652</ele>
        <time>2021-09-21T14:19:21Z</time>
      </trkpt>
      <trkpt lat="46.54391" lon="0.35482">
        <ele>121.85143479612</ele>
        <time>2021-09-21T14:19:23Z</time>
      </trkpt>
      <trkpt lat="46.5439" lon="0.3548">
        <ele>121.70127450116</ele>
        <time>2021-09-21T14:19:25Z</time>
      </trkpt>
      <trkpt lat="46.54386" lon="0.35477">
        <ele>122.02716983669</ele>
        <time>2021-09-21T14:19:27Z</time>
      </trkpt>
      <trkpt lat="46.54384" lon="0.35476">
        <ele>121.69074838236</ele>
        <time>2021-09-21T14:19:30Z</time>
      </trkpt>
      <trkpt lat="46.54382" lon="0.35475">
        <ele>121.85464057047</ele>
        <time>2021-09-21T14:19:32Z</time>
      </trkpt>
      <trkpt lat="46.54379" lon="0.35472">
        <ele>121.87249240838</ele>
        <time>2021-09-21T14:19:34Z</time>
      </trkpt>
      <trkpt lat="46.54377" lon="0.3547">
        <ele>122.36367965024</ele>
        <time>2021-09-21T14:19:37Z</time>
      </trkpt>
      <trkpt lat="46.54375" lon="0.35469">
        <ele>121.95740087517</ele>
        <time>2021-09-21T14:19:39Z</time>
      </trkpt>
      <trkpt lat="46.54373" lon="0.35467">
        <ele>122.20440378599</ele>
        <time>2021-09-21T14:19:42Z</time>
      </trkpt>
      <trkpt lat="46.54371" lon="0.35465">
        <ele>122.15497482568</ele>
        <time>2021-09-21T14:19:44Z</time>
      </trkpt>
      <trkpt lat="46.5437" lon="0.35463">
        <ele>122.4778809892</ele>
        <time>2021-09-21T14:19:45Z</time>
      </trkpt>
      <trkpt lat="46.54367" lon="0.35462">
        <ele>122.58484707214</ele>
        <time>2021-09-21T14:19:47Z</time>
      </trkpt>
      <trkpt lat="46.54365" lon="0.35459">
        <ele>122.15456167515</ele>
        <time>2021-09-21T14:19:50Z</time>
      </trkpt>
      <trkpt lat="46.54364" lon="0.35455">
        <ele>122.58937185258</ele>
        <time>2021-09-21T14:19:52Z</time>
      </trkpt>
      <trkpt lat="46.54364" lon="0.35451">
        <ele>122.50469404832</ele>
        <time>2021-09-21T14:19:55Z</time>
      </trkpt>
      <trkpt lat="46.54363" lon="0.35449">
        <ele>122.64972735383</ele>
        <time>2021-09-21T14:19:57Z</time>
      </trkpt>
      <trkpt lat="46.54362" lon="0.35445">
        <ele>122.57140127011</ele>
        <time>2021-09-21T14:19:59Z</time>
      </trkpt>
      <trkpt lat="46.54361" lon="0.35442">
        <ele>122.7560733771</ele>
        <time>2021-09-21T14:20:01Z</time>
      </trkpt>
      <trkpt lat="46.54358" lon="0.3544">
        <ele>122.88707527425</ele>
        <time>2021-09-21T14:20:04Z</time>
      </trkpt>
      <trkpt lat="46.54356" lon="0.35438">
        <ele>122.99058796559</ele>
        <time>2021-09-21T14:20:06Z</time>
      </trkpt>
      <trkpt lat="46.54353" lon="0.35437">
        <ele>123.53243288398</ele>
        <time>2021-09-21T14:20:08Z</time>
      </trkpt>
      <trkpt lat="46.54351" lon="0.35436">
        <ele>123.22576732002</ele>
        <time>2021-09-21T14:20:10Z</time>
      </trkpt>
      <trkpt lat="46.54349" lon="0.35434">
        <ele>123.34793047514</ele>
        <time>2021-09-21T14:20:12Z</time>
      </trkpt>
      <trkpt lat="46.54348" lon="0.35433">
        <ele>123.03039415181</ele>
        <time>2021-09-21T14:20:14Z</time>
      </trkpt>
      <trkpt lat="46.54346" lon="0.35432">
        <ele>122.99087365717</ele>
        <time>2021-09-21T14:20:15Z</time>
      </trkpt>
      <trkpt lat="46.54344" lon="0.3543">
        <ele>123.05378232524</ele>
        <time>2021-09-21T14:20:17Z</time>
      </trkpt>
      <trkpt lat="46.54344" lon="0.35426">
        <ele>123.03228936065</ele>
        <time>2021-09-21T14:20:19Z</time>
      </trkpt>
      <trkpt lat="46.54344" lon="0.35423">
        <ele>122.78899769392</ele>
        <time>2021-09-21T14:20:21Z</time>
      </trkpt>
      <trkpt lat="46.54342" lon="0.35419">
        <ele>123.28072184511</ele>
        <time>2021-09-21T14:20:23Z</time>
      </trkpt>
      <trkpt lat="46.54342" lon="0.35417">
        <ele>123.13403171953</ele>
        <time>2021-09-21T14:20:24Z</time>
      </trkpt>
      <trkpt lat="46.54342" lon="0.35413">
        <ele>123.54050358851</ele>
        <time>2021-09-21T14:20:26Z</time>
      </trkpt>
      <trkpt lat="46.54345" lon="0.3541">
        <ele>123.39134913404</ele>
        <time>2021-09-21T14:20:28Z</time>
      </trkpt>
      <trkpt lat="46.54345" lon="0.35407">
        <ele>123.63878569845</ele>
        <time>2021-09-21T14:20:30Z</time>
      </trkpt>
      <trkpt lat="46.54346" lon="0.35404">
        <ele>123.85441902466</ele>
        <time>2021-09-21T14:20:33Z</time>
      </trkpt>
      <trkpt lat="46.54347" lon="0.354">
        <ele>123.9723040415</ele>
        <time>2021-09-21T14:20:35Z</time>
      </trkpt>
      <trkpt lat="46.54347" lon="0.35396">
        <ele>124.60311690159</ele>
        <time>2021-09-21T14:20:37Z</time>
      </trkpt>
      <trkpt lat="46.54345" lon="0.35393">
        <ele>124.45632106159</ele>
        <time>2021-09-21T14:20:39Z</time>
      </trkpt>
      <trkpt lat="46.54343" lon="0.35392">
        <ele>124.53095554654</ele>
        <time>2021-09-21T14:20:41Z</time>
      </trkpt>
      <trkpt lat="46.54341" lon="0.35391">
        <ele>124.62757718191</ele>
        <time>2021-09-21T14:20:51Z</time>
      </trkpt>
      <trkpt lat="46.5434" lon="0.35388">
        <ele>124.56740177888</ele>
        <time>2021-09-21T14:20:57Z</time>
      </trkpt>
      <trkpt lat="46.54341" lon="0.35386">
        <ele>124.9188856734</ele>
        <time>2021-09-21T14:21:04Z</time>
      </trkpt>
      <trkpt lat="46.54343" lon="0.35385">
        <ele>124.54141543247</ele>
        <time>2021-09-21T14:21:09Z</time>
      </trkpt>
      <trkpt lat="46.54343" lon="0.35382">
        <ele>124.62284678407</ele>
        <time>2021-09-21T14:21:22Z</time>
      </trkpt>
      <trkpt lat="46.54343" lon="0.35386">
        <ele>124.69436286576</ele>
        <time>2021-09-21T14:21:28Z</time>
      </trkpt>
      <trkpt lat="46.54342" lon="0.35383">
        <ele>124.72939500958</ele>
        <time>2021-09-21T14:21:41Z</time>
      </trkpt>
      <trkpt lat="46.54342" lon="0.3538">
        <ele>125.1108297864</ele>
        <time>2021-09-21T14:22:04Z</time>
      </trkpt>
      <trkpt lat="46.5434" lon="0.3538">
        <ele>124.78562552854</ele>
        <time>2021-09-21T14:22:09Z</time>
      </trkpt>
      <trkpt lat="46.54339" lon="0.35381">
        <ele>124.4472913295</ele>
        <time>2021-09-21T14:22:11Z</time>
      </trkpt>
      <trkpt lat="46.54336" lon="0.35382">
        <ele>125.04535150807</ele>
        <time>2021-09-21T14:22:13Z</time>
      </trkpt>
      <trkpt lat="46.54333" lon="0.35382">
        <ele>124.69239989854</ele>
        <time>2021-09-21T14:22:16Z</time>
      </trkpt>
      <trkpt lat="46.54331" lon="0.35383">
        <ele>124.95522985514</ele>
        <time>2021-09-21T14:22:19Z</time>
      </trkpt>
      <trkpt lat="46.54329" lon="0.35382">
        <ele>124.80525473878</ele>
        <time>2021-09-21T14:22:23Z</time>
      </trkpt>
      <trkpt lat="46.54327" lon="0.35383">
        <ele>124.99988910835</ele>
        <time>2021-09-21T14:22:27Z</time>
      </trkpt>
      <trkpt lat="46.54324" lon="0.35382">
        <ele>124.76629365981</ele>
        <time>2021-09-21T14:22:31Z</time>
      </trkpt>
      <trkpt lat="46.54322" lon="0.35381">
        <ele>124.68424305134</ele>
        <time>2021-09-21T14:22:33Z</time>
      </trkpt>
      <trkpt lat="46.54319" lon="0.35381">
        <ele>124.95665723085</ele>
        <time>2021-09-21T14:22:36Z</time>
      </trkpt>
      <trkpt lat="46.54317" lon="0.35381">
        <ele>124.6083713742</ele>
        <time>2021-09-21T14:22:38Z</time>
      </trkpt>
      <trkpt lat="46.54314" lon="0.35379">
        <ele>124.86227996554</ele>
        <time>2021-09-21T14:22:40Z</time>
      </trkpt>
      <trkpt lat="46.54311" lon="0.35379">
        <ele>124.45106328558</ele>
        <time>2021-09-21T14:22:42Z</time>
      </trkpt>
      <trkpt lat="46.54309" lon="0.35379">
        <ele>124.63975670934</ele>
        <time>2021-09-21T14:22:44Z</time>
      </trkpt>
      <trkpt lat="46.54306" lon="0.35378">
        <ele>124.80279796198</ele>
        <time>2021-09-21T14:22:46Z</time>
      </trkpt>
      <trkpt lat="46.54303" lon="0.35377">
        <ele>124.54051286727</ele>
        <time>2021-09-21T14:22:48Z</time>
      </trkpt>
      <trkpt lat="46.543" lon="0.35377">
        <ele>124.06696389895</ele>
        <time>2021-09-21T14:22:50Z</time>
      </trkpt>
      <trkpt lat="46.54297" lon="0.35377">
        <ele>124.04214967415</ele>
        <time>2021-09-21T14:22:52Z</time>
      </trkpt>
      <trkpt lat="46.54295" lon="0.35376">
        <ele>123.81006363872</ele>
        <time>2021-09-21T14:22:54Z</time>
      </trkpt>
      <trkpt lat="46.54292" lon="0.35376">
        <ele>124.10713686422</ele>
        <time>2021-09-21T14:22:56Z</time>
      </trkpt>
      <trkpt lat="46.5429" lon="0.35376">
        <ele>124.05872386694</ele>
        <time>2021-09-21T14:22:58Z</time>
      </trkpt>
      <trkpt lat="46.54286" lon="0.35375">
        <ele>123.64511940815</ele>
        <time>2021-09-21T14:23:01Z</time>
      </trkpt>
      <trkpt lat="46.54284" lon="0.35374">
        <ele>123.60520243645</ele>
        <time>2021-09-21T14:23:03Z</time>
      </trkpt>
      <trkpt lat="46.54282" lon="0.35374">
        <ele>123.75827532262</ele>
        <time>2021-09-21T14:23:05Z</time>
      </trkpt>
      <trkpt lat="46.54279" lon="0.35374">
        <ele>123.91757512745</ele>
        <time>2021-09-21T14:23:07Z</time>
      </trkpt>
      <trkpt lat="46.54276" lon="0.35373">
        <ele>123.33895215392</ele>
        <time>2021-09-21T14:23:09Z</time>
      </trkpt>
      <trkpt lat="46.54274" lon="0.35372">
        <ele>123.40488342103</ele>
        <time>2021-09-21T14:23:11Z</time>
      </trkpt>
      <trkpt lat="46.54272" lon="0.35372">
        <ele>123.3790471172</ele>
        <time>2021-09-21T14:23:13Z</time>
      </trkpt>
      <trkpt lat="46.5427" lon="0.35372">
        <ele>123.42201530375</ele>
        <time>2021-09-21T14:23:15Z</time>
      </trkpt>
      <trkpt lat="46.54267" lon="0.35371">
        <ele>123.29366965499</ele>
        <time>2021-09-21T14:23:17Z</time>
      </trkpt>
      <trkpt lat="46.54264" lon="0.3537">
        <ele>123.65648854058</ele>
        <time>2021-09-21T14:23:20Z</time>
      </trkpt>
      <trkpt lat="46.54262" lon="0.35369">
        <ele>123.60007007979</ele>
        <time>2021-09-21T14:23:22Z</time>
      </trkpt>
      <trkpt lat="46.54259" lon="0.3537">
        <ele>123.44196033757</ele>
        <time>2021-09-21T14:23:24Z</time>
      </trkpt>
      <trkpt lat="46.54257" lon="0.35368">
        <ele>123.45824101288</ele>
        <time>2021-09-21T14:23:26Z</time>
      </trkpt>
      <trkpt lat="46.54255" lon="0.35369">
        <ele>123.39192212746</ele>
        <time>2021-09-21T14:23:28Z</time>
      </trkpt>
      <trkpt lat="46.54252" lon="0.35368">
        <ele>123.20529065654</ele>
        <time>2021-09-21T14:23:30Z</time>
      </trkpt>
      <trkpt lat="46.5425" lon="0.35367">
        <ele>123.74321248196</ele>
        <time>2021-09-21T14:23:32Z</time>
      </trkpt>
      <trkpt lat="46.54247" lon="0.35368">
        <ele>123.0153198028</ele>
        <time>2021-09-21T14:23:34Z</time>
      </trkpt>
      <trkpt lat="46.54244" lon="0.35368">
        <ele>123.16423027776</ele>
        <time>2021-09-21T14:23:36Z</time>
      </trkpt>
      <trkpt lat="46.54242" lon="0.35368">
        <ele>123.17096950579</ele>
        <time>2021-09-21T14:23:38Z</time>
      </trkpt>
      <trkpt lat="46.54238" lon="0.35368">
        <ele>122.98397423513</ele>
        <time>2021-09-21T14:23:40Z</time>
      </trkpt>
      <trkpt lat="46.54236" lon="0.35368">
        <ele>122.86482100096</ele>
        <time>2021-09-21T14:23:42Z</time>
      </trkpt>
      <trkpt lat="46.54234" lon="0.35368">
        <ele>122.89804627746</ele>
        <time>2021-09-21T14:23:44Z</time>
      </trkpt>
      <trkpt lat="46.54231" lon="0.35368">
        <ele>122.54819006473</ele>
        <time>2021-09-21T14:23:47Z</time>
      </trkpt>
      <trkpt lat="46.54229" lon="0.35368">
        <ele>122.4243511986</ele>
        <time>2021-09-21T14:23:49Z</time>
      </trkpt>
      <trkpt lat="46.54226" lon="0.35369">
        <ele>122.58860281296</ele>
        <time>2021-09-21T14:23:51Z</time>
      </trkpt>
      <trkpt lat="46.54222" lon="0.35368">
        <ele>122.66330839228</ele>
        <time>2021-09-21T14:23:53Z</time>
      </trkpt>
      <trkpt lat="46.5422" lon="0.35367">
        <ele>122.92068404797</ele>
        <time>2021-09-21T14:23:55Z</time>
      </trkpt>
      <trkpt lat="46.54217" lon="0.35367">
        <ele>122.32849122025</ele>
        <time>2021-09-21T14:23:57Z</time>
      </trkpt>
      <trkpt lat="46.54215" lon="0.35367">
        <ele>122.60165972542</ele>
        <time>2021-09-21T14:23:59Z</time>
      </trkpt>
      <trkpt lat="46.54212" lon="0.35368">
        <ele>122.55403664522</ele>
        <time>2021-09-21T14:24:01Z</time>
      </trkpt>
      <trkpt lat="46.5421" lon="0.35368">
        <ele>122.77359430213</ele>
        <time>2021-09-21T14:24:03Z</time>
      </trkpt>
      <trkpt lat="46.54207" lon="0.35367">
        <ele>122.61037963163</ele>
        <time>2021-09-21T14:24:05Z</time>
      </trkpt>
      <trkpt lat="46.54204" lon="0.35368">
        <ele>122.54347544909</ele>
        <time>2021-09-21T14:24:07Z</time>
      </trkpt>
      <trkpt lat="46.54202" lon="0.35368">
        <ele>122.47311381344</ele>
        <time>2021-09-21T14:24:09Z</time>
      </trkpt>
      <trkpt lat="46.54199" lon="0.35368">
        <ele>122.4677554667</ele>
        <time>2021-09-21T14:24:11Z</time>
      </trkpt>
      <trkpt lat="46.54197" lon="0.35369">
        <ele>122.51318892837</ele>
        <time>2021-09-21T14:24:13Z</time>
      </trkpt>
      <trkpt lat="46.54195" lon="0.35369">
        <ele>122.53467006516</ele>
        <time>2021-09-21T14:24:15Z</time>
      </trkpt>
      <trkpt lat="46.54193" lon="0.35369">
        <ele>122.24966491386</ele>
        <time>2021-09-21T14:24:17Z</time>
      </trkpt>
      <trkpt lat="46.54189" lon="0.35369">
        <ele>121.9359651627</ele>
        <time>2021-09-21T14:24:19Z</time>
      </trkpt>
      <trkpt lat="46.54186" lon="0.35369">
        <ele>122.27799686696</ele>
        <time>2021-09-21T14:24:21Z</time>
      </trkpt>
      <trkpt lat="46.54184" lon="0.3537">
        <ele>122.22130489722</ele>
        <time>2021-09-21T14:24:22Z</time>
      </trkpt>
      <trkpt lat="46.54182" lon="0.35371">
        <ele>122.01940927282</ele>
        <time>2021-09-21T14:24:24Z</time>
      </trkpt>
      <trkpt lat="46.54179" lon="0.35371">
        <ele>121.75392649695</ele>
        <time>2021-09-21T14:24:26Z</time>
      </trkpt>
      <trkpt lat="46.54176" lon="0.35372">
        <ele>122.05222772993</ele>
        <time>2021-09-21T14:24:28Z</time>
      </trkpt>
      <trkpt lat="46.54173" lon="0.35373">
        <ele>122.01035911124</ele>
        <time>2021-09-21T14:24:31Z</time>
      </trkpt>
      <trkpt lat="46.54171" lon="0.35373">
        <ele>121.71691580489</ele>
        <time>2021-09-21T14:24:33Z</time>
      </trkpt>
      <trkpt lat="46.54169" lon="0.35374">
        <ele>121.59148774948</ele>
        <time>2021-09-21T14:24:35Z</time>
      </trkpt>
      <trkpt lat="46.54167" lon="0.35374">
        <ele>121.36433898006</ele>
        <time>2021-09-21T14:24:38Z</time>
      </trkpt>
      <trkpt lat="46.54168" lon="0.35378">
        <ele>122.21946631838</ele>
        <time>2021-09-21T14:24:54Z</time>
      </trkpt>
      <trkpt lat="46.54169" lon="0.3538">
        <ele>121.65103664435</ele>
        <time>2021-09-21T14:25:02Z</time>
      </trkpt>
      <trkpt lat="46.54167" lon="0.35378">
        <ele>121.98060843442</ele>
        <time>2021-09-21T14:25:12Z</time>
      </trkpt>
      <trkpt lat="46.54167" lon="0.35376">
        <ele>121.83949159551</ele>
        <time>2021-09-21T14:25:28Z</time>
      </trkpt>
      <trkpt lat="46.54165" lon="0.35372">
        <ele>121.67883254122</ele>
        <time>2021-09-21T14:25:37Z</time>
      </trkpt>
      <trkpt lat="46.54163" lon="0.35369">
        <ele>121.73823567946</ele>
        <time>2021-09-21T14:25:38Z</time>
      </trkpt>
      <trkpt lat="46.54162" lon="0.35367">
        <ele>122.07588846236</ele>
        <time>2021-09-21T14:25:39Z</time>
      </trkpt>
      <trkpt lat="46.54161" lon="0.35365">
        <ele>121.77072879858</ele>
        <time>2021-09-21T14:25:41Z</time>
      </trkpt>
      <trkpt lat="46.54158" lon="0.35362">
        <ele>121.31321488973</ele>
        <time>2021-09-21T14:25:43Z</time>
      </trkpt>
      <trkpt lat="46.54155" lon="0.35364">
        <ele>120.85466346703</ele>
        <time>2021-09-21T14:25:45Z</time>
      </trkpt>
      <trkpt lat="46.54153" lon="0.35365">
        <ele>120.57949128002</ele>
        <time>2021-09-21T14:25:48Z</time>
      </trkpt>
      <trkpt lat="46.54155" lon="0.35363">
        <ele>119.81518906541</ele>
        <time>2021-09-21T14:25:59Z</time>
      </trkpt>
      <trkpt lat="46.54157" lon="0.3536">
        <ele>120.24683255609</ele>
        <time>2021-09-21T14:26:03Z</time>
      </trkpt>
      <trkpt lat="46.54159" lon="0.35358">
        <ele>119.77939446364</ele>
        <time>2021-09-21T14:26:05Z</time>
      </trkpt>
      <trkpt lat="46.54162" lon="0.35357">
        <ele>120.2957292404</ele>
        <time>2021-09-21T14:26:08Z</time>
      </trkpt>
      <trkpt lat="46.54165" lon="0.35356">
        <ele>120.56725488883</ele>
        <time>2021-09-21T14:26:11Z</time>
      </trkpt>
      <trkpt lat="46.54166" lon="0.35354">
        <ele>120.97131395899</ele>
        <time>2021-09-21T14:26:14Z</time>
      </trkpt>
      <trkpt lat="46.54169" lon="0.35353">
        <ele>121.17754723877</ele>
        <time>2021-09-21T14:26:17Z</time>
      </trkpt>
      <trkpt lat="46.54172" lon="0.35351">
        <ele>121.53944165632</ele>
        <time>2021-09-21T14:26:20Z</time>
      </trkpt>
      <trkpt lat="46.54175" lon="0.3535">
        <ele>121.59025539737</ele>
        <time>2021-09-21T14:26:22Z</time>
      </trkpt>
      <trkpt lat="46.54177" lon="0.35348">
        <ele>121.94747123588</ele>
        <time>2021-09-21T14:26:24Z</time>
      </trkpt>
      <trkpt lat="46.5418" lon="0.35346">
        <ele>122.30058034603</ele>
        <time>2021-09-21T14:26:27Z</time>
      </trkpt>
      <trkpt lat="46.54182" lon="0.35343">
        <ele>122.07707436569</ele>
        <time>2021-09-21T14:26:30Z</time>
      </trkpt>
      <trkpt lat="46.54184" lon="0.35342">
        <ele>122.04237616435</ele>
        <time>2021-09-21T14:26:32Z</time>
      </trkpt>
      <trkpt lat="46.54186" lon="0.35339">
        <ele>122.1979256263</ele>
        <time>2021-09-21T14:26:34Z</time>
      </trkpt>
      <trkpt lat="46.54188" lon="0.35338">
        <ele>122.38089021575</ele>
        <time>2021-09-21T14:26:36Z</time>
      </trkpt>
      <trkpt lat="46.54189" lon="0.35335">
        <ele>122.55314572249</ele>
        <time>2021-09-21T14:26:38Z</time>
      </trkpt>
      <trkpt lat="46.54191" lon="0.35333">
        <ele>122.78961516824</ele>
        <time>2021-09-21T14:26:40Z</time>
      </trkpt>
      <trkpt lat="46.54194" lon="0.35332">
        <ele>122.53090715967</ele>
        <time>2021-09-21T14:26:42Z</time>
      </trkpt>
      <trkpt lat="46.54195" lon="0.35329">
        <ele>122.62071429845</ele>
        <time>2021-09-21T14:26:44Z</time>
      </trkpt>
      <trkpt lat="46.54197" lon="0.35327">
        <ele>122.74908521678</ele>
        <time>2021-09-21T14:26:46Z</time>
      </trkpt>
      <trkpt lat="46.54199" lon="0.35324">
        <ele>122.48708148766</ele>
        <time>2021-09-21T14:26:48Z</time>
      </trkpt>
      <trkpt lat="46.542" lon="0.35321">
        <ele>122.24227658007</ele>
        <time>2021-09-21T14:26:51Z</time>
      </trkpt>
      <trkpt lat="46.54202" lon="0.35318">
        <ele>122.24064815696</ele>
        <time>2021-09-21T14:26:53Z</time>
      </trkpt>
      <trkpt lat="46.54203" lon="0.35316">
        <ele>122.10560257267</ele>
        <time>2021-09-21T14:26:55Z</time>
      </trkpt>
      <trkpt lat="46.54205" lon="0.35313">
        <ele>122.14996714983</ele>
        <time>2021-09-21T14:26:57Z</time>
      </trkpt>
      <trkpt lat="46.54207" lon="0.3531">
        <ele>121.53802251257</ele>
        <time>2021-09-21T14:26:59Z</time>
      </trkpt>
      <trkpt lat="46.54208" lon="0.35307">
        <ele>121.66647158563</ele>
        <time>2021-09-21T14:27:01Z</time>
      </trkpt>
      <trkpt lat="46.54209" lon="0.35304">
        <ele>121.28639165312</ele>
        <time>2021-09-21T14:27:03Z</time>
      </trkpt>
      <trkpt lat="46.54211" lon="0.35302">
        <ele>121.93056204263</ele>
        <time>2021-09-21T14:27:05Z</time>
      </trkpt>
      <trkpt lat="46.54212" lon="0.353">
        <ele>121.45799747389</ele>
        <time>2021-09-21T14:27:07Z</time>
      </trkpt>
      <trkpt lat="46.54214" lon="0.35298">
        <ele>121.28111110721</ele>
        <time>2021-09-21T14:27:09Z</time>
      </trkpt>
      <trkpt lat="46.54216" lon="0.35296">
        <ele>121.16030737665</ele>
        <time>2021-09-21T14:27:11Z</time>
      </trkpt>
      <trkpt lat="46.54218" lon="0.35294">
        <ele>121.27779214736</ele>
        <time>2021-09-21T14:27:13Z</time>
      </trkpt>
      <trkpt lat="46.5422" lon="0.35291">
        <ele>121.16228955332</ele>
        <time>2021-09-21T14:27:15Z</time>
      </trkpt>
      <trkpt lat="46.54222" lon="0.35289">
        <ele>121.09439906571</ele>
        <time>2021-09-21T14:27:17Z</time>
      </trkpt>
      <trkpt lat="46.54223" lon="0.35286">
        <ele>121.4226993788</ele>
        <time>2021-09-21T14:27:19Z</time>
      </trkpt>
      <trkpt lat="46.54226" lon="0.35283">
        <ele>121.16520802956</ele>
        <time>2021-09-21T14:27:21Z</time>
      </trkpt>
      <trkpt lat="46.54227" lon="0.3528">
        <ele>120.97047722433</ele>
        <time>2021-09-21T14:27:23Z</time>
      </trkpt>
      <trkpt lat="46.54229" lon="0.35278">
        <ele>121.3062442923</ele>
        <time>2021-09-21T14:27:25Z</time>
      </trkpt>
      <trkpt lat="46.54231" lon="0.35275">
        <ele>121.1370578045</ele>
        <time>2021-09-21T14:27:27Z</time>
      </trkpt>
      <trkpt lat="46.54232" lon="0.35272">
        <ele>120.8737292178</ele>
        <time>2021-09-21T14:27:28Z</time>
      </trkpt>
      <trkpt lat="46.54233" lon="0.3527">
        <ele>121.17027686536</ele>
        <time>2021-09-21T14:27:30Z</time>
      </trkpt>
      <trkpt lat="46.54235" lon="0.35266">
        <ele>120.83482998889</ele>
        <time>2021-09-21T14:27:32Z</time>
      </trkpt>
      <trkpt lat="46.54237" lon="0.35264">
        <ele>121.16235295404</ele>
        <time>2021-09-21T14:27:34Z</time>
      </trkpt>
      <trkpt lat="46.54238" lon="0.35261">
        <ele>121.06975153461</ele>
        <time>2021-09-21T14:27:36Z</time>
      </trkpt>
      <trkpt lat="46.54239" lon="0.35259">
        <ele>121.09030593</ele>
        <time>2021-09-21T14:27:37Z</time>
      </trkpt>
      <trkpt lat="46.5424" lon="0.35257">
        <ele>121.15165095311</ele>
        <time>2021-09-21T14:27:39Z</time>
      </trkpt>
      <trkpt lat="46.54242" lon="0.35254">
        <ele>121.23841943219</ele>
        <time>2021-09-21T14:27:41Z</time>
      </trkpt>
      <trkpt lat="46.54244" lon="0.35251">
        <ele>121.09600850567</ele>
        <time>2021-09-21T14:27:43Z</time>
      </trkpt>
      <trkpt lat="46.54246" lon="0.35249">
        <ele>121.01859896071</ele>
        <time>2021-09-21T14:27:45Z</time>
      </trkpt>
      <trkpt lat="46.54248" lon="0.35246">
        <ele>121.5508329859</ele>
        <time>2021-09-21T14:27:47Z</time>
      </trkpt>
      <trkpt lat="46.5425" lon="0.35244">
        <ele>121.07131151296</ele>
        <time>2021-09-21T14:27:49Z</time>
      </trkpt>
      <trkpt lat="46.54252" lon="0.35242">
        <ele>121.0622375058</ele>
        <time>2021-09-21T14:27:51Z</time>
      </trkpt>
      <trkpt lat="46.54254" lon="0.35239">
        <ele>120.98724994902</ele>
        <time>2021-09-21T14:27:53Z</time>
      </trkpt>
      <trkpt lat="46.54256" lon="0.35236">
        <ele>120.91854192037</ele>
        <time>2021-09-21T14:27:55Z</time>
      </trkpt>
      <trkpt lat="46.54258" lon="0.35233">
        <ele>121.21129933465</ele>
        <time>2021-09-21T14:27:57Z</time>
      </trkpt>
      <trkpt lat="46.54259" lon="0.35231">
        <ele>121.14871471282</ele>
        <time>2021-09-21T14:27:58Z</time>
      </trkpt>
      <trkpt lat="46.5426" lon="0.35228">
        <ele>121.22514251713</ele>
        <time>2021-09-21T14:28:00Z</time>
      </trkpt>
      <trkpt lat="46.54262" lon="0.35225">
        <ele>121.01262718346</ele>
        <time>2021-09-21T14:28:02Z</time>
      </trkpt>
      <trkpt lat="46.54264" lon="0.35222">
        <ele>121.17034924496</ele>
        <time>2021-09-21T14:28:04Z</time>
      </trkpt>
      <trkpt lat="46.54266" lon="0.35219">
        <ele>120.79999061674</ele>
        <time>2021-09-21T14:28:06Z</time>
      </trkpt>
      <trkpt lat="46.54268" lon="0.35216">
        <ele>120.94741727225</ele>
        <time>2021-09-21T14:28:08Z</time>
      </trkpt>
      <trkpt lat="46.54269" lon="0.35213">
        <ele>120.92063474655</ele>
        <time>2021-09-21T14:28:10Z</time>
      </trkpt>
      <trkpt lat="46.54271" lon="0.35211">
        <ele>120.90332654398</ele>
        <time>2021-09-21T14:28:13Z</time>
      </trkpt>
      <trkpt lat="46.54272" lon="0.35208">
        <ele>121.30495888274</ele>
        <time>2021-09-21T14:28:15Z</time>
      </trkpt>
      <trkpt lat="46.54274" lon="0.35206">
        <ele>121.34604097158</ele>
        <time>2021-09-21T14:28:17Z</time>
      </trkpt>
      <trkpt lat="46.54275" lon="0.35204">
        <ele>120.92753439676</ele>
        <time>2021-09-21T14:28:19Z</time>
      </trkpt>
      <trkpt lat="46.54277" lon="0.352">
        <ele>120.90205013193</ele>
        <time>2021-09-21T14:28:21Z</time>
      </trkpt>
      <trkpt lat="46.54279" lon="0.35197">
        <ele>120.72589857038</ele>
        <time>2021-09-21T14:28:23Z</time>
      </trkpt>
      <trkpt lat="46.54282" lon="0.35194">
        <ele>120.98674954195</ele>
        <time>2021-09-21T14:28:25Z</time>
      </trkpt>
      <trkpt lat="46.54284" lon="0.35191">
        <ele>120.80660899263</ele>
        <time>2021-09-21T14:28:27Z</time>
      </trkpt>
      <trkpt lat="46.54285" lon="0.35189">
        <ele>120.71645612549</ele>
        <time>2021-09-21T14:28:29Z</time>
      </trkpt>
      <trkpt lat="46.54287" lon="0.35186">
        <ele>120.67229838297</ele>
        <time>2021-09-21T14:28:31Z</time>
      </trkpt>
      <trkpt lat="46.54289" lon="0.35183">
        <ele>120.673977484</ele>
        <time>2021-09-21T14:28:33Z</time>
      </trkpt>
      <trkpt lat="46.54291" lon="0.3518">
        <ele>120.46795311477</ele>
        <time>2021-09-21T14:28:35Z</time>
      </trkpt>
      <trkpt lat="46.54293" lon="0.35176">
        <ele>120.41215211619</ele>
        <time>2021-09-21T14:28:37Z</time>
      </trkpt>
      <trkpt lat="46.54294" lon="0.35173">
        <ele>120.87016127631</ele>
        <time>2021-09-21T14:28:39Z</time>
      </trkpt>
      <trkpt lat="46.54296" lon="0.3517">
        <ele>120.47604322061</ele>
        <time>2021-09-21T14:28:41Z</time>
      </trkpt>
      <trkpt lat="46.54297" lon="0.35166">
        <ele>120.57761596702</ele>
        <time>2021-09-21T14:28:43Z</time>
      </trkpt>
      <trkpt lat="46.54298" lon="0.35163">
        <ele>120.38230472431</ele>
        <time>2021-09-21T14:28:45Z</time>
      </trkpt>
      <trkpt lat="46.54299" lon="0.3516">
        <ele>120.57192018349</ele>
        <time>2021-09-21T14:28:48Z</time>
      </trkpt>
      <trkpt lat="46.543" lon="0.35157">
        <ele>120.61335959285</ele>
        <time>2021-09-21T14:28:51Z</time>
      </trkpt>
      <trkpt lat="46.54301" lon="0.35154">
        <ele>120.66155179683</ele>
        <time>2021-09-21T14:28:53Z</time>
      </trkpt>
      <trkpt lat="46.54303" lon="0.35151">
        <ele>120.69353290461</ele>
        <time>2021-09-21T14:28:55Z</time>
      </trkpt>
      <trkpt lat="46.54304" lon="0.35149">
        <ele>120.57817050815</ele>
        <time>2021-09-21T14:28:57Z</time>
      </trkpt>
      <trkpt lat="46.54307" lon="0.35146">
        <ele>120.68184015062</ele>
        <time>2021-09-21T14:29:00Z</time>
      </trkpt>
      <trkpt lat="46.54308" lon="0.35143">
        <ele>120.61337605305</ele>
        <time>2021-09-21T14:29:02Z</time>
      </trkpt>
      <trkpt lat="46.54309" lon="0.3514">
        <ele>120.4226000132</ele>
        <time>2021-09-21T14:29:04Z</time>
      </trkpt>
      <trkpt lat="46.5431" lon="0.35138">
        <ele>120.42841337342</ele>
        <time>2021-09-21T14:29:05Z</time>
      </trkpt>
      <trkpt lat="46.54312" lon="0.35136">
        <ele>120.55831847526</ele>
        <time>2021-09-21T14:29:06Z</time>
      </trkpt>
      <trkpt lat="46.54314" lon="0.35133">
        <ele>120.48390846979</ele>
        <time>2021-09-21T14:29:08Z</time>
      </trkpt>
      <trkpt lat="46.54316" lon="0.35131">
        <ele>120.50402756035</ele>
        <time>2021-09-21T14:29:10Z</time>
      </trkpt>
      <trkpt lat="46.54317" lon="0.35129">
        <ele>120.36890419479</ele>
        <time>2021-09-21T14:29:11Z</time>
      </trkpt>
      <trkpt lat="46.54318" lon="0.35126">
        <ele>120.09201176371</ele>
        <time>2021-09-21T14:29:13Z</time>
      </trkpt>
      <trkpt lat="46.54319" lon="0.35124">
        <ele>120.07011452969</ele>
        <time>2021-09-21T14:29:15Z</time>
      </trkpt>
      <trkpt lat="46.54321" lon="0.3512">
        <ele>120.31100950669</ele>
        <time>2021-09-21T14:29:17Z</time>
      </trkpt>
      <trkpt lat="46.54322" lon="0.35117">
        <ele>120.33885770291</ele>
        <time>2021-09-21T14:29:19Z</time>
      </trkpt>
      <trkpt lat="46.54324" lon="0.35115">
        <ele>120.47958300915</ele>
        <time>2021-09-21T14:29:21Z</time>
      </trkpt>
      <trkpt lat="46.54326" lon="0.35112">
        <ele>120.42688836157</ele>
        <time>2021-09-21T14:29:23Z</time>
      </trkpt>
      <trkpt lat="46.54327" lon="0.35108">
        <ele>120.37683612108</ele>
        <time>2021-09-21T14:29:25Z</time>
      </trkpt>
      <trkpt lat="46.54328" lon="0.35106">
        <ele>120.09982972406</ele>
        <time>2021-09-21T14:29:27Z</time>
      </trkpt>
      <trkpt lat="46.5433" lon="0.35104">
        <ele>120.05328552052</ele>
        <time>2021-09-21T14:29:29Z</time>
      </trkpt>
      <trkpt lat="46.54332" lon="0.35101">
        <ele>120.1820918005</ele>
        <time>2021-09-21T14:29:31Z</time>
      </trkpt>
      <trkpt lat="46.54334" lon="0.35098">
        <ele>120.16954898741</ele>
        <time>2021-09-21T14:29:33Z</time>
      </trkpt>
      <trkpt lat="46.54337" lon="0.35095">
        <ele>120.28107068222</ele>
        <time>2021-09-21T14:29:35Z</time>
      </trkpt>
      <trkpt lat="46.54338" lon="0.35093">
        <ele>120.32942803018</ele>
        <time>2021-09-21T14:29:36Z</time>
      </trkpt>
      <trkpt lat="46.5434" lon="0.35091">
        <ele>120.11544206645</ele>
        <time>2021-09-21T14:29:37Z</time>
      </trkpt>
      <trkpt lat="46.54342" lon="0.35088">
        <ele>119.90922613069</ele>
        <time>2021-09-21T14:29:39Z</time>
      </trkpt>
      <trkpt lat="46.54345" lon="0.35085">
        <ele>120.25758135971</ele>
        <time>2021-09-21T14:29:42Z</time>
      </trkpt>
      <trkpt lat="46.54345" lon="0.35081">
        <ele>120.23670117464</ele>
        <time>2021-09-21T14:29:44Z</time>
      </trkpt>
      <trkpt lat="46.54346" lon="0.35078">
        <ele>119.69675493427</ele>
        <time>2021-09-21T14:29:46Z</time>
      </trkpt>
      <trkpt lat="46.54345" lon="0.35075">
        <ele>119.89552247059</ele>
        <time>2021-09-21T14:29:48Z</time>
      </trkpt>
      <trkpt lat="46.54344" lon="0.35072">
        <ele>119.95114509016</ele>
        <time>2021-09-21T14:29:51Z</time>
      </trkpt>
      <trkpt lat="46.54343" lon="0.35069">
        <ele>119.97446153872</ele>
        <time>2021-09-21T14:29:53Z</time>
      </trkpt>
      <trkpt lat="46.54343" lon="0.35065">
        <ele>119.73195003159</ele>
        <time>2021-09-21T14:29:55Z</time>
      </trkpt>
      <trkpt lat="46.54341" lon="0.35061">
        <ele>119.97853732668</ele>
        <time>2021-09-21T14:29:57Z</time>
      </trkpt>
      <trkpt lat="46.5434" lon="0.35057">
        <ele>119.80651001725</ele>
        <time>2021-09-21T14:30:00Z</time>
      </trkpt>
      <trkpt lat="46.54338" lon="0.35054">
        <ele>119.78268794902</ele>
        <time>2021-09-21T14:30:02Z</time>
      </trkpt>
      <trkpt lat="46.54337" lon="0.35053">
        <ele>119.95924065448</ele>
        <time>2021-09-21T14:30:03Z</time>
      </trkpt>
      <trkpt lat="46.54334" lon="0.35054">
        <ele>119.72542570252</ele>
        <time>2021-09-21T14:30:07Z</time>
      </trkpt>
      <trkpt lat="46.54332" lon="0.35055">
        <ele>119.78475765977</ele>
        <time>2021-09-21T14:30:09Z</time>
      </trkpt>
      <trkpt lat="46.5433" lon="0.35056">
        <ele>119.63367544021</ele>
        <time>2021-09-21T14:30:12Z</time>
      </trkpt>
      <trkpt lat="46.54328" lon="0.35056">
        <ele>119.77167968638</ele>
        <time>2021-09-21T14:30:14Z</time>
      </trkpt>
      <trkpt lat="46.54325" lon="0.35055">
        <ele>119.81000307295</ele>
        <time>2021-09-21T14:30:17Z</time>
      </trkpt>
      <trkpt lat="46.54323" lon="0.35054">
        <ele>120.12821609247</ele>
        <time>2021-09-21T14:30:19Z</time>
      </trkpt>
      <trkpt lat="46.5432" lon="0.35055">
        <ele>119.91635257099</ele>
        <time>2021-09-21T14:30:21Z</time>
      </trkpt>
      <trkpt lat="46.54317" lon="0.35055">
        <ele>119.98582360707</ele>
        <time>2021-09-21T14:30:23Z</time>
      </trkpt>
      <trkpt lat="46.54315" lon="0.35054">
        <ele>119.83109821286</ele>
        <time>2021-09-21T14:30:26Z</time>
      </trkpt>
      <trkpt lat="46.54312" lon="0.35053">
        <ele>119.55954666156</ele>
        <time>2021-09-21T14:30:29Z</time>
      </trkpt>
      <trkpt lat="46.54309" lon="0.35052">
        <ele>120.00372991525</ele>
        <time>2021-09-21T14:30:31Z</time>
      </trkpt>
      <trkpt lat="46.54308" lon="0.35053">
        <ele>119.71173446905</ele>
        <time>2021-09-21T14:30:33Z</time>
      </trkpt>
      <trkpt lat="46.54305" lon="0.35053">
        <ele>119.70323381387</ele>
        <time>2021-09-21T14:30:34Z</time>
      </trkpt>
      <trkpt lat="46.54303" lon="0.35053">
        <ele>119.97625824343</ele>
        <time>2021-09-21T14:30:37Z</time>
      </trkpt>
      <trkpt lat="46.543" lon="0.35054">
        <ele>119.71823470388</ele>
        <time>2021-09-21T14:30:40Z</time>
      </trkpt>
      <trkpt lat="46.54297" lon="0.35053">
        <ele>119.48269107006</ele>
        <time>2021-09-21T14:30:43Z</time>
      </trkpt>
      <trkpt lat="46.54295" lon="0.35052">
        <ele>119.59699734859</ele>
        <time>2021-09-21T14:30:45Z</time>
      </trkpt>
      <trkpt lat="46.54293" lon="0.3505">
        <ele>119.19201931544</ele>
        <time>2021-09-21T14:30:47Z</time>
      </trkpt>
      <trkpt lat="46.5429" lon="0.35048">
        <ele>119.28106955159</ele>
        <time>2021-09-21T14:30:50Z</time>
      </trkpt>
      <trkpt lat="46.54288" lon="0.35048">
        <ele>118.95191414841</ele>
        <time>2021-09-21T14:30:52Z</time>
      </trkpt>
      <trkpt lat="46.54286" lon="0.35046">
        <ele>119.09230975155</ele>
        <time>2021-09-21T14:30:54Z</time>
      </trkpt>
      <trkpt lat="46.54284" lon="0.35046">
        <ele>119.34370140266</ele>
        <time>2021-09-21T14:30:57Z</time>
      </trkpt>
      <trkpt lat="46.54282" lon="0.35045">
        <ele>119.36976839975</ele>
        <time>2021-09-21T14:30:58Z</time>
      </trkpt>
      <trkpt lat="46.5428" lon="0.35043">
        <ele>119.25999601744</ele>
        <time>2021-09-21T14:31:00Z</time>
      </trkpt>
      <trkpt lat="46.54277" lon="0.35042">
        <ele>119.12695940398</ele>
        <time>2021-09-21T14:31:04Z</time>
      </trkpt>
      <trkpt lat="46.54275" lon="0.35041">
        <ele>118.9613070786</ele>
        <time>2021-09-21T14:31:06Z</time>
      </trkpt>
      <trkpt lat="46.54273" lon="0.35039">
        <ele>118.6549071027</ele>
        <time>2021-09-21T14:31:10Z</time>
      </trkpt>
      <trkpt lat="46.54271" lon="0.35037">
        <ele>118.94558477402</ele>
        <time>2021-09-21T14:31:12Z</time>
      </trkpt>
      <trkpt lat="46.54269" lon="0.35036">
        <ele>118.17586717661</ele>
        <time>2021-09-21T14:31:14Z</time>
      </trkpt>
      <trkpt lat="46.54267" lon="0.35034">
        <ele>118.48156459536</ele>
        <time>2021-09-21T14:31:16Z</time>
      </trkpt>
      <trkpt lat="46.54265" lon="0.35033">
        <ele>118.54833020922</ele>
        <time>2021-09-21T14:31:18Z</time>
      </trkpt>
      <trkpt lat="46.54263" lon="0.35031">
        <ele>118.47552379873</ele>
        <time>2021-09-21T14:31:21Z</time>
      </trkpt>
      <trkpt lat="46.54261" lon="0.35029">
        <ele>118.55416520964</ele>
        <time>2021-09-21T14:31:22Z</time>
      </trkpt>
      <trkpt lat="46.54258" lon="0.35027">
        <ele>118.48921057023</ele>
        <time>2021-09-21T14:31:26Z</time>
      </trkpt>
      <trkpt lat="46.54256" lon="0.35027">
        <ele>118.68296264485</ele>
        <time>2021-09-21T14:31:29Z</time>
      </trkpt>
      <trkpt lat="46.54254" lon="0.35026">
        <ele>118.67683216557</ele>
        <time>2021-09-21T14:31:31Z</time>
      </trkpt>
      <trkpt lat="46.54252" lon="0.35026">
        <ele>118.7367539797</ele>
        <time>2021-09-21T14:31:33Z</time>
      </trkpt>
      <trkpt lat="46.5425" lon="0.35024">
        <ele>119.06631113216</ele>
        <time>2021-09-21T14:31:35Z</time>
      </trkpt>
      <trkpt lat="46.54247" lon="0.35022">
        <ele>118.66249060351</ele>
        <time>2021-09-21T14:31:37Z</time>
      </trkpt>
      <trkpt lat="46.54246" lon="0.35021">
        <ele>118.43667628709</ele>
        <time>2021-09-21T14:31:39Z</time>
      </trkpt>
      <trkpt lat="46.54243" lon="0.35019">
        <ele>118.24957850762</ele>
        <time>2021-09-21T14:31:41Z</time>
      </trkpt>
      <trkpt lat="46.54241" lon="0.35017">
        <ele>118.01490874123</ele>
        <time>2021-09-21T14:31:43Z</time>
      </trkpt>
      <trkpt lat="46.5424" lon="0.35014">
        <ele>118.16169592086</ele>
        <time>2021-09-21T14:31:45Z</time>
      </trkpt>
      <trkpt lat="46.54239" lon="0.35011">
        <ele>118.17407295667</ele>
        <time>2021-09-21T14:31:47Z</time>
      </trkpt>
      <trkpt lat="46.5424" lon="0.35008">
        <ele>118.16863154899</ele>
        <time>2021-09-21T14:31:50Z</time>
      </trkpt>
      <trkpt lat="46.5424" lon="0.35004">
        <ele>118.31081300322</ele>
        <time>2021-09-21T14:31:52Z</time>
      </trkpt>
      <trkpt lat="46.5424" lon="0.35001">
        <ele>118.7512753401</ele>
        <time>2021-09-21T14:31:54Z</time>
      </trkpt>
      <trkpt lat="46.54242" lon="0.34999">
        <ele>118.4206223134</ele>
        <time>2021-09-21T14:31:56Z</time>
      </trkpt>
      <trkpt lat="46.54243" lon="0.34997">
        <ele>118.59168374818</ele>
        <time>2021-09-21T14:31:58Z</time>
      </trkpt>
      <trkpt lat="46.54243" lon="0.34993">
        <ele>118.64216639381</ele>
        <time>2021-09-21T14:32:00Z</time>
      </trkpt>
      <trkpt lat="46.54243" lon="0.3499">
        <ele>118.65359637886</ele>
        <time>2021-09-21T14:32:03Z</time>
      </trkpt>
      <trkpt lat="46.54244" lon="0.34986">
        <ele>118.62594423257</ele>
        <time>2021-09-21T14:32:05Z</time>
      </trkpt>
      <trkpt lat="46.54245" lon="0.34982">
        <ele>118.57621119916</ele>
        <time>2021-09-21T14:32:08Z</time>
      </trkpt>
      <trkpt lat="46.54245" lon="0.3498">
        <ele>119.22885184083</ele>
        <time>2021-09-21T14:32:11Z</time>
      </trkpt>
      <trkpt lat="46.54248" lon="0.3498">
        <ele>119.07520712446</ele>
        <time>2021-09-21T14:32:14Z</time>
      </trkpt>
      <trkpt lat="46.5425" lon="0.34982">
        <ele>119.01518777013</ele>
        <time>2021-09-21T14:32:16Z</time>
      </trkpt>
      <trkpt lat="46.54252" lon="0.34983">
        <ele>118.96926615946</ele>
        <time>2021-09-21T14:32:19Z</time>
      </trkpt>
      <trkpt lat="46.54254" lon="0.34984">
        <ele>118.61856904067</ele>
        <time>2021-09-21T14:32:21Z</time>
      </trkpt>
      <trkpt lat="46.54255" lon="0.34985">
        <ele>118.68441949505</ele>
        <time>2021-09-21T14:32:23Z</time>
      </trkpt>
      <trkpt lat="46.54257" lon="0.34987">
        <ele>118.90437635407</ele>
        <time>2021-09-21T14:32:25Z</time>
      </trkpt>
      <trkpt lat="46.54259" lon="0.34989">
        <ele>119.10212482605</ele>
        <time>2021-09-21T14:32:27Z</time>
      </trkpt>
      <trkpt lat="46.54261" lon="0.34989">
        <ele>119.19714703131</ele>
        <time>2021-09-21T14:32:28Z</time>
      </trkpt>
      <trkpt lat="46.54263" lon="0.34989">
        <ele>119.10378700681</ele>
        <time>2021-09-21T14:32:30Z</time>
      </trkpt>
      <trkpt lat="46.54265" lon="0.34989">
        <ele>118.99599289894</ele>
        <time>2021-09-21T14:32:32Z</time>
      </trkpt>
      <trkpt lat="46.54267" lon="0.34988">
        <ele>118.98308399133</ele>
        <time>2021-09-21T14:32:35Z</time>
      </trkpt>
      <trkpt lat="46.54269" lon="0.34985">
        <ele>118.89784544148</ele>
        <time>2021-09-21T14:32:37Z</time>
      </trkpt>
      <trkpt lat="46.5427" lon="0.34982">
        <ele>118.99579888489</ele>
        <time>2021-09-21T14:32:39Z</time>
      </trkpt>
      <trkpt lat="46.54271" lon="0.34979">
        <ele>118.83553052787</ele>
        <time>2021-09-21T14:32:41Z</time>
      </trkpt>
      <trkpt lat="46.54273" lon="0.34978">
        <ele>118.96395090129</ele>
        <time>2021-09-21T14:32:43Z</time>
      </trkpt>
      <trkpt lat="46.54276" lon="0.34978">
        <ele>118.92281324416</ele>
        <time>2021-09-21T14:32:45Z</time>
      </trkpt>
      <trkpt lat="46.54278" lon="0.34977">
        <ele>118.76382870786</ele>
        <time>2021-09-21T14:32:47Z</time>
      </trkpt>
      <trkpt lat="46.5428" lon="0.34973">
        <ele>118.76572418399</ele>
        <time>2021-09-21T14:32:49Z</time>
      </trkpt>
      <trkpt lat="46.54282" lon="0.34972">
        <ele>119.15525418241</ele>
        <time>2021-09-21T14:32:51Z</time>
      </trkpt>
      <trkpt lat="46.54284" lon="0.34972">
        <ele>118.78609261755</ele>
        <time>2021-09-21T14:32:52Z</time>
      </trkpt>
      <trkpt lat="46.54286" lon="0.3497">
        <ele>118.76924651396</ele>
        <time>2021-09-21T14:32:54Z</time>
      </trkpt>
      <trkpt lat="46.54288" lon="0.34969">
        <ele>119.00884320401</ele>
        <time>2021-09-21T14:32:56Z</time>
      </trkpt>
      <trkpt lat="46.5429" lon="0.34969">
        <ele>119.17522064224</ele>
        <time>2021-09-21T14:32:58Z</time>
      </trkpt>
      <trkpt lat="46.54292" lon="0.3497">
        <ele>119.14173821546</ele>
        <time>2021-09-21T14:32:59Z</time>
      </trkpt>
      <trkpt lat="46.54294" lon="0.34973">
        <ele>119.19298879802</ele>
        <time>2021-09-21T14:33:01Z</time>
      </trkpt>
      <trkpt lat="46.54297" lon="0.34973">
        <ele>119.12279898021</ele>
        <time>2021-09-21T14:33:03Z</time>
      </trkpt>
      <trkpt lat="46.543" lon="0.34973">
        <ele>119.02889832295</ele>
        <time>2021-09-21T14:33:05Z</time>
      </trkpt>
      <trkpt lat="46.54302" lon="0.34973">
        <ele>119.00403468776</ele>
        <time>2021-09-21T14:33:07Z</time>
      </trkpt>
      <trkpt lat="46.54304" lon="0.34971">
        <ele>119.25413978472</ele>
        <time>2021-09-21T14:33:10Z</time>
      </trkpt>
      <trkpt lat="46.54304" lon="0.34967">
        <ele>119.10799865983</ele>
        <time>2021-09-21T14:33:13Z</time>
      </trkpt>
      <trkpt lat="46.54303" lon="0.34964">
        <ele>118.86983505543</ele>
        <time>2021-09-21T14:33:15Z</time>
      </trkpt>
      <trkpt lat="46.54304" lon="0.3496">
        <ele>118.53547024261</ele>
        <time>2021-09-21T14:33:17Z</time>
      </trkpt>
      <trkpt lat="46.54303" lon="0.34957">
        <ele>118.49079755973</ele>
        <time>2021-09-21T14:33:19Z</time>
      </trkpt>
      <trkpt lat="46.54302" lon="0.34954">
        <ele>119.15883067716</ele>
        <time>2021-09-21T14:33:22Z</time>
      </trkpt>
      <trkpt lat="46.54301" lon="0.34951">
        <ele>118.62527820095</ele>
        <time>2021-09-21T14:33:24Z</time>
      </trkpt>
      <trkpt lat="46.54302" lon="0.34948">
        <ele>118.41192039847</ele>
        <time>2021-09-21T14:33:25Z</time>
      </trkpt>
      <trkpt lat="46.54302" lon="0.34945">
        <ele>118.70185200963</ele>
        <time>2021-09-21T14:33:27Z</time>
      </trkpt>
      <trkpt lat="46.54301" lon="0.3494">
        <ele>118.58548307791</ele>
        <time>2021-09-21T14:33:30Z</time>
      </trkpt>
      <trkpt lat="46.543" lon="0.34938">
        <ele>118.91113708541</ele>
        <time>2021-09-21T14:33:33Z</time>
      </trkpt>
      <trkpt lat="46.54298" lon="0.34936">
        <ele>119.23495889641</ele>
        <time>2021-09-21T14:33:35Z</time>
      </trkpt>
      <trkpt lat="46.54297" lon="0.34934">
        <ele>118.79766094219</ele>
        <time>2021-09-21T14:33:38Z</time>
      </trkpt>
      <trkpt lat="46.54295" lon="0.34932">
        <ele>118.89971354511</ele>
        <time>2021-09-21T14:33:40Z</time>
      </trkpt>
      <trkpt lat="46.54294" lon="0.3493">
        <ele>118.84053612966</ele>
        <time>2021-09-21T14:33:42Z</time>
      </trkpt>
      <trkpt lat="46.54292" lon="0.34928">
        <ele>118.6066347491</ele>
        <time>2021-09-21T14:33:44Z</time>
      </trkpt>
      <trkpt lat="46.54291" lon="0.34925">
        <ele>118.94551286008</ele>
        <time>2021-09-21T14:33:46Z</time>
      </trkpt>
      <trkpt lat="46.54289" lon="0.34922">
        <ele>118.6000498645</ele>
        <time>2021-09-21T14:33:48Z</time>
      </trkpt>
      <trkpt lat="46.54288" lon="0.34919">
        <ele>118.83305748459</ele>
        <time>2021-09-21T14:33:50Z</time>
      </trkpt>
      <trkpt lat="46.54286" lon="0.34917">
        <ele>118.79828718025</ele>
        <time>2021-09-21T14:33:52Z</time>
      </trkpt>
      <trkpt lat="46.54285" lon="0.34914">
        <ele>118.84558891971</ele>
        <time>2021-09-21T14:33:54Z</time>
      </trkpt>
      <trkpt lat="46.54284" lon="0.34911">
        <ele>118.80853887554</ele>
        <time>2021-09-21T14:33:57Z</time>
      </trkpt>
      <trkpt lat="46.54282" lon="0.34908">
        <ele>118.79747709446</ele>
        <time>2021-09-21T14:33:59Z</time>
      </trkpt>
      <trkpt lat="46.54281" lon="0.34904">
        <ele>118.8612913806</ele>
        <time>2021-09-21T14:34:01Z</time>
      </trkpt>
      <trkpt lat="46.5428" lon="0.34901">
        <ele>118.81615920365</ele>
        <time>2021-09-21T14:34:04Z</time>
      </trkpt>
      <trkpt lat="46.54279" lon="0.34899">
        <ele>119.00886883959</ele>
        <time>2021-09-21T14:34:06Z</time>
      </trkpt>
      <trkpt lat="46.54278" lon="0.34895">
        <ele>118.73084718641</ele>
        <time>2021-09-21T14:34:08Z</time>
      </trkpt>
      <trkpt lat="46.54276" lon="0.34891">
        <ele>118.94701153971</ele>
        <time>2021-09-21T14:34:10Z</time>
      </trkpt>
      <trkpt lat="46.54274" lon="0.34889">
        <ele>118.906703596</ele>
        <time>2021-09-21T14:34:12Z</time>
      </trkpt>
      <trkpt lat="46.54272" lon="0.34887">
        <ele>118.86446186993</ele>
        <time>2021-09-21T14:34:14Z</time>
      </trkpt>
      <trkpt lat="46.54269" lon="0.34886">
        <ele>118.98395252693</ele>
        <time>2021-09-21T14:34:16Z</time>
      </trkpt>
      <trkpt lat="46.54266" lon="0.34885">
        <ele>118.74022933654</ele>
        <time>2021-09-21T14:34:18Z</time>
      </trkpt>
      <trkpt lat="46.54264" lon="0.34884">
        <ele>118.63819215167</ele>
        <time>2021-09-21T14:34:20Z</time>
      </trkpt>
      <trkpt lat="46.54262" lon="0.34883">
        <ele>118.98092754278</ele>
        <time>2021-09-21T14:34:21Z</time>
      </trkpt>
      <trkpt lat="46.5426" lon="0.34882">
        <ele>118.76477002166</ele>
        <time>2021-09-21T14:34:23Z</time>
      </trkpt>
      <trkpt lat="46.54257" lon="0.3488">
        <ele>118.72026258614</ele>
        <time>2021-09-21T14:34:25Z</time>
      </trkpt>
      <trkpt lat="46.54256" lon="0.34878">
        <ele>119.03080604505</ele>
        <time>2021-09-21T14:34:28Z</time>
      </trkpt>
      <trkpt lat="46.54254" lon="0.34875">
        <ele>118.78277608007</ele>
        <time>2021-09-21T14:34:30Z</time>
      </trkpt>
      <trkpt lat="46.54253" lon="0.34871">
        <ele>118.7514710417</ele>
        <time>2021-09-21T14:34:32Z</time>
      </trkpt>
      <trkpt lat="46.54251" lon="0.3487">
        <ele>118.69321003184</ele>
        <time>2021-09-21T14:34:34Z</time>
      </trkpt>
      <trkpt lat="46.54248" lon="0.34868">
        <ele>118.63597345911</ele>
        <time>2021-09-21T14:34:36Z</time>
      </trkpt>
      <trkpt lat="46.54246" lon="0.34865">
        <ele>118.96758443583</ele>
        <time>2021-09-21T14:34:38Z</time>
      </trkpt>
      <trkpt lat="46.54244" lon="0.34861">
        <ele>118.44485417102</ele>
        <time>2021-09-21T14:34:42Z</time>
      </trkpt>
      <trkpt lat="46.54243" lon="0.34858">
        <ele>118.62910363171</ele>
        <time>2021-09-21T14:34:45Z</time>
      </trkpt>
      <trkpt lat="46.54242" lon="0.34855">
        <ele>118.42560586985</ele>
        <time>2021-09-21T14:34:47Z</time>
      </trkpt>
      <trkpt lat="46.54242" lon="0.34852">
        <ele>118.53520641476</ele>
        <time>2021-09-21T14:34:49Z</time>
      </trkpt>
      <trkpt lat="46.54243" lon="0.34848">
        <ele>118.66840949655</ele>
        <time>2021-09-21T14:34:51Z</time>
      </trkpt>
      <trkpt lat="46.54244" lon="0.34845">
        <ele>118.6892181877</ele>
        <time>2021-09-21T14:34:53Z</time>
      </trkpt>
      <trkpt lat="46.54243" lon="0.34842">
        <ele>118.88936439529</ele>
        <time>2021-09-21T14:34:55Z</time>
      </trkpt>
      <trkpt lat="46.54244" lon="0.34839">
        <ele>118.28853126243</ele>
        <time>2021-09-21T14:34:57Z</time>
      </trkpt>
      <trkpt lat="46.54244" lon="0.34834">
        <ele>118.29934289679</ele>
        <time>2021-09-21T14:35:00Z</time>
      </trkpt>
      <trkpt lat="46.54245" lon="0.34832">
        <ele>118.55871045031</ele>
        <time>2021-09-21T14:35:02Z</time>
      </trkpt>
      <trkpt lat="46.54246" lon="0.34828">
        <ele>118.67669562344</ele>
        <time>2021-09-21T14:35:04Z</time>
      </trkpt>
      <trkpt lat="46.54247" lon="0.34826">
        <ele>118.81714544818</ele>
        <time>2021-09-21T14:35:06Z</time>
      </trkpt>
      <trkpt lat="46.54248" lon="0.34824">
        <ele>118.69882790279</ele>
        <time>2021-09-21T14:35:09Z</time>
      </trkpt>
      <trkpt lat="46.54249" lon="0.3482">
        <ele>118.73887146916</ele>
        <time>2021-09-21T14:35:12Z</time>
      </trkpt>
      <trkpt lat="46.54249" lon="0.34817">
        <ele>118.84299360588</ele>
        <time>2021-09-21T14:35:15Z</time>
      </trkpt>
      <trkpt lat="46.54249" lon="0.34814">
        <ele>118.93192174193</ele>
        <time>2021-09-21T14:35:17Z</time>
      </trkpt>
      <trkpt lat="46.54249" lon="0.34812">
        <ele>118.60390676465</ele>
        <time>2021-09-21T14:35:19Z</time>
      </trkpt>
      <trkpt lat="46.54251" lon="0.34809">
        <ele>118.79606153537</ele>
        <time>2021-09-21T14:35:21Z</time>
      </trkpt>
      <trkpt lat="46.54252" lon="0.34807">
        <ele>118.5844489336</ele>
        <time>2021-09-21T14:35:23Z</time>
      </trkpt>
      <trkpt lat="46.54254" lon="0.34804">
        <ele>118.53216324374</ele>
        <time>2021-09-21T14:35:27Z</time>
      </trkpt>
      <trkpt lat="46.54255" lon="0.34801">
        <ele>118.4501751978</ele>
        <time>2021-09-21T14:35:29Z</time>
      </trkpt>
      <trkpt lat="46.54254" lon="0.34797">
        <ele>118.66774062812</ele>
        <time>2021-09-21T14:35:31Z</time>
      </trkpt>
      <trkpt lat="46.54254" lon="0.34793">
        <ele>118.77685509901</ele>
        <time>2021-09-21T14:35:32Z</time>
      </trkpt>
      <trkpt lat="46.54256" lon="0.3479">
        <ele>118.65402398631</ele>
        <time>2021-09-21T14:35:34Z</time>
      </trkpt>
      <trkpt lat="46.54257" lon="0.34788">
        <ele>118.73850347567</ele>
        <time>2021-09-21T14:35:35Z</time>
      </trkpt>
      <trkpt lat="46.54258" lon="0.34785">
        <ele>118.41367832385</ele>
        <time>2021-09-21T14:35:37Z</time>
      </trkpt>
      <trkpt lat="46.54258" lon="0.34781">
        <ele>118.75223021582</ele>
        <time>2021-09-21T14:35:39Z</time>
      </trkpt>
      <trkpt lat="46.54259" lon="0.34777">
        <ele>118.82769484166</ele>
        <time>2021-09-21T14:35:42Z</time>
      </trkpt>
      <trkpt lat="46.54259" lon="0.34774">
        <ele>118.83444926608</ele>
        <time>2021-09-21T14:35:44Z</time>
      </trkpt>
      <trkpt lat="46.5426" lon="0.34772">
        <ele>118.97851066384</ele>
        <time>2021-09-21T14:35:46Z</time>
      </trkpt>
      <trkpt lat="46.5426" lon="0.34769">
        <ele>118.98409387469</ele>
        <time>2021-09-21T14:35:48Z</time>
      </trkpt>
      <trkpt lat="46.5426" lon="0.34766">
        <ele>118.7170992922</ele>
        <time>2021-09-21T14:35:51Z</time>
      </trkpt>
      <trkpt lat="46.54258" lon="0.34762">
        <ele>118.83196875732</ele>
        <time>2021-09-21T14:35:53Z</time>
      </trkpt>
      <trkpt lat="46.54256" lon="0.3476">
        <ele>118.85101400875</ele>
        <time>2021-09-21T14:35:58Z</time>
      </trkpt>
      <trkpt lat="46.54255" lon="0.34757">
        <ele>118.86355873104</ele>
        <time>2021-09-21T14:36:00Z</time>
      </trkpt>
      <trkpt lat="46.54253" lon="0.34755">
        <ele>118.63607524429</ele>
        <time>2021-09-21T14:36:02Z</time>
      </trkpt>
      <trkpt lat="46.54252" lon="0.34752">
        <ele>118.76740684733</ele>
        <time>2021-09-21T14:36:03Z</time>
      </trkpt>
      <trkpt lat="46.54252" lon="0.34748">
        <ele>118.68219665159</ele>
        <time>2021-09-21T14:36:05Z</time>
      </trkpt>
      <trkpt lat="46.54252" lon="0.34744">
        <ele>118.8882845575</ele>
        <time>2021-09-21T14:36:08Z</time>
      </trkpt>
      <trkpt lat="46.54253" lon="0.3474">
        <ele>118.78354342189</ele>
        <time>2021-09-21T14:36:11Z</time>
      </trkpt>
      <trkpt lat="46.54252" lon="0.34737">
        <ele>118.7392059043</ele>
        <time>2021-09-21T14:36:13Z</time>
      </trkpt>
      <trkpt lat="46.54253" lon="0.34734">
        <ele>118.80104926322</ele>
        <time>2021-09-21T14:36:15Z</time>
      </trkpt>
      <trkpt lat="46.54254" lon="0.34731">
        <ele>119.21726023313</ele>
        <time>2021-09-21T14:36:17Z</time>
      </trkpt>
      <trkpt lat="46.54253" lon="0.34727">
        <ele>119.05472673476</ele>
        <time>2021-09-21T14:36:19Z</time>
      </trkpt>
      <trkpt lat="46.54254" lon="0.34724">
        <ele>119.48830935173</ele>
        <time>2021-09-21T14:36:21Z</time>
      </trkpt>
      <trkpt lat="46.54255" lon="0.3472">
        <ele>118.81465642434</ele>
        <time>2021-09-21T14:36:23Z</time>
      </trkpt>
      <trkpt lat="46.54255" lon="0.34716">
        <ele>118.77384827193</ele>
        <time>2021-09-21T14:36:25Z</time>
      </trkpt>
      <trkpt lat="46.54255" lon="0.34712">
        <ele>119.0562743349</ele>
        <time>2021-09-21T14:36:27Z</time>
      </trkpt>
      <trkpt lat="46.54254" lon="0.34709">
        <ele>118.8622016944</ele>
        <time>2021-09-21T14:36:28Z</time>
      </trkpt>
      <trkpt lat="46.54253" lon="0.34705">
        <ele>119.083322444</ele>
        <time>2021-09-21T14:36:30Z</time>
      </trkpt>
      <trkpt lat="46.54253" lon="0.34702">
        <ele>118.4627065612</ele>
        <time>2021-09-21T14:36:32Z</time>
      </trkpt>
      <trkpt lat="46.54254" lon="0.347">
        <ele>118.78009933699</ele>
        <time>2021-09-21T14:36:34Z</time>
      </trkpt>
      <trkpt lat="46.54256" lon="0.34698">
        <ele>119.02941932157</ele>
        <time>2021-09-21T14:36:37Z</time>
      </trkpt>
      <trkpt lat="46.54258" lon="0.34698">
        <ele>119.13060891908</ele>
        <time>2021-09-21T14:36:40Z</time>
      </trkpt>
      <trkpt lat="46.5426" lon="0.34697">
        <ele>119.09082603361</ele>
        <time>2021-09-21T14:36:43Z</time>
      </trkpt>
      <trkpt lat="46.54263" lon="0.34698">
        <ele>119.033818339</ele>
        <time>2021-09-21T14:36:47Z</time>
      </trkpt>
      <trkpt lat="46.54265" lon="0.34699">
        <ele>119.08789586276</ele>
        <time>2021-09-21T14:36:50Z</time>
      </trkpt>
      <trkpt lat="46.54267" lon="0.34699">
        <ele>118.83374593686</ele>
        <time>2021-09-21T14:36:53Z</time>
      </trkpt>
      <trkpt lat="46.5427" lon="0.34699">
        <ele>118.85123037081</ele>
        <time>2021-09-21T14:36:56Z</time>
      </trkpt>
      <trkpt lat="46.54273" lon="0.34698">
        <ele>118.75562295225</ele>
        <time>2021-09-21T14:36:59Z</time>
      </trkpt>
      <trkpt lat="46.54275" lon="0.34697">
        <ele>118.99958454538</ele>
        <time>2021-09-21T14:37:01Z</time>
      </trkpt>
      <trkpt lat="46.54277" lon="0.34695">
        <ele>118.98247404024</ele>
        <time>2021-09-21T14:37:02Z</time>
      </trkpt>
      <trkpt lat="46.54278" lon="0.34691">
        <ele>118.88145435229</ele>
        <time>2021-09-21T14:37:04Z</time>
      </trkpt>
      <trkpt lat="46.5428" lon="0.34688">
        <ele>118.67201320454</ele>
        <time>2021-09-21T14:37:06Z</time>
      </trkpt>
      <trkpt lat="46.54283" lon="0.34686">
        <ele>118.80368144345</ele>
        <time>2021-09-21T14:37:08Z</time>
      </trkpt>
      <trkpt lat="46.54285" lon="0.34684">
        <ele>118.91470858455</ele>
        <time>2021-09-21T14:37:10Z</time>
      </trkpt>
      <trkpt lat="46.54287" lon="0.34683">
        <ele>118.90793423634</ele>
        <time>2021-09-21T14:37:12Z</time>
      </trkpt>
      <trkpt lat="46.54289" lon="0.34682">
        <ele>118.76074397471</ele>
        <time>2021-09-21T14:37:14Z</time>
      </trkpt>
      <trkpt lat="46.5429" lon="0.3468">
        <ele>118.71119261254</ele>
        <time>2021-09-21T14:37:15Z</time>
      </trkpt>
      <trkpt lat="46.54291" lon="0.34676">
        <ele>118.81182856485</ele>
        <time>2021-09-21T14:37:17Z</time>
      </trkpt>
      <trkpt lat="46.54292" lon="0.34673">
        <ele>118.99562761001</ele>
        <time>2021-09-21T14:37:19Z</time>
      </trkpt>
      <trkpt lat="46.54292" lon="0.3467">
        <ele>118.58245195728</ele>
        <time>2021-09-21T14:37:21Z</time>
      </trkpt>
      <trkpt lat="46.54295" lon="0.34667">
        <ele>118.9866738664</ele>
        <time>2021-09-21T14:37:23Z</time>
      </trkpt>
      <trkpt lat="46.54296" lon="0.34665">
        <ele>119.12384683266</ele>
        <time>2021-09-21T14:37:25Z</time>
      </trkpt>
      <trkpt lat="46.54298" lon="0.34664">
        <ele>118.87215930969</ele>
        <time>2021-09-21T14:37:28Z</time>
      </trkpt>
      <trkpt lat="46.54299" lon="0.34661">
        <ele>119.17411052063</ele>
        <time>2021-09-21T14:37:30Z</time>
      </trkpt>
      <trkpt lat="46.54301" lon="0.34659">
        <ele>119.02868111525</ele>
        <time>2021-09-21T14:37:33Z</time>
      </trkpt>
      <trkpt lat="46.54302" lon="0.34656">
        <ele>118.8530510515</ele>
        <time>2021-09-21T14:37:35Z</time>
      </trkpt>
      <trkpt lat="46.54303" lon="0.34652">
        <ele>118.83526155166</ele>
        <time>2021-09-21T14:37:37Z</time>
      </trkpt>
      <trkpt lat="46.54305" lon="0.34651">
        <ele>118.4505166756</ele>
        <time>2021-09-21T14:37:40Z</time>
      </trkpt>
      <trkpt lat="46.54307" lon="0.34648">
        <ele>118.4695374351</ele>
        <time>2021-09-21T14:37:42Z</time>
      </trkpt>
      <trkpt lat="46.54309" lon="0.34647">
        <ele>118.93919357471</ele>
        <time>2021-09-21T14:37:45Z</time>
      </trkpt>
      <trkpt lat="46.54312" lon="0.34645">
        <ele>119.04018112645</ele>
        <time>2021-09-21T14:37:48Z</time>
      </trkpt>
      <trkpt lat="46.54314" lon="0.34644">
        <ele>118.55816934817</ele>
        <time>2021-09-21T14:37:51Z</time>
      </trkpt>
      <trkpt lat="46.54316" lon="0.34643">
        <ele>118.46723908838</ele>
        <time>2021-09-21T14:37:53Z</time>
      </trkpt>
      <trkpt lat="46.54318" lon="0.34642">
        <ele>118.44637446199</ele>
        <time>2021-09-21T14:37:55Z</time>
      </trkpt>
      <trkpt lat="46.5432" lon="0.3464">
        <ele>118.43432473671</ele>
        <time>2021-09-21T14:37:57Z</time>
      </trkpt>
      <trkpt lat="46.54322" lon="0.34638">
        <ele>118.45236140676</ele>
        <time>2021-09-21T14:37:59Z</time>
      </trkpt>
      <trkpt lat="46.54324" lon="0.34636">
        <ele>118.22460392863</ele>
        <time>2021-09-21T14:38:01Z</time>
      </trkpt>
      <trkpt lat="46.54327" lon="0.34633">
        <ele>118.11267786752</ele>
        <time>2021-09-21T14:38:04Z</time>
      </trkpt>
      <trkpt lat="46.54328" lon="0.34632">
        <ele>118.12462549191</ele>
        <time>2021-09-21T14:38:07Z</time>
      </trkpt>
      <trkpt lat="46.54331" lon="0.3463">
        <ele>118.00971684605</ele>
        <time>2021-09-21T14:38:10Z</time>
      </trkpt>
      <trkpt lat="46.54333" lon="0.34628">
        <ele>117.95831950475</ele>
        <time>2021-09-21T14:38:12Z</time>
      </trkpt>
      <trkpt lat="46.54336" lon="0.34627">
        <ele>117.88098067418</ele>
        <time>2021-09-21T14:38:14Z</time>
      </trkpt>
      <trkpt lat="46.54337" lon="0.34625">
        <ele>117.77368983533</ele>
        <time>2021-09-21T14:38:16Z</time>
      </trkpt>
      <trkpt lat="46.54339" lon="0.34623">
        <ele>117.60672574677</ele>
        <time>2021-09-21T14:38:18Z</time>
      </trkpt>
      <trkpt lat="46.54341" lon="0.3462">
        <ele>117.54802157916</ele>
        <time>2021-09-21T14:38:20Z</time>
      </trkpt>
      <trkpt lat="46.54342" lon="0.34617">
        <ele>117.83585704491</ele>
        <time>2021-09-21T14:38:21Z</time>
      </trkpt>
      <trkpt lat="46.54344" lon="0.34614">
        <ele>117.51450186037</ele>
        <time>2021-09-21T14:38:23Z</time>
      </trkpt>
      <trkpt lat="46.54345" lon="0.34612">
        <ele>117.63981313165</ele>
        <time>2021-09-21T14:38:25Z</time>
      </trkpt>
      <trkpt lat="46.54345" lon="0.34609">
        <ele>117.8538893424</ele>
        <time>2021-09-21T14:38:27Z</time>
      </trkpt>
      <trkpt lat="46.54347" lon="0.34606">
        <ele>117.36394878197</ele>
        <time>2021-09-21T14:38:29Z</time>
      </trkpt>
      <trkpt lat="46.54348" lon="0.34604">
        <ele>117.8081800025</ele>
        <time>2021-09-21T14:38:31Z</time>
      </trkpt>
      <trkpt lat="46.5435" lon="0.34601">
        <ele>117.75762701128</ele>
        <time>2021-09-21T14:38:33Z</time>
      </trkpt>
      <trkpt lat="46.54352" lon="0.34599">
        <ele>117.59903973807</ele>
        <time>2021-09-21T14:38:35Z</time>
      </trkpt>
      <trkpt lat="46.54354" lon="0.34597">
        <ele>117.55253481586</ele>
        <time>2021-09-21T14:38:37Z</time>
      </trkpt>
      <trkpt lat="46.54356" lon="0.34595">
        <ele>117.73235247191</ele>
        <time>2021-09-21T14:38:39Z</time>
      </trkpt>
      <trkpt lat="46.54357" lon="0.34594">
        <ele>117.51146408822</ele>
        <time>2021-09-21T14:38:41Z</time>
      </trkpt>
      <trkpt lat="46.5436" lon="0.34594">
        <ele>117.64448648319</ele>
        <time>2021-09-21T14:38:44Z</time>
      </trkpt>
      <trkpt lat="46.54362" lon="0.34595">
        <ele>117.71135415044</ele>
        <time>2021-09-21T14:38:46Z</time>
      </trkpt>
      <trkpt lat="46.54364" lon="0.34595">
        <ele>117.39176122192</ele>
        <time>2021-09-21T14:38:48Z</time>
      </trkpt>
      <trkpt lat="46.54367" lon="0.34594">
        <ele>117.09110531863</ele>
        <time>2021-09-21T14:38:50Z</time>
      </trkpt>
      <trkpt lat="46.54368" lon="0.34594">
        <ele>117.32419745438</ele>
        <time>2021-09-21T14:38:52Z</time>
      </trkpt>
      <trkpt lat="46.54371" lon="0.34592">
        <ele>117.14821522869</ele>
        <time>2021-09-21T14:38:54Z</time>
      </trkpt>
      <trkpt lat="46.54373" lon="0.34591">
        <ele>117.57497149426</ele>
        <time>2021-09-21T14:38:56Z</time>
      </trkpt>
      <trkpt lat="46.54375" lon="0.34589">
        <ele>117.57298029959</ele>
        <time>2021-09-21T14:38:58Z</time>
      </trkpt>
      <trkpt lat="46.54378" lon="0.34588">
        <ele>117.44937608484</ele>
        <time>2021-09-21T14:39:01Z</time>
      </trkpt>
      <trkpt lat="46.5438" lon="0.34588">
        <ele>117.2357006222</ele>
        <time>2021-09-21T14:39:03Z</time>
      </trkpt>
      <trkpt lat="46.54382" lon="0.34588">
        <ele>117.81916752085</ele>
        <time>2021-09-21T14:39:05Z</time>
      </trkpt>
      <trkpt lat="46.54383" lon="0.34586">
        <ele>118.20711476821</ele>
        <time>2021-09-21T14:39:07Z</time>
      </trkpt>
      <trkpt lat="46.54385" lon="0.34583">
        <ele>118.18157438189</ele>
        <time>2021-09-21T14:39:09Z</time>
      </trkpt>
      <trkpt lat="46.54387" lon="0.34582">
        <ele>117.68557720166</ele>
        <time>2021-09-21T14:39:16Z</time>
      </trkpt>
      <trkpt lat="46.54385" lon="0.3458">
        <ele>117.66740731895</ele>
        <time>2021-09-21T14:39:29Z</time>
      </trkpt>
      <trkpt lat="46.54388" lon="0.34581">
        <ele>117.81544987019</ele>
        <time>2021-09-21T14:39:35Z</time>
      </trkpt>
      <trkpt lat="46.54386" lon="0.34579">
        <ele>117.88587524556</ele>
        <time>2021-09-21T14:39:43Z</time>
      </trkpt>
      <trkpt lat="46.54385" lon="0.34577">
        <ele>117.64812745992</ele>
        <time>2021-09-21T14:39:53Z</time>
      </trkpt>
      <trkpt lat="46.54385" lon="0.34574">
        <ele>117.86658610031</ele>
        <time>2021-09-21T14:40:09Z</time>
      </trkpt>
      <trkpt lat="46.54386" lon="0.34576">
        <ele>117.77081337478</ele>
        <time>2021-09-21T14:40:20Z</time>
      </trkpt>
      <trkpt lat="46.54385" lon="0.34578">
        <ele>118.25781063177</ele>
        <time>2021-09-21T14:40:34Z</time>
      </trkpt>
      <trkpt lat="46.54386" lon="0.34575">
        <ele>117.83486417029</ele>
        <time>2021-09-21T14:40:41Z</time>
      </trkpt>
      <trkpt lat="46.54387" lon="0.34572">
        <ele>117.71694854833</ele>
        <time>2021-09-21T14:40:47Z</time>
      </trkpt>
      <trkpt lat="46.54387" lon="0.34569">
        <ele>118.11525255628</ele>
        <time>2021-09-21T14:40:50Z</time>
      </trkpt>
      <trkpt lat="46.54387" lon="0.34566">
        <ele>118.13822394516</ele>
        <time>2021-09-21T14:40:52Z</time>
      </trkpt>
      <trkpt lat="46.54388" lon="0.34563">
        <ele>117.84420751967</ele>
        <time>2021-09-21T14:40:54Z</time>
      </trkpt>
      <trkpt lat="46.54388" lon="0.34559">
        <ele>117.77777727507</ele>
        <time>2021-09-21T14:40:56Z</time>
      </trkpt>
      <trkpt lat="46.54388" lon="0.34556">
        <ele>118.24120320659</ele>
        <time>2021-09-21T14:40:59Z</time>
      </trkpt>
      <trkpt lat="46.54387" lon="0.34554">
        <ele>117.741537706</ele>
        <time>2021-09-21T14:41:07Z</time>
      </trkpt>
      <trkpt lat="46.54385" lon="0.34555">
        <ele>117.79375092592</ele>
        <time>2021-09-21T14:41:12Z</time>
      </trkpt>
      <trkpt lat="46.54383" lon="0.34553">
        <ele>117.75655258354</ele>
        <time>2021-09-21T14:41:19Z</time>
      </trkpt>
      <trkpt lat="46.54384" lon="0.34549">
        <ele>117.7277250113</ele>
        <time>2021-09-21T14:41:23Z</time>
      </trkpt>
      <trkpt lat="46.54383" lon="0.34547">
        <ele>117.74198827147</ele>
        <time>2021-09-21T14:41:24Z</time>
      </trkpt>
      <trkpt lat="46.54382" lon="0.34544">
        <ele>117.99025677238</ele>
        <time>2021-09-21T14:41:26Z</time>
      </trkpt>
      <trkpt lat="46.54382" lon="0.34541">
        <ele>117.78140512668</ele>
        <time>2021-09-21T14:41:28Z</time>
      </trkpt>
      <trkpt lat="46.54384" lon="0.34536">
        <ele>117.61595670786</ele>
        <time>2021-09-21T14:41:30Z</time>
      </trkpt>
      <trkpt lat="46.54385" lon="0.34534">
        <ele>117.18553805258</ele>
        <time>2021-09-21T14:41:33Z</time>
      </trkpt>
      <trkpt lat="46.54387" lon="0.34533">
        <ele>118.02698620409</ele>
        <time>2021-09-21T14:41:35Z</time>
      </trkpt>
      <trkpt lat="46.54389" lon="0.34531">
        <ele>117.81336665992</ele>
        <time>2021-09-21T14:41:37Z</time>
      </trkpt>
      <trkpt lat="46.54391" lon="0.3453">
        <ele>117.83540514391</ele>
        <time>2021-09-21T14:41:39Z</time>
      </trkpt>
      <trkpt lat="46.54393" lon="0.34529">
        <ele>118.17072656192</ele>
        <time>2021-09-21T14:41:41Z</time>
      </trkpt>
      <trkpt lat="46.54395" lon="0.34529">
        <ele>118.16415070463</ele>
        <time>2021-09-21T14:41:44Z</time>
      </trkpt>
      <trkpt lat="46.54397" lon="0.34528">
        <ele>117.76611509919</ele>
        <time>2021-09-21T14:41:46Z</time>
      </trkpt>
      <trkpt lat="46.54399" lon="0.34526">
        <ele>117.89348130673</ele>
        <time>2021-09-21T14:41:49Z</time>
      </trkpt>
      <trkpt lat="46.544" lon="0.34524">
        <ele>117.98494657688</ele>
        <time>2021-09-21T14:41:50Z</time>
      </trkpt>
      <trkpt lat="46.54402" lon="0.34522">
        <ele>117.64247463923</ele>
        <time>2021-09-21T14:41:52Z</time>
      </trkpt>
      <trkpt lat="46.54404" lon="0.3452">
        <ele>117.69157472812</ele>
        <time>2021-09-21T14:41:54Z</time>
      </trkpt>
      <trkpt lat="46.54405" lon="0.34517">
        <ele>117.24285506178</ele>
        <time>2021-09-21T14:41:56Z</time>
      </trkpt>
      <trkpt lat="46.54408" lon="0.34514">
        <ele>117.82786518335</ele>
        <time>2021-09-21T14:41:59Z</time>
      </trkpt>
      <trkpt lat="46.54409" lon="0.3451">
        <ele>117.80991518497</ele>
        <time>2021-09-21T14:42:01Z</time>
      </trkpt>
      <trkpt lat="46.54411" lon="0.34508">
        <ele>117.38548596669</ele>
        <time>2021-09-21T14:42:03Z</time>
      </trkpt>
      <trkpt lat="46.54412" lon="0.34505">
        <ele>117.67337572761</ele>
        <time>2021-09-21T14:42:05Z</time>
      </trkpt>
      <trkpt lat="46.54412" lon="0.34502">
        <ele>117.42227192782</ele>
        <time>2021-09-21T14:42:07Z</time>
      </trkpt>
      <trkpt lat="46.54413" lon="0.34498">
        <ele>117.42754510231</ele>
        <time>2021-09-21T14:42:09Z</time>
      </trkpt>
      <trkpt lat="46.54413" lon="0.34494">
        <ele>117.16306264512</ele>
        <time>2021-09-21T14:42:11Z</time>
      </trkpt>
      <trkpt lat="46.54413" lon="0.34491">
        <ele>117.22556785308</ele>
        <time>2021-09-21T14:42:13Z</time>
      </trkpt>
      <trkpt lat="46.54412" lon="0.34487">
        <ele>117.08745022304</ele>
        <time>2021-09-21T14:42:15Z</time>
      </trkpt>
      <trkpt lat="46.54412" lon="0.34484">
        <ele>118.00806941465</ele>
        <time>2021-09-21T14:42:17Z</time>
      </trkpt>
      <trkpt lat="46.5441" lon="0.34481">
        <ele>117.17722648196</ele>
        <time>2021-09-21T14:42:20Z</time>
      </trkpt>
      <trkpt lat="46.54409" lon="0.34477">
        <ele>117.20233462192</ele>
        <time>2021-09-21T14:42:22Z</time>
      </trkpt>
      <trkpt lat="46.54407" lon="0.34474">
        <ele>117.3113551354</ele>
        <time>2021-09-21T14:42:24Z</time>
      </trkpt>
      <trkpt lat="46.54406" lon="0.34471">
        <ele>117.52151221782</ele>
        <time>2021-09-21T14:42:26Z</time>
      </trkpt>
      <trkpt lat="46.54405" lon="0.34469">
        <ele>117.51299960725</ele>
        <time>2021-09-21T14:42:28Z</time>
      </trkpt>
      <trkpt lat="46.54404" lon="0.34466">
        <ele>117.4567279201</ele>
        <time>2021-09-21T14:42:30Z</time>
      </trkpt>
      <trkpt lat="46.54403" lon="0.34463">
        <ele>117.63854433876</ele>
        <time>2021-09-21T14:42:32Z</time>
      </trkpt>
      <trkpt lat="46.54401" lon="0.3446">
        <ele>117.63169503957</ele>
        <time>2021-09-21T14:42:34Z</time>
      </trkpt>
      <trkpt lat="46.544" lon="0.34457">
        <ele>117.61405661423</ele>
        <time>2021-09-21T14:42:36Z</time>
      </trkpt>
      <trkpt lat="46.54399" lon="0.34454">
        <ele>117.66251126863</ele>
        <time>2021-09-21T14:42:38Z</time>
      </trkpt>
      <trkpt lat="46.54398" lon="0.34451">
        <ele>118.04890824761</ele>
        <time>2021-09-21T14:42:40Z</time>
      </trkpt>
      <trkpt lat="46.54396" lon="0.34449">
        <ele>117.9225866599</ele>
        <time>2021-09-21T14:42:42Z</time>
      </trkpt>
      <trkpt lat="46.54395" lon="0.34446">
        <ele>117.6814591419</ele>
        <time>2021-09-21T14:42:44Z</time>
      </trkpt>
      <trkpt lat="46.54393" lon="0.34443">
        <ele>117.35355679505</ele>
        <time>2021-09-21T14:42:46Z</time>
      </trkpt>
      <trkpt lat="46.54392" lon="0.34441">
        <ele>117.29449641239</ele>
        <time>2021-09-21T14:42:48Z</time>
      </trkpt>
      <trkpt lat="46.54391" lon="0.34438">
        <ele>117.64477107767</ele>
        <time>2021-09-21T14:42:50Z</time>
      </trkpt>
      <trkpt lat="46.5439" lon="0.34435">
        <ele>117.85765774176</ele>
        <time>2021-09-21T14:42:52Z</time>
      </trkpt>
      <trkpt lat="46.54388" lon="0.34432">
        <ele>117.69356601685</ele>
        <time>2021-09-21T14:42:54Z</time>
      </trkpt>
      <trkpt lat="46.54387" lon="0.34429">
        <ele>117.78830103483</ele>
        <time>2021-09-21T14:42:56Z</time>
      </trkpt>
      <trkpt lat="46.54386" lon="0.34426">
        <ele>117.66177095845</ele>
        <time>2021-09-21T14:42:58Z</time>
      </trkpt>
      <trkpt lat="46.54385" lon="0.34423">
        <ele>117.97282224428</ele>
        <time>2021-09-21T14:43:00Z</time>
      </trkpt>
      <trkpt lat="46.54384" lon="0.3442">
        <ele>117.33742630668</ele>
        <time>2021-09-21T14:43:02Z</time>
      </trkpt>
      <trkpt lat="46.54383" lon="0.34418">
        <ele>117.25494632404</ele>
        <time>2021-09-21T14:43:04Z</time>
      </trkpt>
      <trkpt lat="46.54382" lon="0.34415">
        <ele>117.44949192926</ele>
        <time>2021-09-21T14:43:06Z</time>
      </trkpt>
      <trkpt lat="46.54381" lon="0.34412">
        <ele>117.25167292915</ele>
        <time>2021-09-21T14:43:08Z</time>
      </trkpt>
      <trkpt lat="46.5438" lon="0.34409">
        <ele>117.26822764613</ele>
        <time>2021-09-21T14:43:10Z</time>
      </trkpt>
      <trkpt lat="46.54379" lon="0.34406">
        <ele>117.17859508656</ele>
        <time>2021-09-21T14:43:12Z</time>
      </trkpt>
      <trkpt lat="46.54377" lon="0.34403">
        <ele>117.30629765429</ele>
        <time>2021-09-21T14:43:14Z</time>
      </trkpt>
      <trkpt lat="46.54376" lon="0.344">
        <ele>117.77073410992</ele>
        <time>2021-09-21T14:43:17Z</time>
      </trkpt>
      <trkpt lat="46.54375" lon="0.34397">
        <ele>117.13259337377</ele>
        <time>2021-09-21T14:43:19Z</time>
      </trkpt>
      <trkpt lat="46.54374" lon="0.34395">
        <ele>117.32482549921</ele>
        <time>2021-09-21T14:43:21Z</time>
      </trkpt>
      <trkpt lat="46.54373" lon="0.34392">
        <ele>117.43191893585</ele>
        <time>2021-09-21T14:43:23Z</time>
      </trkpt>
      <trkpt lat="46.54372" lon="0.3439">
        <ele>117.13590872847</ele>
        <time>2021-09-21T14:43:25Z</time>
      </trkpt>
      <trkpt lat="46.54371" lon="0.34387">
        <ele>117.53105768748</ele>
        <time>2021-09-21T14:43:27Z</time>
      </trkpt>
      <trkpt lat="46.5437" lon="0.34384">
        <ele>117.36943984218</ele>
        <time>2021-09-21T14:43:29Z</time>
      </trkpt>
      <trkpt lat="46.54368" lon="0.34381">
        <ele>117.20716844313</ele>
        <time>2021-09-21T14:43:32Z</time>
      </trkpt>
      <trkpt lat="46.54367" lon="0.34378">
        <ele>117.47973186523</ele>
        <time>2021-09-21T14:43:34Z</time>
      </trkpt>
      <trkpt lat="46.54366" lon="0.34375">
        <ele>117.29444095585</ele>
        <time>2021-09-21T14:43:36Z</time>
      </trkpt>
      <trkpt lat="46.54365" lon="0.34372">
        <ele>117.66568474099</ele>
        <time>2021-09-21T14:43:38Z</time>
      </trkpt>
      <trkpt lat="46.54363" lon="0.34369">
        <ele>117.25207708497</ele>
        <time>2021-09-21T14:43:40Z</time>
      </trkpt>
      <trkpt lat="46.54362" lon="0.34367">
        <ele>117.15108694043</ele>
        <time>2021-09-21T14:43:42Z</time>
      </trkpt>
      <trkpt lat="46.54361" lon="0.34364">
        <ele>117.45460630115</ele>
        <time>2021-09-21T14:43:44Z</time>
      </trkpt>
      <trkpt lat="46.54359" lon="0.34363">
        <ele>117.15220036358</ele>
        <time>2021-09-21T14:43:45Z</time>
      </trkpt>
      <trkpt lat="46.54357" lon="0.3436">
        <ele>116.94523027726</ele>
        <time>2021-09-21T14:43:49Z</time>
      </trkpt>
      <trkpt lat="46.54356" lon="0.34356">
        <ele>117.12902979553</ele>
        <time>2021-09-21T14:43:51Z</time>
      </trkpt>
      <trkpt lat="46.54355" lon="0.34354">
        <ele>116.91891170107</ele>
        <time>2021-09-21T14:43:53Z</time>
      </trkpt>
      <trkpt lat="46.54354" lon="0.34351">
        <ele>116.98399725463</ele>
        <time>2021-09-21T14:43:55Z</time>
      </trkpt>
      <trkpt lat="46.54352" lon="0.34349">
        <ele>116.92260116898</ele>
        <time>2021-09-21T14:43:56Z</time>
      </trkpt>
      <trkpt lat="46.54351" lon="0.34346">
        <ele>116.58460985776</ele>
        <time>2021-09-21T14:43:58Z</time>
      </trkpt>
      <trkpt lat="46.5435" lon="0.34342">
        <ele>117.1479715351</ele>
        <time>2021-09-21T14:44:00Z</time>
      </trkpt>
      <trkpt lat="46.54349" lon="0.34339">
        <ele>116.93243411835</ele>
        <time>2021-09-21T14:44:02Z</time>
      </trkpt>
      <trkpt lat="46.54347" lon="0.34336">
        <ele>117.30984449759</ele>
        <time>2021-09-21T14:44:04Z</time>
      </trkpt>
      <trkpt lat="46.54346" lon="0.34334">
        <ele>117.17194485757</ele>
        <time>2021-09-21T14:44:06Z</time>
      </trkpt>
      <trkpt lat="46.54344" lon="0.34331">
        <ele>116.98640720733</ele>
        <time>2021-09-21T14:44:08Z</time>
      </trkpt>
      <trkpt lat="46.54343" lon="0.34328">
        <ele>116.97191705368</ele>
        <time>2021-09-21T14:44:10Z</time>
      </trkpt>
      <trkpt lat="46.54342" lon="0.34325">
        <ele>116.99437136948</ele>
        <time>2021-09-21T14:44:12Z</time>
      </trkpt>
      <trkpt lat="46.54341" lon="0.34322">
        <ele>117.22506552935</ele>
        <time>2021-09-21T14:44:14Z</time>
      </trkpt>
      <trkpt lat="46.5434" lon="0.3432">
        <ele>117.19876511488</ele>
        <time>2021-09-21T14:44:16Z</time>
      </trkpt>
      <trkpt lat="46.54338" lon="0.34316">
        <ele>117.05066632573</ele>
        <time>2021-09-21T14:44:18Z</time>
      </trkpt>
      <trkpt lat="46.54337" lon="0.34313">
        <ele>117.01421702839</ele>
        <time>2021-09-21T14:44:21Z</time>
      </trkpt>
      <trkpt lat="46.54335" lon="0.3431">
        <ele>116.47045957204</ele>
        <time>2021-09-21T14:44:23Z</time>
      </trkpt>
      <trkpt lat="46.54334" lon="0.34307">
        <ele>116.78105476126</ele>
        <time>2021-09-21T14:44:25Z</time>
      </trkpt>
      <trkpt lat="46.54333" lon="0.34304">
        <ele>116.9453404434</ele>
        <time>2021-09-21T14:44:27Z</time>
      </trkpt>
      <trkpt lat="46.54331" lon="0.34302">
        <ele>116.82709194347</ele>
        <time>2021-09-21T14:44:28Z</time>
      </trkpt>
      <trkpt lat="46.54329" lon="0.34301">
        <ele>117.03499060031</ele>
        <time>2021-09-21T14:44:30Z</time>
      </trkpt>
      <trkpt lat="46.54326" lon="0.34301">
        <ele>116.81127749011</ele>
        <time>2021-09-21T14:44:32Z</time>
      </trkpt>
      <trkpt lat="46.54323" lon="0.34299">
        <ele>117.10388551187</ele>
        <time>2021-09-21T14:44:34Z</time>
      </trkpt>
      <trkpt lat="46.5432" lon="0.34298">
        <ele>117.28740429878</ele>
        <time>2021-09-21T14:44:36Z</time>
      </trkpt>
      <trkpt lat="46.54318" lon="0.34298">
        <ele>117.64402973559</ele>
        <time>2021-09-21T14:44:38Z</time>
      </trkpt>
      <trkpt lat="46.54316" lon="0.34298">
        <ele>117.54773849621</ele>
        <time>2021-09-21T14:44:40Z</time>
      </trkpt>
      <trkpt lat="46.54314" lon="0.34298">
        <ele>117.4789614724</ele>
        <time>2021-09-21T14:44:42Z</time>
      </trkpt>
      <trkpt lat="46.54312" lon="0.34298">
        <ele>117.87911009975</ele>
        <time>2021-09-21T14:44:44Z</time>
      </trkpt>
      <trkpt lat="46.5431" lon="0.34297">
        <ele>117.6364322016</ele>
        <time>2021-09-21T14:44:46Z</time>
      </trkpt>
      <trkpt lat="46.54308" lon="0.34297">
        <ele>117.87090102863</ele>
        <time>2021-09-21T14:44:47Z</time>
      </trkpt>
      <trkpt lat="46.54306" lon="0.34296">
        <ele>117.68904113863</ele>
        <time>2021-09-21T14:44:49Z</time>
      </trkpt>
      <trkpt lat="46.54302" lon="0.34296">
        <ele>118.00374237914</ele>
        <time>2021-09-21T14:44:51Z</time>
      </trkpt>
      <trkpt lat="46.543" lon="0.34296">
        <ele>117.93284328375</ele>
        <time>2021-09-21T14:44:53Z</time>
      </trkpt>
      <trkpt lat="46.54297" lon="0.34295">
        <ele>117.76405686419</ele>
        <time>2021-09-21T14:44:56Z</time>
      </trkpt>
      <trkpt lat="46.54296" lon="0.34294">
        <ele>117.79975424428</ele>
        <time>2021-09-21T14:44:57Z</time>
      </trkpt>
      <trkpt lat="46.54293" lon="0.34294">
        <ele>117.9567247238</ele>
        <time>2021-09-21T14:44:59Z</time>
      </trkpt>
      <trkpt lat="46.54291" lon="0.34294">
        <ele>117.83062979952</ele>
        <time>2021-09-21T14:45:01Z</time>
      </trkpt>
      <trkpt lat="46.54288" lon="0.34293">
        <ele>118.04631451983</ele>
        <time>2021-09-21T14:45:03Z</time>
      </trkpt>
      <trkpt lat="46.54286" lon="0.34292">
        <ele>118.04676072299</ele>
        <time>2021-09-21T14:45:05Z</time>
      </trkpt>
      <trkpt lat="46.54284" lon="0.34291">
        <ele>117.92080444656</ele>
        <time>2021-09-21T14:45:07Z</time>
      </trkpt>
      <trkpt lat="46.54281" lon="0.3429">
        <ele>117.72879370209</ele>
        <time>2021-09-21T14:45:09Z</time>
      </trkpt>
      <trkpt lat="46.54279" lon="0.34291">
        <ele>117.83926367573</ele>
        <time>2021-09-21T14:45:11Z</time>
      </trkpt>
      <trkpt lat="46.54277" lon="0.3429">
        <ele>117.98105273489</ele>
        <time>2021-09-21T14:45:13Z</time>
      </trkpt>
      <trkpt lat="46.54275" lon="0.34289">
        <ele>117.56723979302</ele>
        <time>2021-09-21T14:45:15Z</time>
      </trkpt>
      <trkpt lat="46.54273" lon="0.34288">
        <ele>117.9016184248</ele>
        <time>2021-09-21T14:45:16Z</time>
      </trkpt>
      <trkpt lat="46.5427" lon="0.34288">
        <ele>117.6667846702</ele>
        <time>2021-09-21T14:45:18Z</time>
      </trkpt>
      <trkpt lat="46.54267" lon="0.34287">
        <ele>117.69892160874</ele>
        <time>2021-09-21T14:45:20Z</time>
      </trkpt>
      <trkpt lat="46.54264" lon="0.34286">
        <ele>117.59261095989</ele>
        <time>2021-09-21T14:45:22Z</time>
      </trkpt>
      <trkpt lat="46.54262" lon="0.34286">
        <ele>117.76995487884</ele>
        <time>2021-09-21T14:45:24Z</time>
      </trkpt>
      <trkpt lat="46.54259" lon="0.34285">
        <ele>117.69376073964</ele>
        <time>2021-09-21T14:45:26Z</time>
      </trkpt>
      <trkpt lat="46.54257" lon="0.34283">
        <ele>117.65559064224</ele>
        <time>2021-09-21T14:45:28Z</time>
      </trkpt>
      <trkpt lat="46.54254" lon="0.34282">
        <ele>117.57215270028</ele>
        <time>2021-09-21T14:45:30Z</time>
      </trkpt>
      <trkpt lat="46.54251" lon="0.34281">
        <ele>117.71097037569</ele>
        <time>2021-09-21T14:45:32Z</time>
      </trkpt>
      <trkpt lat="46.54249" lon="0.3428">
        <ele>117.73838247079</ele>
        <time>2021-09-21T14:45:34Z</time>
      </trkpt>
      <trkpt lat="46.54246" lon="0.34279">
        <ele>117.84152898192</ele>
        <time>2021-09-21T14:45:36Z</time>
      </trkpt>
      <trkpt lat="46.54243" lon="0.34278">
        <ele>117.97946192138</ele>
        <time>2021-09-21T14:45:38Z</time>
      </trkpt>
      <trkpt lat="46.54241" lon="0.34276">
        <ele>117.74689394049</ele>
        <time>2021-09-21T14:45:40Z</time>
      </trkpt>
      <trkpt lat="46.54239" lon="0.34276">
        <ele>117.76528447028</ele>
        <time>2021-09-21T14:45:42Z</time>
      </trkpt>
      <trkpt lat="46.54236" lon="0.34274">
        <ele>117.97702562064</ele>
        <time>2021-09-21T14:45:45Z</time>
      </trkpt>
      <trkpt lat="46.54234" lon="0.34273">
        <ele>117.63053348195</ele>
        <time>2021-09-21T14:45:47Z</time>
      </trkpt>
      <trkpt lat="46.54232" lon="0.34272">
        <ele>117.60189004056</ele>
        <time>2021-09-21T14:45:49Z</time>
      </trkpt>
      <trkpt lat="46.54229" lon="0.3427">
        <ele>117.76609759405</ele>
        <time>2021-09-21T14:45:51Z</time>
      </trkpt>
      <trkpt lat="46.54227" lon="0.3427">
        <ele>117.83277549502</ele>
        <time>2021-09-21T14:45:53Z</time>
      </trkpt>
      <trkpt lat="46.54225" lon="0.34268">
        <ele>118.04709133785</ele>
        <time>2021-09-21T14:45:55Z</time>
      </trkpt>
      <trkpt lat="46.54224" lon="0.34265">
        <ele>117.60528460331</ele>
        <time>2021-09-21T14:45:58Z</time>
      </trkpt>
      <trkpt lat="46.54223" lon="0.34262">
        <ele>117.41974564269</ele>
        <time>2021-09-21T14:46:00Z</time>
      </trkpt>
      <trkpt lat="46.54222" lon="0.3426">
        <ele>117.45317309629</ele>
        <time>2021-09-21T14:46:02Z</time>
      </trkpt>
      <trkpt lat="46.54221" lon="0.34257">
        <ele>117.37750000879</ele>
        <time>2021-09-21T14:46:04Z</time>
      </trkpt>
      <trkpt lat="46.5422" lon="0.34253">
        <ele>117.4828750845</ele>
        <time>2021-09-21T14:46:06Z</time>
      </trkpt>
      <trkpt lat="46.54219" lon="0.3425">
        <ele>117.41306250077</ele>
        <time>2021-09-21T14:46:09Z</time>
      </trkpt>
      <trkpt lat="46.54219" lon="0.34247">
        <ele>117.24640801456</ele>
        <time>2021-09-21T14:46:11Z</time>
      </trkpt>
      <trkpt lat="46.54219" lon="0.34244">
        <ele>116.97719655465</ele>
        <time>2021-09-21T14:46:13Z</time>
      </trkpt>
      <trkpt lat="46.54218" lon="0.34241">
        <ele>116.92656909861</ele>
        <time>2021-09-21T14:46:15Z</time>
      </trkpt>
      <trkpt lat="46.54218" lon="0.34237">
        <ele>116.87572878972</ele>
        <time>2021-09-21T14:46:17Z</time>
      </trkpt>
      <trkpt lat="46.54218" lon="0.34235">
        <ele>117.0336777484</ele>
        <time>2021-09-21T14:46:18Z</time>
      </trkpt>
      <trkpt lat="46.54217" lon="0.34231">
        <ele>116.95184390619</ele>
        <time>2021-09-21T14:46:20Z</time>
      </trkpt>
      <trkpt lat="46.54217" lon="0.34228">
        <ele>116.85804007761</ele>
        <time>2021-09-21T14:46:22Z</time>
      </trkpt>
      <trkpt lat="46.54215" lon="0.34224">
        <ele>116.89117222838</ele>
        <time>2021-09-21T14:46:24Z</time>
      </trkpt>
      <trkpt lat="46.54214" lon="0.3422">
        <ele>116.77769478783</ele>
        <time>2021-09-21T14:46:26Z</time>
      </trkpt>
      <trkpt lat="46.54214" lon="0.34217">
        <ele>116.91646583099</ele>
        <time>2021-09-21T14:46:28Z</time>
      </trkpt>
      <trkpt lat="46.54214" lon="0.34214">
        <ele>116.63179478701</ele>
        <time>2021-09-21T14:46:30Z</time>
      </trkpt>
      <trkpt lat="46.54213" lon="0.34209">
        <ele>116.48026144691</ele>
        <time>2021-09-21T14:46:34Z</time>
      </trkpt>
      <trkpt lat="46.54213" lon="0.34206">
        <ele>116.62569603603</ele>
        <time>2021-09-21T14:46:36Z</time>
      </trkpt>
      <trkpt lat="46.54211" lon="0.34202">
        <ele>116.40978005901</ele>
        <time>2021-09-21T14:46:38Z</time>
      </trkpt>
      <trkpt lat="46.5421" lon="0.34199">
        <ele>116.49335659295</ele>
        <time>2021-09-21T14:46:40Z</time>
      </trkpt>
      <trkpt lat="46.5421" lon="0.34193">
        <ele>116.3965801103</ele>
        <time>2021-09-21T14:46:42Z</time>
      </trkpt>
      <trkpt lat="46.5421" lon="0.34188">
        <ele>116.30648042075</ele>
        <time>2021-09-21T14:46:44Z</time>
      </trkpt>
      <trkpt lat="46.5421" lon="0.34185">
        <ele>116.02482164744</ele>
        <time>2021-09-21T14:46:46Z</time>
      </trkpt>
      <trkpt lat="46.54209" lon="0.3418">
        <ele>116.02946526092</ele>
        <time>2021-09-21T14:46:48Z</time>
      </trkpt>
      <trkpt lat="46.54208" lon="0.34177">
        <ele>115.53450125176</ele>
        <time>2021-09-21T14:46:50Z</time>
      </trkpt>
      <trkpt lat="46.54208" lon="0.34174">
        <ele>115.65039759222</ele>
        <time>2021-09-21T14:46:52Z</time>
      </trkpt>
      <trkpt lat="46.54208" lon="0.34172">
        <ele>115.7345478842</ele>
        <time>2021-09-21T14:46:53Z</time>
      </trkpt>
      <trkpt lat="46.54208" lon="0.34168">
        <ele>115.33314526826</ele>
        <time>2021-09-21T14:46:55Z</time>
      </trkpt>
      <trkpt lat="46.54209" lon="0.34165">
        <ele>115.25797275919</ele>
        <time>2021-09-21T14:46:57Z</time>
      </trkpt>
      <trkpt lat="46.54208" lon="0.34161">
        <ele>115.32611551229</ele>
        <time>2021-09-21T14:46:59Z</time>
      </trkpt>
      <trkpt lat="46.54207" lon="0.34158">
        <ele>115.09686048329</ele>
        <time>2021-09-21T14:47:01Z</time>
      </trkpt>
      <trkpt lat="46.54206" lon="0.34154">
        <ele>114.91810590122</ele>
        <time>2021-09-21T14:47:03Z</time>
      </trkpt>
      <trkpt lat="46.54205" lon="0.34149">
        <ele>114.93654958811</ele>
        <time>2021-09-21T14:47:05Z</time>
      </trkpt>
      <trkpt lat="46.54205" lon="0.34146">
        <ele>114.84459550213</ele>
        <time>2021-09-21T14:47:07Z</time>
      </trkpt>
      <trkpt lat="46.54205" lon="0.34141">
        <ele>114.89245321695</ele>
        <time>2021-09-21T14:47:10Z</time>
      </trkpt>
      <trkpt lat="46.54204" lon="0.34137">
        <ele>114.72189856507</ele>
        <time>2021-09-21T14:47:13Z</time>
      </trkpt>
      <trkpt lat="46.54203" lon="0.34134">
        <ele>114.30904803984</ele>
        <time>2021-09-21T14:47:15Z</time>
      </trkpt>
      <trkpt lat="46.54204" lon="0.34129">
        <ele>114.36770406365</ele>
        <time>2021-09-21T14:47:17Z</time>
      </trkpt>
      <trkpt lat="46.54203" lon="0.34127">
        <ele>114.16145236604</ele>
        <time>2021-09-21T14:47:19Z</time>
      </trkpt>
      <trkpt lat="46.54203" lon="0.34122">
        <ele>114.00230451953</ele>
        <time>2021-09-21T14:47:21Z</time>
      </trkpt>
      <trkpt lat="46.54203" lon="0.34118">
        <ele>113.59294699784</ele>
        <time>2021-09-21T14:47:24Z</time>
      </trkpt>
      <trkpt lat="46.54202" lon="0.34114">
        <ele>113.86515875161</ele>
        <time>2021-09-21T14:47:26Z</time>
      </trkpt>
      <trkpt lat="46.54202" lon="0.3411">
        <ele>113.57977540884</ele>
        <time>2021-09-21T14:47:28Z</time>
      </trkpt>
      <trkpt lat="46.54202" lon="0.34107">
        <ele>113.43732502032</ele>
        <time>2021-09-21T14:47:30Z</time>
      </trkpt>
      <trkpt lat="46.54202" lon="0.34102">
        <ele>113.09023995232</ele>
        <time>2021-09-21T14:47:32Z</time>
      </trkpt>
      <trkpt lat="46.54202" lon="0.34099">
        <ele>112.93601778522</ele>
        <time>2021-09-21T14:47:34Z</time>
      </trkpt>
      <trkpt lat="46.54201" lon="0.34096">
        <ele>112.94310246129</ele>
        <time>2021-09-21T14:47:36Z</time>
      </trkpt>
      <trkpt lat="46.542" lon="0.34093">
        <ele>112.61469757184</ele>
        <time>2021-09-21T14:47:39Z</time>
      </trkpt>
      <trkpt lat="46.54199" lon="0.3409">
        <ele>112.70343419164</ele>
        <time>2021-09-21T14:47:41Z</time>
      </trkpt>
      <trkpt lat="46.54198" lon="0.34086">
        <ele>112.46824105084</ele>
        <time>2021-09-21T14:47:43Z</time>
      </trkpt>
      <trkpt lat="46.54197" lon="0.34083">
        <ele>112.21902171429</ele>
        <time>2021-09-21T14:47:45Z</time>
      </trkpt>
      <trkpt lat="46.54198" lon="0.34079">
        <ele>111.97251524031</ele>
        <time>2021-09-21T14:47:47Z</time>
      </trkpt>
      <trkpt lat="46.54197" lon="0.34076">
        <ele>111.66028407216</ele>
        <time>2021-09-21T14:47:49Z</time>
      </trkpt>
      <trkpt lat="46.54197" lon="0.34072">
        <ele>111.37333674263</ele>
        <time>2021-09-21T14:47:51Z</time>
      </trkpt>
      <trkpt lat="46.54197" lon="0.34069">
        <ele>111.39129612874</ele>
        <time>2021-09-21T14:47:53Z</time>
      </trkpt>
      <trkpt lat="46.54196" lon="0.34066">
        <ele>110.90807581227</ele>
        <time>2021-09-21T14:47:55Z</time>
      </trkpt>
      <trkpt lat="46.54196" lon="0.34061">
        <ele>110.70762310456</ele>
        <time>2021-09-21T14:47:58Z</time>
      </trkpt>
      <trkpt lat="46.54195" lon="0.34058">
        <ele>110.50028529204</ele>
        <time>2021-09-21T14:48:00Z</time>
      </trkpt>
      <trkpt lat="46.54195" lon="0.34055">
        <ele>110.13195749</ele>
        <time>2021-09-21T14:48:02Z</time>
      </trkpt>
      <trkpt lat="46.54195" lon="0.34052">
        <ele>109.90806579031</ele>
        <time>2021-09-21T14:48:04Z</time>
      </trkpt>
      <trkpt lat="46.54194" lon="0.34048">
        <ele>109.92119043227</ele>
        <time>2021-09-21T14:48:06Z</time>
      </trkpt>
      <trkpt lat="46.54194" lon="0.34045">
        <ele>109.61389827728</ele>
        <time>2021-09-21T14:48:08Z</time>
      </trkpt>
      <trkpt lat="46.54194" lon="0.34041">
        <ele>109.57160401251</ele>
        <time>2021-09-21T14:48:10Z</time>
      </trkpt>
      <trkpt lat="46.54194" lon="0.34037">
        <ele>109.27009462286</ele>
        <time>2021-09-21T14:48:12Z</time>
      </trkpt>
      <trkpt lat="46.54194" lon="0.34034">
        <ele>109.14011209086</ele>
        <time>2021-09-21T14:48:14Z</time>
      </trkpt>
      <trkpt lat="46.54193" lon="0.3403">
        <ele>108.6758093033</ele>
        <time>2021-09-21T14:48:16Z</time>
      </trkpt>
      <trkpt lat="46.54193" lon="0.34027">
        <ele>108.50953994226</ele>
        <time>2021-09-21T14:48:18Z</time>
      </trkpt>
      <trkpt lat="46.54192" lon="0.34025">
        <ele>108.16437849961</ele>
        <time>2021-09-21T14:48:20Z</time>
      </trkpt>
      <trkpt lat="46.54192" lon="0.34022">
        <ele>107.93117417675</ele>
        <time>2021-09-21T14:48:22Z</time>
      </trkpt>
      <trkpt lat="46.54191" lon="0.34019">
        <ele>107.89724954311</ele>
        <time>2021-09-21T14:48:24Z</time>
      </trkpt>
      <trkpt lat="46.54191" lon="0.34016">
        <ele>107.49689310137</ele>
        <time>2021-09-21T14:48:26Z</time>
      </trkpt>
      <trkpt lat="46.5419" lon="0.34012">
        <ele>106.92710551247</ele>
        <time>2021-09-21T14:48:28Z</time>
      </trkpt>
      <trkpt lat="46.54188" lon="0.34009">
        <ele>106.55248155445</ele>
        <time>2021-09-21T14:48:30Z</time>
      </trkpt>
      <trkpt lat="46.54187" lon="0.34004">
        <ele>106.42371143866</ele>
        <time>2021-09-21T14:48:32Z</time>
      </trkpt>
      <trkpt lat="46.54186" lon="0.34001">
        <ele>106.37977918424</ele>
        <time>2021-09-21T14:48:34Z</time>
      </trkpt>
      <trkpt lat="46.54185" lon="0.33996">
        <ele>105.43343875278</ele>
        <time>2021-09-21T14:48:37Z</time>
      </trkpt>
      <trkpt lat="46.54186" lon="0.33993">
        <ele>105.25487077609</ele>
        <time>2021-09-21T14:48:39Z</time>
      </trkpt>
      <trkpt lat="46.54186" lon="0.33989">
        <ele>105.31591380853</ele>
        <time>2021-09-21T14:48:41Z</time>
      </trkpt>
      <trkpt lat="46.54188" lon="0.33985">
        <ele>105.25915371906</ele>
        <time>2021-09-21T14:48:43Z</time>
      </trkpt>
      <trkpt lat="46.54189" lon="0.33983">
        <ele>105.61618043482</ele>
        <time>2021-09-21T14:48:45Z</time>
      </trkpt>
      <trkpt lat="46.54191" lon="0.3398">
        <ele>106.60432926565</ele>
        <time>2021-09-21T14:48:47Z</time>
      </trkpt>
      <trkpt lat="46.54192" lon="0.33977">
        <ele>106.44851304963</ele>
        <time>2021-09-21T14:48:49Z</time>
      </trkpt>
      <trkpt lat="46.54192" lon="0.33974">
        <ele>106.6382748615</ele>
        <time>2021-09-21T14:48:51Z</time>
      </trkpt>
      <trkpt lat="46.54193" lon="0.33971">
        <ele>107.28217946831</ele>
        <time>2021-09-21T14:48:53Z</time>
      </trkpt>
      <trkpt lat="46.54193" lon="0.33968">
        <ele>107.1617277395</ele>
        <time>2021-09-21T14:48:55Z</time>
      </trkpt>
      <trkpt lat="46.54193" lon="0.33965">
        <ele>107.20528463181</ele>
        <time>2021-09-21T14:48:58Z</time>
      </trkpt>
      <trkpt lat="46.54195" lon="0.33962">
        <ele>106.97406461835</ele>
        <time>2021-09-21T14:49:01Z</time>
      </trkpt>
      <trkpt lat="46.54196" lon="0.33959">
        <ele>107.37928806618</ele>
        <time>2021-09-21T14:49:02Z</time>
      </trkpt>
      <trkpt lat="46.54197" lon="0.33954">
        <ele>107.75015298929</ele>
        <time>2021-09-21T14:49:04Z</time>
      </trkpt>
      <trkpt lat="46.54196" lon="0.33951">
        <ele>107.19243688229</ele>
        <time>2021-09-21T14:49:06Z</time>
      </trkpt>
      <trkpt lat="46.54195" lon="0.33947">
        <ele>108.0070924582</ele>
        <time>2021-09-21T14:49:08Z</time>
      </trkpt>
      <trkpt lat="46.54195" lon="0.33942">
        <ele>107.94202923961</ele>
        <time>2021-09-21T14:49:10Z</time>
      </trkpt>
      <trkpt lat="46.54194" lon="0.33939">
        <ele>107.89098358806</ele>
        <time>2021-09-21T14:49:12Z</time>
      </trkpt>
      <trkpt lat="46.54193" lon="0.33935">
        <ele>107.93755692616</ele>
        <time>2021-09-21T14:49:14Z</time>
      </trkpt>
      <trkpt lat="46.54192" lon="0.33932">
        <ele>107.43115109671</ele>
        <time>2021-09-21T14:49:16Z</time>
      </trkpt>
      <trkpt lat="46.54192" lon="0.33928">
        <ele>107.22992911562</ele>
        <time>2021-09-21T14:49:18Z</time>
      </trkpt>
      <trkpt lat="46.54191" lon="0.33924">
        <ele>107.07908278517</ele>
        <time>2021-09-21T14:49:20Z</time>
      </trkpt>
      <trkpt lat="46.54191" lon="0.33921">
        <ele>107.3229855746</ele>
        <time>2021-09-21T14:49:22Z</time>
      </trkpt>
      <trkpt lat="46.54191" lon="0.33917">
        <ele>106.80774840619</ele>
        <time>2021-09-21T14:49:24Z</time>
      </trkpt>
      <trkpt lat="46.5419" lon="0.33913">
        <ele>106.87837956566</ele>
        <time>2021-09-21T14:49:26Z</time>
      </trkpt>
      <trkpt lat="46.5419" lon="0.3391">
        <ele>106.41913499683</ele>
        <time>2021-09-21T14:49:28Z</time>
      </trkpt>
      <trkpt lat="46.54189" lon="0.33906">
        <ele>106.52311532758</ele>
        <time>2021-09-21T14:49:30Z</time>
      </trkpt>
      <trkpt lat="46.54189" lon="0.33903">
        <ele>106.20364064444</ele>
        <time>2021-09-21T14:49:32Z</time>
      </trkpt>
      <trkpt lat="46.54189" lon="0.33899">
        <ele>106.29931137804</ele>
        <time>2021-09-21T14:49:34Z</time>
      </trkpt>
      <trkpt lat="46.54189" lon="0.33895">
        <ele>106.06279168278</ele>
        <time>2021-09-21T14:49:36Z</time>
      </trkpt>
      <trkpt lat="46.54188" lon="0.33891">
        <ele>105.87074744422</ele>
        <time>2021-09-21T14:49:38Z</time>
      </trkpt>
      <trkpt lat="46.54187" lon="0.33887">
        <ele>105.80935120303</ele>
        <time>2021-09-21T14:49:40Z</time>
      </trkpt>
      <trkpt lat="46.54187" lon="0.33883">
        <ele>106.05796532705</ele>
        <time>2021-09-21T14:49:42Z</time>
      </trkpt>
      <trkpt lat="46.54186" lon="0.33879">
        <ele>105.89586569276</ele>
        <time>2021-09-21T14:49:44Z</time>
      </trkpt>
      <trkpt lat="46.54186" lon="0.33875">
        <ele>105.95808299538</ele>
        <time>2021-09-21T14:49:46Z</time>
      </trkpt>
      <trkpt lat="46.54185" lon="0.33872">
        <ele>105.86476305407</ele>
        <time>2021-09-21T14:49:48Z</time>
      </trkpt>
      <trkpt lat="46.54185" lon="0.33869">
        <ele>105.823035473</ele>
        <time>2021-09-21T14:49:50Z</time>
      </trkpt>
      <trkpt lat="46.54185" lon="0.33865">
        <ele>105.89255556371</ele>
        <time>2021-09-21T14:49:52Z</time>
      </trkpt>
      <trkpt lat="46.54184" lon="0.33861">
        <ele>105.85130984429</ele>
        <time>2021-09-21T14:49:54Z</time>
      </trkpt>
      <trkpt lat="46.54183" lon="0.33858">
        <ele>105.76673607714</ele>
        <time>2021-09-21T14:49:56Z</time>
      </trkpt>
      <trkpt lat="46.54184" lon="0.33854">
        <ele>106.37505790871</ele>
        <time>2021-09-21T14:49:58Z</time>
      </trkpt>
      <trkpt lat="46.54183" lon="0.33852">
        <ele>106.43757104874</ele>
        <time>2021-09-21T14:50:01Z</time>
      </trkpt>
      <trkpt lat="46.54185" lon="0.33851">
        <ele>107.29518971965</ele>
        <time>2021-09-21T14:50:07Z</time>
      </trkpt>
      <trkpt lat="46.54184" lon="0.33851">
        <ele>107.18764713593</ele>
        <time>2021-09-21T14:50:10Z</time>
      </trkpt>
      <trkpt lat="46.54186" lon="0.33851">
        <ele>107.50271966588</ele>
        <time>2021-09-21T14:50:32Z</time>
      </trkpt>
      <trkpt lat="46.54188" lon="0.33853">
        <ele>107.94194394629</ele>
        <time>2021-09-21T14:50:47Z</time>
      </trkpt>
      <trkpt lat="46.54186" lon="0.33852">
        <ele>108.47742085531</ele>
        <time>2021-09-21T14:51:07Z</time>
      </trkpt>
      <trkpt lat="46.54184" lon="0.33851">
        <ele>108.17037068028</ele>
        <time>2021-09-21T14:51:12Z</time>
      </trkpt>
      <trkpt lat="46.54185" lon="0.3385">
        <ele>107.11386119388</ele>
        <time>2021-09-21T14:51:20Z</time>
      </trkpt>
      <trkpt lat="46.54187" lon="0.3385">
        <ele>107.89201772027</ele>
        <time>2021-09-21T14:51:26Z</time>
      </trkpt>
      <trkpt lat="46.54188" lon="0.33846">
        <ele>108.43317859899</ele>
        <time>2021-09-21T14:51:40Z</time>
      </trkpt>
      <trkpt lat="46.54188" lon="0.33843">
        <ele>108.35468010698</ele>
        <time>2021-09-21T14:51:42Z</time>
      </trkpt>
      <trkpt lat="46.54188" lon="0.3384">
        <ele>108.68155281059</ele>
        <time>2021-09-21T14:51:44Z</time>
      </trkpt>
      <trkpt lat="46.54187" lon="0.33838">
        <ele>108.55682196002</ele>
        <time>2021-09-21T14:51:47Z</time>
      </trkpt>
      <trkpt lat="46.54186" lon="0.33835">
        <ele>108.73048288561</ele>
        <time>2021-09-21T14:51:49Z</time>
      </trkpt>
      <trkpt lat="46.54187" lon="0.33832">
        <ele>108.99626326095</ele>
        <time>2021-09-21T14:51:51Z</time>
      </trkpt>
      <trkpt lat="46.54187" lon="0.33829">
        <ele>108.93336924538</ele>
        <time>2021-09-21T14:51:53Z</time>
      </trkpt>
      <trkpt lat="46.54189" lon="0.33825">
        <ele>109.42407213897</ele>
        <time>2021-09-21T14:51:56Z</time>
      </trkpt>
      <trkpt lat="46.54189" lon="0.33821">
        <ele>109.77847663499</ele>
        <time>2021-09-21T14:51:58Z</time>
      </trkpt>
      <trkpt lat="46.54189" lon="0.33818">
        <ele>110.52701061685</ele>
        <time>2021-09-21T14:52:00Z</time>
      </trkpt>
      <trkpt lat="46.5419" lon="0.33814">
        <ele>110.00014348514</ele>
        <time>2021-09-21T14:52:02Z</time>
      </trkpt>
      <trkpt lat="46.54191" lon="0.33811">
        <ele>110.28826098982</ele>
        <time>2021-09-21T14:52:04Z</time>
      </trkpt>
      <trkpt lat="46.54191" lon="0.33807">
        <ele>110.5544278305</ele>
        <time>2021-09-21T14:52:06Z</time>
      </trkpt>
      <trkpt lat="46.54192" lon="0.33804">
        <ele>111.04492846597</ele>
        <time>2021-09-21T14:52:08Z</time>
      </trkpt>
      <trkpt lat="46.54192" lon="0.338">
        <ele>111.11861121189</ele>
        <time>2021-09-21T14:52:10Z</time>
      </trkpt>
      <trkpt lat="46.54193" lon="0.33797">
        <ele>111.6997360792</ele>
        <time>2021-09-21T14:52:12Z</time>
      </trkpt>
      <trkpt lat="46.54193" lon="0.33793">
        <ele>111.68732571509</ele>
        <time>2021-09-21T14:52:14Z</time>
      </trkpt>
      <trkpt lat="46.54195" lon="0.3379">
        <ele>111.91872602422</ele>
        <time>2021-09-21T14:52:16Z</time>
      </trkpt>
      <trkpt lat="46.54195" lon="0.33786">
        <ele>112.11149033345</ele>
        <time>2021-09-21T14:52:18Z</time>
      </trkpt>
      <trkpt lat="46.54197" lon="0.33784">
        <ele>112.03366009612</ele>
        <time>2021-09-21T14:52:20Z</time>
      </trkpt>
      <trkpt lat="46.54199" lon="0.3378">
        <ele>112.19640459772</ele>
        <time>2021-09-21T14:52:22Z</time>
      </trkpt>
      <trkpt lat="46.54199" lon="0.33777">
        <ele>112.08429214638</ele>
        <time>2021-09-21T14:52:24Z</time>
      </trkpt>
      <trkpt lat="46.542" lon="0.33773">
        <ele>111.99275120441</ele>
        <time>2021-09-21T14:52:26Z</time>
      </trkpt>
      <trkpt lat="46.54201" lon="0.3377">
        <ele>112.11116053257</ele>
        <time>2021-09-21T14:52:28Z</time>
      </trkpt>
      <trkpt lat="46.54203" lon="0.33768">
        <ele>112.5166796688</ele>
        <time>2021-09-21T14:52:30Z</time>
      </trkpt>
      <trkpt lat="46.54204" lon="0.33765">
        <ele>112.05942589231</ele>
        <time>2021-09-21T14:52:32Z</time>
      </trkpt>
      <trkpt lat="46.54204" lon="0.33762">
        <ele>111.2200220637</ele>
        <time>2021-09-21T14:52:34Z</time>
      </trkpt>
      <trkpt lat="46.54205" lon="0.3376">
        <ele>111.47705334704</ele>
        <time>2021-09-21T14:52:35Z</time>
      </trkpt>
      <trkpt lat="46.54206" lon="0.33756">
        <ele>111.47527440451</ele>
        <time>2021-09-21T14:52:37Z</time>
      </trkpt>
      <trkpt lat="46.54207" lon="0.33753">
        <ele>111.88265727274</ele>
        <time>2021-09-21T14:52:39Z</time>
      </trkpt>
      <trkpt lat="46.54209" lon="0.3375">
        <ele>111.40384788346</ele>
        <time>2021-09-21T14:52:41Z</time>
      </trkpt>
      <trkpt lat="46.5421" lon="0.33747">
        <ele>111.15510458685</ele>
        <time>2021-09-21T14:52:43Z</time>
      </trkpt>
      <trkpt lat="46.5421" lon="0.33743">
        <ele>111.29839932919</ele>
        <time>2021-09-21T14:52:45Z</time>
      </trkpt>
      <trkpt lat="46.54212" lon="0.33741">
        <ele>111.18103185855</ele>
        <time>2021-09-21T14:52:47Z</time>
      </trkpt>
      <trkpt lat="46.54213" lon="0.33738">
        <ele>111.58456012979</ele>
        <time>2021-09-21T14:52:49Z</time>
      </trkpt>
      <trkpt lat="46.54214" lon="0.33734">
        <ele>111.06933634542</ele>
        <time>2021-09-21T14:52:51Z</time>
      </trkpt>
      <trkpt lat="46.54216" lon="0.33731">
        <ele>111.01400412526</ele>
        <time>2021-09-21T14:52:53Z</time>
      </trkpt>
      <trkpt lat="46.54217" lon="0.33728">
        <ele>111.06183025613</ele>
        <time>2021-09-21T14:52:55Z</time>
      </trkpt>
      <trkpt lat="46.54219" lon="0.33726">
        <ele>110.39524718933</ele>
        <time>2021-09-21T14:52:57Z</time>
      </trkpt>
      <trkpt lat="46.54221" lon="0.33724">
        <ele>110.73284116667</ele>
        <time>2021-09-21T14:52:59Z</time>
      </trkpt>
      <trkpt lat="46.54222" lon="0.33722">
        <ele>110.89732537046</ele>
        <time>2021-09-21T14:53:01Z</time>
      </trkpt>
      <trkpt lat="46.54224" lon="0.33721">
        <ele>111.70030532684</ele>
        <time>2021-09-21T14:53:03Z</time>
      </trkpt>
      <trkpt lat="46.54226" lon="0.3372">
        <ele>112.04246684443</ele>
        <time>2021-09-21T14:53:05Z</time>
      </trkpt>
      <trkpt lat="46.54228" lon="0.33718">
        <ele>111.77650498506</ele>
        <time>2021-09-21T14:53:07Z</time>
      </trkpt>
      <trkpt lat="46.5423" lon="0.33715">
        <ele>111.02788338251</ele>
        <time>2021-09-21T14:53:09Z</time>
      </trkpt>
      <trkpt lat="46.54232" lon="0.33712">
        <ele>110.31876880955</ele>
        <time>2021-09-21T14:53:11Z</time>
      </trkpt>
      <trkpt lat="46.54234" lon="0.33709">
        <ele>110.04841563012</ele>
        <time>2021-09-21T14:53:13Z</time>
      </trkpt>
      <trkpt lat="46.54236" lon="0.33707">
        <ele>109.45230678935</ele>
        <time>2021-09-21T14:53:15Z</time>
      </trkpt>
      <trkpt lat="46.54237" lon="0.33704">
        <ele>109.45831651241</ele>
        <time>2021-09-21T14:53:17Z</time>
      </trkpt>
      <trkpt lat="46.5424" lon="0.33702">
        <ele>108.99604750331</ele>
        <time>2021-09-21T14:53:19Z</time>
      </trkpt>
      <trkpt lat="46.54242" lon="0.337">
        <ele>109.02476240322</ele>
        <time>2021-09-21T14:53:21Z</time>
      </trkpt>
      <trkpt lat="46.54244" lon="0.33698">
        <ele>108.67850015871</ele>
        <time>2021-09-21T14:53:23Z</time>
      </trkpt>
      <trkpt lat="46.54245" lon="0.33694">
        <ele>108.41976485495</ele>
        <time>2021-09-21T14:53:25Z</time>
      </trkpt>
      <trkpt lat="46.54248" lon="0.33692">
        <ele>108.87608364504</ele>
        <time>2021-09-21T14:53:27Z</time>
      </trkpt>
      <trkpt lat="46.5425" lon="0.3369">
        <ele>108.29372560605</ele>
        <time>2021-09-21T14:53:29Z</time>
      </trkpt>
      <trkpt lat="46.54252" lon="0.33689">
        <ele>108.73033060413</ele>
        <time>2021-09-21T14:53:31Z</time>
      </trkpt>
      <trkpt lat="46.54254" lon="0.33687">
        <ele>108.07775194012</ele>
        <time>2021-09-21T14:53:33Z</time>
      </trkpt>
      <trkpt lat="46.54256" lon="0.33685">
        <ele>107.88944395352</ele>
        <time>2021-09-21T14:53:35Z</time>
      </trkpt>
      <trkpt lat="46.54259" lon="0.33683">
        <ele>107.9208811447</ele>
        <time>2021-09-21T14:53:37Z</time>
      </trkpt>
      <trkpt lat="46.54261" lon="0.33681">
        <ele>107.70349962171</ele>
        <time>2021-09-21T14:53:39Z</time>
      </trkpt>
      <trkpt lat="46.54262" lon="0.33679">
        <ele>106.77036926616</ele>
        <time>2021-09-21T14:53:41Z</time>
      </trkpt>
      <trkpt lat="46.54265" lon="0.33676">
        <ele>106.48748915177</ele>
        <time>2021-09-21T14:53:43Z</time>
      </trkpt>
      <trkpt lat="46.54267" lon="0.33675">
        <ele>106.43863191362</ele>
        <time>2021-09-21T14:53:45Z</time>
      </trkpt>
      <trkpt lat="46.54269" lon="0.33672">
        <ele>106.23583917227</ele>
        <time>2021-09-21T14:53:47Z</time>
      </trkpt>
      <trkpt lat="46.5427" lon="0.33671">
        <ele>106.42085989565</ele>
        <time>2021-09-21T14:53:48Z</time>
      </trkpt>
      <trkpt lat="46.54273" lon="0.33669">
        <ele>106.02214564011</ele>
        <time>2021-09-21T14:53:50Z</time>
      </trkpt>
      <trkpt lat="46.54274" lon="0.33667">
        <ele>105.72820935026</ele>
        <time>2021-09-21T14:53:52Z</time>
      </trkpt>
      <trkpt lat="46.54276" lon="0.33665">
        <ele>105.6101907026</ele>
        <time>2021-09-21T14:53:54Z</time>
      </trkpt>
      <trkpt lat="46.54278" lon="0.33664">
        <ele>105.61316356342</ele>
        <time>2021-09-21T14:53:56Z</time>
      </trkpt>
      <trkpt lat="46.54281" lon="0.33662">
        <ele>105.14214303996</ele>
        <time>2021-09-21T14:53:58Z</time>
      </trkpt>
      <trkpt lat="46.54283" lon="0.3366">
        <ele>105.11610431876</ele>
        <time>2021-09-21T14:54:00Z</time>
      </trkpt>
      <trkpt lat="46.54285" lon="0.33659">
        <ele>105.15299195051</ele>
        <time>2021-09-21T14:54:02Z</time>
      </trkpt>
      <trkpt lat="46.54288" lon="0.33657">
        <ele>105.14308632445</ele>
        <time>2021-09-21T14:54:04Z</time>
      </trkpt>
      <trkpt lat="46.5429" lon="0.33656">
        <ele>104.56758716889</ele>
        <time>2021-09-21T14:54:06Z</time>
      </trkpt>
      <trkpt lat="46.54292" lon="0.33653">
        <ele>104.21156852506</ele>
        <time>2021-09-21T14:54:08Z</time>
      </trkpt>
      <trkpt lat="46.54293" lon="0.33652">
        <ele>104.40683066286</ele>
        <time>2021-09-21T14:54:10Z</time>
      </trkpt>
      <trkpt lat="46.54296" lon="0.33649">
        <ele>104.1343186358</ele>
        <time>2021-09-21T14:54:12Z</time>
      </trkpt>
      <trkpt lat="46.54298" lon="0.33647">
        <ele>104.22437839583</ele>
        <time>2021-09-21T14:54:14Z</time>
      </trkpt>
      <trkpt lat="46.543" lon="0.33646">
        <ele>104.11533062905</ele>
        <time>2021-09-21T14:54:16Z</time>
      </trkpt>
      <trkpt lat="46.54302" lon="0.33645">
        <ele>103.1025532214</ele>
        <time>2021-09-21T14:54:18Z</time>
      </trkpt>
      <trkpt lat="46.54303" lon="0.33643">
        <ele>103.19521290343</ele>
        <time>2021-09-21T14:54:20Z</time>
      </trkpt>
      <trkpt lat="46.54305" lon="0.33643">
        <ele>103.44575147144</ele>
        <time>2021-09-21T14:54:22Z</time>
      </trkpt>
      <trkpt lat="46.54308" lon="0.3364">
        <ele>103.09220846556</ele>
        <time>2021-09-21T14:54:24Z</time>
      </trkpt>
      <trkpt lat="46.54311" lon="0.33638">
        <ele>102.85060212016</ele>
        <time>2021-09-21T14:54:26Z</time>
      </trkpt>
      <trkpt lat="46.54313" lon="0.33635">
        <ele>102.70940585248</ele>
        <time>2021-09-21T14:54:28Z</time>
      </trkpt>
      <trkpt lat="46.54315" lon="0.33633">
        <ele>102.36489210557</ele>
        <time>2021-09-21T14:54:30Z</time>
      </trkpt>
      <trkpt lat="46.54317" lon="0.33631">
        <ele>102.11584284995</ele>
        <time>2021-09-21T14:54:32Z</time>
      </trkpt>
      <trkpt lat="46.54319" lon="0.33629">
        <ele>101.75033708662</ele>
        <time>2021-09-21T14:54:34Z</time>
      </trkpt>
      <trkpt lat="46.54321" lon="0.33628">
        <ele>101.82888867427</ele>
        <time>2021-09-21T14:54:36Z</time>
      </trkpt>
      <trkpt lat="46.54324" lon="0.33626">
        <ele>101.36026890483</ele>
        <time>2021-09-21T14:54:38Z</time>
      </trkpt>
      <trkpt lat="46.54326" lon="0.33624">
        <ele>101.11922140513</ele>
        <time>2021-09-21T14:54:40Z</time>
      </trkpt>
      <trkpt lat="46.54328" lon="0.33622">
        <ele>100.7748675039</ele>
        <time>2021-09-21T14:54:42Z</time>
      </trkpt>
      <trkpt lat="46.5433" lon="0.33621">
        <ele>100.75143185258</ele>
        <time>2021-09-21T14:54:44Z</time>
      </trkpt>
      <trkpt lat="46.54332" lon="0.3362">
        <ele>100.338811744</ele>
        <time>2021-09-21T14:54:46Z</time>
      </trkpt>
      <trkpt lat="46.54334" lon="0.33618">
        <ele>100.79260187875</ele>
        <time>2021-09-21T14:54:48Z</time>
      </trkpt>
      <trkpt lat="46.54336" lon="0.33617">
        <ele>100.5633668201</ele>
        <time>2021-09-21T14:54:50Z</time>
      </trkpt>
      <trkpt lat="46.54339" lon="0.33617">
        <ele>100.60903678183</ele>
        <time>2021-09-21T14:54:52Z</time>
      </trkpt>
      <trkpt lat="46.54341" lon="0.33617">
        <ele>100.68971037492</ele>
        <time>2021-09-21T14:54:54Z</time>
      </trkpt>
      <trkpt lat="46.54344" lon="0.33617">
        <ele>100.38226928469</ele>
        <time>2021-09-21T14:54:56Z</time>
      </trkpt>
      <trkpt lat="46.54347" lon="0.33617">
        <ele>100.60396679398</ele>
        <time>2021-09-21T14:54:58Z</time>
      </trkpt>
      <trkpt lat="46.54349" lon="0.33618">
        <ele>100.11567088123</ele>
        <time>2021-09-21T14:55:00Z</time>
      </trkpt>
      <trkpt lat="46.54351" lon="0.33618">
        <ele>100.3224600656</ele>
        <time>2021-09-21T14:55:02Z</time>
      </trkpt>
      <trkpt lat="46.54353" lon="0.33618">
        <ele>100.27859516535</ele>
        <time>2021-09-21T14:55:04Z</time>
      </trkpt>
      <trkpt lat="46.54356" lon="0.33618">
        <ele>99.741778466851</ele>
        <time>2021-09-21T14:55:06Z</time>
      </trkpt>
      <trkpt lat="46.54358" lon="0.33618">
        <ele>99.588676528074</ele>
        <time>2021-09-21T14:55:08Z</time>
      </trkpt>
      <trkpt lat="46.54361" lon="0.33618">
        <ele>99.976963575929</ele>
        <time>2021-09-21T14:55:10Z</time>
      </trkpt>
      <trkpt lat="46.54363" lon="0.33618">
        <ele>99.854955084622</ele>
        <time>2021-09-21T14:55:12Z</time>
      </trkpt>
      <trkpt lat="46.54366" lon="0.33618">
        <ele>99.867520015687</ele>
        <time>2021-09-21T14:55:14Z</time>
      </trkpt>
      <trkpt lat="46.54368" lon="0.33618">
        <ele>99.563542777672</ele>
        <time>2021-09-21T14:55:16Z</time>
      </trkpt>
      <trkpt lat="46.54371" lon="0.33618">
        <ele>100.31370497961</ele>
        <time>2021-09-21T14:55:18Z</time>
      </trkpt>
      <trkpt lat="46.54374" lon="0.33618">
        <ele>99.223371865228</ele>
        <time>2021-09-21T14:55:20Z</time>
      </trkpt>
      <trkpt lat="46.54377" lon="0.33618">
        <ele>99.595972811803</ele>
        <time>2021-09-21T14:55:22Z</time>
      </trkpt>
      <trkpt lat="46.54379" lon="0.33618">
        <ele>99.829219978303</ele>
        <time>2021-09-21T14:55:24Z</time>
      </trkpt>
      <trkpt lat="46.54382" lon="0.33617">
        <ele>99.973758766428</ele>
        <time>2021-09-21T14:55:26Z</time>
      </trkpt>
      <trkpt lat="46.54384" lon="0.33616">
        <ele>100.06662786938</ele>
        <time>2021-09-21T14:55:28Z</time>
      </trkpt>
      <trkpt lat="46.54387" lon="0.33616">
        <ele>99.631475650705</ele>
        <time>2021-09-21T14:55:30Z</time>
      </trkpt>
      <trkpt lat="46.54389" lon="0.33617">
        <ele>99.770819340833</ele>
        <time>2021-09-21T14:55:32Z</time>
      </trkpt>
      <trkpt lat="46.54392" lon="0.33617">
        <ele>99.824701123871</ele>
        <time>2021-09-21T14:55:34Z</time>
      </trkpt>
      <trkpt lat="46.54394" lon="0.33617">
        <ele>100.14321420621</ele>
        <time>2021-09-21T14:55:36Z</time>
      </trkpt>
      <trkpt lat="46.54397" lon="0.33617">
        <ele>99.963653730229</ele>
        <time>2021-09-21T14:55:38Z</time>
      </trkpt>
      <trkpt lat="46.544" lon="0.33617">
        <ele>99.717503628694</ele>
        <time>2021-09-21T14:55:40Z</time>
      </trkpt>
      <trkpt lat="46.54402" lon="0.33617">
        <ele>99.753858757205</ele>
        <time>2021-09-21T14:55:42Z</time>
      </trkpt>
      <trkpt lat="46.54406" lon="0.33617">
        <ele>99.788508190773</ele>
        <time>2021-09-21T14:55:45Z</time>
      </trkpt>
      <trkpt lat="46.54409" lon="0.33617">
        <ele>99.714128155261</ele>
        <time>2021-09-21T14:55:47Z</time>
      </trkpt>
      <trkpt lat="46.54412" lon="0.33617">
        <ele>100.07137270458</ele>
        <time>2021-09-21T14:55:49Z</time>
      </trkpt>
      <trkpt lat="46.54414" lon="0.33616">
        <ele>100.34744829684</ele>
        <time>2021-09-21T14:55:51Z</time>
      </trkpt>
      <trkpt lat="46.54416" lon="0.33616">
        <ele>100.23804581165</ele>
        <time>2021-09-21T14:55:53Z</time>
      </trkpt>
      <trkpt lat="46.54419" lon="0.33617">
        <ele>100.47557463124</ele>
        <time>2021-09-21T14:55:55Z</time>
      </trkpt>
      <trkpt lat="46.54422" lon="0.33618">
        <ele>100.34492344875</ele>
        <time>2021-09-21T14:55:57Z</time>
      </trkpt>
      <trkpt lat="46.54424" lon="0.33618">
        <ele>100.05339419376</ele>
        <time>2021-09-21T14:55:59Z</time>
      </trkpt>
      <trkpt lat="46.54426" lon="0.33618">
        <ele>100.19042268582</ele>
        <time>2021-09-21T14:56:01Z</time>
      </trkpt>
      <trkpt lat="46.54428" lon="0.33618">
        <ele>100.99506875686</ele>
        <time>2021-09-21T14:56:03Z</time>
      </trkpt>
      <trkpt lat="46.54431" lon="0.33618">
        <ele>100.97885102034</ele>
        <time>2021-09-21T14:56:05Z</time>
      </trkpt>
      <trkpt lat="46.54433" lon="0.33618">
        <ele>101.04749045707</ele>
        <time>2021-09-21T14:56:07Z</time>
      </trkpt>
      <trkpt lat="46.54435" lon="0.33618">
        <ele>100.968983748</ele>
        <time>2021-09-21T14:56:09Z</time>
      </trkpt>
      <trkpt lat="46.54437" lon="0.33617">
        <ele>100.78046444058</ele>
        <time>2021-09-21T14:56:11Z</time>
      </trkpt>
      <trkpt lat="46.5444" lon="0.33617">
        <ele>100.90493467823</ele>
        <time>2021-09-21T14:56:13Z</time>
      </trkpt>
      <trkpt lat="46.54442" lon="0.33616">
        <ele>100.85125841852</ele>
        <time>2021-09-21T14:56:15Z</time>
      </trkpt>
      <trkpt lat="46.54444" lon="0.33616">
        <ele>100.82408742234</ele>
        <time>2021-09-21T14:56:17Z</time>
      </trkpt>
      <trkpt lat="46.54447" lon="0.33617">
        <ele>101.00636618678</ele>
        <time>2021-09-21T14:56:19Z</time>
      </trkpt>
      <trkpt lat="46.5445" lon="0.33617">
        <ele>100.83896619733</ele>
        <time>2021-09-21T14:56:21Z</time>
      </trkpt>
      <trkpt lat="46.54452" lon="0.33617">
        <ele>100.97983732261</ele>
        <time>2021-09-21T14:56:23Z</time>
      </trkpt>
      <trkpt lat="46.54455" lon="0.33617">
        <ele>100.99028303754</ele>
        <time>2021-09-21T14:56:25Z</time>
      </trkpt>
      <trkpt lat="46.54457" lon="0.33617">
        <ele>100.72789483052</ele>
        <time>2021-09-21T14:56:27Z</time>
      </trkpt>
      <trkpt lat="46.54459" lon="0.33617">
        <ele>100.9692059001</ele>
        <time>2021-09-21T14:56:29Z</time>
      </trkpt>
      <trkpt lat="46.54462" lon="0.33616">
        <ele>100.90966278315</ele>
        <time>2021-09-21T14:56:31Z</time>
      </trkpt>
      <trkpt lat="46.54464" lon="0.33616">
        <ele>100.78865455184</ele>
        <time>2021-09-21T14:56:33Z</time>
      </trkpt>
      <trkpt lat="46.54466" lon="0.33616">
        <ele>100.940629825</ele>
        <time>2021-09-21T14:56:35Z</time>
      </trkpt>
      <trkpt lat="46.54469" lon="0.33615">
        <ele>100.91793506127</ele>
        <time>2021-09-21T14:56:37Z</time>
      </trkpt>
      <trkpt lat="46.54472" lon="0.33616">
        <ele>100.95240756962</ele>
        <time>2021-09-21T14:56:39Z</time>
      </trkpt>
      <trkpt lat="46.54474" lon="0.33616">
        <ele>100.73143419996</ele>
        <time>2021-09-21T14:56:41Z</time>
      </trkpt>
      <trkpt lat="46.54477" lon="0.33617">
        <ele>101.05278000515</ele>
        <time>2021-09-21T14:56:43Z</time>
      </trkpt>
      <trkpt lat="46.5448" lon="0.33617">
        <ele>100.38332613092</ele>
        <time>2021-09-21T14:56:45Z</time>
      </trkpt>
      <trkpt lat="46.54482" lon="0.33618">
        <ele>100.86575670913</ele>
        <time>2021-09-21T14:56:47Z</time>
      </trkpt>
      <trkpt lat="46.54485" lon="0.33618">
        <ele>100.89647873957</ele>
        <time>2021-09-21T14:56:49Z</time>
      </trkpt>
      <trkpt lat="46.54488" lon="0.33619">
        <ele>100.48970267735</ele>
        <time>2021-09-21T14:56:51Z</time>
      </trkpt>
      <trkpt lat="46.5449" lon="0.33619">
        <ele>100.99828939885</ele>
        <time>2021-09-21T14:56:53Z</time>
      </trkpt>
      <trkpt lat="46.54492" lon="0.3362">
        <ele>101.06108516455</ele>
        <time>2021-09-21T14:56:55Z</time>
      </trkpt>
      <trkpt lat="46.54495" lon="0.3362">
        <ele>101.28334364668</ele>
        <time>2021-09-21T14:56:57Z</time>
      </trkpt>
      <trkpt lat="46.54497" lon="0.33622">
        <ele>101.36630511563</ele>
        <time>2021-09-21T14:56:59Z</time>
      </trkpt>
      <trkpt lat="46.54499" lon="0.33623">
        <ele>101.4841949204</ele>
        <time>2021-09-21T14:57:01Z</time>
      </trkpt>
      <trkpt lat="46.54502" lon="0.33623">
        <ele>101.10229238216</ele>
        <time>2021-09-21T14:57:03Z</time>
      </trkpt>
      <trkpt lat="46.54504" lon="0.33624">
        <ele>101.45908596646</ele>
        <time>2021-09-21T14:57:05Z</time>
      </trkpt>
      <trkpt lat="46.54507" lon="0.33625">
        <ele>101.36096946709</ele>
        <time>2021-09-21T14:57:07Z</time>
      </trkpt>
      <trkpt lat="46.54509" lon="0.33626">
        <ele>101.85894338135</ele>
        <time>2021-09-21T14:57:09Z</time>
      </trkpt>
      <trkpt lat="46.54512" lon="0.33629">
        <ele>101.56435127836</ele>
        <time>2021-09-21T14:57:11Z</time>
      </trkpt>
      <trkpt lat="46.54513" lon="0.33629">
        <ele>101.62908933964</ele>
        <time>2021-09-21T14:57:12Z</time>
      </trkpt>
      <trkpt lat="46.54516" lon="0.33631">
        <ele>101.88085227273</ele>
        <time>2021-09-21T14:57:14Z</time>
      </trkpt>
      <trkpt lat="46.54518" lon="0.33631">
        <ele>101.61953836121</ele>
        <time>2021-09-21T14:57:16Z</time>
      </trkpt>
      <trkpt lat="46.5452" lon="0.33633">
        <ele>101.72337305732</ele>
        <time>2021-09-21T14:57:18Z</time>
      </trkpt>
      <trkpt lat="46.54522" lon="0.33635">
        <ele>101.73877529427</ele>
        <time>2021-09-21T14:57:20Z</time>
      </trkpt>
      <trkpt lat="46.54524" lon="0.33636">
        <ele>101.76764009986</ele>
        <time>2021-09-21T14:57:22Z</time>
      </trkpt>
      <trkpt lat="46.54527" lon="0.33638">
        <ele>102.24589786585</ele>
        <time>2021-09-21T14:57:24Z</time>
      </trkpt>
      <trkpt lat="46.54529" lon="0.33639">
        <ele>102.25712252688</ele>
        <time>2021-09-21T14:57:26Z</time>
      </trkpt>
      <trkpt lat="46.54531" lon="0.3364">
        <ele>102.69858512655</ele>
        <time>2021-09-21T14:57:28Z</time>
      </trkpt>
      <trkpt lat="46.54533" lon="0.33641">
        <ele>102.57542139664</ele>
        <time>2021-09-21T14:57:30Z</time>
      </trkpt>
      <trkpt lat="46.54535" lon="0.33643">
        <ele>102.93490282632</ele>
        <time>2021-09-21T14:57:32Z</time>
      </trkpt>
      <trkpt lat="46.54537" lon="0.33644">
        <ele>102.74403707031</ele>
        <time>2021-09-21T14:57:34Z</time>
      </trkpt>
      <trkpt lat="46.5454" lon="0.33645">
        <ele>103.19902827218</ele>
        <time>2021-09-21T14:57:36Z</time>
      </trkpt>
      <trkpt lat="46.54542" lon="0.33647">
        <ele>102.62553502992</ele>
        <time>2021-09-21T14:57:38Z</time>
      </trkpt>
      <trkpt lat="46.54545" lon="0.33647">
        <ele>102.72304238752</ele>
        <time>2021-09-21T14:57:40Z</time>
      </trkpt>
      <trkpt lat="46.54547" lon="0.33649">
        <ele>103.00440253597</ele>
        <time>2021-09-21T14:57:42Z</time>
      </trkpt>
      <trkpt lat="46.54549" lon="0.33649">
        <ele>103.03455494996</ele>
        <time>2021-09-21T14:57:44Z</time>
      </trkpt>
      <trkpt lat="46.54552" lon="0.33651">
        <ele>103.33171152696</ele>
        <time>2021-09-21T14:57:46Z</time>
      </trkpt>
      <trkpt lat="46.54554" lon="0.33652">
        <ele>103.27577464003</ele>
        <time>2021-09-21T14:57:48Z</time>
      </trkpt>
      <trkpt lat="46.54555" lon="0.33654">
        <ele>103.73977047671</ele>
        <time>2021-09-21T14:57:50Z</time>
      </trkpt>
      <trkpt lat="46.54557" lon="0.33654">
        <ele>103.79430821259</ele>
        <time>2021-09-21T14:57:52Z</time>
      </trkpt>
      <trkpt lat="46.5456" lon="0.33656">
        <ele>103.66598916054</ele>
        <time>2021-09-21T14:57:54Z</time>
      </trkpt>
      <trkpt lat="46.54562" lon="0.33657">
        <ele>103.72689517029</ele>
        <time>2021-09-21T14:57:56Z</time>
      </trkpt>
      <trkpt lat="46.54564" lon="0.33658">
        <ele>103.88222278748</ele>
        <time>2021-09-21T14:57:58Z</time>
      </trkpt>
      <trkpt lat="46.54567" lon="0.3366">
        <ele>103.73124541622</ele>
        <time>2021-09-21T14:58:00Z</time>
      </trkpt>
      <trkpt lat="46.5457" lon="0.3366">
        <ele>103.53938944545</ele>
        <time>2021-09-21T14:58:02Z</time>
      </trkpt>
      <trkpt lat="46.54573" lon="0.33659">
        <ele>103.45458071493</ele>
        <time>2021-09-21T14:58:04Z</time>
      </trkpt>
      <trkpt lat="46.54576" lon="0.33659">
        <ele>103.62474379689</ele>
        <time>2021-09-21T14:58:07Z</time>
      </trkpt>
      <trkpt lat="46.54579" lon="0.33659">
        <ele>103.46150767896</ele>
        <time>2021-09-21T14:58:09Z</time>
      </trkpt>
      <trkpt lat="46.54581" lon="0.33658">
        <ele>103.44154217746</ele>
        <time>2021-09-21T14:58:11Z</time>
      </trkpt>
      <trkpt lat="46.54583" lon="0.33657">
        <ele>103.30662507098</ele>
        <time>2021-09-21T14:58:13Z</time>
      </trkpt>
      <trkpt lat="46.54585" lon="0.33653">
        <ele>103.25694984663</ele>
        <time>2021-09-21T14:58:16Z</time>
      </trkpt>
      <trkpt lat="46.54586" lon="0.33651">
        <ele>102.80146635137</ele>
        <time>2021-09-21T14:58:18Z</time>
      </trkpt>
      <trkpt lat="46.54586" lon="0.33647">
        <ele>102.40591459163</ele>
        <time>2021-09-21T14:58:21Z</time>
      </trkpt>
      <trkpt lat="46.54587" lon="0.33645">
        <ele>101.89896913152</ele>
        <time>2021-09-21T14:58:23Z</time>
      </trkpt>
      <trkpt lat="46.54588" lon="0.33642">
        <ele>101.54663421586</ele>
        <time>2021-09-21T14:58:25Z</time>
      </trkpt>
      <trkpt lat="46.54589" lon="0.3364">
        <ele>101.20966318436</ele>
        <time>2021-09-21T14:58:28Z</time>
      </trkpt>
      <trkpt lat="46.5459" lon="0.33636">
        <ele>100.76620568894</ele>
        <time>2021-09-21T14:58:31Z</time>
      </trkpt>
      <trkpt lat="46.54591" lon="0.33634">
        <ele>100.53517339099</ele>
        <time>2021-09-21T14:58:33Z</time>
      </trkpt>
      <trkpt lat="46.54591" lon="0.33631">
        <ele>100.03912967164</ele>
        <time>2021-09-21T14:58:35Z</time>
      </trkpt>
      <trkpt lat="46.54593" lon="0.33629">
        <ele>100.07068182901</ele>
        <time>2021-09-21T14:58:37Z</time>
      </trkpt>
      <trkpt lat="46.54593" lon="0.33626">
        <ele>99.564059922472</ele>
        <time>2021-09-21T14:58:39Z</time>
      </trkpt>
      <trkpt lat="46.54594" lon="0.33623">
        <ele>99.159256445244</ele>
        <time>2021-09-21T14:58:41Z</time>
      </trkpt>
      <trkpt lat="46.54595" lon="0.3362">
        <ele>98.793166185729</ele>
        <time>2021-09-21T14:58:43Z</time>
      </trkpt>
      <trkpt lat="46.54595" lon="0.33617">
        <ele>98.374463590793</ele>
        <time>2021-09-21T14:58:46Z</time>
      </trkpt>
      <trkpt lat="46.54596" lon="0.33613">
        <ele>97.886956945062</ele>
        <time>2021-09-21T14:58:48Z</time>
      </trkpt>
      <trkpt lat="46.54597" lon="0.3361">
        <ele>97.169847137295</ele>
        <time>2021-09-21T14:58:51Z</time>
      </trkpt>
      <trkpt lat="46.54598" lon="0.33607">
        <ele>96.70374824293</ele>
        <time>2021-09-21T14:58:53Z</time>
      </trkpt>
      <trkpt lat="46.546" lon="0.33606">
        <ele>96.947922756895</ele>
        <time>2021-09-21T14:58:55Z</time>
      </trkpt>
      <trkpt lat="46.54603" lon="0.33605">
        <ele>96.54773121886</ele>
        <time>2021-09-21T14:58:58Z</time>
      </trkpt>
      <trkpt lat="46.54605" lon="0.33607">
        <ele>96.001584106125</ele>
        <time>2021-09-21T14:59:00Z</time>
      </trkpt>
      <trkpt lat="46.54607" lon="0.33609">
        <ele>96.347043318674</ele>
        <time>2021-09-21T14:59:02Z</time>
      </trkpt>
      <trkpt lat="46.54609" lon="0.33611">
        <ele>96.117108382285</ele>
        <time>2021-09-21T14:59:04Z</time>
      </trkpt>
      <trkpt lat="46.5461" lon="0.33613">
        <ele>96.323767276481</ele>
        <time>2021-09-21T14:59:06Z</time>
      </trkpt>
      <trkpt lat="46.54613" lon="0.33615">
        <ele>96.522491184995</ele>
        <time>2021-09-21T14:59:08Z</time>
      </trkpt>
      <trkpt lat="46.54615" lon="0.33617">
        <ele>96.519647932611</ele>
        <time>2021-09-21T14:59:10Z</time>
      </trkpt>
      <trkpt lat="46.54617" lon="0.33619">
        <ele>96.535547299311</ele>
        <time>2021-09-21T14:59:12Z</time>
      </trkpt>
      <trkpt lat="46.54618" lon="0.33621">
        <ele>96.374704717658</ele>
        <time>2021-09-21T14:59:14Z</time>
      </trkpt>
      <trkpt lat="46.5462" lon="0.33622">
        <ele>96.442234411836</ele>
        <time>2021-09-21T14:59:16Z</time>
      </trkpt>
      <trkpt lat="46.54622" lon="0.33624">
        <ele>96.715430965647</ele>
        <time>2021-09-21T14:59:18Z</time>
      </trkpt>
      <trkpt lat="46.54624" lon="0.33626">
        <ele>96.528591746464</ele>
        <time>2021-09-21T14:59:20Z</time>
      </trkpt>
      <trkpt lat="46.54626" lon="0.33627">
        <ele>96.399863553233</ele>
        <time>2021-09-21T14:59:22Z</time>
      </trkpt>
      <trkpt lat="46.54628" lon="0.33631">
        <ele>96.628504521213</ele>
        <time>2021-09-21T14:59:24Z</time>
      </trkpt>
      <trkpt lat="46.5463" lon="0.33633">
        <ele>96.80978098046</ele>
        <time>2021-09-21T14:59:26Z</time>
      </trkpt>
      <trkpt lat="46.54632" lon="0.33635">
        <ele>96.893300101161</ele>
        <time>2021-09-21T14:59:28Z</time>
      </trkpt>
      <trkpt lat="46.54635" lon="0.33637">
        <ele>96.751252121292</ele>
        <time>2021-09-21T14:59:30Z</time>
      </trkpt>
      <trkpt lat="46.54637" lon="0.33639">
        <ele>96.803746785969</ele>
        <time>2021-09-21T14:59:32Z</time>
      </trkpt>
      <trkpt lat="46.54639" lon="0.33641">
        <ele>96.974287335761</ele>
        <time>2021-09-21T14:59:34Z</time>
      </trkpt>
      <trkpt lat="46.54641" lon="0.33643">
        <ele>96.982334420085</ele>
        <time>2021-09-21T14:59:36Z</time>
      </trkpt>
      <trkpt lat="46.54643" lon="0.33644">
        <ele>96.636808981188</ele>
        <time>2021-09-21T14:59:38Z</time>
      </trkpt>
      <trkpt lat="46.54646" lon="0.33645">
        <ele>96.58315492887</ele>
        <time>2021-09-21T14:59:40Z</time>
      </trkpt>
      <trkpt lat="46.54648" lon="0.33646">
        <ele>96.32592851948</ele>
        <time>2021-09-21T14:59:42Z</time>
      </trkpt>
      <trkpt lat="46.5465" lon="0.33647">
        <ele>96.613399161957</ele>
        <time>2021-09-21T14:59:44Z</time>
      </trkpt>
      <trkpt lat="46.54653" lon="0.33647">
        <ele>96.397195305675</ele>
        <time>2021-09-21T14:59:46Z</time>
      </trkpt>
      <trkpt lat="46.54655" lon="0.33648">
        <ele>96.380356774665</ele>
        <time>2021-09-21T14:59:48Z</time>
      </trkpt>
      <trkpt lat="46.54658" lon="0.33649">
        <ele>96.1332833739</ele>
        <time>2021-09-21T14:59:50Z</time>
      </trkpt>
      <trkpt lat="46.54661" lon="0.33649">
        <ele>96.429566458799</ele>
        <time>2021-09-21T14:59:52Z</time>
      </trkpt>
      <trkpt lat="46.54664" lon="0.3365">
        <ele>96.096182431094</ele>
        <time>2021-09-21T14:59:54Z</time>
      </trkpt>
      <trkpt lat="46.54666" lon="0.3365">
        <ele>95.858658244833</ele>
        <time>2021-09-21T14:59:56Z</time>
      </trkpt>
      <trkpt lat="46.54669" lon="0.33649">
        <ele>95.592045514844</ele>
        <time>2021-09-21T14:59:58Z</time>
      </trkpt>
      <trkpt lat="46.54672" lon="0.33649">
        <ele>95.356069388799</ele>
        <time>2021-09-21T15:00:00Z</time>
      </trkpt>
      <trkpt lat="46.54675" lon="0.33649">
        <ele>94.714474673383</ele>
        <time>2021-09-21T15:00:02Z</time>
      </trkpt>
      <trkpt lat="46.54678" lon="0.33648">
        <ele>94.380607528612</ele>
        <time>2021-09-21T15:00:04Z</time>
      </trkpt>
      <trkpt lat="46.5468" lon="0.33647">
        <ele>94.178638762794</ele>
        <time>2021-09-21T15:00:06Z</time>
      </trkpt>
      <trkpt lat="46.54682" lon="0.33647">
        <ele>93.712505980395</ele>
        <time>2021-09-21T15:00:08Z</time>
      </trkpt>
      <trkpt lat="46.54685" lon="0.33648">
        <ele>93.309242565185</ele>
        <time>2021-09-21T15:00:11Z</time>
      </trkpt>
      <trkpt lat="46.54687" lon="0.33647">
        <ele>93.150123993866</ele>
        <time>2021-09-21T15:00:13Z</time>
      </trkpt>
      <trkpt lat="46.54689" lon="0.33646">
        <ele>92.387139405124</ele>
        <time>2021-09-21T15:00:15Z</time>
      </trkpt>
      <trkpt lat="46.54692" lon="0.33644">
        <ele>91.956592837349</ele>
        <time>2021-09-21T15:00:17Z</time>
      </trkpt>
      <trkpt lat="46.54694" lon="0.33642">
        <ele>91.502729839645</ele>
        <time>2021-09-21T15:00:19Z</time>
      </trkpt>
      <trkpt lat="46.54696" lon="0.33641">
        <ele>90.903777686879</ele>
        <time>2021-09-21T15:00:21Z</time>
      </trkpt>
      <trkpt lat="46.54698" lon="0.33639">
        <ele>90.556186517701</ele>
        <time>2021-09-21T15:00:23Z</time>
      </trkpt>
      <trkpt lat="46.54701" lon="0.33637">
        <ele>89.800978420302</ele>
        <time>2021-09-21T15:00:25Z</time>
      </trkpt>
      <trkpt lat="46.54702" lon="0.33635">
        <ele>89.479745360091</ele>
        <time>2021-09-21T15:00:27Z</time>
      </trkpt>
      <trkpt lat="46.54705" lon="0.33634">
        <ele>89.485537024215</ele>
        <time>2021-09-21T15:00:29Z</time>
      </trkpt>
      <trkpt lat="46.54707" lon="0.33632">
        <ele>88.817210978828</ele>
        <time>2021-09-21T15:00:31Z</time>
      </trkpt>
      <trkpt lat="46.5471" lon="0.3363">
        <ele>87.872999687679</ele>
        <time>2021-09-21T15:00:34Z</time>
      </trkpt>
      <trkpt lat="46.54713" lon="0.33628">
        <ele>86.800561169162</ele>
        <time>2021-09-21T15:00:36Z</time>
      </trkpt>
      <trkpt lat="46.54714" lon="0.33626">
        <ele>86.688076172955</ele>
        <time>2021-09-21T15:00:38Z</time>
      </trkpt>
      <trkpt lat="46.54716" lon="0.33624">
        <ele>86.09416893404</ele>
        <time>2021-09-21T15:00:40Z</time>
      </trkpt>
      <trkpt lat="46.54718" lon="0.33621">
        <ele>85.645440383814</ele>
        <time>2021-09-21T15:00:42Z</time>
      </trkpt>
      <trkpt lat="46.5472" lon="0.3362">
        <ele>85.217253809795</ele>
        <time>2021-09-21T15:00:44Z</time>
      </trkpt>
      <trkpt lat="46.54722" lon="0.33617">
        <ele>85.323796265759</ele>
        <time>2021-09-21T15:00:46Z</time>
      </trkpt>
      <trkpt lat="46.54724" lon="0.33614">
        <ele>84.571407509036</ele>
        <time>2021-09-21T15:00:48Z</time>
      </trkpt>
      <trkpt lat="46.54726" lon="0.33611">
        <ele>84.372789097019</ele>
        <time>2021-09-21T15:00:50Z</time>
      </trkpt>
      <trkpt lat="46.54728" lon="0.33608">
        <ele>83.587942654267</ele>
        <time>2021-09-21T15:00:52Z</time>
      </trkpt>
      <trkpt lat="46.5473" lon="0.33605">
        <ele>83.988457946107</ele>
        <time>2021-09-21T15:00:54Z</time>
      </trkpt>
      <trkpt lat="46.54731" lon="0.33602">
        <ele>83.763890677132</ele>
        <time>2021-09-21T15:00:56Z</time>
      </trkpt>
      <trkpt lat="46.54733" lon="0.33597">
        <ele>84.072631822899</ele>
        <time>2021-09-21T15:00:59Z</time>
      </trkpt>
      <trkpt lat="46.54735" lon="0.33594">
        <ele>84.182291886769</ele>
        <time>2021-09-21T15:01:01Z</time>
      </trkpt>
      <trkpt lat="46.54736" lon="0.33592">
        <ele>84.989508803003</ele>
        <time>2021-09-21T15:01:03Z</time>
      </trkpt>
      <trkpt lat="46.54737" lon="0.33589">
        <ele>85.406969463453</ele>
        <time>2021-09-21T15:01:05Z</time>
      </trkpt>
      <trkpt lat="46.54739" lon="0.33586">
        <ele>85.711004259065</ele>
        <time>2021-09-21T15:01:07Z</time>
      </trkpt>
      <trkpt lat="46.5474" lon="0.33583">
        <ele>85.722665594891</ele>
        <time>2021-09-21T15:01:09Z</time>
      </trkpt>
      <trkpt lat="46.54742" lon="0.3358">
        <ele>85.909065523185</ele>
        <time>2021-09-21T15:01:11Z</time>
      </trkpt>
      <trkpt lat="46.54744" lon="0.33577">
        <ele>86.424641271122</ele>
        <time>2021-09-21T15:01:13Z</time>
      </trkpt>
      <trkpt lat="46.54745" lon="0.33574">
        <ele>86.594946776517</ele>
        <time>2021-09-21T15:01:15Z</time>
      </trkpt>
      <trkpt lat="46.54747" lon="0.33571">
        <ele>86.194159839302</ele>
        <time>2021-09-21T15:01:17Z</time>
      </trkpt>
      <trkpt lat="46.54748" lon="0.33567">
        <ele>86.043144400232</ele>
        <time>2021-09-21T15:01:19Z</time>
      </trkpt>
      <trkpt lat="46.54749" lon="0.33564">
        <ele>85.85213690158</ele>
        <time>2021-09-21T15:01:21Z</time>
      </trkpt>
      <trkpt lat="46.54751" lon="0.33562">
        <ele>85.773588844575</ele>
        <time>2021-09-21T15:01:23Z</time>
      </trkpt>
      <trkpt lat="46.54752" lon="0.33558">
        <ele>85.503448044881</ele>
        <time>2021-09-21T15:01:25Z</time>
      </trkpt>
      <trkpt lat="46.54754" lon="0.33556">
        <ele>85.194546096027</ele>
        <time>2021-09-21T15:01:28Z</time>
      </trkpt>
      <trkpt lat="46.54756" lon="0.33552">
        <ele>84.77520265989</ele>
        <time>2021-09-21T15:01:30Z</time>
      </trkpt>
      <trkpt lat="46.54757" lon="0.3355">
        <ele>84.510356998071</ele>
        <time>2021-09-21T15:01:32Z</time>
      </trkpt>
      <trkpt lat="46.5476" lon="0.33547">
        <ele>84.083846499212</ele>
        <time>2021-09-21T15:01:34Z</time>
      </trkpt>
      <trkpt lat="46.54761" lon="0.33544">
        <ele>83.538467352279</ele>
        <time>2021-09-21T15:01:36Z</time>
      </trkpt>
      <trkpt lat="46.54763" lon="0.33542">
        <ele>83.235570759512</ele>
        <time>2021-09-21T15:01:38Z</time>
      </trkpt>
      <trkpt lat="46.54765" lon="0.33539">
        <ele>82.5305312993</ele>
        <time>2021-09-21T15:01:40Z</time>
      </trkpt>
      <trkpt lat="46.54766" lon="0.33537">
        <ele>82.226609157398</ele>
        <time>2021-09-21T15:01:42Z</time>
      </trkpt>
      <trkpt lat="46.54767" lon="0.33534">
        <ele>81.8535382431</ele>
        <time>2021-09-21T15:01:44Z</time>
      </trkpt>
      <trkpt lat="46.54769" lon="0.33532">
        <ele>81.651815369725</ele>
        <time>2021-09-21T15:01:46Z</time>
      </trkpt>
      <trkpt lat="46.5477" lon="0.33529">
        <ele>80.900277303532</ele>
        <time>2021-09-21T15:01:52Z</time>
      </trkpt>
      <trkpt lat="46.54771" lon="0.33528">
        <ele>79.701794591732</ele>
        <time>2021-09-21T15:01:54Z</time>
      </trkpt>
      <trkpt lat="46.54773" lon="0.33525">
        <ele>80.034927899018</ele>
        <time>2021-09-21T15:01:56Z</time>
      </trkpt>
      <trkpt lat="46.54774" lon="0.33522">
        <ele>79.625210896134</ele>
        <time>2021-09-21T15:01:59Z</time>
      </trkpt>
      <trkpt lat="46.54776" lon="0.33519">
        <ele>79.299802587368</ele>
        <time>2021-09-21T15:02:01Z</time>
      </trkpt>
      <trkpt lat="46.54777" lon="0.33516">
        <ele>79.526149937883</ele>
        <time>2021-09-21T15:02:03Z</time>
      </trkpt>
      <trkpt lat="46.54779" lon="0.33514">
        <ele>79.20025294926</ele>
        <time>2021-09-21T15:02:05Z</time>
      </trkpt>
      <trkpt lat="46.5478" lon="0.33512">
        <ele>78.980544299819</ele>
        <time>2021-09-21T15:02:07Z</time>
      </trkpt>
      <trkpt lat="46.54782" lon="0.33509">
        <ele>78.677673072554</ele>
        <time>2021-09-21T15:02:09Z</time>
      </trkpt>
      <trkpt lat="46.54783" lon="0.33507">
        <ele>78.451168039814</ele>
        <time>2021-09-21T15:02:11Z</time>
      </trkpt>
      <trkpt lat="46.54784" lon="0.33505">
        <ele>78.199894824997</ele>
        <time>2021-09-21T15:02:13Z</time>
      </trkpt>
      <trkpt lat="46.54786" lon="0.33502">
        <ele>78.281310790218</ele>
        <time>2021-09-21T15:02:15Z</time>
      </trkpt>
      <trkpt lat="46.54787" lon="0.335">
        <ele>78.21792858839</ele>
        <time>2021-09-21T15:02:17Z</time>
      </trkpt>
      <trkpt lat="46.54789" lon="0.33496">
        <ele>77.737262650393</ele>
        <time>2021-09-21T15:02:19Z</time>
      </trkpt>
      <trkpt lat="46.54791" lon="0.33493">
        <ele>77.647090646438</ele>
        <time>2021-09-21T15:02:21Z</time>
      </trkpt>
      <trkpt lat="46.54792" lon="0.33491">
        <ele>77.362076348625</ele>
        <time>2021-09-21T15:02:23Z</time>
      </trkpt>
      <trkpt lat="46.54794" lon="0.33488">
        <ele>77.330050121062</ele>
        <time>2021-09-21T15:02:25Z</time>
      </trkpt>
      <trkpt lat="46.54795" lon="0.33485">
        <ele>77.280157812871</ele>
        <time>2021-09-21T15:02:27Z</time>
      </trkpt>
      <trkpt lat="46.54797" lon="0.33482">
        <ele>77.621804041788</ele>
        <time>2021-09-21T15:02:29Z</time>
      </trkpt>
      <trkpt lat="46.54798" lon="0.33479">
        <ele>77.820473359898</ele>
        <time>2021-09-21T15:02:31Z</time>
      </trkpt>
      <trkpt lat="46.548" lon="0.33476">
        <ele>77.433141863905</ele>
        <time>2021-09-21T15:02:33Z</time>
      </trkpt>
      <trkpt lat="46.54801" lon="0.33473">
        <ele>77.170353609137</ele>
        <time>2021-09-21T15:02:35Z</time>
      </trkpt>
      <trkpt lat="46.54803" lon="0.3347">
        <ele>76.673159517348</ele>
        <time>2021-09-21T15:02:37Z</time>
      </trkpt>
      <trkpt lat="46.54804" lon="0.33467">
        <ele>76.801161630079</ele>
        <time>2021-09-21T15:02:39Z</time>
      </trkpt>
      <trkpt lat="46.54806" lon="0.33465">
        <ele>76.809642048553</ele>
        <time>2021-09-21T15:02:41Z</time>
      </trkpt>
      <trkpt lat="46.54808" lon="0.33462">
        <ele>76.657414118759</ele>
        <time>2021-09-21T15:02:43Z</time>
      </trkpt>
      <trkpt lat="46.54809" lon="0.33459">
        <ele>77.353018979542</ele>
        <time>2021-09-21T15:02:45Z</time>
      </trkpt>
      <trkpt lat="46.54811" lon="0.33456">
        <ele>76.99633277487</ele>
        <time>2021-09-21T15:02:47Z</time>
      </trkpt>
      <trkpt lat="46.54812" lon="0.33453">
        <ele>76.893245390616</ele>
        <time>2021-09-21T15:02:49Z</time>
      </trkpt>
      <trkpt lat="46.54813" lon="0.33451">
        <ele>77.116706965491</ele>
        <time>2021-09-21T15:02:50Z</time>
      </trkpt>
      <trkpt lat="46.54814" lon="0.33449">
        <ele>76.725911010057</ele>
        <time>2021-09-21T15:02:52Z</time>
      </trkpt>
      <trkpt lat="46.54815" lon="0.33446">
        <ele>76.604047127068</ele>
        <time>2021-09-21T15:02:54Z</time>
      </trkpt>
      <trkpt lat="46.54817" lon="0.33443">
        <ele>76.593257328495</ele>
        <time>2021-09-21T15:02:56Z</time>
      </trkpt>
      <trkpt lat="46.54818" lon="0.3344">
        <ele>76.262508091517</ele>
        <time>2021-09-21T15:02:58Z</time>
      </trkpt>
      <trkpt lat="46.5482" lon="0.33438">
        <ele>77.052306179889</ele>
        <time>2021-09-21T15:03:00Z</time>
      </trkpt>
      <trkpt lat="46.54821" lon="0.33435">
        <ele>76.768052573316</ele>
        <time>2021-09-21T15:03:02Z</time>
      </trkpt>
      <trkpt lat="46.54823" lon="0.33432">
        <ele>76.49866247084</ele>
        <time>2021-09-21T15:03:04Z</time>
      </trkpt>
      <trkpt lat="46.54824" lon="0.33428">
        <ele>76.708335725591</ele>
        <time>2021-09-21T15:03:06Z</time>
      </trkpt>
      <trkpt lat="46.54826" lon="0.33426">
        <ele>76.585699427873</ele>
        <time>2021-09-21T15:03:08Z</time>
      </trkpt>
      <trkpt lat="46.54827" lon="0.33423">
        <ele>76.518276562914</ele>
        <time>2021-09-21T15:03:10Z</time>
      </trkpt>
      <trkpt lat="46.54829" lon="0.3342">
        <ele>76.542951774783</ele>
        <time>2021-09-21T15:03:12Z</time>
      </trkpt>
      <trkpt lat="46.5483" lon="0.33417">
        <ele>77.061549980193</ele>
        <time>2021-09-21T15:03:14Z</time>
      </trkpt>
      <trkpt lat="46.54832" lon="0.33415">
        <ele>77.012411083095</ele>
        <time>2021-09-21T15:03:16Z</time>
      </trkpt>
      <trkpt lat="46.54834" lon="0.33412">
        <ele>76.619985172525</ele>
        <time>2021-09-21T15:03:18Z</time>
      </trkpt>
      <trkpt lat="46.54836" lon="0.3341">
        <ele>76.523156320676</ele>
        <time>2021-09-21T15:03:20Z</time>
      </trkpt>
      <trkpt lat="46.54838" lon="0.33407">
        <ele>76.934442115016</ele>
        <time>2021-09-21T15:03:22Z</time>
      </trkpt>
      <trkpt lat="46.54839" lon="0.33405">
        <ele>76.573978879489</ele>
        <time>2021-09-21T15:03:24Z</time>
      </trkpt>
      <trkpt lat="46.54841" lon="0.33402">
        <ele>76.939519463107</ele>
        <time>2021-09-21T15:03:26Z</time>
      </trkpt>
      <trkpt lat="46.54843" lon="0.33399">
        <ele>76.677588227205</ele>
        <time>2021-09-21T15:03:28Z</time>
      </trkpt>
      <trkpt lat="46.54845" lon="0.33397">
        <ele>75.974462685175</ele>
        <time>2021-09-21T15:03:30Z</time>
      </trkpt>
      <trkpt lat="46.54846" lon="0.33395">
        <ele>76.084525978193</ele>
        <time>2021-09-21T15:03:32Z</time>
      </trkpt>
      <trkpt lat="46.54849" lon="0.33392">
        <ele>76.352079872042</ele>
        <time>2021-09-21T15:03:35Z</time>
      </trkpt>
      <trkpt lat="46.5485" lon="0.33391">
        <ele>76.32598625496</ele>
        <time>2021-09-21T15:03:37Z</time>
      </trkpt>
      <trkpt lat="46.54852" lon="0.33388">
        <ele>76.574832082726</ele>
        <time>2021-09-21T15:03:39Z</time>
      </trkpt>
      <trkpt lat="46.54855" lon="0.33386">
        <ele>76.19061186444</ele>
        <time>2021-09-21T15:03:41Z</time>
      </trkpt>
      <trkpt lat="46.54856" lon="0.33384">
        <ele>75.922418909147</ele>
        <time>2021-09-21T15:03:43Z</time>
      </trkpt>
      <trkpt lat="46.54858" lon="0.33382">
        <ele>76.055418725125</ele>
        <time>2021-09-21T15:03:45Z</time>
      </trkpt>
      <trkpt lat="46.5486" lon="0.3338">
        <ele>76.203338288702</ele>
        <time>2021-09-21T15:03:47Z</time>
      </trkpt>
      <trkpt lat="46.54862" lon="0.33378">
        <ele>76.150711149909</ele>
        <time>2021-09-21T15:03:49Z</time>
      </trkpt>
      <trkpt lat="46.54864" lon="0.33375">
        <ele>76.558587702923</ele>
        <time>2021-09-21T15:03:51Z</time>
      </trkpt>
      <trkpt lat="46.54866" lon="0.33373">
        <ele>76.800037686713</ele>
        <time>2021-09-21T15:03:53Z</time>
      </trkpt>
      <trkpt lat="46.54868" lon="0.33371">
        <ele>77.033840466291</ele>
        <time>2021-09-21T15:03:55Z</time>
      </trkpt>
      <trkpt lat="46.5487" lon="0.33369">
        <ele>77.050333517604</ele>
        <time>2021-09-21T15:03:57Z</time>
      </trkpt>
      <trkpt lat="46.54872" lon="0.33366">
        <ele>77.711778216995</ele>
        <time>2021-09-21T15:03:59Z</time>
      </trkpt>
      <trkpt lat="46.54873" lon="0.33364">
        <ele>77.98594680056</ele>
        <time>2021-09-21T15:04:01Z</time>
      </trkpt>
      <trkpt lat="46.54875" lon="0.33362">
        <ele>78.739832976833</ele>
        <time>2021-09-21T15:04:03Z</time>
      </trkpt>
      <trkpt lat="46.54877" lon="0.33361">
        <ele>78.974492265843</ele>
        <time>2021-09-21T15:04:05Z</time>
      </trkpt>
      <trkpt lat="46.54879" lon="0.33359">
        <ele>79.962710620835</ele>
        <time>2021-09-21T15:04:07Z</time>
      </trkpt>
      <trkpt lat="46.54881" lon="0.33357">
        <ele>80.540078462102</ele>
        <time>2021-09-21T15:04:09Z</time>
      </trkpt>
      <trkpt lat="46.54883" lon="0.33356">
        <ele>81.289494583383</ele>
        <time>2021-09-21T15:04:11Z</time>
      </trkpt>
      <trkpt lat="46.54886" lon="0.33354">
        <ele>81.816591308452</ele>
        <time>2021-09-21T15:04:13Z</time>
      </trkpt>
      <trkpt lat="46.54888" lon="0.33353">
        <ele>82.870663114823</ele>
        <time>2021-09-21T15:04:15Z</time>
      </trkpt>
      <trkpt lat="46.5489" lon="0.33351">
        <ele>83.536900577135</ele>
        <time>2021-09-21T15:04:17Z</time>
      </trkpt>
      <trkpt lat="46.54892" lon="0.3335">
        <ele>84.264761206694</ele>
        <time>2021-09-21T15:04:19Z</time>
      </trkpt>
      <trkpt lat="46.54894" lon="0.33349">
        <ele>85.404175709002</ele>
        <time>2021-09-21T15:04:21Z</time>
      </trkpt>
      <trkpt lat="46.54897" lon="0.33348">
        <ele>85.473896312527</ele>
        <time>2021-09-21T15:04:22Z</time>
      </trkpt>
      <trkpt lat="46.54899" lon="0.33346">
        <ele>86.93236053735</ele>
        <time>2021-09-21T15:04:25Z</time>
      </trkpt>
      <trkpt lat="46.54902" lon="0.33346">
        <ele>87.261924005114</ele>
        <time>2021-09-21T15:04:27Z</time>
      </trkpt>
      <trkpt lat="46.54904" lon="0.33345">
        <ele>87.821662675589</ele>
        <time>2021-09-21T15:04:29Z</time>
      </trkpt>
      <trkpt lat="46.54906" lon="0.33344">
        <ele>88.768336608075</ele>
        <time>2021-09-21T15:04:31Z</time>
      </trkpt>
      <trkpt lat="46.54908" lon="0.33343">
        <ele>89.532060425729</ele>
        <time>2021-09-21T15:04:33Z</time>
      </trkpt>
      <trkpt lat="46.5491" lon="0.33342">
        <ele>90.291325838305</ele>
        <time>2021-09-21T15:04:35Z</time>
      </trkpt>
      <trkpt lat="46.54912" lon="0.33342">
        <ele>90.895297219045</ele>
        <time>2021-09-21T15:04:37Z</time>
      </trkpt>
      <trkpt lat="46.54915" lon="0.33342">
        <ele>91.770427305251</ele>
        <time>2021-09-21T15:04:39Z</time>
      </trkpt>
      <trkpt lat="46.54917" lon="0.33342">
        <ele>91.886308776215</ele>
        <time>2021-09-21T15:04:41Z</time>
      </trkpt>
      <trkpt lat="46.5492" lon="0.33342">
        <ele>92.50612786226</ele>
        <time>2021-09-21T15:04:43Z</time>
      </trkpt>
      <trkpt lat="46.54922" lon="0.33343">
        <ele>93.080141173676</ele>
        <time>2021-09-21T15:04:46Z</time>
      </trkpt>
      <trkpt lat="46.54925" lon="0.33343">
        <ele>93.394122317433</ele>
        <time>2021-09-21T15:04:48Z</time>
      </trkpt>
      <trkpt lat="46.54928" lon="0.33344">
        <ele>93.764530463144</ele>
        <time>2021-09-21T15:04:50Z</time>
      </trkpt>
      <trkpt lat="46.54931" lon="0.33346">
        <ele>94.355116999708</ele>
        <time>2021-09-21T15:04:52Z</time>
      </trkpt>
      <trkpt lat="46.54933" lon="0.33347">
        <ele>94.598389690742</ele>
        <time>2021-09-21T15:04:54Z</time>
      </trkpt>
      <trkpt lat="46.54934" lon="0.33347">
        <ele>94.965098734945</ele>
        <time>2021-09-21T15:04:56Z</time>
      </trkpt>
      <trkpt lat="46.54937" lon="0.33347">
        <ele>95.67600912042</ele>
        <time>2021-09-21T15:04:58Z</time>
      </trkpt>
      <trkpt lat="46.54939" lon="0.33347">
        <ele>95.372691764496</ele>
        <time>2021-09-21T15:05:00Z</time>
      </trkpt>
      <trkpt lat="46.54941" lon="0.33348">
        <ele>95.934388971888</ele>
        <time>2021-09-21T15:05:02Z</time>
      </trkpt>
      <trkpt lat="46.54943" lon="0.3335">
        <ele>96.473065190949</ele>
        <time>2021-09-21T15:05:07Z</time>
      </trkpt>
      <trkpt lat="46.54944" lon="0.33353">
        <ele>95.578194091097</ele>
        <time>2021-09-21T15:05:09Z</time>
      </trkpt>
      <trkpt lat="46.54946" lon="0.33356">
        <ele>95.054131869227</ele>
        <time>2021-09-21T15:05:11Z</time>
      </trkpt>
      <trkpt lat="46.54947" lon="0.33359">
        <ele>94.999481680803</ele>
        <time>2021-09-21T15:05:14Z</time>
      </trkpt>
      <trkpt lat="46.54949" lon="0.33363">
        <ele>94.522739063948</ele>
        <time>2021-09-21T15:05:16Z</time>
      </trkpt>
      <trkpt lat="46.54951" lon="0.33366">
        <ele>93.910928118043</ele>
        <time>2021-09-21T15:05:18Z</time>
      </trkpt>
      <trkpt lat="46.54953" lon="0.33369">
        <ele>93.613008291461</ele>
        <time>2021-09-21T15:05:21Z</time>
      </trkpt>
      <trkpt lat="46.54954" lon="0.33372">
        <ele>93.182365826331</ele>
        <time>2021-09-21T15:05:23Z</time>
      </trkpt>
      <trkpt lat="46.54955" lon="0.33374">
        <ele>93.043873604387</ele>
        <time>2021-09-21T15:05:24Z</time>
      </trkpt>
      <trkpt lat="46.54956" lon="0.33378">
        <ele>91.971326855943</ele>
        <time>2021-09-21T15:05:26Z</time>
      </trkpt>
      <trkpt lat="46.54958" lon="0.33381">
        <ele>91.897004508413</ele>
        <time>2021-09-21T15:05:27Z</time>
      </trkpt>
      <trkpt lat="46.5496" lon="0.33383">
        <ele>91.283891272731</ele>
        <time>2021-09-21T15:05:30Z</time>
      </trkpt>
      <trkpt lat="46.54961" lon="0.33386">
        <ele>90.871970271692</ele>
        <time>2021-09-21T15:05:32Z</time>
      </trkpt>
      <trkpt lat="46.54963" lon="0.33389">
        <ele>89.791266314685</ele>
        <time>2021-09-21T15:05:34Z</time>
      </trkpt>
      <trkpt lat="46.54964" lon="0.33391">
        <ele>89.610614972189</ele>
        <time>2021-09-21T15:05:35Z</time>
      </trkpt>
      <trkpt lat="46.54965" lon="0.33394">
        <ele>88.944077124819</ele>
        <time>2021-09-21T15:05:37Z</time>
      </trkpt>
      <trkpt lat="46.54967" lon="0.33399">
        <ele>88.444666076452</ele>
        <time>2021-09-21T15:05:39Z</time>
      </trkpt>
      <trkpt lat="46.54968" lon="0.33401">
        <ele>87.801205700263</ele>
        <time>2021-09-21T15:05:41Z</time>
      </trkpt>
      <trkpt lat="46.5497" lon="0.33402">
        <ele>87.21443563886</ele>
        <time>2021-09-21T15:05:43Z</time>
      </trkpt>
      <trkpt lat="46.54971" lon="0.33405">
        <ele>86.520889405161</ele>
        <time>2021-09-21T15:05:47Z</time>
      </trkpt>
      <trkpt lat="46.54971" lon="0.33408">
        <ele>85.552262287587</ele>
        <time>2021-09-21T15:05:50Z</time>
      </trkpt>
      <trkpt lat="46.54971" lon="0.33411">
        <ele>84.811532298103</ele>
        <time>2021-09-21T15:05:52Z</time>
      </trkpt>
      <trkpt lat="46.54973" lon="0.33414">
        <ele>84.161977406591</ele>
        <time>2021-09-21T15:05:55Z</time>
      </trkpt>
      <trkpt lat="46.54975" lon="0.33415">
        <ele>83.367703876458</ele>
        <time>2021-09-21T15:05:58Z</time>
      </trkpt>
      <trkpt lat="46.54976" lon="0.33418">
        <ele>83.268876913004</ele>
        <time>2021-09-21T15:06:00Z</time>
      </trkpt>
      <trkpt lat="46.54978" lon="0.3342">
        <ele>82.790326235816</ele>
        <time>2021-09-21T15:06:02Z</time>
      </trkpt>
      <trkpt lat="46.54981" lon="0.33422">
        <ele>82.747928969562</ele>
        <time>2021-09-21T15:06:04Z</time>
      </trkpt>
      <trkpt lat="46.54983" lon="0.33422">
        <ele>82.615671240725</ele>
        <time>2021-09-21T15:06:06Z</time>
      </trkpt>
      <trkpt lat="46.54984" lon="0.33424">
        <ele>82.521408545785</ele>
        <time>2021-09-21T15:06:08Z</time>
      </trkpt>
      <trkpt lat="46.54986" lon="0.33426">
        <ele>82.517648796551</ele>
        <time>2021-09-21T15:06:11Z</time>
      </trkpt>
      <trkpt lat="46.54983" lon="0.33428">
        <ele>82.337168673985</ele>
        <time>2021-09-21T15:06:17Z</time>
      </trkpt>
      <trkpt lat="46.54983" lon="0.33431">
        <ele>81.879237038083</ele>
        <time>2021-09-21T15:06:24Z</time>
      </trkpt>
      <trkpt lat="46.54982" lon="0.33434">
        <ele>80.883389149792</ele>
        <time>2021-09-21T15:06:31Z</time>
      </trkpt>
      <trkpt lat="46.54981" lon="0.33435">
        <ele>80.322360976599</ele>
        <time>2021-09-21T15:06:38Z</time>
      </trkpt>
      <trkpt lat="46.54981" lon="0.3344">
        <ele>79.536661063321</ele>
        <time>2021-09-21T15:07:19Z</time>
      </trkpt>
      <trkpt lat="46.54981" lon="0.33437">
        <ele>78.565317947417</ele>
        <time>2021-09-21T15:07:26Z</time>
      </trkpt>
      <trkpt lat="46.54983" lon="0.33437">
        <ele>79.024814193137</ele>
        <time>2021-09-21T15:07:33Z</time>
      </trkpt>
      <trkpt lat="46.54982" lon="0.33434">
        <ele>79.744855853729</ele>
        <time>2021-09-21T15:07:55Z</time>
      </trkpt>
      <trkpt lat="46.54978" lon="0.33434">
        <ele>79.043743685819</ele>
        <time>2021-09-21T15:07:57Z</time>
      </trkpt>
      <trkpt lat="46.54976" lon="0.33435">
        <ele>77.937309565023</ele>
        <time>2021-09-21T15:08:01Z</time>
      </trkpt>
      <trkpt lat="46.54976" lon="0.33438">
        <ele>77.96887590643</ele>
        <time>2021-09-21T15:08:03Z</time>
      </trkpt>
      <trkpt lat="46.54977" lon="0.3344">
        <ele>78.174701394513</ele>
        <time>2021-09-21T15:08:05Z</time>
      </trkpt>
      <trkpt lat="46.54978" lon="0.33442">
        <ele>77.585233624093</ele>
        <time>2021-09-21T15:08:06Z</time>
      </trkpt>
      <trkpt lat="46.54979" lon="0.33446">
        <ele>77.626376437955</ele>
        <time>2021-09-21T15:08:09Z</time>
      </trkpt>
      <trkpt lat="46.54981" lon="0.33447">
        <ele>77.602629511617</ele>
        <time>2021-09-21T15:08:11Z</time>
      </trkpt>
      <trkpt lat="46.54982" lon="0.3345">
        <ele>77.158135136589</ele>
        <time>2021-09-21T15:08:14Z</time>
      </trkpt>
      <trkpt lat="46.54982" lon="0.33453">
        <ele>77.166268060915</ele>
        <time>2021-09-21T15:08:16Z</time>
      </trkpt>
      <trkpt lat="46.54982" lon="0.33456">
        <ele>76.966867155395</ele>
        <time>2021-09-21T15:08:18Z</time>
      </trkpt>
      <trkpt lat="46.54982" lon="0.33459">
        <ele>76.846731195226</ele>
        <time>2021-09-21T15:08:20Z</time>
      </trkpt>
      <trkpt lat="46.54983" lon="0.33462">
        <ele>76.329615304247</ele>
        <time>2021-09-21T15:08:23Z</time>
      </trkpt>
      <trkpt lat="46.54983" lon="0.33465">
        <ele>76.554620807059</ele>
        <time>2021-09-21T15:08:25Z</time>
      </trkpt>
      <trkpt lat="46.54984" lon="0.33468">
        <ele>76.314497153275</ele>
        <time>2021-09-21T15:08:27Z</time>
      </trkpt>
      <trkpt lat="46.54985" lon="0.33471">
        <ele>75.921726373024</ele>
        <time>2021-09-21T15:08:29Z</time>
      </trkpt>
      <trkpt lat="46.54986" lon="0.33474">
        <ele>75.656060760841</ele>
        <time>2021-09-21T15:08:31Z</time>
      </trkpt>
      <trkpt lat="46.54987" lon="0.33478">
        <ele>75.301627431065</ele>
        <time>2021-09-21T15:08:34Z</time>
      </trkpt>
      <trkpt lat="46.54988" lon="0.33481">
        <ele>75.277876722626</ele>
        <time>2021-09-21T15:08:36Z</time>
      </trkpt>
      <trkpt lat="46.54988" lon="0.33483">
        <ele>75.80914918147</ele>
        <time>2021-09-21T15:08:37Z</time>
      </trkpt>
      <trkpt lat="46.54989" lon="0.33487">
        <ele>74.996167500503</ele>
        <time>2021-09-21T15:08:39Z</time>
      </trkpt>
      <trkpt lat="46.54989" lon="0.33491">
        <ele>74.71661421936</ele>
        <time>2021-09-21T15:08:43Z</time>
      </trkpt>
      <trkpt lat="46.54989" lon="0.33495">
        <ele>74.468379285187</ele>
        <time>2021-09-21T15:08:45Z</time>
      </trkpt>
      <trkpt lat="46.5499" lon="0.33498">
        <ele>74.539006786421</ele>
        <time>2021-09-21T15:08:47Z</time>
      </trkpt>
      <trkpt lat="46.54992" lon="0.33502">
        <ele>74.408014632761</ele>
        <time>2021-09-21T15:08:49Z</time>
      </trkpt>
      <trkpt lat="46.54992" lon="0.33506">
        <ele>74.610529604368</ele>
        <time>2021-09-21T15:08:51Z</time>
      </trkpt>
      <trkpt lat="46.54993" lon="0.3351">
        <ele>74.841373697855</ele>
        <time>2021-09-21T15:08:53Z</time>
      </trkpt>
      <trkpt lat="46.54994" lon="0.33513">
        <ele>74.22411279846</ele>
        <time>2021-09-21T15:08:55Z</time>
      </trkpt>
      <trkpt lat="46.54994" lon="0.33517">
        <ele>74.043082064018</ele>
        <time>2021-09-21T15:08:57Z</time>
      </trkpt>
      <trkpt lat="46.54995" lon="0.33521">
        <ele>74.318689584732</ele>
        <time>2021-09-21T15:08:59Z</time>
      </trkpt>
      <trkpt lat="46.54996" lon="0.33524">
        <ele>74.509162599221</ele>
        <time>2021-09-21T15:09:01Z</time>
      </trkpt>
      <trkpt lat="46.54997" lon="0.33528">
        <ele>74.55905147735</ele>
        <time>2021-09-21T15:09:03Z</time>
      </trkpt>
      <trkpt lat="46.54998" lon="0.33532">
        <ele>74.608780730516</ele>
        <time>2021-09-21T15:09:05Z</time>
      </trkpt>
      <trkpt lat="46.54999" lon="0.33535">
        <ele>74.698115536943</ele>
        <time>2021-09-21T15:09:07Z</time>
      </trkpt>
      <trkpt lat="46.55" lon="0.33539">
        <ele>74.478172311559</ele>
        <time>2021-09-21T15:09:09Z</time>
      </trkpt>
      <trkpt lat="46.55" lon="0.33542">
        <ele>74.822100452147</ele>
        <time>2021-09-21T15:09:11Z</time>
      </trkpt>
      <trkpt lat="46.55" lon="0.33547">
        <ele>74.61329933349</ele>
        <time>2021-09-21T15:09:14Z</time>
      </trkpt>
      <trkpt lat="46.55002" lon="0.33549">
        <ele>74.61222788319</ele>
        <time>2021-09-21T15:09:15Z</time>
      </trkpt>
      <trkpt lat="46.55002" lon="0.33552">
        <ele>74.51125355158</ele>
        <time>2021-09-21T15:09:17Z</time>
      </trkpt>
      <trkpt lat="46.55003" lon="0.33556">
        <ele>74.571641727351</ele>
        <time>2021-09-21T15:09:19Z</time>
      </trkpt>
      <trkpt lat="46.55003" lon="0.33559">
        <ele>74.571799950674</ele>
        <time>2021-09-21T15:09:21Z</time>
      </trkpt>
      <trkpt lat="46.55004" lon="0.33563">
        <ele>74.37567143701</ele>
        <time>2021-09-21T15:09:23Z</time>
      </trkpt>
      <trkpt lat="46.55004" lon="0.33566">
        <ele>74.6630291529</ele>
        <time>2021-09-21T15:09:25Z</time>
      </trkpt>
      <trkpt lat="46.55005" lon="0.3357">
        <ele>74.443657883443</ele>
        <time>2021-09-21T15:09:27Z</time>
      </trkpt>
      <trkpt lat="46.55006" lon="0.33573">
        <ele>74.467761480249</ele>
        <time>2021-09-21T15:09:29Z</time>
      </trkpt>
      <trkpt lat="46.55008" lon="0.33571">
        <ele>74.47390107438</ele>
        <time>2021-09-21T15:09:38Z</time>
      </trkpt>
      <trkpt lat="46.55009" lon="0.33571">
        <ele>74.247034727596</ele>
        <time>2021-09-21T15:09:45Z</time>
      </trkpt>
      <trkpt lat="46.55012" lon="0.33572">
        <ele>74.121544285677</ele>
        <time>2021-09-21T15:09:56Z</time>
      </trkpt>
      <trkpt lat="46.55014" lon="0.33571">
        <ele>74.209081031382</ele>
        <time>2021-09-21T15:09:58Z</time>
      </trkpt>
      <trkpt lat="46.55016" lon="0.33571">
        <ele>74.683758755215</ele>
        <time>2021-09-21T15:10:01Z</time>
      </trkpt>
      <trkpt lat="46.55017" lon="0.33573">
        <ele>74.345712758601</ele>
        <time>2021-09-21T15:10:03Z</time>
      </trkpt>
      <trkpt lat="46.55018" lon="0.33575">
        <ele>74.022525092587</ele>
        <time>2021-09-21T15:10:06Z</time>
      </trkpt>
      <trkpt lat="46.55019" lon="0.33579">
        <ele>73.886005212553</ele>
        <time>2021-09-21T15:10:09Z</time>
      </trkpt>
      <trkpt lat="46.55018" lon="0.33581">
        <ele>74.076030584984</ele>
        <time>2021-09-21T15:10:12Z</time>
      </trkpt>
      <trkpt lat="46.55019" lon="0.33584">
        <ele>74.190921849571</ele>
        <time>2021-09-21T15:10:14Z</time>
      </trkpt>
      <trkpt lat="46.55019" lon="0.33588">
        <ele>74.373791497201</ele>
        <time>2021-09-21T15:10:16Z</time>
      </trkpt>
      <trkpt lat="46.5502" lon="0.33592">
        <ele>74.233032345772</ele>
        <time>2021-09-21T15:10:19Z</time>
      </trkpt>
      <trkpt lat="46.55021" lon="0.33595">
        <ele>74.085744041018</ele>
        <time>2021-09-21T15:10:21Z</time>
      </trkpt>
      <trkpt lat="46.55021" lon="0.33598">
        <ele>74.133127121255</ele>
        <time>2021-09-21T15:10:23Z</time>
      </trkpt>
      <trkpt lat="46.55022" lon="0.33601">
        <ele>73.77266476769</ele>
        <time>2021-09-21T15:10:25Z</time>
      </trkpt>
      <trkpt lat="46.55022" lon="0.33604">
        <ele>74.242390193976</ele>
        <time>2021-09-21T15:10:27Z</time>
      </trkpt>
      <trkpt lat="46.55022" lon="0.33607">
        <ele>73.827502649277</ele>
        <time>2021-09-21T15:10:29Z</time>
      </trkpt>
      <trkpt lat="46.55021" lon="0.3361">
        <ele>74.140275625512</ele>
        <time>2021-09-21T15:10:33Z</time>
      </trkpt>
      <trkpt lat="46.55021" lon="0.33613">
        <ele>73.86950381659</ele>
        <time>2021-09-21T15:10:35Z</time>
      </trkpt>
      <trkpt lat="46.5502" lon="0.33616">
        <ele>74.001846122555</ele>
        <time>2021-09-21T15:10:38Z</time>
      </trkpt>
      <trkpt lat="46.5502" lon="0.33618">
        <ele>74.204811026342</ele>
        <time>2021-09-21T15:10:40Z</time>
      </trkpt>
      <trkpt lat="46.5502" lon="0.33623">
        <ele>74.150099961087</ele>
        <time>2021-09-21T15:10:43Z</time>
      </trkpt>
      <trkpt lat="46.55021" lon="0.33627">
        <ele>74.073999136686</ele>
        <time>2021-09-21T15:10:45Z</time>
      </trkpt>
      <trkpt lat="46.55022" lon="0.33632">
        <ele>74.118736528791</ele>
        <time>2021-09-21T15:10:47Z</time>
      </trkpt>
      <trkpt lat="46.55021" lon="0.33635">
        <ele>74.237520117313</ele>
        <time>2021-09-21T15:10:49Z</time>
      </trkpt>
      <trkpt lat="46.5502" lon="0.33639">
        <ele>74.167751076631</ele>
        <time>2021-09-21T15:10:51Z</time>
      </trkpt>
      <trkpt lat="46.55019" lon="0.33644">
        <ele>74.17569229845</ele>
        <time>2021-09-21T15:10:54Z</time>
      </trkpt>
      <trkpt lat="46.55018" lon="0.33646">
        <ele>74.565924546681</ele>
        <time>2021-09-21T15:10:56Z</time>
      </trkpt>
      <trkpt lat="46.55017" lon="0.3365">
        <ele>74.834514748305</ele>
        <time>2021-09-21T15:10:58Z</time>
      </trkpt>
      <trkpt lat="46.55016" lon="0.33652">
        <ele>74.862999070436</ele>
        <time>2021-09-21T15:11:00Z</time>
      </trkpt>
      <trkpt lat="46.55014" lon="0.33654">
        <ele>73.983342768624</ele>
        <time>2021-09-21T15:11:02Z</time>
      </trkpt>
      <trkpt lat="46.55014" lon="0.33657">
        <ele>73.903128355742</ele>
        <time>2021-09-21T15:11:04Z</time>
      </trkpt>
      <trkpt lat="46.55014" lon="0.3366">
        <ele>74.303870690987</ele>
        <time>2021-09-21T15:11:06Z</time>
      </trkpt>
      <trkpt lat="46.55013" lon="0.33664">
        <ele>74.647114136256</ele>
        <time>2021-09-21T15:11:08Z</time>
      </trkpt>
      <trkpt lat="46.55012" lon="0.33668">
        <ele>74.143136117607</ele>
        <time>2021-09-21T15:11:11Z</time>
      </trkpt>
      <trkpt lat="46.55012" lon="0.3367">
        <ele>74.05787715409</ele>
        <time>2021-09-21T15:11:13Z</time>
      </trkpt>
      <trkpt lat="46.55013" lon="0.33675">
        <ele>74.191078905948</ele>
        <time>2021-09-21T15:11:15Z</time>
      </trkpt>
      <trkpt lat="46.55013" lon="0.33678">
        <ele>74.07581975311</ele>
        <time>2021-09-21T15:11:16Z</time>
      </trkpt>
      <trkpt lat="46.55013" lon="0.33681">
        <ele>73.708561577834</ele>
        <time>2021-09-21T15:11:17Z</time>
      </trkpt>
      <trkpt lat="46.55013" lon="0.33684">
        <ele>73.963949555531</ele>
        <time>2021-09-21T15:11:18Z</time>
      </trkpt>
      <trkpt lat="46.55012" lon="0.33688">
        <ele>73.760488605127</ele>
        <time>2021-09-21T15:11:20Z</time>
      </trkpt>
      <trkpt lat="46.55011" lon="0.33693">
        <ele>73.402589120902</ele>
        <time>2021-09-21T15:11:22Z</time>
      </trkpt>
      <trkpt lat="46.55012" lon="0.33695">
        <ele>73.557022552006</ele>
        <time>2021-09-21T15:11:23Z</time>
      </trkpt>
      <trkpt lat="46.55012" lon="0.337">
        <ele>73.511082645506</ele>
        <time>2021-09-21T15:11:25Z</time>
      </trkpt>
      <trkpt lat="46.55012" lon="0.33703">
        <ele>73.273235994391</ele>
        <time>2021-09-21T15:11:27Z</time>
      </trkpt>
      <trkpt lat="46.55012" lon="0.33707">
        <ele>73.435316306539</ele>
        <time>2021-09-21T15:11:29Z</time>
      </trkpt>
      <trkpt lat="46.55012" lon="0.33711">
        <ele>73.707285760902</ele>
        <time>2021-09-21T15:11:31Z</time>
      </trkpt>
      <trkpt lat="46.55011" lon="0.33715">
        <ele>74.053233842365</ele>
        <time>2021-09-21T15:11:34Z</time>
      </trkpt>
      <trkpt lat="46.55011" lon="0.33719">
        <ele>73.924506841227</ele>
        <time>2021-09-21T15:11:36Z</time>
      </trkpt>
      <trkpt lat="46.55011" lon="0.33722">
        <ele>74.276186838746</ele>
        <time>2021-09-21T15:11:39Z</time>
      </trkpt>
      <trkpt lat="46.5501" lon="0.33725">
        <ele>73.929087405093</ele>
        <time>2021-09-21T15:11:41Z</time>
      </trkpt>
      <trkpt lat="46.5501" lon="0.33729">
        <ele>73.646417648531</ele>
        <time>2021-09-21T15:11:43Z</time>
      </trkpt>
      <trkpt lat="46.5501" lon="0.33733">
        <ele>73.475475319661</ele>
        <time>2021-09-21T15:11:45Z</time>
      </trkpt>
      <trkpt lat="46.55009" lon="0.33738">
        <ele>73.885096034966</ele>
        <time>2021-09-21T15:11:47Z</time>
      </trkpt>
      <trkpt lat="46.55009" lon="0.33742">
        <ele>73.34606775362</ele>
        <time>2021-09-21T15:11:49Z</time>
      </trkpt>
      <trkpt lat="46.55009" lon="0.33745">
        <ele>73.133615830913</ele>
        <time>2021-09-21T15:11:51Z</time>
      </trkpt>
      <trkpt lat="46.55008" lon="0.33751">
        <ele>73.211653359234</ele>
        <time>2021-09-21T15:11:54Z</time>
      </trkpt>
      <trkpt lat="46.55007" lon="0.33754">
        <ele>73.818651605397</ele>
        <time>2021-09-21T15:11:56Z</time>
      </trkpt>
      <trkpt lat="46.55006" lon="0.33757">
        <ele>73.606176117435</ele>
        <time>2021-09-21T15:11:58Z</time>
      </trkpt>
      <trkpt lat="46.55005" lon="0.33761">
        <ele>73.614740133286</ele>
        <time>2021-09-21T15:12:00Z</time>
      </trkpt>
      <trkpt lat="46.55005" lon="0.33764">
        <ele>73.485353232361</ele>
        <time>2021-09-21T15:12:02Z</time>
      </trkpt>
      <trkpt lat="46.55005" lon="0.33767">
        <ele>73.804893096909</ele>
        <time>2021-09-21T15:12:05Z</time>
      </trkpt>
      <trkpt lat="46.55003" lon="0.3377">
        <ele>73.562649589963</ele>
        <time>2021-09-21T15:12:07Z</time>
      </trkpt>
      <trkpt lat="46.55002" lon="0.33774">
        <ele>73.396118928678</ele>
        <time>2021-09-21T15:12:10Z</time>
      </trkpt>
      <trkpt lat="46.55002" lon="0.33777">
        <ele>73.724953097291</ele>
        <time>2021-09-21T15:12:12Z</time>
      </trkpt>
      <trkpt lat="46.55" lon="0.33779">
        <ele>73.875053491443</ele>
        <time>2021-09-21T15:12:21Z</time>
      </trkpt>
      <trkpt lat="46.54999" lon="0.33782">
        <ele>74.401797266677</ele>
        <time>2021-09-21T15:12:33Z</time>
      </trkpt>
      <trkpt lat="46.54997" lon="0.33782">
        <ele>73.798724975437</ele>
        <time>2021-09-21T15:12:35Z</time>
      </trkpt>
      <trkpt lat="46.54995" lon="0.33783">
        <ele>73.85391437728</ele>
        <time>2021-09-21T15:12:38Z</time>
      </trkpt>
      <trkpt lat="46.54993" lon="0.33782">
        <ele>73.772901827469</ele>
        <time>2021-09-21T15:12:40Z</time>
      </trkpt>
      <trkpt lat="46.54991" lon="0.3378">
        <ele>73.877439782955</ele>
        <time>2021-09-21T15:12:42Z</time>
      </trkpt>
      <trkpt lat="46.5499" lon="0.33778">
        <ele>73.487915005535</ele>
        <time>2021-09-21T15:12:44Z</time>
      </trkpt>
      <trkpt lat="46.54988" lon="0.33776">
        <ele>73.817845295183</ele>
        <time>2021-09-21T15:12:47Z</time>
      </trkpt>
      <trkpt lat="46.54986" lon="0.33774">
        <ele>73.563447778113</ele>
        <time>2021-09-21T15:12:50Z</time>
      </trkpt>
      <trkpt lat="46.54985" lon="0.33771">
        <ele>73.5670577446</ele>
        <time>2021-09-21T15:12:52Z</time>
      </trkpt>
      <trkpt lat="46.54984" lon="0.33769">
        <ele>73.683038844727</ele>
        <time>2021-09-21T15:12:54Z</time>
      </trkpt>
      <trkpt lat="46.54982" lon="0.33768">
        <ele>73.767499212176</ele>
        <time>2021-09-21T15:12:56Z</time>
      </trkpt>
      <trkpt lat="46.54982" lon="0.33765">
        <ele>73.894924945198</ele>
        <time>2021-09-21T15:12:59Z</time>
      </trkpt>
      <trkpt lat="46.54982" lon="0.33761">
        <ele>73.89925543312</ele>
        <time>2021-09-21T15:13:02Z</time>
      </trkpt>
      <trkpt lat="46.54982" lon="0.33757">
        <ele>73.637499718927</ele>
        <time>2021-09-21T15:13:04Z</time>
      </trkpt>
      <trkpt lat="46.54982" lon="0.33755">
        <ele>74.029648989439</ele>
        <time>2021-09-21T15:13:06Z</time>
      </trkpt>
      <trkpt lat="46.54983" lon="0.33752">
        <ele>73.506689479575</ele>
        <time>2021-09-21T15:13:08Z</time>
      </trkpt>
      <trkpt lat="46.54983" lon="0.33749">
        <ele>73.737485143356</ele>
        <time>2021-09-21T15:13:15Z</time>
      </trkpt>
      <trkpt lat="46.54985" lon="0.33747">
        <ele>73.927285428159</ele>
        <time>2021-09-21T15:13:29Z</time>
      </trkpt>
      <trkpt lat="46.54986" lon="0.33748">
        <ele>73.764785083942</ele>
        <time>2021-09-21T15:13:46Z</time>
      </trkpt>
      <trkpt lat="46.54985" lon="0.3375">
        <ele>73.745176446624</ele>
        <time>2021-09-21T15:13:57Z</time>
      </trkpt>
      <trkpt lat="46.54986" lon="0.33751">
        <ele>73.815880249254</ele>
        <time>2021-09-21T15:14:06Z</time>
      </trkpt>
      <trkpt lat="46.54985" lon="0.3375">
        <ele>73.755207891576</ele>
        <time>2021-09-21T15:14:17Z</time>
      </trkpt>
      <trkpt lat="46.54979" lon="0.33747">
        <ele>73.49977618549</ele>
        <time>2021-09-21T15:15:21Z</time>
      </trkpt>
      <trkpt lat="46.54981" lon="0.33748">
        <ele>73.474260553718</ele>
        <time>2021-09-21T15:17:52Z</time>
      </trkpt>
      <trkpt lat="46.54984" lon="0.33747">
        <ele>73.597877862863</ele>
        <time>2021-09-21T15:17:57Z</time>
      </trkpt>
      <trkpt lat="46.54985" lon="0.33745">
        <ele>73.494433042593</ele>
        <time>2021-09-21T15:18:01Z</time>
      </trkpt>
      <trkpt lat="46.54984" lon="0.33747">
        <ele>73.712902626023</ele>
        <time>2021-09-21T15:18:06Z</time>
      </trkpt>
      <trkpt lat="46.54983" lon="0.33751">
        <ele>74.036833386868</ele>
        <time>2021-09-21T15:18:08Z</time>
      </trkpt>
      <trkpt lat="46.54983" lon="0.33755">
        <ele>73.676051466726</ele>
        <time>2021-09-21T15:18:09Z</time>
      </trkpt>
      <trkpt lat="46.54982" lon="0.33758">
        <ele>73.621679486707</ele>
        <time>2021-09-21T15:18:11Z</time>
      </trkpt>
      <trkpt lat="46.54981" lon="0.33764">
        <ele>73.839354421012</ele>
        <time>2021-09-21T15:18:13Z</time>
      </trkpt>
      <trkpt lat="46.5498" lon="0.33768">
        <ele>74.66313014552</ele>
        <time>2021-09-21T15:18:14Z</time>
      </trkpt>
      <trkpt lat="46.54981" lon="0.33772">
        <ele>74.042423474602</ele>
        <time>2021-09-21T15:18:15Z</time>
      </trkpt>
      <trkpt lat="46.54983" lon="0.33775">
        <ele>73.684233516455</ele>
        <time>2021-09-21T15:18:16Z</time>
      </trkpt>
      <trkpt lat="46.54984" lon="0.33777">
        <ele>73.804349528626</ele>
        <time>2021-09-21T15:18:17Z</time>
      </trkpt>
      <trkpt lat="46.54987" lon="0.33779">
        <ele>73.451461074874</ele>
        <time>2021-09-21T15:18:18Z</time>
      </trkpt>
      <trkpt lat="46.54989" lon="0.3378">
        <ele>73.473937758245</ele>
        <time>2021-09-21T15:18:19Z</time>
      </trkpt>
      <trkpt lat="46.54992" lon="0.3378">
        <ele>73.72036150936</ele>
        <time>2021-09-21T15:18:20Z</time>
      </trkpt>
      <trkpt lat="46.54995" lon="0.33781">
        <ele>73.385356824845</ele>
        <time>2021-09-21T15:18:41Z</time>
      </trkpt>
      <trkpt lat="46.55" lon="0.3378">
        <ele>73.471470887773</ele>
        <time>2021-09-21T15:18:43Z</time>
      </trkpt>
      <trkpt lat="46.55002" lon="0.33776">
        <ele>73.901279979385</ele>
        <time>2021-09-21T15:18:44Z</time>
      </trkpt>
      <trkpt lat="46.55004" lon="0.33769">
        <ele>73.926865367219</ele>
        <time>2021-09-21T15:18:45Z</time>
      </trkpt>
      <trkpt lat="46.55005" lon="0.33763">
        <ele>73.558192597702</ele>
        <time>2021-09-21T15:18:46Z</time>
      </trkpt>
      <trkpt lat="46.55006" lon="0.33756">
        <ele>73.361774913967</ele>
        <time>2021-09-21T15:18:47Z</time>
      </trkpt>
      <trkpt lat="46.55007" lon="0.33748">
        <ele>73.990084640682</ele>
        <time>2021-09-21T15:18:48Z</time>
      </trkpt>
      <trkpt lat="46.55008" lon="0.3374">
        <ele>73.961546877399</ele>
        <time>2021-09-21T15:18:49Z</time>
      </trkpt>
      <trkpt lat="46.55009" lon="0.33733">
        <ele>73.734389171936</ele>
        <time>2021-09-21T15:18:50Z</time>
      </trkpt>
      <trkpt lat="46.55009" lon="0.33728">
        <ele>73.517871403135</ele>
        <time>2021-09-21T15:18:51Z</time>
      </trkpt>
      <trkpt lat="46.5501" lon="0.33724">
        <ele>73.582086421549</ele>
        <time>2021-09-21T15:18:52Z</time>
      </trkpt>
      <trkpt lat="46.55011" lon="0.33719">
        <ele>73.570541586727</ele>
        <time>2021-09-21T15:18:53Z</time>
      </trkpt>
      <trkpt lat="46.55012" lon="0.33715">
        <ele>73.554825523868</ele>
        <time>2021-09-21T15:18:54Z</time>
      </trkpt>
      <trkpt lat="46.55012" lon="0.3371">
        <ele>73.471769736148</ele>
        <time>2021-09-21T15:18:55Z</time>
      </trkpt>
      <trkpt lat="46.55013" lon="0.33705">
        <ele>73.057325537317</ele>
        <time>2021-09-21T15:18:56Z</time>
      </trkpt>
      <trkpt lat="46.55014" lon="0.33698">
        <ele>73.377528132871</ele>
        <time>2021-09-21T15:18:57Z</time>
      </trkpt>
      <trkpt lat="46.55015" lon="0.33691">
        <ele>73.573003186844</ele>
        <time>2021-09-21T15:18:58Z</time>
      </trkpt>
    </trkseg>
  </trk>
</gpx>